# Wetter Temperatur Luftdruck Luftfeuchtigkeit Sichtweite Windgeschwindigkeit Windrichtung Zeit
1 Clouds -2 1006 89 10000 1.16 304 11:50 22.04.2021
2 Clouds -2 1012 80 10000 6.69 160 11:27 22.04.2021
3 Clouds -2 1007 89 10000 0.97 262 10:48 22.04.2021
4 Clouds -2 1007 89 10000 0.97 262 10:30 22.04.2021
5 Clouds -1 1008 89 10000 1.84 178 09:59 22.04.2021
6 Clouds -1 1009 89 10000 1.84 178 09:34 22.04.2021
7 Clouds -1 1010 88 10000 1.5 144 08:48 22.04.2021
8 Mist -1 1016 100 6437 2.57 50 08:23 22.04.2021
9 Clouds -1 1011 88 10000 0.73 178 07:49 22.04.2021
10 Mist -1 1016 100 6437 2.57 50 07:30 22.04.2021
11 Clouds -1 1012 88 10000 1 146 06:43 22.04.2021
12 Clouds -1 1013 88 10000 0.98 92 05:54 22.04.2021
13 Snow -1 1017 100 6437 1.41 356 05:20 22.04.2021
14 Snow -1 1014 88 291 1.32 337 01:58 22.04.2021
15 Snow 0 1018 100 2012 6.69 330 23:55 21.04.2021
16 Snow 0 1018 93 6437 5.66 320 23:37 21.04.2021
17 Clouds 1 1015 70 3426 1.79 279 22:48 21.04.2021
18 Snow 1 1019 75 10000 2.06 290 22:25 21.04.2021
19 Clouds 1 1015 69 10000 2.64 343 21:59 21.04.2021
20 Clouds 1 1015 68 10000 1.34 286 21:40 21.04.2021
21 Clouds 1 1016 66 10000 0.89 277 21:19 21.04.2021
22 Clouds 0 1016 60 10000 0.89 292 20:24 21.04.2021
23 Clouds 1 1017 58 10000 0.45 288 19:46 21.04.2021
24 Clouds 1 1017 60 10000 1.34 290 19:27 21.04.2021
25 Clouds 0 1021 69 10000 1.54 170 18:51 21.04.2021
26 Clouds 0 1021 69 10000 1.54 170 18:33 21.04.2021
27 Clouds 0 1023 74 10000 1.34 19 17:58 21.04.2021
28 Clouds -1 1023 75 10000 0.89 0 17:39 21.04.2021
29 Clouds -1 1023 77 10000 0.89 0 17:20 21.04.2021
30 Clouds -1 1023 81 10000 1.34 5 16:38 21.04.2021
31 Clouds -2 1024 82 10000 1.34 5 15:46 21.04.2021
32 Clouds -2 1024 82 10000 1.34 5 15:20 21.04.2021
33 Clouds -2 1018 76 10000 1.25 24 14:44 21.04.2021
34 Clouds -2 1018 78 10000 0.42 70 14:24 21.04.2021
35 Clouds -2 1018 78 10000 0.42 70 13:49 21.04.2021
36 Clouds -2 1018 77 6673 1 128 13:21 21.04.2021
37 Clouds -2 1019 72 6966 1 128 12:40 21.04.2021
38 Clouds -2 1019 72 4697 0.86 142 11:59 21.04.2021
39 Clouds -2 1019 69 4697 0.86 142 11:41 21.04.2021
40 Clouds -2 1019 71 4697 0.45 161 11:41 21.04.2021
41 Clouds -2 1023 86 10000 5.14 130 11:22 21.04.2021
42 Clouds -2 1019 63 7969 1.02 132 10:38 21.04.2021
43 Clouds -1 1019 60 10000 0.45 157 09:56 21.04.2021
44 Clouds -1 1020 53 10000 0.89 119 09:20 21.04.2021
45 Clouds -1 1020 51 10000 0.24 91 08:42 21.04.2021
46 Clouds -1 1020 50 10000 0.38 208 08:23 21.04.2021
47 Clouds -1 1024 69 10000 2.06 160 07:43 21.04.2021
48 Clouds -1 1024 69 10000 1.05 214 07:21 21.04.2021
49 Clouds -1 1020 47 10000 1.46 219 05:53 21.04.2021
50 Clouds 1 1018 39 10000 1.34 36 01:50 21.04.2021
51 Clouds 1 1018 33 10000 0.89 35 00:19 21.04.2021
52 Clouds 1 1018 31 10000 1.34 68 23:38 20.04.2021
53 Clouds 1 1023 51 10000 4.12 60 22:45 20.04.2021
54 Clouds 1 1019 33 10000 1.79 49 22:23 20.04.2021
55 Clouds 1 1019 36 10000 0.89 42 21:48 20.04.2021
56 Clear 0 1019 36 10000 0.45 59 21:28 20.04.2021
57 Clear 0 1019 42 10000 0.45 57 20:58 20.04.2021
58 Clear 0 1019 43 10000 0.45 41 20:38 20.04.2021
59 Clouds -1 1019 46 10000 0.89 41 20:18 20.04.2021
60 Clouds -1 1019 46 10000 0.89 133 19:44 20.04.2021
61 Clouds -1 1020 45 10000 1.33 119 19:25 20.04.2021
62 Clouds -2 1019 52 10000 0.89 158 18:39 20.04.2021
63 Clouds -2 1019 52 10000 1.34 153 18:21 20.04.2021
64 Clouds -3 1019 67 10000 0.89 189 17:39 20.04.2021
65 Clouds -4 1023 81 10000 0.45 248 16:50 20.04.2021
66 Clouds -7 1020 80 10000 0.45 193 15:53 20.04.2021
67 Clouds -8 1020 83 10000 2.46 217 15:30 20.04.2021
68 Clouds -9 1019 84 10000 2.33 221 14:59 20.04.2021
69 Clouds -9 1019 84 10000 2.33 221 14:35 20.04.2021
70 Clouds -8 1019 84 10000 2.26 219 13:53 20.04.2021
71 Clouds -8 1019 84 10000 2.02 213 13:24 20.04.2021
72 Clouds -8 1019 84 10000 2.02 213 12:44 20.04.2021
73 Clouds -7 1023 100 10000 1.68 225 12:22 20.04.2021
74 Clouds -7 1019 84 10000 1.68 225 11:46 20.04.2021
75 Clouds -7 1019 84 10000 1.85 295 11:22 20.04.2021
76 Clouds -7 1019 84 10000 1.85 295 10:44 20.04.2021
77 Snow -7 1019 84 2253 3.57 338 10:23 20.04.2021
78 Snow -7 1019 85 2253 3.57 338 09:40 20.04.2021
79 Snow -6 1019 85 205 4.25 343 08:56 20.04.2021
80 Snow -6 1019 85 144 5.06 358 08:29 20.04.2021
81 Snow -6 1019 85 134 0.45 34 07:49 20.04.2021
82 Snow -5 1019 86 103 0.45 38 06:49 20.04.2021
83 Snow -4 1021 100 805 1.54 50 05:40 20.04.2021
84 Snow -4 1017 87 142 3.65 40 04:42 20.04.2021
85 Snow -3 1015 85 226 1.34 35 01:57 20.04.2021
86 Snow -2 1017 91 281 0.89 40 00:38 20.04.2021
87 Clouds -2 1013 98 3862 1.79 47 23:38 19.04.2021
88 Snow -1 833 90 10000 2.68 357 22:58 19.04.2021
89 Clouds -1 1015 91 10000 3.97 55 22:36 19.04.2021
90 Clouds 0 1012 81 10000 1.79 29 21:51 19.04.2021
91 Clouds 0 1012 80 10000 1.79 49 21:33 19.04.2021
92 Clouds 1 1012 78 10000 3.14 56 20:55 19.04.2021
93 Clouds 1 1012 79 10000 3.14 56 20:37 19.04.2021
94 Clouds 1 1013 81 10000 0.45 31 20:19 19.04.2021
95 Clouds 0 1013 85 10000 0.89 37 19:40 19.04.2021
96 Snow 0 1018 100 3219 4.12 100 19:22 19.04.2021
97 Snow 0 1019 100 2012 4.12 50 18:46 19.04.2021
98 Mist -1 1019 100 2414 2.57 90 18:22 19.04.2021
99 Snow -1 1018 100 1006 5.14 50 17:54 19.04.2021
100 Fog -1 1019 100 101 7.72 40 17:29 19.04.2021
101 Mist 0 1018 86 4023 8.75 20 16:51 19.04.2021
102 Mist 0 1018 86 4023 8.75 20 16:33 19.04.2021
103 Fog 3 1017 93 402 8.75 40 16:33 19.04.2021
104 Clouds 6 1015 58 10000 2.68 18 15:52 19.04.2021
105 Clouds 5 1011 43 10000 0.45 157 15:29 19.04.2021
106 Clouds 4 1011 46 10000 0.45 154 14:53 19.04.2021
107 Clouds 3 1011 48 10000 2.63 224 14:35 19.04.2021
108 Clear 3 1010 44 10000 2.91 220 13:54 19.04.2021
109 Clouds 3 1011 43 10000 0.89 154 13:30 19.04.2021
110 Clouds 4 1011 44 10000 0.89 161 12:56 19.04.2021
111 Clouds 4 1011 44 10000 0.45 157 12:36 19.04.2021
112 Clear 4 1011 45 10000 0.89 161 12:18 19.04.2021
113 Clear 4 1011 46 10000 0.45 149 11:49 19.04.2021
114 Clear 4 1011 47 10000 1.34 161 11:20 19.04.2021
115 Clear 4 1011 46 10000 1.34 172 10:44 19.04.2021
116 Clear 5 1012 47 10000 0.89 178 10:19 19.04.2021
117 Clear 5 1012 47 10000 1.34 170 09:43 19.04.2021
118 Clear 5 1012 47 10000 1.34 180 09:24 19.04.2021
119 Clear 5 1014 50 10000 0.45 178 08:37 19.04.2021
120 Clouds 5 1014 47 10000 1.34 170 07:50 19.04.2021
121 Clouds 6 1014 46 10000 1.34 186 07:24 19.04.2021
122 Clouds 6 1014 44 10000 0.45 190 06:52 19.04.2021
123 Clouds 9 1018 32 10000 1.71 254 04:47 19.04.2021
124 Clouds 13 1019 28 10000 3.49 344 01:49 19.04.2021
125 Clouds 13 1019 28 10000 2.06 330 00:41 19.04.2021
126 Clear 12 1015 25 10000 1.49 346 23:21 18.04.2021
127 Clear 12 1016 23 10000 0.89 33 22:58 18.04.2021
128 Clear 12 1016 25 10000 1.34 30 22:34 18.04.2021
129 Clear 12 1016 25 10000 0.89 285 21:56 18.04.2021
130 Clear 12 1016 25 10000 1.62 43 21:28 18.04.2021
131 Clear 11 1016 24 10000 0.45 277 20:44 18.04.2021
132 Clear 11 1016 26 10000 0.45 296 20:25 18.04.2021
133 Clear 11 1017 27 10000 0.41 48 19:59 18.04.2021
134 Clear 10 1017 26 10000 1.79 319 19:39 18.04.2021
135 Clear 10 1017 26 10000 0.45 267 19:19 18.04.2021
136 Clear 9 1017 29 10000 0.89 204 18:45 18.04.2021
137 Clear 8 1017 33 10000 1.34 184 18:25 18.04.2021
138 Clear 8 1017 33 10000 1.34 184 18:25 18.04.2021
139 Clear 7 1018 36 10000 1.79 167 17:46 18.04.2021
140 Clouds 5 1022 45 10000 5.14 230 17:27 18.04.2021
141 Clear 5 1018 39 10000 1.34 165 16:46 18.04.2021
142 Clear 4 1022 47 10000 0.89 140 16:46 18.04.2021
143 Clear 3 1018 42 10000 1.79 178 16:27 18.04.2021
144 Clear 1 1022 64 10000 5.14 210 15:44 18.04.2021
145 Clear 0 1018 51 10000 1.79 184 15:25 18.04.2021
146 Clear -1 1018 55 10000 1.34 184 14:52 18.04.2021
147 Clear -1 1017 56 10000 1.34 174 14:23 18.04.2021
148 Clear -1 1018 55 10000 0.89 177 13:55 18.04.2021
149 Clear -1 1018 54 10000 1.34 180 13:34 18.04.2021
150 Clear -1 1018 55 10000 0.89 187 12:50 18.04.2021
151 Clear -1 1022 69 10000 4.12 220 12:26 18.04.2021
152 Clear 0 1018 57 10000 1.34 167 11:42 18.04.2021
153 Clear 0 1018 58 10000 0.89 180 11:21 18.04.2021
154 Clear 0 1018 59 10000 0.89 171 10:47 18.04.2021
155 Clear 0 1018 60 10000 0.89 184 10:22 18.04.2021
156 Clear 0 1023 69 10000 3.09 230 09:52 18.04.2021
157 Clear 0 1019 62 10000 0.45 184 09:34 18.04.2021
158 Clear 0 1019 64 10000 0.45 126 08:56 18.04.2021
159 Clear 0 1023 64 10000 3.6 230 08:35 18.04.2021
160 Clouds 1 1019 64 10000 2.14 227 07:55 18.04.2021
161 Clouds 1 1019 62 10000 2.14 227 07:37 18.04.2021
162 Clouds 3 1019 44 10000 0.37 137 05:41 18.04.2021
163 Clouds 3 1019 45 10000 1.45 21 05:22 18.04.2021
164 Clouds 6 1018 33 10000 0.45 347 02:27 18.04.2021
165 Clouds 6 1018 35 10000 0.89 280 01:48 18.04.2021
166 Clouds 6 1018 38 10000 3.13 13 00:36 18.04.2021
167 Clouds 5 1018 39 10000 2.48 10 23:31 17.04.2021
168 Clouds 5 1019 42 10000 0.89 285 22:51 17.04.2021
169 Clouds 4 1019 43 10000 1.34 278 22:30 17.04.2021
170 Clouds 4 1019 47 10000 2.86 13 21:47 17.04.2021
171 Clouds 4 1019 49 10000 0.45 15 21:28 17.04.2021
172 Clouds 3 1019 54 10000 3.43 22 20:46 17.04.2021
173 Clouds 3 1020 53 8911 0.45 30 20:25 17.04.2021
174 Clouds 2 1020 55 8911 1.34 25 19:44 17.04.2021
175 Clouds 2 1020 65 4681 0.45 339 19:20 17.04.2021
176 Clouds 2 1020 70 4681 0.45 9 18:55 17.04.2021
177 Clouds 2 1020 69 7149 2.51 29 18:26 17.04.2021
178 Clouds 1 1020 68 7149 2.51 29 17:49 17.04.2021
179 Clouds 1 1020 67 7149 2.51 29 17:30 17.04.2021
180 Clouds 0 1020 75 10000 2 19 16:42 17.04.2021
181 Clouds 0 1020 76 10000 1.35 336 16:23 17.04.2021
182 Clouds -1 1020 80 10000 1.35 336 15:38 17.04.2021
183 Clouds -2 1023 100 10000 3.09 350 14:44 17.04.2021
184 Clouds -2 1019 83 10000 1.55 1 14:20 17.04.2021
185 Clouds -2 1023 100 10000 3.09 350 13:44 17.04.2021
186 Clouds -2 1019 81 10000 1.64 358 12:55 17.04.2021
187 Clouds -2 1023 100 10000 5.14 350 12:34 17.04.2021
188 Clouds -1 1019 82 10000 2.24 351 11:52 17.04.2021
189 Clouds -1 1019 84 10000 2.24 351 11:33 17.04.2021
190 Clouds -1 1019 84 10000 2.24 351 11:33 17.04.2021
191 Snow -1 1019 85 666 2.97 337 10:56 17.04.2021
192 Snow -1 1019 85 666 0.45 304 10:38 17.04.2021
193 Snow -1 1020 85 461 2.26 329 09:51 17.04.2021
194 Snow -1 1024 100 10000 1.54 350 08:55 17.04.2021
195 Clouds -1 1020 84 10000 0.9 251 08:33 17.04.2021
196 Clouds -1 1020 82 10000 0.84 260 07:51 17.04.2021
197 Snow 0 1020 81 9821 0.52 335 06:26 17.04.2021
198 Snow 0 1022 93 10000 2.57 40 03:47 17.04.2021
199 Clouds 1 1017 73 10000 3 4 00:58 17.04.2021
200 Clouds 1 1017 72 10000 3 4 00:37 17.04.2021
201 Clouds 1 1017 72 4772 0.45 345 00:18 17.04.2021
202 Clouds 1 1017 74 4772 3.29 9 23:34 16.04.2021
203 Snow 1 1017 74 3811 0.45 323 22:52 16.04.2021
204 Snow 1 1022 80 10000 3.6 360 22:24 16.04.2021
205 Snow 1 1018 74 3511 3.6 17 21:57 16.04.2021
206 Snow 1 1017 78 3511 0.45 308 21:39 16.04.2021
207 Snow 1 1017 80 4067 0.45 22 20:56 16.04.2021
208 Snow 1 1017 81 4103 0.45 310 20:37 16.04.2021
209 Snow 1 1017 82 2176 0.45 13 20:18 16.04.2021
210 Snow 0 1018 83 2176 4.32 21 19:43 16.04.2021
211 Snow 0 1017 85 309 4.71 17 19:19 16.04.2021
212 Snow -1 1018 88 311 4.1 354 18:27 16.04.2021
213 Snow -2 1017 88 311 4.1 354 17:49 16.04.2021
214 Snow -2 1021 100 9656 5.14 340 17:20 16.04.2021
215 Snow -2 1020 100 3621 5.66 360 16:45 16.04.2021
216 Snow -2 1017 89 397 3.3 335 16:26 16.04.2021
217 Snow -2 1017 90 397 3.3 335 15:55 16.04.2021
218 Snow -3 1016 90 241 2.74 338 15:29 16.04.2021
219 Snow -3 1015 90 241 2.74 338 14:44 16.04.2021
220 Snow -3 1015 90 188 3.19 341 14:23 16.04.2021
221 Snow -3 1019 100 10000 6.17 360 13:55 16.04.2021
222 Snow -3 1015 90 159 3.43 342 13:22 16.04.2021
223 Snow -3 1015 90 159 3.43 342 12:53 16.04.2021
224 Snow -3 1015 90 159 3.43 342 12:34 16.04.2021
225 Snow -2 1014 90 149 3.63 344 11:59 16.04.2021
226 Snow -2 1014 90 149 3.63 344 11:39 16.04.2021
227 Clouds -2 1014 91 149 3.66 350 11:20 16.04.2021
228 Snow -2 1014 91 149 3.66 350 10:40 16.04.2021
229 Snow -2 1014 91 151 3.94 351 10:20 16.04.2021
230 Snow -2 1014 91 151 3.94 351 09:44 16.04.2021
231 Snow -2 1014 91 144 4.14 352 09:21 16.04.2021
232 Snow -2 1014 91 144 4.14 352 08:42 16.04.2021
233 Snow -2 1014 91 135 4.48 348 08:18 16.04.2021
234 Snow -1 1014 91 135 4.48 348 07:41 16.04.2021
235 Snow -1 1013 91 133 4.29 1 06:59 16.04.2021
236 Snow -1 1013 91 133 4.29 1 06:35 16.04.2021
237 Snow -1 1012 91 122 4.3 15 05:31 16.04.2021
238 Snow 1 1008 90 98 8.04 330 01:40 16.04.2021
239 Snow 1 1012 100 3219 5.14 110 00:44 16.04.2021
240 Snow 2 1011 86 2414 5.14 300 00:20 16.04.2021
241 Rain 2 1011 80 4023 3.6 320 23:45 15.04.2021
242 Rain 2 1011 100 10000 6.69 110 23:25 15.04.2021
243 Drizzle 3 1011 93 10000 5.66 150 22:47 15.04.2021
244 Clouds 3 1012 75 10000 2.06 320 22:23 15.04.2021
245 Clouds 3 1012 75 10000 1.54 280 21:43 15.04.2021
246 Clouds 3 1012 75 10000 1.54 280 21:24 15.04.2021
247 Clouds 4 1013 81 10000 4.12 190 20:47 15.04.2021
248 Clouds 3 1007 67 10000 2.24 352 20:25 15.04.2021
249 Clouds 3 1011 65 10000 2.24 330 20:25 15.04.2021
250 Clouds 3 1014 81 10000 5.66 120 19:47 15.04.2021
251 Clouds 3 1012 65 10000 1.79 329 19:28 15.04.2021
252 Clouds 3 1015 87 10000 6.17 110 18:46 15.04.2021
253 Clouds 3 1010 59 10000 2.03 312 18:22 15.04.2021
254 Clouds 3 1014 67 10000 2.03 312 17:58 15.04.2021
255 Clouds 3 1011 58 10000 2.03 312 17:39 15.04.2021
256 Clouds 2 1011 58 10000 1.9 322 17:21 15.04.2021
257 Clouds 2 1011 58 10000 1.9 322 16:43 15.04.2021
258 Clouds 2 1011 58 10000 1.16 283 16:23 15.04.2021
259 Clouds 1 1011 59 10000 1.16 283 15:46 15.04.2021
260 Clouds 1 1011 59 10000 0.8 180 15:26 15.04.2021
261 Clouds 1 1011 60 10000 0.8 180 14:42 15.04.2021
262 Clouds 1 1016 64 10000 6.69 150 14:24 15.04.2021
263 Clouds 1 1012 60 10000 0.82 279 13:46 15.04.2021
264 Clouds 1 1017 64 10000 7.2 150 13:23 15.04.2021
265 Clouds 1 1017 69 10000 7.72 140 12:46 15.04.2021
266 Clouds 1 1013 59 10000 2.1 162 12:24 15.04.2021
267 Clouds 1 1018 69 10000 4.63 120 11:47 15.04.2021
268 Clouds 1 1014 59 10000 2.71 159 11:25 15.04.2021
269 Clouds 1 1019 64 10000 1.54 340 10:57 15.04.2021
270 Clouds 1 1015 60 10000 2.97 149 10:28 15.04.2021
271 Clouds 1 1020 64 10000 2.57 330 09:50 15.04.2021
272 Clouds 1 1020 64 10000 2.57 330 09:28 15.04.2021
273 Clouds 1 1016 59 10000 3.02 176 08:49 15.04.2021
274 Clouds 2 1020 64 10000 3.6 320 08:24 15.04.2021
275 Rain 2 1016 51 2091 1.68 166 07:26 15.04.2021
276 Clouds 3 1016 51 2091 1.68 166 06:50 15.04.2021
277 Clouds 3 1016 50 2091 1.68 166 06:32 15.04.2021
278 Clouds 5 1015 46 1793 1.28 82 04:52 15.04.2021
279 Clouds 5 1014 47 1751 2.13 328 02:51 15.04.2021
280 Clouds 8 1014 37 10000 3.42 24 23:44 14.04.2021
281 Clouds 8 1014 34 10000 0.45 302 23:25 14.04.2021
282 Clouds 7 1015 36 10000 0.45 286 22:47 14.04.2021
283 Clouds 6 1015 39 10000 1.8 73 22:27 14.04.2021
284 Clouds 5 1016 41 10000 1.8 73 21:53 14.04.2021
285 Clouds 4 1016 45 10000 0.45 11 21:32 14.04.2021
286 Clouds 4 1017 49 10000 1.37 79 20:58 14.04.2021
287 Clouds 3 1017 49 10000 2.31 23 20:35 14.04.2021
288 Clouds 2 1017 51 10000 0.89 287 19:55 14.04.2021
289 Clouds 2 1021 58 10000 0.45 300 19:55 14.04.2021
290 Clouds 2 1021 59 10000 0.89 300 19:36 14.04.2021
291 Clouds 2 1018 55 10000 1.77 355 19:18 14.04.2021
292 Clouds 1 1021 64 10000 0.45 22 18:46 14.04.2021
293 Clouds 0 1021 66 10000 2.02 351 18:18 14.04.2021
294 Clouds 0 1020 63 10000 2.02 351 17:46 14.04.2021
295 Clouds 0 1018 61 10000 0.45 295 17:23 14.04.2021
296 Clouds -1 1018 53 10000 0.45 294 16:39 14.04.2021
297 Snow -1 1018 52 10000 0.45 288 16:19 14.04.2021
298 Snow -1 1018 52 10000 2.86 348 15:39 14.04.2021
299 Snow -1 1018 56 584 2.84 353 15:18 14.04.2021
300 Snow 0 1017 55 584 2.84 353 14:40 14.04.2021
301 Snow 0 1017 59 464 2.82 20 14:20 14.04.2021
302 Snow 0 1017 61 464 2.82 20 13:46 14.04.2021
303 Snow 0 1018 62 188 2.53 32 12:45 14.04.2021
304 Clouds 0 1018 62 10000 2.18 55 12:18 14.04.2021
305 Clouds 0 1018 61 10000 2.18 55 11:41 14.04.2021
306 Clouds 0 1022 80 10000 2.57 310 11:22 14.04.2021
307 Rain 0 1018 61 10000 1.65 89 10:34 14.04.2021
308 Clouds 1 1022 74 10000 6.17 330 09:43 14.04.2021
309 Clouds 1 1018 66 10000 0.76 53 09:25 14.04.2021
310 Clouds 1 1018 69 10000 0.76 53 08:52 14.04.2021
311 Snow 1 1022 69 10000 4.12 300 08:29 14.04.2021
312 Clouds 1 1019 67 10000 2.03 36 07:36 14.04.2021
313 Clouds 3 1019 46 10000 0.89 29 06:34 14.04.2021
314 Clouds 4 1018 41 10000 3.32 2 05:31 14.04.2021
315 Clouds 5 1015 39 10000 0.45 299 02:27 14.04.2021
316 Clouds 7 1017 41 10000 3.13 333 00:50 14.04.2021
317 Clouds 7 1017 41 10000 3.13 333 00:50 14.04.2021
318 Clouds 7 1017 42 10000 0.89 310 00:27 14.04.2021
319 Clouds 7 1018 31 10000 8.23 340 23:32 13.04.2021
320 Clouds 6 1019 33 10000 6.69 310 22:44 13.04.2021
321 Clouds 6 1015 35 10000 1.79 299 22:21 13.04.2021
322 Clouds 6 1016 33 10000 0.89 300 21:48 13.04.2021
323 Clouds 6 1016 33 10000 0.45 292 21:30 13.04.2021
324 Clouds 6 1016 31 10000 2.19 292 20:50 13.04.2021
325 Clouds 5 1017 29 10000 2.77 305 20:25 13.04.2021
326 Clouds 5 1017 31 10000 2.77 305 19:58 13.04.2021
327 Clouds 4 1018 33 10000 3.51 321 19:25 13.04.2021
328 Clouds 3 1019 38 10000 0.89 30 18:49 13.04.2021
329 Clouds 2 1019 39 10000 0.45 30 18:30 13.04.2021
330 Clouds 2 1023 44 10000 5.14 80 18:30 13.04.2021
331 Clouds 2 1019 39 10000 0.45 30 18:30 13.04.2021
332 Clouds 1 1020 41 10000 0.45 42 17:40 13.04.2021
333 Clouds 0 1020 43 10000 0.45 34 17:19 13.04.2021
334 Clouds 0 1020 43 10000 0.45 32 16:45 13.04.2021
335 Snow 0 1020 42 8611 2.48 55 16:26 13.04.2021
336 Snow 0 1024 51 10000 5.66 70 16:26 13.04.2021
337 Snow -1 1023 51 10000 5.14 60 15:55 13.04.2021
338 Snow -1 1020 42 8611 0.45 36 15:36 13.04.2021
339 Snow -1 1019 46 10000 3.24 67 14:54 13.04.2021
340 Snow -1 1019 48 10000 3.2 69 14:24 13.04.2021
341 Snow 0 1023 43 10000 4.12 70 13:53 13.04.2021
342 Snow 0 1019 41 8422 2.42 55 13:27 13.04.2021
343 Snow 0 1019 45 8422 2.42 55 12:58 13.04.2021
344 Snow 0 1019 47 8422 2.42 55 12:37 13.04.2021
345 Clouds 1 1019 47 7107 0.45 25 12:18 13.04.2021
346 Clouds 1 1018 45 7107 2.06 90 11:34 13.04.2021
347 Clouds 2 1018 39 10000 2.91 118 10:56 13.04.2021
348 Clouds 2 1018 38 10000 2.91 118 10:56 13.04.2021
349 Clouds 2 1019 37 10000 2.91 118 10:37 13.04.2021
350 Clouds 2 1019 34 10000 3.61 114 10:18 13.04.2021
351 Clouds 2 1019 34 10000 3.61 114 09:40 13.04.2021
352 Clouds 2 1023 44 10000 2.06 90 09:18 13.04.2021
353 Clouds 2 1023 44 10000 2.06 90 08:41 13.04.2021
354 Clouds 2 1019 35 10000 2.64 105 08:20 13.04.2021
355 Clouds 3 1019 37 10000 2.64 105 07:36 13.04.2021
356 Clouds 3 1019 41 10000 2.31 98 06:51 13.04.2021
357 Clouds 3 1018 41 10000 3.74 88 04:52 13.04.2021
358 Clouds 4 1020 41 10000 5.14 20 02:41 13.04.2021
359 Clouds 6 1019 40 10000 0.89 38 00:39 13.04.2021
360 Clouds 7 1018 38 10000 0.89 40 23:49 12.04.2021
361 Clouds 7 1014 31 10000 0.45 351 23:27 12.04.2021
362 Clouds 7 1017 40 10000 0.89 15 22:39 12.04.2021
363 Clouds 6 1018 39 10000 3.6 60 22:18 12.04.2021
364 Clear 7 1017 41 10000 0.45 340 21:45 12.04.2021
365 Clear 6 1016 38 10000 1.34 334 21:20 12.04.2021
366 Clear 6 1017 43 10000 0.89 86 20:41 12.04.2021
367 Clear 5 1014 34 10000 0.45 40 20:22 12.04.2021
368 Clear 4 1014 35 10000 0.45 119 19:55 12.04.2021
369 Clear 4 1015 37 10000 0.45 30 19:37 12.04.2021
370 Clear 3 1015 39 10000 2.81 48 19:18 12.04.2021
371 Clouds 3 1019 51 10000 3.09 40 18:44 12.04.2021
372 Clear 2 1015 41 10000 0.89 28 18:25 12.04.2021
373 Clear 2 1015 42 10000 2.86 48 17:44 12.04.2021
374 Clear 2 1014 43 10000 2.87 55 17:23 12.04.2021
375 Clear 1 1014 44 10000 0.45 31 16:47 12.04.2021
376 Clear 1 1014 44 10000 0.45 53 16:27 12.04.2021
377 Clear 1 1014 44 10000 0.45 53 16:27 12.04.2021
378 Clear 0 1014 46 10000 3.06 62 15:49 12.04.2021
379 Clear -1 1014 50 10000 3.01 72 15:27 12.04.2021
380 Clear -2 1014 50 10000 3.01 72 14:50 12.04.2021
381 Clear -2 1013 49 10000 2.98 77 14:30 12.04.2021
382 Clouds -1 1013 48 10000 3.02 84 13:49 12.04.2021
383 Clouds -1 1013 48 10000 3.17 89 13:28 12.04.2021
384 Clouds -1 1012 47 10000 3.17 89 12:49 12.04.2021
385 Clouds -1 1012 46 10000 3.24 92 12:27 12.04.2021
386 Clouds -1 1012 45 10000 3.24 92 11:59 12.04.2021
387 Clouds 0 1012 43 10000 3.28 95 11:24 12.04.2021
388 Clouds 0 1013 41 10000 3.28 95 10:46 12.04.2021
389 Clouds 1 1013 41 10000 3.46 88 10:26 12.04.2021
390 Clouds 1 1013 39 10000 3.47 88 09:49 12.04.2021
391 Clouds 2 1013 37 10000 4.04 85 09:19 12.04.2021
392 Clouds 2 1013 34 10000 4.04 85 08:36 12.04.2021
393 Clouds 3 1013 32 10000 3.06 96 07:40 12.04.2021
394 Clouds 3 1013 30 10000 0.89 32 07:20 12.04.2021
395 Clouds 3 1013 30 10000 0.89 32 07:20 12.04.2021
396 Clouds 6 1013 19 10000 1.34 56 05:52 12.04.2021
397 Clouds 7 1011 19 10000 0.45 37 04:31 12.04.2021
398 Clouds 12 1008 25 10000 6.37 71 01:23 12.04.2021
399 Clouds 12 1012 30 10000 5.14 70 00:25 12.04.2021
400 Clouds 12 1011 30 10000 4.12 60 23:46 11.04.2021
401 Clouds 12 1007 26 10000 1.34 34 23:46 11.04.2021
402 Clouds 12 1007 27 10000 0.45 69 23:27 11.04.2021
403 Clouds 12 1011 35 10000 4.12 60 22:46 11.04.2021
404 Clear 12 1007 28 10000 0.89 28 22:25 11.04.2021
405 Clear 12 1007 30 10000 2.24 41 21:48 11.04.2021
406 Clear 11 1010 41 10000 1.79 83 21:30 11.04.2021
407 Clear 11 1007 31 10000 0.89 34 20:57 11.04.2021
408 Clear 10 1008 33 10000 0.89 75 20:30 11.04.2021
409 Clouds 9 1012 46 10000 5.14 20 19:56 11.04.2021
410 Clear 9 1021 41 10000 1.34 310 19:37 11.04.2021
411 Clear 8 1012 41 10000 1.34 42 19:19 11.04.2021
412 Clouds 7 1011 49 10000 5.14 30 18:42 11.04.2021
413 Clouds 7 1011 49 10000 5.14 30 18:24 11.04.2021
414 Clouds 5 1010 60 10000 8.75 70 17:46 11.04.2021
415 Clouds 5 1010 60 10000 8.75 70 17:28 11.04.2021
416 Clouds 8 1009 56 10000 8.23 60 16:51 11.04.2021
417 Clouds 9 1003 32 10000 2.68 43 16:23 11.04.2021
418 Clouds 9 1004 25 10000 1.79 30 15:57 11.04.2021
419 Clouds 8 1007 29 10000 1.45 204 15:38 11.04.2021
420 Clouds 7 1002 38 10000 1.91 196 15:19 11.04.2021
421 Clouds 7 1006 31 10000 1.91 196 14:46 11.04.2021
422 Clouds 7 1006 30 10000 2.55 190 13:53 11.04.2021
423 Clouds 7 1005 27 10000 0.45 214 13:31 11.04.2021
424 Clouds 7 1002 24 10000 2.34 204 12:54 11.04.2021
425 Clouds 8 1002 25 10000 2.34 204 12:54 11.04.2021
426 Clear 8 1007 21 10000 1.54 280 12:22 11.04.2021
427 Clouds 8 1002 37 10000 1.98 234 11:52 11.04.2021
428 Clouds 9 1007 19 10000 2.06 280 11:27 11.04.2021
429 Clouds 8 1002 22 10000 2.27 229 10:50 11.04.2021
430 Clear 9 1002 22 10000 2.23 221 10:31 11.04.2021
431 Clear 9 1003 19 10000 2.25 221 09:59 11.04.2021
432 Clear 10 1002 18 10000 2.23 221 09:35 11.04.2021
433 Clear 10 1002 17 10000 2.59 219 08:59 11.04.2021
434 Clouds 10 1002 17 10000 0.89 166 08:26 11.04.2021
435 Clouds 11 1003 14 10000 2.32 205 07:24 11.04.2021
436 Clouds 12 1005 23 10000 2.32 205 06:54 11.04.2021
437 Clouds 13 1003 12 10000 2.73 264 05:43 11.04.2021
438 Clouds 14 1007 17 10000 3.09 360 05:21 11.04.2021
439 Clouds 15 1003 11 10000 1.11 246 04:34 11.04.2021
440 Clear 20 1002 7 10000 1.34 303 01:56 11.04.2021
441 Clear 20 1003 7 10000 1.79 284 00:39 11.04.2021
442 Clear 20 1004 8 10000 0.45 306 23:48 10.04.2021
443 Clear 19 1004 9 10000 0.89 287 23:26 10.04.2021
444 Clear 19 1005 10 10000 5.86 320 22:43 10.04.2021
445 Clouds 18 1010 11 10000 2.57 290 22:21 10.04.2021
446 Clear 18 1006 10 10000 0.45 57 21:41 10.04.2021
447 Clear 17 1006 10 10000 0.45 15 21:21 10.04.2021
448 Clear 16 1007 12 10000 2.91 49 20:46 10.04.2021
449 Clear 16 1007 12 10000 2.27 81 20:24 10.04.2021
450 Clouds 14 1013 19 10000 3.09 120 19:45 10.04.2021
451 Clear 13 1008 17 10000 1.46 118 19:26 10.04.2021
452 Clear 12 1009 21 10000 1.46 118 18:52 10.04.2021
453 Clear 11 1009 26 10000 1.46 118 18:31 10.04.2021
454 Clear 10 1009 27 10000 1.61 154 18:30 10.04.2021
455 Clear 9 1023 41 10000 1.61 154 17:40 10.04.2021
456 Clear 7 1013 46 10000 1.94 171 17:20 10.04.2021
457 Clear 4 1011 52 10000 0.89 107 16:30 10.04.2021
458 Clouds -1 1014 51 10000 2.57 350 15:55 10.04.2021
459 Clouds -1 1014 69 10000 2.57 180 15:29 10.04.2021
460 Clouds -2 1014 69 10000 5.14 220 14:45 10.04.2021
461 Clouds -1 1014 69 10000 5.14 220 14:19 10.04.2021
462 Clear -1 1014 69 10000 4.12 220 13:43 10.04.2021
463 Clear -1 1014 68 10000 3.6 180 12:54 10.04.2021
464 Clear -1 1014 55 10000 3.09 340 12:29 10.04.2021
465 Clear 0 1015 48 10000 2.06 340 11:50 10.04.2021
466 Clear 0 1015 64 10000 4.12 150 11:26 10.04.2021
467 Clear 0 961 61 10000 0.45 146 10:52 10.04.2021
468 Clear 0 1016 64 10000 3.6 120 10:31 10.04.2021
469 Clear 1 1014 56 10000 0.99 157 09:50 10.04.2021
470 Clear 1 1015 56 10000 1.69 156 09:20 10.04.2021
471 Clear 1 962 56 10000 0.89 139 09:20 10.04.2021
472 Clear 1 962 55 10000 0.89 154 08:48 10.04.2021
473 Clear 2 962 55 10000 0.89 157 08:29 10.04.2021
474 Clear 2 962 55 10000 0.89 157 08:29 10.04.2021
475 Clear 2 1013 41 10000 2.95 135 07:38 10.04.2021
476 Clear 3 1013 39 10000 3.37 121 07:19 10.04.2021
477 Clear 4 1013 35 10000 4.67 92 06:24 10.04.2021
478 Clear 8 1012 27 10000 1.79 57 03:49 10.04.2021
479 Clear 9 1011 25 10000 5.19 348 02:51 10.04.2021
480 Clouds 10 1011 24 10000 0.45 32 02:21 10.04.2021
481 Clouds 10 1011 26 10000 0.89 34 00:43 10.04.2021
482 Clouds 10 1011 24 10000 1.79 56 00:21 10.04.2021
483 Clouds 10 1016 31 10000 5.14 30 23:40 09.04.2021
484 Clouds 10 1016 31 10000 8.75 30 22:58 09.04.2021
485 Clouds 10 1012 26 10000 2.24 28 22:38 09.04.2021
486 Clouds 9 1012 30 10000 2.24 39 21:56 09.04.2021
487 Clouds 9 1017 34 10000 6.17 10 21:37 09.04.2021
488 Clouds 9 1012 27 10000 0.45 346 21:18 09.04.2021
489 Clouds 8 1017 36 10000 5.66 30 20:41 09.04.2021
490 Clouds 8 1013 27 10000 1.34 336 20:22 09.04.2021
491 Clouds 8 1013 27 10000 1.34 336 20:22 09.04.2021
492 Clouds 8 1013 28 10000 6.74 45 19:44 09.04.2021
493 Clouds 8 1013 29 10000 0.45 30 19:23 09.04.2021
494 Clouds 7 1013 34 10000 1.34 29 18:51 09.04.2021
495 Clouds 6 1013 41 10000 0.89 21 18:31 09.04.2021
496 Clouds 5 1013 48 10000 0.45 30 17:54 09.04.2021
497 Clouds 5 1013 49 10000 1.34 15 17:34 09.04.2021
498 Clouds 5 1012 53 10000 0.45 91 16:55 09.04.2021
499 Clear 5 1012 49 10000 9.06 300 16:32 09.04.2021
500 Clear 4 1015 56 10000 1.79 70 15:50 09.04.2021
501 Clear 2 1010 80 10000 0.45 94 15:26 09.04.2021
502 Clouds 2 1014 30 10000 3.13 343 14:51 09.04.2021
503 Clouds 1 1013 93 10000 4.12 120 14:30 09.04.2021
504 Clear 2 1011 70 10000 5.53 347 13:51 09.04.2021
505 Clear 4 1011 51 10000 1.34 62 13:23 09.04.2021
506 Clear 5 1004 46 10000 3.13 338 12:49 09.04.2021
507 Clear 8 1005 20 10000 4.97 329 12:30 09.04.2021
508 Clear 9 1004 18 10000 4.97 329 11:44 09.04.2021
509 Clear 10 1004 19 10000 0.45 186 11:21 09.04.2021
510 Clear 10 1004 19 10000 5.82 315 10:45 09.04.2021
511 Clouds 11 1008 20 10000 7.2 300 10:18 09.04.2021
512 Clear 12 1007 27 10000 1.79 296 09:29 09.04.2021
513 Clouds 11 1008 31 10000 1.54 220 08:56 09.04.2021
514 Clear 11 1004 17 10000 0.89 265 08:37 09.04.2021
515 Clear 11 1003 22 10000 4.4 307 07:35 09.04.2021
516 Clear 12 1003 17 10000 1.13 234 06:33 09.04.2021
517 Clear 13 1003 16 10000 1.13 234 05:45 09.04.2021
518 Clear 17 1002 12 10000 3.17 315 03:48 09.04.2021
519 Clouds 20 1001 10 10000 0.89 284 00:40 09.04.2021
520 Clouds 20 1001 11 10000 7.97 318 00:21 09.04.2021
521 Clouds 20 1002 11 10000 0.45 15 23:57 08.04.2021
522 Clouds 19 1003 12 10000 0.45 264 22:58 08.04.2021
523 Clouds 20 1003 13 10000 0.89 19 22:38 08.04.2021
524 Clouds 19 1003 13 10000 0.89 302 22:20 08.04.2021
525 Clouds 19 1004 13 10000 1.34 276 21:42 08.04.2021
526 Clear 19 1004 13 10000 2.68 306 21:23 08.04.2021
527 Clear 18 1004 12 10000 2.68 304 20:59 08.04.2021
528 Clear 18 1004 13 10000 1.34 265 20:40 08.04.2021
529 Clear 18 1005 13 10000 4.92 296 20:19 08.04.2021
530 Clear 17 1006 14 10000 0.89 286 19:41 08.04.2021
531 Clear 17 1006 15 10000 0.45 32 19:19 08.04.2021
532 Clear 16 1006 15 10000 5.72 311 18:43 08.04.2021
533 Clear 15 1007 16 10000 0.45 175 18:19 08.04.2021
534 Clear 14 1007 21 10000 0.89 156 17:42 08.04.2021
535 Clear 13 1007 24 10000 5.15 288 17:21 08.04.2021
536 Clear 12 1005 34 10000 1.79 121 16:45 08.04.2021
537 Clear 9 1008 36 10000 0.45 189 16:23 08.04.2021
538 Clear 7 1021 47 10000 0.89 224 15:46 08.04.2021
539 Clear 5 1008 47 10000 0.89 173 15:28 08.04.2021
540 Clear 5 1008 45 10000 0.89 181 15:28 08.04.2021
541 Clear 5 1008 43 10000 2.31 231 14:44 08.04.2021
542 Clouds 5 1008 46 10000 0.45 191 14:22 08.04.2021
543 Clouds 5 1008 52 10000 1.82 210 13:49 08.04.2021
544 Clouds 6 1008 52 10000 1.86 185 13:25 08.04.2021
545 Clouds 6 1012 56 10000 3.09 200 13:25 08.04.2021
546 Clouds 6 1008 49 10000 1.86 185 12:59 08.04.2021
547 Clouds 6 1012 42 10000 3.09 210 12:37 08.04.2021
548 Clouds 7 1008 47 10000 1.83 186 11:58 08.04.2021
549 Clouds 7 1008 44 10000 0.45 163 11:29 08.04.2021
550 Clouds 7 1009 44 10000 1.69 209 10:56 08.04.2021
551 Clouds 8 1009 41 10000 1.61 221 10:26 08.04.2021
552 Clouds 8 1009 41 10000 1.61 221 10:26 08.04.2021
553 Clouds 8 1009 41 10000 1.61 221 10:26 08.04.2021
554 Clouds 8 1009 41 10000 1.61 221 10:26 08.04.2021
555 Clouds 8 1009 41 10000 1.61 221 10:26 08.04.2021
556 Clouds 8 1009 35 10000 1.61 221 09:49 08.04.2021
557 Clouds 9 1009 32 10000 1.71 207 09:30 08.04.2021
558 Clouds 9 1014 34 10000 4.12 270 08:45 08.04.2021
559 Clouds 9 1009 33 10000 0.89 267 08:22 08.04.2021
560 Clouds 10 1009 32 10000 0.45 238 07:47 08.04.2021
561 Clouds 10 1010 25 10000 0.89 260 06:46 08.04.2021
562 Clouds 16 1009 17 10000 1.79 291 01:28 08.04.2021
563 Clouds 16 1009 19 10000 3.13 296 00:32 08.04.2021
564 Clear 16 1009 25 10000 1.34 281 23:50 07.04.2021
565 Clear 15 1010 25 10000 0.45 285 23:27 07.04.2021
566 Clear 15 1010 26 10000 1.34 267 22:58 07.04.2021
567 Clear 15 1010 28 10000 8.7 310 22:39 07.04.2021
568 Clear 14 1011 28 10000 0.89 111 22:21 07.04.2021
569 Clear 13 1012 41 10000 0.89 355 21:34 07.04.2021
570 Clear 12 1011 40 10000 0.45 41 20:59 07.04.2021
571 Clear 11 1016 43 10000 0.89 51 20:40 07.04.2021
572 Clouds 10 1015 57 10000 0.89 65 20:19 07.04.2021
573 Clouds 10 1024 49 10000 0.89 0 19:41 07.04.2021
574 Clouds 9 1013 50 10000 1.34 26 19:22 07.04.2021
575 Clouds 7 1016 100 10000 3.97 356 18:42 07.04.2021
576 Clouds 6 1012 59 10000 3.81 13 18:18 07.04.2021
577 Clouds 5 1014 79 10000 0.89 90 17:48 07.04.2021
578 Clouds 5 1012 67 10000 3.81 13 17:30 07.04.2021
579 Clouds 3 1015 83 10000 3.24 21 16:47 07.04.2021
580 Clouds 2 1012 72 10000 1.51 55 16:21 07.04.2021
581 Clouds 1 1015 93 10000 2.57 90 15:56 07.04.2021
582 Clouds 1 1015 87 10000 1.51 55 15:38 07.04.2021
583 Clouds 0 1011 81 10000 2.11 98 14:48 07.04.2021
584 Clouds 0 1011 81 10000 2.14 109 14:25 07.04.2021
585 Clouds 1 1014 100 10000 2.57 50 13:45 07.04.2021
586 Clouds 1 1014 100 10000 2.57 50 13:20 07.04.2021
587 Clouds 1 1009 79 10000 2.8 105 12:47 07.04.2021
588 Clouds 1 1009 80 10000 3.2 98 12:21 07.04.2021
589 Clouds 1 1014 100 10000 1.54 290 11:45 07.04.2021
590 Clouds 1 1009 80 10000 2.6 92 11:24 07.04.2021
591 Clouds 1 1014 100 10000 1.54 270 10:50 07.04.2021
592 Clouds 1 1010 81 10000 3.3 84 09:51 07.04.2021
593 Clouds 1 1010 80 10000 2.83 76 09:30 07.04.2021
594 Clouds 1 1010 80 10000 3.44 68 08:58 07.04.2021
595 Clouds 2 1014 100 10000 1.54 80 08:33 07.04.2021
596 Clouds 2 1010 80 10000 3.36 59 07:54 07.04.2021
597 Clouds 2 1010 78 10000 0.89 32 07:29 07.04.2021
598 Clouds 3 1010 79 10000 0.89 32 06:52 07.04.2021
599 Clouds 3 1010 83 10000 3.3 52 06:18 07.04.2021
600 Clouds 3 1008 89 10000 1.79 117 03:32 07.04.2021
601 Clouds 11 1006 43 10000 8.75 10 23:52 06.04.2021
602 Clouds 12 1002 38 3594 1.79 360 23:23 06.04.2021
603 Clouds 12 1001 39 3594 1.79 337 22:59 06.04.2021
604 Clouds 13 1001 38 6874 4.72 18 22:22 06.04.2021
605 Clouds 13 1001 37 6874 0.89 298 21:57 06.04.2021
606 Clouds 13 1001 35 6874 1.79 37 21:38 06.04.2021
607 Clear 13 1000 36 10000 4.79 22 21:20 06.04.2021
608 Clear 13 1000 37 10000 0.45 37 20:50 06.04.2021
609 Clear 12 1001 39 10000 0.89 27 20:21 06.04.2021
610 Clear 12 1004 49 10000 0.45 72 19:49 06.04.2021
611 Clear 11 1004 51 10000 3.61 39 19:30 06.04.2021
612 Clear 11 1001 43 10000 3.39 27 18:47 06.04.2021
613 Clear 10 1001 43 10000 0.45 28 18:24 06.04.2021
614 Clear 9 1001 45 10000 2.9 8 17:51 06.04.2021
615 Clear 9 1002 46 10000 2.67 15 17:29 06.04.2021
616 Clear 8 1002 48 10000 2.67 15 16:55 06.04.2021
617 Clear 8 1002 48 10000 2.68 14 16:37 06.04.2021
618 Clear 6 1002 51 10000 3.33 6 15:31 06.04.2021
619 Clear 5 997 59 10000 3.43 3 14:58 06.04.2021
620 Clear 6 1001 49 10000 3.43 2 14:39 06.04.2021
621 Clear 5 1005 60 10000 3.43 3 14:39 06.04.2021
622 Clear 6 1004 59 10000 3.21 358 14:18 06.04.2021
623 Clear 7 1001 44 10000 3.21 358 13:41 06.04.2021
624 Clear 7 1004 54 10000 3.74 350 13:23 06.04.2021
625 Clear 8 1000 40 10000 3.74 350 12:41 06.04.2021
626 Clear 8 1000 39 10000 3.98 343 12:21 06.04.2021
627 Clear 9 1000 36 10000 3.98 343 11:49 06.04.2021
628 Clear 10 1000 35 10000 0.45 279 11:21 06.04.2021
629 Clear 10 1000 32 10000 4.89 343 10:47 06.04.2021
630 Clear 10 1000 32 10000 4.85 350 10:27 06.04.2021
631 Clear 11 1003 34 10000 5.66 330 09:49 06.04.2021
632 Clear 11 1000 28 10000 0.45 290 09:29 06.04.2021
633 Clear 12 1002 34 10000 0.45 305 08:40 06.04.2021
634 Clouds 14 990 16 10000 2.84 198 07:59 06.04.2021
635 Clouds 14 993 26 10000 3.3 221 06:55 06.04.2021
636 Clouds 15 1000 17 10000 0.89 172 05:40 06.04.2021
637 Clouds 23 999 9 10000 0.45 25 02:54 06.04.2021
638 Clouds 25 999 7 10000 1.65 273 00:44 06.04.2021
639 Clouds 25 1000 7 10000 1.62 265 00:21 06.04.2021
640 Clouds 25 1000 7 10000 1.62 265 23:42 05.04.2021
641 Clouds 25 1001 8 10000 1.34 148 23:19 05.04.2021
642 Clouds 25 1001 8 10000 0.89 144 22:48 05.04.2021
643 Clouds 24 1002 9 10000 0.89 136 22:25 05.04.2021
644 Clouds 24 1007 11 10000 6.69 200 21:43 05.04.2021
645 Clouds 23 1003 10 10000 2.24 182 21:20 05.04.2021
646 Clouds 22 1004 13 10000 0.89 178 20:42 05.04.2021
647 Clouds 22 1009 13 10000 5.66 180 20:23 05.04.2021
648 Clouds 22 1005 13 10000 1.79 211 19:42 05.04.2021
649 Clouds 21 1006 14 10000 2.24 144 19:21 05.04.2021
650 Clouds 20 999 22 10000 1.79 165 18:49 05.04.2021
651 Clouds 18 999 26 10000 2.24 138 18:31 05.04.2021
652 Clouds 18 1009 26 10000 0.45 232 17:57 05.04.2021
653 Clouds 17 1010 27 10000 1.34 219 17:37 05.04.2021
654 Clouds 15 1007 18 10000 0.45 115 17:18 05.04.2021
655 Clouds 15 1008 21 10000 0.89 196 16:41 05.04.2021
656 Clouds 13 1008 23 10000 0.45 179 16:19 05.04.2021
657 Clouds 12 1007 24 10000 0.89 159 15:50 05.04.2021
658 Clouds 11 1008 27 10000 0.45 150 15:27 05.04.2021
659 Clouds 10 1012 37 10000 6.17 190 14:46 05.04.2021
660 Clouds 11 1010 42 10000 2.97 206 14:25 05.04.2021
661 Clouds 11 1008 29 10000 0.89 179 13:31 05.04.2021
662 Clouds 11 1008 29 10000 0.89 179 13:31 05.04.2021
663 Clouds 10 1011 45 10000 2.99 205 12:48 05.04.2021
664 Clouds 10 1001 42 10000 1.34 198 12:26 05.04.2021
665 Clouds 11 1001 43 10000 2.99 204 11:54 05.04.2021
666 Clouds 11 1012 42 10000 0.45 291 11:33 05.04.2021
667 Clear 11 1012 43 10000 0.45 297 10:57 05.04.2021
668 Clear 11 1012 40 10000 2.63 210 10:37 05.04.2021
669 Clear 12 1011 32 10000 2.54 210 09:56 05.04.2021
670 Clear 12 1015 37 10000 3.6 190 09:37 05.04.2021
671 Clear 12 1015 37 10000 3.6 190 09:19 05.04.2021
672 Clear 13 1011 28 10000 0.45 196 08:40 05.04.2021
673 Clouds 13 1011 27 10000 0.45 200 08:19 05.04.2021
674 Clouds 14 1012 27 10000 0.45 244 07:34 05.04.2021
675 Clouds 19 1012 15 10000 0.88 36 04:23 05.04.2021
676 Clouds 23 1011 9 10000 0.45 182 01:34 05.04.2021
677 Clouds 24 1016 10 10000 1.54 230 00:24 05.04.2021
678 Clouds 24 1015 13 10000 0.89 294 23:38 04.04.2021
679 Clouds 25 1008 12 10000 0.45 336 23:18 04.04.2021
680 Clouds 25 1015 17 10000 0.45 287 22:49 04.04.2021
681 Clouds 25 1013 9 10000 2.48 74 22:26 04.04.2021
682 Clouds 24 1014 9 10000 0.45 290 21:23 04.04.2021
683 Clouds 24 1014 8 10000 1.93 28 20:51 04.04.2021
684 Clouds 24 1015 9 10000 1.16 331 20:25 04.04.2021
685 Clouds 23 1015 11 10000 1.16 331 19:42 04.04.2021
686 Clouds 22 1016 12 10000 1.4 233 19:21 04.04.2021
687 Clouds 22 1016 13 10000 1.4 233 18:56 04.04.2021
688 Clouds 21 1016 13 10000 1.4 233 18:37 04.04.2021
689 Clouds 20 1016 14 10000 2.16 215 18:19 04.04.2021
690 Clouds 18 1016 17 10000 0.45 201 17:37 04.04.2021
691 Clouds 17 1016 19 10000 2.37 209 17:18 04.04.2021
692 Clouds 14 1020 36 10000 2.37 209 16:41 04.04.2021
693 Clear 11 1019 38 10000 2.44 209 15:58 04.04.2021
694 Clear 11 1016 30 10000 0.89 279 15:33 04.04.2021
695 Clear 9 1030 38 10000 0.45 199 14:42 04.04.2021
696 Clouds 9 1029 37 10000 0.45 197 14:24 04.04.2021
697 Clear 9 1029 34 10000 0.89 164 13:28 04.04.2021
698 Clear 9 1029 34 10000 0.89 164 13:28 04.04.2021
699 Clear 10 1029 35 10000 0.45 168 12:52 04.04.2021
700 Clear 10 1010 24 10000 2.24 218 12:28 04.04.2021
701 Clear 10 1030 34 10000 0.45 199 11:51 04.04.2021
702 Clear 10 1030 34 10000 0.45 215 11:31 04.04.2021
703 Clear 11 1003 30 10000 1.34 251 10:55 04.04.2021
704 Clear 11 1030 35 10000 0.45 160 10:32 04.04.2021
705 Clear 11 1022 30 10000 2.06 340 09:52 04.04.2021
706 Clear 11 1022 30 10000 2.06 340 09:23 04.04.2021
707 Clear 12 1014 32 10000 1.38 270 08:49 04.04.2021
708 Clear 13 1014 29 10000 1.38 270 08:31 04.04.2021
709 Clear 13 1014 26 10000 2 294 07:21 04.04.2021
710 Clear 14 1017 14 10000 1.32 349 06:33 04.04.2021
711 Clear 22 1016 7 10000 3.04 68 03:25 04.04.2021
712 Clear 25 1016 5 10000 3 101 01:18 04.04.2021
713 Clear 25 1016 6 10000 2.86 103 00:19 04.04.2021
714 Clear 25 1017 5 10000 0.89 75 23:42 03.04.2021
715 Clear 25 1017 5 10000 1.34 42 22:59 03.04.2021
716 Clouds 24 1023 7 10000 3.6 170 22:40 03.04.2021
717 Clear 24 1018 5 10000 0.45 107 22:19 03.04.2021
718 Clear 24 1018 5 10000 1.94 111 21:46 03.04.2021
719 Clear 24 1018 6 10000 1.46 106 21:23 03.04.2021
720 Clear 23 1019 5 10000 0.89 202 20:48 03.04.2021
721 Clear 22 1021 10 10000 0.45 190 20:26 03.04.2021
722 Clear 22 1017 12 10000 1.27 140 19:48 03.04.2021
723 Clear 21 1022 17 10000 1.18 165 19:24 03.04.2021
724 Clear 20 1020 13 10000 1.18 165 18:46 03.04.2021
725 Clear 18 1020 14 10000 0.45 202 18:23 03.04.2021
726 Clear 16 1019 18 10000 1.18 186 17:51 03.04.2021
727 Clouds 14 1023 24 10000 4.63 240 17:21 03.04.2021
728 Clear 13 1019 24 10000 0.45 172 16:49 03.04.2021
729 Clear 10 1019 28 10000 1.42 221 16:21 03.04.2021
730 Clear 8 1023 35 10000 0.45 197 15:48 03.04.2021
731 Clear 7 1032 40 10000 1.47 216 15:22 03.04.2021
732 Clear 7 1022 33 10000 2.06 190 14:44 03.04.2021
733 Clear 7 1022 33 10000 2.06 190 14:44 03.04.2021
734 Clear 8 843 9 10000 1.61 224 14:23 03.04.2021
735 Clear 7 1020 44 10000 1.61 224 13:50 03.04.2021
736 Clear 7 1031 36 10000 0.45 109 13:24 03.04.2021
737 Clear 7 1031 38 10000 1.79 221 12:56 03.04.2021
738 Clear 7 1012 27 10000 1.89 216 12:31 03.04.2021
739 Clear 8 1031 35 10000 0.45 208 11:39 03.04.2021
740 Clear 8 1031 34 10000 1.7 220 10:58 03.04.2021
741 Clear 8 1022 31 10000 4.12 190 10:40 03.04.2021
742 Clear 8 1022 33 10000 1.78 236 10:18 03.04.2021
743 Clear 9 837 36 10000 0.45 241 09:28 03.04.2021
744 Clear 9 1022 33 10000 4.63 190 08:58 03.04.2021
745 Clear 10 1020 36 10000 0.79 260 08:30 03.04.2021
746 Clear 11 1010 24 10000 0.45 322 07:29 03.04.2021
747 Clear 11 1017 20 10000 1.84 266 06:44 03.04.2021
748 Clear 17 1011 16 10000 2.02 100 03:53 03.04.2021
749 Clouds 21 1019 7 10000 2.06 350 02:51 03.04.2021
750 Clouds 22 1014 6 10000 3.91 1 02:26 03.04.2021
751 Clouds 23 1014 6 10000 0.45 32 00:23 03.04.2021
752 Clouds 22 1014 6 10000 0.89 38 23:50 02.04.2021
753 Clouds 22 1014 6 10000 0.45 44 23:24 02.04.2021
754 Clouds 22 1019 8 10000 4.12 30 22:55 02.04.2021
755 Clouds 22 1014 7 10000 0.45 45 22:36 02.04.2021
756 Clouds 22 1014 6 10000 0.45 40 21:46 02.04.2021
757 Clouds 22 1014 7 10000 0.45 271 21:26 02.04.2021
758 Clouds 21 1014 7 10000 1.79 311 20:53 02.04.2021
759 Clouds 21 1014 8 10000 3.29 330 20:34 02.04.2021
760 Clouds 20 1014 9 10000 1.81 356 19:59 02.04.2021
761 Clouds 20 1014 10 10000 1.81 356 19:39 02.04.2021
762 Clouds 19 1011 19 10000 0.45 117 19:21 02.04.2021
763 Clouds 18 1015 12 10000 0.54 232 18:39 02.04.2021
764 Clouds 16 1011 22 10000 0.89 123 18:20 02.04.2021
765 Clouds 14 1014 17 10000 0.45 184 17:40 02.04.2021
766 Clouds 11 1015 23 10000 0.89 177 16:51 02.04.2021
767 Clouds 10 1019 27 10000 2.06 190 16:51 02.04.2021
768 Clouds 9 1014 25 10000 0.89 174 16:22 02.04.2021
769 Clouds 8 1013 33 10000 0.45 198 15:35 02.04.2021
770 Clouds 7 1013 34 10000 0.89 199 14:55 02.04.2021
771 Clouds 7 1013 35 10000 2.73 217 14:31 02.04.2021
772 Clouds 7 1013 35 10000 2.73 217 14:31 02.04.2021
773 Clouds 6 1013 35 10000 2.57 211 13:44 02.04.2021
774 Clouds 7 1013 34 10000 0.45 197 13:23 02.04.2021
775 Clouds 7 1013 37 10000 0.45 199 12:41 02.04.2021
776 Clouds 7 1013 37 10000 2.17 218 12:20 02.04.2021
777 Clouds 7 1013 34 10000 0.45 199 11:56 02.04.2021
778 Clear 6 1013 35 10000 2.29 219 11:21 02.04.2021
779 Clear 7 1013 35 10000 2.29 219 11:21 02.04.2021
780 Clear 6 1017 42 10000 2.29 219 10:50 02.04.2021
781 Clear 7 1014 34 10000 2.3 215 10:29 02.04.2021
782 Clear 7 1014 34 10000 2.3 215 09:53 02.04.2021
783 Clear 8 1014 34 10000 2.13 220 09:27 02.04.2021
784 Clear 8 1014 28 10000 2.13 220 08:54 02.04.2021
785 Clear 8 1015 32 10000 1.75 227 08:30 02.04.2021
786 Clear 9 1014 25 10000 1.8 251 07:30 02.04.2021
787 Clear 9 1015 22 10000 1.8 251 06:52 02.04.2021
788 Clear 12 1015 15 10000 0.34 97 05:28 02.04.2021
789 Clear 21 1017 14 10000 2.8 19 02:30 02.04.2021
790 Clear 21 1014 6 10000 1.93 64 00:52 02.04.2021
791 Clear 21 1015 6 10000 0.45 76 00:22 02.04.2021
792 Clear 21 1020 7 10000 2.57 70 00:22 02.04.2021
793 Clear 21 1018 13 10000 0.89 344 23:39 01.04.2021
794 Clear 20 1019 10 10000 0.45 96 22:57 01.04.2021
795 Clear 19 1017 6 10000 1.89 134 22:20 01.04.2021
796 Clear 19 1018 6 10000 0.45 66 21:50 01.04.2021
797 Clear 18 1022 13 10000 1.34 88 21:27 01.04.2021
798 Clear 17 1019 8 10000 1.93 146 20:47 01.04.2021
799 Clear 16 1024 11 10000 3.09 100 20:25 01.04.2021
800 Clear 15 1024 17 10000 1.59 142 19:56 01.04.2021
801 Clear 14 1021 12 10000 0.45 155 19:35 01.04.2021
802 Clear 14 1025 18 10000 2.06 170 19:35 01.04.2021
803 Clear 14 1025 18 10000 2.06 170 19:35 01.04.2021
804 Clear 11 1026 25 10000 2.06 220 18:46 01.04.2021
805 Clear 9 1022 23 10000 0.45 186 18:18 01.04.2021
806 Clear 8 1022 27 10000 1.25 175 17:51 01.04.2021
807 Clear 6 1026 30 10000 3.09 250 17:32 01.04.2021
808 Clear 4 1023 37 10000 0.87 191 16:51 01.04.2021
809 Clear 3 1023 37 10000 0.76 205 16:28 01.04.2021
810 Clear -2 1026 47 10000 3.6 220 15:47 01.04.2021
811 Clear -1 1026 47 10000 6.17 210 15:20 01.04.2021
812 Clear -1 1036 48 10000 0.6 208 14:45 01.04.2021
813 Clear -1 951 53 10000 0.6 208 14:45 01.04.2021
814 Clear 0 1024 52 10000 0.51 202 14:26 01.04.2021
815 Clear 0 1036 45 10000 0.45 214 13:55 01.04.2021
816 Clear 0 1024 50 10000 0.61 207 13:30 01.04.2021
817 Clear 1 1024 48 10000 0.8 178 12:51 01.04.2021
818 Clear 2 1024 46 10000 0.8 178 12:31 01.04.2021
819 Clear 1 1024 45 10000 0.95 180 11:49 01.04.2021
820 Clear 1 1024 45 10000 0.95 180 11:49 01.04.2021
821 Clear 2 1024 45 10000 0.97 213 11:24 01.04.2021
822 Clear 2 1036 36 10000 0.89 123 10:53 01.04.2021
823 Clear 2 1024 43 10000 0.97 213 10:35 01.04.2021
824 Clear 1 1029 44 10000 1.37 232 09:56 01.04.2021
825 Clear 2 1027 46 10000 1.5 207 09:27 01.04.2021
826 Clear 2 1025 35 10000 0.45 171 08:33 01.04.2021
827 Clear 2 1025 30 10000 2.29 177 07:59 01.04.2021
828 Clear 2 1025 26 10000 2.93 163 07:20 01.04.2021
829 Clear 3 1025 28 10000 2.93 163 06:48 01.04.2021
830 Clear 3 1025 28 10000 2.93 163 06:48 01.04.2021
831 Clear 7 1024 21 10000 3.5 99 03:52 01.04.2021
832 Clear 11 1023 18 10000 1.34 42 01:52 01.04.2021
833 Clear 11 1023 12 10000 1.63 46 23:51 31.03.2021
834 Clear 11 1026 22 10000 1.35 45 23:31 31.03.2021
835 Clear 10 1026 24 10000 0.89 87 22:41 31.03.2021
836 Clear 10 1026 26 10000 0.79 57 22:21 31.03.2021
837 Clear 10 1026 26 10000 0.45 91 21:47 31.03.2021
838 Clear 9 1024 15 10000 0.45 105 21:24 31.03.2021
839 Clear 8 1024 15 10000 0.45 105 20:57 31.03.2021
840 Clear 8 1024 16 10000 0.74 126 20:39 31.03.2021
841 Clear 7 1024 17 10000 0.89 64 20:18 31.03.2021
842 Clear 6 1025 19 10000 0.45 69 19:40 31.03.2021
843 Clear 5 1025 20 10000 1.92 162 19:19 31.03.2021
844 Clear 5 1025 22 10000 0.89 126 18:49 31.03.2021
845 Clear 4 1025 24 10000 1.34 171 18:21 31.03.2021
846 Clear 2 1024 35 10000 1.63 191 17:37 31.03.2021
847 Clear 1 1024 37 10000 0.45 183 17:18 31.03.2021
848 Clear 0 1024 41 10000 0.45 190 16:48 31.03.2021
849 Clear -1 1024 45 10000 1.51 209 16:25 31.03.2021
850 Clear -3 1027 54 10000 2.06 180 15:50 31.03.2021
851 Clear -4 1023 50 10000 1.84 211 15:20 31.03.2021
852 Clear -4 1023 50 10000 1.84 211 15:20 31.03.2021
853 Clouds -3 1026 54 10000 3.6 260 14:45 31.03.2021
854 Clear -3 1022 47 10000 1.83 221 14:24 31.03.2021
855 Clear -3 1022 33 10000 0.89 258 13:42 31.03.2021
856 Clear -3 1022 36 10000 2.31 248 13:18 31.03.2021
857 Clear -3 1022 48 10000 0.45 166 12:36 31.03.2021
858 Clear -3 1022 50 10000 0.45 166 12:18 31.03.2021
859 Clear -2 1021 47 10000 0.45 164 11:22 31.03.2021
860 Clear -2 1021 48 10000 0.89 155 10:47 31.03.2021
861 Clear -2 1027 44 10000 1.34 273 10:26 31.03.2021
862 Clouds -2 1025 93 10000 2.06 220 09:45 31.03.2021
863 Clear -2 1026 60 10000 0.89 207 09:26 31.03.2021
864 Clear -2 1020 75 10000 2.66 258 08:41 31.03.2021
865 Clouds -1 1020 73 10000 3.23 257 07:58 31.03.2021
866 Clouds 0 1019 66 10000 0.45 24 06:50 31.03.2021
867 Clouds 2 1015 51 10000 2.3 278 03:52 31.03.2021
868 Clouds 3 1014 50 5160 3.55 163 02:32 31.03.2021
869 Clouds 3 1013 49 9376 0.89 147 00:54 31.03.2021
870 Clouds 4 1017 51 10000 0.45 134 00:22 31.03.2021
871 Clouds 4 1012 37 10000 4.63 143 23:54 30.03.2021
872 Clouds 3 1012 39 2454 0.45 34 23:19 30.03.2021
873 Clouds 3 1015 56 2454 0.89 58 22:47 30.03.2021
874 Clouds 3 1012 43 4662 3.41 123 22:29 30.03.2021
875 Clouds 2 1012 44 4662 3.41 123 21:55 30.03.2021
876 Clouds 2 1012 49 10000 0.45 160 21:24 30.03.2021
877 Clouds 2 1012 53 10000 1.34 163 20:57 30.03.2021
878 Clouds 1 1012 57 10000 0.89 90 20:29 30.03.2021
879 Clouds 0 1013 58 10000 0.89 95 19:52 30.03.2021
880 Clouds 0 1013 62 10000 1.79 155 19:28 30.03.2021
881 Clouds -1 1013 68 10000 2.24 110 18:47 30.03.2021
882 Clouds -1 1013 72 8357 0.89 136 18:24 30.03.2021
883 Clouds -2 1013 76 8357 0.45 119 17:42 30.03.2021
884 Snow -3 1013 77 5356 3.7 131 17:24 30.03.2021
885 Snow -4 1013 84 5312 3.72 131 16:46 30.03.2021
886 Snow -4 1013 84 5356 3.7 131 16:46 30.03.2021
887 Snow -4 1016 93 6437 5.14 130 16:25 30.03.2021
888 Snow -4 1012 85 482 3.25 123 15:21 30.03.2021
889 Snow -4 1012 85 481 3.26 123 14:59 30.03.2021
890 Snow -4 1012 85 1619 3.1 123 14:39 30.03.2021
891 Snow -4 1012 85 2173 3.2 111 14:18 30.03.2021
892 Snow -4 1011 85 2173 0.45 94 13:38 30.03.2021
893 Snow -4 1010 85 2443 3.64 116 12:49 30.03.2021
894 Snow -3 1010 83 2885 0.89 143 12:29 30.03.2021
895 Snow -3 1010 82 2847 3.81 109 11:59 30.03.2021
896 Clouds -2 1009 76 10000 4.67 91 11:24 30.03.2021
897 Snow -2 1009 79 10000 4.69 91 10:47 30.03.2021
898 Snow -2 1009 72 4078 0.45 32 10:29 30.03.2021
899 Snow -1 1008 72 4078 0.89 38 09:57 30.03.2021
900 Snow -1 1008 59 4078 0.45 29 09:37 30.03.2021
901 Clouds -1 1008 51 8200 6.96 87 09:18 30.03.2021
902 Clouds 0 1009 69 10000 8.23 90 08:39 30.03.2021
903 Clouds 1 1009 69 10000 8.23 90 07:52 30.03.2021
904 Clouds 2 1012 49 10000 0.89 134 07:22 30.03.2021
905 Clear 5 1003 39 10000 1.79 72 05:49 30.03.2021
906 Clear 7 1002 33 10000 1.34 29 05:19 30.03.2021
907 Clouds 22 1000 8 10000 10.29 240 00:40 30.03.2021
908 Clouds 22 1000 8 10000 6.69 250 23:36 29.03.2021
909 Clear 23 996 6 10000 1.79 224 22:52 29.03.2021
910 Clouds 22 1000 9 10000 10.8 220 22:30 29.03.2021
911 Clouds 22 1001 10 10000 8.23 230 21:47 29.03.2021
912 Clouds 21 1001 10 10000 8.23 230 21:29 29.03.2021
913 Clear 21 997 7 10000 0.45 271 20:48 29.03.2021
914 Clear 20 997 11 10000 1.79 265 20:27 29.03.2021
915 Clouds 20 1004 11 10000 9.26 230 19:49 29.03.2021
916 Clear 18 1003 13 10000 0.89 117 19:24 29.03.2021
917 Clear 17 1000 13 10000 0.45 154 18:44 29.03.2021
918 Clear 15 1001 17 10000 2.66 198 18:26 29.03.2021
919 Clear 14 1002 21 10000 2.66 198 17:50 29.03.2021
920 Clouds 13 1007 21 10000 1.54 210 17:31 29.03.2021
921 Clouds 9 1007 29 10000 4.63 210 16:42 29.03.2021
922 Clear 7 1003 28 10000 2.5 207 16:23 29.03.2021
923 Clear 6 1007 38 10000 2.5 207 15:36 29.03.2021
924 Clear 4 1007 37 10000 2.75 206 15:18 29.03.2021
925 Clouds 5 1008 38 10000 5.14 180 14:45 29.03.2021
926 Clouds 5 1008 35 10000 2.97 206 13:55 29.03.2021
927 Clouds 4 1004 42 10000 2.77 207 13:31 29.03.2021
928 Clouds 4 1012 51 10000 2.77 207 12:54 29.03.2021
929 Clouds 5 1009 46 10000 2.77 207 12:35 29.03.2021
930 Clouds 5 1007 42 10000 2.78 208 11:43 29.03.2021
931 Clouds 6 1012 42 10000 5.66 190 11:24 29.03.2021
932 Clouds 6 1008 36 10000 2.79 209 10:41 29.03.2021
933 Clouds 6 1009 33 10000 2.71 212 09:56 29.03.2021
934 Clouds 7 1010 35 10000 2.52 209 09:23 29.03.2021
935 Clouds 8 1010 34 10000 2.56 213 08:30 29.03.2021
936 Clouds 8 1010 34 10000 2.56 213 08:30 29.03.2021
937 Clouds 7 1011 34 10000 2.51 218 07:51 29.03.2021
938 Clouds 8 1012 29 10000 2.29 225 06:53 29.03.2021
939 Clear 10 1017 36 10000 1.62 233 05:19 29.03.2021
940 Clear 17 1014 14 10000 3.65 302 02:22 29.03.2021
941 Clear 18 1015 14 10000 0.45 286 00:26 29.03.2021
942 Clear 17 1015 12 10000 1.79 245 23:53 28.03.2021
943 Clear 17 1015 12 10000 1.34 288 23:24 28.03.2021
944 Clear 17 1016 12 10000 0.89 178 22:42 28.03.2021
945 Clear 17 1016 12 10000 0.45 202 22:24 28.03.2021
946 Clear 16 1017 12 10000 2.68 266 21:45 28.03.2021
947 Clouds 16 1022 18 10000 7.72 290 21:24 28.03.2021
948 Clouds 15 1022 19 10000 7.72 270 20:51 28.03.2021
949 Clouds 15 1018 14 10000 1.79 300 20:33 28.03.2021
950 Clouds 14 1019 14 10000 2.68 293 19:47 28.03.2021
951 Clouds 14 1019 14 10000 2.24 291 19:47 28.03.2021
952 Clouds 14 1023 21 10000 6.17 270 19:25 28.03.2021
953 Clouds 13 1019 16 10000 0.45 219 18:59 28.03.2021
954 Clouds 13 1019 17 10000 0.89 169 18:36 28.03.2021
955 Clear 11 1019 21 10000 2.24 153 17:56 28.03.2021
956 Clear 10 1019 23 10000 2.24 184 17:36 28.03.2021
957 Clear 7 1019 27 10000 0.89 157 16:55 28.03.2021
958 Clear 4 1022 46 10000 0.45 238 16:24 28.03.2021
959 Clear 2 1019 36 10000 1.34 157 15:49 28.03.2021
960 Clouds 1 1024 59 10000 5.14 190 15:24 28.03.2021
961 Clear 1 1019 38 10000 0.45 180 14:39 28.03.2021
962 Clear 1 1019 39 10000 0.89 173 13:55 28.03.2021
963 Clear 1 1019 39 10000 0.89 165 13:34 28.03.2021
964 Clear 1 1019 39 10000 0.45 166 12:55 28.03.2021
965 Clear 1 1019 39 10000 0.89 165 12:34 28.03.2021
966 Clear 2 1020 38 10000 0.45 167 11:50 28.03.2021
967 Clear 2 1020 38 10000 0.45 168 11:32 28.03.2021
968 Clear 2 1020 37 10000 0.45 175 10:47 28.03.2021
969 Clear 2 1020 38 10000 0.89 169 10:28 28.03.2021
970 Clear 2 1020 39 10000 0.89 177 09:49 28.03.2021
971 Clear 2 1020 39 10000 0.45 171 09:27 28.03.2021
972 Clear 3 1021 42 10000 0.45 167 08:48 28.03.2021
973 Clouds 3 1021 40 10000 0.45 165 07:53 28.03.2021
974 Clouds 3 1021 37 10000 2.58 187 07:34 28.03.2021
975 Clouds 6 1020 27 10000 2.95 291 05:19 28.03.2021
976 Clouds 10 1018 26 10000 5.31 312 01:50 28.03.2021
977 Clouds 11 1017 23 10000 5.21 322 00:25 28.03.2021
978 Clouds 11 1021 32 10000 4.12 30 23:48 27.03.2021
979 Clouds 11 1021 32 10000 4.12 30 23:29 27.03.2021
980 Clouds 11 1016 24 10000 0.45 23 22:38 27.03.2021
981 Clear 11 1017 25 10000 0.89 55 22:18 27.03.2021
982 Clouds 10 1021 34 10000 3.6 20 21:41 27.03.2021
983 Clear 10 1017 27 10000 4.48 350 21:20 27.03.2021
984 Clear 9 1017 28 10000 0.89 34 20:50 27.03.2021
985 Clear 9 1017 27 10000 1.79 32 20:31 27.03.2021
986 Clear 8 1017 33 10000 0.45 57 19:45 27.03.2021
987 Clear 8 1018 32 10000 1.34 26 19:23 27.03.2021
988 Clear 7 1018 33 10000 0.89 31 18:50 27.03.2021
989 Clear 7 1018 34 10000 1.34 22 18:31 27.03.2021
990 Clear 7 1017 34 10000 0.89 28 17:56 27.03.2021
991 Clear 6 1017 35 10000 1.34 58 17:26 27.03.2021
992 Clear 6 1016 27 10000 1.6 358 16:53 27.03.2021
993 Clear 5 1016 28 10000 1.75 324 16:30 27.03.2021
994 Clear 4 1016 34 10000 1.75 324 15:55 27.03.2021
995 Clear 2 1015 34 10000 2.37 283 15:33 27.03.2021
996 Clear 1 1014 33 10000 2.37 283 14:52 27.03.2021
997 Clear 1 1016 41 10000 1.79 276 13:59 27.03.2021
998 Clear 1 1017 55 10000 5.66 330 13:26 27.03.2021
999 Clouds 1 1015 44 10000 1.34 273 12:56 27.03.2021
1000 Clouds 1 1015 41 10000 2.24 305 12:31 27.03.2021
1001 Clouds 1 1012 64 10000 2.14 256 11:47 27.03.2021
1002 Clouds 1 1011 77 10000 1.91 233 11:27 27.03.2021
1003 Clouds 0 1011 79 10000 0.89 165 10:46 27.03.2021
1004 Clear 0 1015 100 10000 4.12 200 10:24 27.03.2021
1005 Clouds 0 1015 100 10000 2.57 190 09:29 27.03.2021
1006 Clouds 1 1015 100 10000 2.06 170 08:48 27.03.2021
1007 Clouds 1 1015 88 10000 1.57 219 08:30 27.03.2021
1008 Clouds 1 1013 83 10000 1.12 169 07:35 27.03.2021
1009 Clouds 2 1015 100 10000 1.54 330 06:47 27.03.2021
1010 Clouds 2 1011 76 10000 1.45 50 06:28 27.03.2021
1011 Clouds 3 1011 74 10000 1.94 28 04:40 27.03.2021
1012 Clouds 5 1007 58 10000 0.89 298 00:54 27.03.2021
1013 Clouds 7 1006 58 10000 3.13 345 00:30 27.03.2021
1014 Clouds 8 1008 51 9207 2.41 313 23:54 26.03.2021
1015 Clouds 8 1005 40 10000 0.45 203 23:21 26.03.2021
1016 Clouds 8 1005 41 10000 5.16 323 22:35 26.03.2021
1017 Clouds 7 1005 44 10000 0.45 282 21:37 26.03.2021
1018 Clouds 8 1005 46 10000 3.17 40 21:18 26.03.2021
1019 Clouds 8 1005 43 10000 1.79 290 20:38 26.03.2021
1020 Clouds 8 1004 35 10000 2.99 28 20:19 26.03.2021
1021 Clouds 8 1005 38 10000 3.36 21 19:47 26.03.2021
1022 Clouds 8 1005 38 10000 0.45 32 19:28 26.03.2021
1023 Clouds 8 1005 39 10000 0.89 41 18:42 26.03.2021
1024 Clouds 7 1005 42 10000 2.41 23 18:20 26.03.2021
1025 Clouds 7 1008 56 10000 5.66 340 17:46 26.03.2021
1026 Clouds 6 1004 49 10000 1.26 36 16:56 26.03.2021
1027 Clouds 6 1004 53 10000 1.26 36 16:33 26.03.2021
1028 Clouds 4 1004 59 10000 0.74 29 15:53 26.03.2021
1029 Clouds 2 1004 64 10000 0.71 348 15:21 26.03.2021
1030 Clouds 1 1003 73 10000 0.71 348 14:31 26.03.2021
1031 Clouds 2 1002 72 10000 1.04 339 13:38 26.03.2021
1032 Clouds 2 1005 88 10000 0.65 326 12:54 26.03.2021
1033 Clouds 2 1002 72 10000 0.65 326 12:32 26.03.2021
1034 Clouds 2 1001 73 10000 1.32 340 11:35 26.03.2021
1035 Clouds 2 1005 100 10000 5.14 330 10:58 26.03.2021
1036 Clouds 3 1001 72 10000 1.55 340 10:39 26.03.2021
1037 Clouds 3 1001 69 10000 0.45 360 09:54 26.03.2021
1038 Clouds 4 1001 64 10000 0.89 360 09:35 26.03.2021
1039 Clouds 4 1001 56 10000 1.22 333 08:42 26.03.2021
1040 Clouds 4 1001 57 10000 0.45 224 08:22 26.03.2021
1041 Clouds 4 1001 59 10000 1.91 336 07:24 26.03.2021
1042 Clouds 5 1001 55 10000 0.89 289 06:58 26.03.2021
1043 Clouds 5 1001 45 10000 1.91 336 06:35 26.03.2021
1044 Clouds 6 1002 53 10000 2.24 267 05:31 26.03.2021
1045 Clouds 9 1000 32 10000 0.93 359 02:22 26.03.2021
1046 Clouds 11 998 20 10000 1.86 313 00:32 26.03.2021
1047 Clouds 10 1001 30 10000 0.45 156 23:44 25.03.2021
1048 Clouds 10 998 19 10000 2.96 305 23:20 25.03.2021
1049 Clouds 11 998 20 10000 2.96 305 22:36 25.03.2021
1050 Clouds 11 998 20 10000 0.34 218 21:53 25.03.2021
1051 Clouds 11 999 19 10000 0.89 170 21:34 25.03.2021
1052 Clouds 11 999 20 10000 0.89 177 20:45 25.03.2021
1053 Clouds 10 999 20 10000 0.45 211 20:25 25.03.2021
1054 Clouds 10 1000 21 10000 0.89 178 19:48 25.03.2021
1055 Clouds 10 1000 20 10000 1.34 71 19:30 25.03.2021
1056 Clouds 9 1006 31 10000 1.9 180 18:49 25.03.2021
1057 Clouds 7 1003 35 10000 1.34 340 18:27 25.03.2021
1058 Clouds 7 1001 27 10000 0.89 180 17:55 25.03.2021
1059 Clouds 6 1001 30 10000 0.45 199 17:36 25.03.2021
1060 Clouds 5 1001 36 10000 0.45 155 16:55 25.03.2021
1061 Clouds 4 1001 39 10000 0.89 189 16:32 25.03.2021
1062 Clouds 2 1001 49 10000 2.79 201 15:46 25.03.2021
1063 Clouds 1 1001 55 10000 0.45 200 15:23 25.03.2021
1064 Clouds -2 1004 69 10000 5.14 190 14:48 25.03.2021
1065 Clouds -3 1000 67 10000 2.48 211 14:18 25.03.2021
1066 Clouds -3 1004 74 10000 4.63 200 13:24 25.03.2021
1067 Clear -3 1000 66 10000 0.45 206 12:45 25.03.2021
1068 Clear -2 1000 65 10000 2.24 209 12:21 25.03.2021
1069 Clear -2 1004 74 10000 6.69 190 11:53 25.03.2021
1070 Clear -2 1000 71 10000 0.45 204 11:31 25.03.2021
1071 Clear -2 1000 72 10000 1.92 210 10:57 25.03.2021
1072 Clear -2 1001 72 10000 1.92 210 10:39 25.03.2021
1073 Clear -2 1001 74 10000 1.78 209 10:18 25.03.2021
1074 Clear -2 1001 74 10000 1.78 209 09:43 25.03.2021
1075 Clouds -2 1001 73 10000 1.51 203 08:59 25.03.2021
1076 Clouds -2 1002 71 10000 1.51 203 08:30 25.03.2021
1077 Clouds -1 1003 67 10000 1.06 269 07:26 25.03.2021
1078 Clouds -1 1003 65 10000 1.5 265 06:27 25.03.2021
1079 Clear 0 1007 69 10000 6.17 200 05:49 25.03.2021
1080 Clear 0 1007 69 10000 6.69 180 04:42 25.03.2021
1081 Clouds 5 1004 43 10000 0.89 163 00:46 25.03.2021
1082 Clouds 5 1009 56 10000 6.69 150 00:18 25.03.2021
1083 Clouds 5 1009 56 10000 6.69 150 23:36 24.03.2021
1084 Clouds 5 1006 44 10000 0.89 156 22:58 24.03.2021
1085 Clouds 5 1006 43 10000 0.45 154 22:38 24.03.2021
1086 Clouds 4 1006 48 10000 0.45 144 21:50 24.03.2021
1087 Clouds 4 1007 49 10000 1.34 161 21:31 24.03.2021
1088 Clouds 3 1013 75 10000 4.12 110 20:55 24.03.2021
1089 Clouds 3 1008 51 10000 0.45 150 20:37 24.03.2021
1090 Clouds 3 1009 54 10000 0.45 154 20:18 24.03.2021
1091 Clouds 2 1009 63 10000 2.81 126 19:31 24.03.2021
1092 Clouds 1 1015 74 10000 1.33 100 18:52 24.03.2021
1093 Clouds 0 1011 70 10000 1.14 64 18:24 24.03.2021
1094 Clouds 0 1011 71 10000 1.14 64 17:53 24.03.2021
1095 Clouds 0 1011 72 10000 1.14 64 17:32 24.03.2021
1096 Clouds 0 1011 70 10000 1.14 64 17:32 24.03.2021
1097 Clouds 0 1011 72 10000 1.14 64 17:32 24.03.2021
1098 Snow -1 1011 71 10000 1.39 41 16:54 24.03.2021
1099 Snow -1 1011 75 10000 1.39 41 16:32 24.03.2021
1100 Snow -1 1012 76 741 1.95 13 15:58 24.03.2021
1101 Snow -2 1012 76 740 2.93 8 15:33 24.03.2021
1102 Snow -2 1012 76 746 2.91 8 14:59 24.03.2021
1103 Snow -2 1012 78 309 3.38 359 14:28 24.03.2021
1104 Snow -2 1012 80 310 3.37 359 13:58 24.03.2021
1105 Snow -2 1012 80 310 3.37 359 13:58 24.03.2021
1106 Snow -2 1016 93 10000 4.12 360 13:28 24.03.2021
1107 Snow -2 1012 86 304 4.22 1 12:49 24.03.2021
1108 Snow -2 1012 87 146 3.02 356 12:27 24.03.2021
1109 Snow -2 1012 88 146 3.02 356 11:54 24.03.2021
1110 Snow -2 1012 88 146 3.02 356 11:35 24.03.2021
1111 Snow -1 1012 88 247 2.26 14 10:46 24.03.2021
1112 Snow -1 1012 88 2967 3.85 22 10:26 24.03.2021
1113 Snow -1 1012 89 2967 3.85 22 09:54 24.03.2021
1114 Snow -1 1012 89 156 4.01 3 09:25 24.03.2021
1115 Snow -1 1012 89 156 4.01 3 08:57 24.03.2021
1116 Snow -1 1012 89 125 3.21 345 08:29 24.03.2021
1117 Snow -1 1012 88 125 3.21 345 07:42 24.03.2021
1118 Snow 0 1012 84 236 3.78 336 06:54 24.03.2021
1119 Snow 0 1012 77 236 3.78 336 06:34 24.03.2021
1120 Clouds 2 1008 68 2828 0.45 28 01:20 24.03.2021
1121 Clouds 3 1008 75 6028 0.45 360 00:32 24.03.2021
1122 Clouds 3 1007 71 7565 1.34 21 23:23 23.03.2021
1123 Clouds 4 1007 63 7565 1.79 24 22:58 23.03.2021
1124 Clouds 4 1006 56 7565 6.58 16 22:40 23.03.2021
1125 Clouds 5 1006 54 10000 6.62 19 21:59 23.03.2021
1126 Clouds 4 1006 54 10000 6.62 19 21:41 23.03.2021
1127 Clouds 4 1010 65 10000 7.72 20 21:20 23.03.2021
1128 Clouds 4 1006 50 10000 0.45 360 20:42 23.03.2021
1129 Clouds 4 1006 48 10000 0.89 22 20:23 23.03.2021
1130 Clouds 4 1006 50 10000 0.89 34 19:45 23.03.2021
1131 Clouds 4 1006 52 10000 0.45 350 19:25 23.03.2021
1132 Clouds 4 1007 48 10000 2.24 49 18:43 23.03.2021
1133 Clouds 4 1006 44 10000 0.89 15 18:21 23.03.2021
1134 Clouds 4 1006 44 10000 0.89 28 17:44 23.03.2021
1135 Clear 4 1006 46 10000 0.45 324 17:21 23.03.2021
1136 Clear 2 1006 57 10000 1.02 18 16:26 23.03.2021
1137 Clear 2 1006 66 10000 1 18 15:59 23.03.2021
1138 Clear 1 1009 90 10000 0.45 303 15:38 23.03.2021
1139 Clear -2 1009 78 10000 0.49 340 14:51 23.03.2021
1140 Clear -2 1007 93 10000 0.86 303 14:21 23.03.2021
1141 Clear -2 1008 84 10000 0.86 303 13:49 23.03.2021
1142 Clouds -2 1007 100 10000 2.06 260 13:26 23.03.2021
1143 Clouds -2 1007 100 10000 2.06 210 12:47 23.03.2021
1144 Clouds -2 1007 86 10000 0.49 322 12:27 23.03.2021
1145 Clouds -2 1003 81 10000 0.49 322 11:51 23.03.2021
1146 Clouds -1 1003 80 10000 0.66 296 11:33 23.03.2021
1147 Clouds -1 1004 77 10000 0.66 296 10:44 23.03.2021
1148 Clouds -1 1004 76 10000 0.24 80 10:22 23.03.2021
1149 Clouds -1 1004 76 10000 0.24 80 09:55 23.03.2021
1150 Clouds 0 1004 77 10000 1.01 77 09:29 23.03.2021
1151 Clouds 0 1004 78 10000 1.01 77 08:57 23.03.2021
1152 Clouds 0 1008 88 10000 1.01 77 08:38 23.03.2021
1153 Clouds 0 1005 76 10000 1.13 2 08:20 23.03.2021
1154 Clouds 1 1009 93 10000 2.06 300 07:28 23.03.2021
1155 Clouds 1 1008 84 10000 0.76 324 06:54 23.03.2021
1156 Clouds 2 1010 87 10000 1.2 340 05:48 23.03.2021
1157 Clouds 2 1006 69 10000 1.15 37 03:20 23.03.2021
1158 Clouds 3 1005 54 10000 1.81 44 00:42 23.03.2021
1159 Clouds 3 1006 56 10000 2.36 75 23:24 22.03.2021
1160 Clouds 4 1010 80 10000 4.12 100 22:46 22.03.2021
1161 Clouds 4 1010 70 10000 1.34 12 22:22 22.03.2021
1162 Clouds 4 1010 71 10000 1.34 23 21:52 22.03.2021
1163 Clouds 4 1010 71 10000 1.34 23 21:52 22.03.2021
1164 Clouds 4 1010 73 10000 1.34 57 21:29 22.03.2021
1165 Clouds 4 1011 75 10000 2.24 49 20:54 22.03.2021
1166 Clouds 4 1011 77 10000 1.79 15 20:30 22.03.2021
1167 Clouds 4 1011 78 10000 0.45 84 19:59 22.03.2021
1168 Clouds 4 1011 78 10000 0.45 84 19:59 22.03.2021
1169 Clouds 4 1011 82 10000 0.76 119 19:40 22.03.2021
1170 Clouds 3 1011 83 10000 1.34 141 19:21 22.03.2021
1171 Clouds 3 1011 81 10000 1.34 141 19:21 22.03.2021
1172 Clouds 3 1011 83 10000 1.34 141 19:21 22.03.2021
1173 Clouds 3 1011 84 9547 2.09 71 18:42 22.03.2021
1174 Clouds 2 1011 88 10000 2.03 83 18:23 22.03.2021
1175 Clouds 2 1009 86 10000 2.03 83 17:51 22.03.2021
1176 Clouds 1 1009 86 10000 2.01 102 17:23 22.03.2021
1177 Clouds 1 1009 87 10000 2.01 102 16:58 22.03.2021
1178 Clouds 1 1009 87 10000 2.01 102 16:39 22.03.2021
1179 Clouds 0 1010 88 10000 1.43 120 15:45 22.03.2021
1180 Clouds -1 1010 88 10000 1.62 178 15:27 22.03.2021
1181 Clouds -1 1010 88 10000 1.62 178 14:59 22.03.2021
1182 Clouds -1 1010 88 10000 1.62 178 14:35 22.03.2021
1183 Clouds -1 1013 94 10000 1.18 169 13:53 22.03.2021
1184 Clouds -1 1013 94 10000 1.18 169 13:53 22.03.2021
1185 Clouds -1 1013 94 10000 1.18 169 13:34 22.03.2021
1186 Snow -1 1011 90 5222 0.9 294 12:59 22.03.2021
1187 Snow -1 1010 90 252 1.07 316 12:41 22.03.2021
1188 Snow -1 1011 90 490 2.53 322 12:18 22.03.2021
1189 Snow -1 1011 90 490 2.53 322 11:41 22.03.2021
1190 Snow -1 1012 90 180 2.21 302 11:21 22.03.2021
1191 Snow -1 1012 90 180 2.21 302 10:42 22.03.2021
1192 Snow -1 1012 90 1687 1.5 322 10:22 22.03.2021
1193 Snow -1 1013 90 1687 1.5 322 09:37 22.03.2021
1194 Snow -1 1014 90 192 2.15 336 08:59 22.03.2021
1195 Snow -1 1018 100 2213 2.57 300 08:41 22.03.2021
1196 Snow -1 1014 90 375 2.86 358 08:23 22.03.2021
1197 Snow -1 1018 100 3621 3.09 330 07:43 22.03.2021
1198 Snow -1 1018 100 3621 3.09 330 06:52 22.03.2021
1199 Snow -1 1015 89 162 3.11 339 05:24 22.03.2021
1200 Clouds 1 1014 83 1360 1.34 28 01:40 22.03.2021
1201 Snow 2 1016 100 3219 6.17 20 00:21 22.03.2021
1202 Clouds 2 1012 71 2256 0.45 26 23:53 21.03.2021
1203 Clouds 3 1012 70 4388 1.79 23 23:19 21.03.2021
1204 Clouds 3 1012 70 4388 1.79 23 23:19 21.03.2021
1205 Clouds 3 1012 67 4388 1.34 35 22:55 21.03.2021
1206 Clouds 4 1016 60 10000 6.69 50 21:56 21.03.2021
1207 Clouds 5 1011 51 10000 1.34 25 21:38 21.03.2021
1208 Clouds 5 1011 52 10000 0.45 51 21:20 21.03.2021
1209 Clouds 5 1014 59 10000 1.34 69 20:41 21.03.2021
1210 Clouds 5 1010 61 10000 2.24 20 20:22 21.03.2021
1211 Clouds 5 1016 70 10000 5.66 70 19:50 21.03.2021
1212 Clouds 5 1016 70 10000 5.66 70 19:50 21.03.2021
1213 Clouds 5 1010 59 10000 1.34 59 19:21 21.03.2021
1214 Clouds 5 1015 70 10000 5.14 70 18:46 21.03.2021
1215 Clouds 6 1014 60 10000 1.34 75 18:27 21.03.2021
1216 Clouds 6 1014 58 10000 1.79 82 17:45 21.03.2021
1217 Clouds 6 1014 60 10000 1.34 72 17:19 21.03.2021
1218 Clouds 6 1014 61 10000 1.34 73 16:54 21.03.2021
1219 Clear 5 1013 63 10000 1.79 44 16:29 21.03.2021
1220 Clear 5 1007 62 10000 1.34 98 15:55 21.03.2021
1221 Clear 4 1007 66 10000 1.79 92 15:36 21.03.2021
1222 Clear 4 1006 70 10000 2.68 70 15:18 21.03.2021
1223 Clear 3 1012 72 10000 1.34 112 14:41 21.03.2021
1224 Clouds 4 1012 80 10000 5.14 110 14:23 21.03.2021
1225 Clear 4 1010 59 10000 0.45 286 13:52 21.03.2021
1226 Clouds 5 1004 52 10000 1.74 216 12:46 21.03.2021
1227 Clouds 5 1003 52 10000 0.89 242 12:26 21.03.2021
1228 Clouds 5 1008 61 10000 1.64 223 11:51 21.03.2021
1229 Clouds 6 1002 54 10000 0.89 236 11:27 21.03.2021
1230 Clouds 7 1002 58 10000 2.24 200 10:54 21.03.2021
1231 Clouds 7 1002 55 10000 2.24 238 10:34 21.03.2021
1232 Clear 7 1007 50 10000 2.25 304 09:57 21.03.2021
1233 Clear 7 1002 44 10000 2.25 304 09:38 21.03.2021
1234 Clear 7 1007 42 10000 7.2 170 09:38 21.03.2021
1235 Clear 7 1002 44 10000 2.25 304 09:38 21.03.2021
1236 Clear 7 1002 44 10000 2.25 304 09:38 21.03.2021
1237 Clear 8 1001 40 10000 1.9 218 09:19 21.03.2021
1238 Clear 7 1000 29 10000 1.9 218 08:38 21.03.2021
1239 Clear 8 1000 29 10000 3.94 166 08:19 21.03.2021
1240 Clear 9 1007 29 10000 5.66 180 07:31 21.03.2021
1241 Clouds 9 1002 36 10000 3.61 143 06:30 21.03.2021
1242 Clouds 11 1007 32 10000 6.69 160 04:58 21.03.2021
1243 Clouds 16 1003 28 10000 1.68 353 00:59 21.03.2021
1244 Clear 16 1003 25 10000 1.43 354 00:39 21.03.2021
1245 Clear 18 1003 26 10000 1.11 224 00:20 21.03.2021
1246 Clear 18 1001 34 10000 1.34 308 23:46 20.03.2021
1247 Clear 20 1001 33 10000 1.79 15 23:20 20.03.2021
1248 Clear 20 1001 33 10000 4.02 19 22:47 20.03.2021
1249 Clear 21 1007 19 10000 1.34 176 22:18 20.03.2021
1250 Clear 21 1005 10 10000 3.13 131 21:44 20.03.2021
1251 Clouds 21 1005 10 10000 2.68 223 21:24 20.03.2021
1252 Clouds 20 1006 11 10000 4.02 173 20:42 20.03.2021
1253 Clouds 20 1006 12 10000 1.79 144 20:22 20.03.2021
1254 Clouds 19 1007 12 10000 2.24 169 19:47 20.03.2021
1255 Clouds 15 1007 34 10000 1.79 42 19:26 20.03.2021
1256 Clouds 17 1008 15 10000 0.89 149 18:48 20.03.2021
1257 Clouds 13 1012 53 10000 1.34 47 18:25 20.03.2021
1258 Clouds 13 1013 49 10000 0.89 95 17:53 20.03.2021
1259 Clouds 11 1013 52 10000 0.45 81 17:29 20.03.2021
1260 Clouds 11 1010 44 10000 0.45 126 16:44 20.03.2021
1261 Clouds 8 1014 42 10000 0.45 73 16:20 20.03.2021
1262 Clouds 7 1012 48 10000 1.67 199 15:56 20.03.2021
1263 Clouds 7 1014 46 10000 1.67 199 15:38 20.03.2021
1264 Clouds 5 1012 50 10000 0.89 180 14:45 20.03.2021
1265 Clouds 4 1014 60 10000 1.65 219 14:23 20.03.2021
1266 Clouds 4 1016 60 10000 6.69 190 13:33 20.03.2021
1267 Clouds 4 1015 65 10000 1.77 218 12:51 20.03.2021
1268 Clouds 4 1015 70 10000 1.6 223 12:26 20.03.2021
1269 Clouds 4 1017 60 10000 6.17 200 11:45 20.03.2021
1270 Clouds 4 1017 60 10000 6.17 200 11:27 20.03.2021
1271 Clouds 4 1012 60 10000 1.42 227 10:54 20.03.2021
1272 Clouds 4 1013 60 10000 1.35 210 10:27 20.03.2021
1273 Clouds 4 1013 63 10000 1.35 210 09:55 20.03.2021
1274 Clouds 4 1014 62 10000 1.75 219 09:27 20.03.2021
1275 Clouds 4 1014 60 10000 1.75 219 08:56 20.03.2021
1276 Clouds 4 1019 56 10000 7.2 190 08:29 20.03.2021
1277 Clouds 4 1015 68 10000 1.81 210 07:51 20.03.2021
1278 Clouds 4 1015 71 10000 1.81 210 07:31 20.03.2021
1279 Clear 5 1020 53 10000 7.2 190 06:46 20.03.2021
1280 Clear 5 1016 72 10000 0.75 217 06:18 20.03.2021
1281 Clouds 7 1020 57 10000 6.69 150 03:46 20.03.2021
1282 Clear 9 1016 53 10000 0.45 348 02:44 20.03.2021
1283 Clear 15 1016 18 10000 1.29 39 23:57 19.03.2021
1284 Clear 16 1016 18 10000 0.93 131 23:29 19.03.2021
1285 Clear 16 1016 17 10000 0.45 71 22:46 19.03.2021
1286 Clear 15 1016 18 10000 0.45 119 22:26 19.03.2021
1287 Clear 15 1016 18 10000 0.89 169 21:53 19.03.2021
1288 Clear 15 1017 19 10000 0.45 147 21:21 19.03.2021
1289 Clear 15 1017 20 10000 0.45 158 20:46 19.03.2021
1290 Clear 14 1022 31 10000 0.89 52 20:27 19.03.2021
1291 Clear 14 1017 20 10000 1.57 149 19:59 19.03.2021
1292 Clear 14 1017 20 10000 1.57 149 19:39 19.03.2021
1293 Clear 12 1022 36 10000 0.45 119 19:19 19.03.2021
1294 Clear 12 1021 39 10000 0.89 180 18:39 19.03.2021
1295 Clear 10 1024 43 10000 1.35 165 18:18 19.03.2021
1296 Clear 9 1019 35 10000 1.35 165 17:51 19.03.2021
1297 Clear 7 1019 38 10000 1.34 171 17:27 19.03.2021
1298 Clear 5 1019 48 10000 1.34 171 16:51 19.03.2021
1299 Clear 3 1020 61 10000 1.25 187 16:26 19.03.2021
1300 Clear 1 1024 79 10000 1.23 187 15:43 19.03.2021
1301 Clear -1 1023 93 10000 1.01 202 15:22 19.03.2021
1302 Clouds -3 1024 86 10000 1.54 220 14:42 19.03.2021
1303 Clear -2 1090 87 10000 0.64 183 14:21 19.03.2021
1304 Clear -2 1033 88 10000 0.64 183 13:34 19.03.2021
1305 Clear -2 1022 91 10000 0.58 141 12:49 19.03.2021
1306 Clouds -2 1023 91 10000 0.45 127 12:30 19.03.2021
1307 Clouds -2 1023 86 10000 0.45 127 11:39 19.03.2021
1308 Clouds -1 1019 85 10000 0.67 110 10:53 19.03.2021
1309 Clouds -1 1023 85 10000 0.37 15 10:27 19.03.2021
1310 Clouds -1 1019 84 10000 0.37 15 09:48 19.03.2021
1311 Clouds -1 1020 84 10000 0.97 357 09:29 19.03.2021
1312 Clouds -1 1020 83 10000 0.97 357 08:54 19.03.2021
1313 Clouds -1 1020 83 10000 0.97 357 08:32 19.03.2021
1314 Clouds -1 1020 82 10000 0.44 57 07:54 19.03.2021
1315 Clouds 0 1024 64 10000 6.17 160 07:35 19.03.2021
1316 Clouds 0 1020 80 10000 0.67 10 06:43 19.03.2021
1317 Clear 4 1020 65 10000 3.33 339 02:45 19.03.2021
1318 Clear 8 1019 42 10000 1.82 1 00:26 19.03.2021
1319 Clear 9 1019 42 10000 1.82 1 23:30 18.03.2021
1320 Clear 9 1019 40 10000 1 19 22:58 18.03.2021
1321 Clear 9 1019 39 10000 1 19 22:38 18.03.2021
1322 Clear 9 1019 34 10000 0.89 24 22:18 18.03.2021
1323 Clear 9 1023 39 10000 1.34 34 21:38 18.03.2021
1324 Clear 9 1019 20 10000 1.34 49 20:43 18.03.2021
1325 Clear 8 1024 41 10000 0.89 91 20:23 18.03.2021
1326 Clear 8 1020 23 10000 0.39 89 19:45 18.03.2021
1327 Clouds 5 1025 56 10000 2.06 120 19:25 18.03.2021
1328 Clear 7 1028 39 10000 0.45 163 18:55 18.03.2021
1329 Clear 6 1028 43 10000 1.21 150 18:27 18.03.2021
1330 Clear 5 1020 33 10000 1.21 150 17:49 18.03.2021
1331 Clear 3 1020 35 10000 1.16 159 17:25 18.03.2021
1332 Clear 2 1020 43 10000 1.16 159 16:46 18.03.2021
1333 Clear 1 1020 45 10000 0.89 155 16:26 18.03.2021
1334 Clear -1 1029 65 10000 1.1 183 15:45 18.03.2021
1335 Clear -3 1028 74 10000 1.27 205 15:23 18.03.2021
1336 Clear -4 1033 72 10000 0.45 106 14:53 18.03.2021
1337 Clear -5 1023 80 10000 1.27 205 14:32 18.03.2021
1338 Clear -5 1022 80 10000 1.2 213 13:53 18.03.2021
1339 Clear -5 1022 80 10000 1.03 212 13:26 18.03.2021
1340 Clear -5 1022 75 10000 0.45 0 12:44 18.03.2021
1341 Clear -5 1023 80 10000 1.16 225 12:25 18.03.2021
1342 Clear -4 1022 76 10000 1.16 225 11:52 18.03.2021
1343 Clear -4 1022 75 10000 1.16 225 11:32 18.03.2021
1344 Clear -4 1022 75 10000 1.39 219 10:45 18.03.2021
1345 Clear -4 1022 74 10000 1.37 216 10:27 18.03.2021
1346 Clear -4 1024 79 10000 0.45 180 09:54 18.03.2021
1347 Clear -4 1024 79 10000 1.81 212 09:29 18.03.2021
1348 Clear -3 1022 79 10000 1.81 212 08:50 18.03.2021
1349 Clear -3 1022 79 10000 1.98 205 08:30 18.03.2021
1350 Clear -3 1022 80 10000 1.96 206 07:52 18.03.2021
1351 Clouds -3 1022 79 10000 2.02 205 07:24 18.03.2021
1352 Clear -2 1022 76 10000 1.75 210 06:28 18.03.2021
1353 Clear -2 1026 70 10000 1.75 210 05:54 18.03.2021
1354 Clouds 2 1022 57 10000 1.22 40 02:29 18.03.2021
1355 Clouds 5 1021 48 10000 1.79 325 23:59 17.03.2021
1356 Clouds 5 1021 49 10000 1.79 17 22:54 17.03.2021
1357 Clouds 5 1020 49 10000 0.89 24 22:27 17.03.2021
1358 Clouds 5 1020 48 10000 2.24 49 21:57 17.03.2021
1359 Clouds 5 1019 57 10000 5.03 4 21:39 17.03.2021
1360 Clouds 5 1016 43 10000 5.59 15 21:19 17.03.2021
1361 Clouds 5 1016 44 10000 1.34 360 20:43 17.03.2021
1362 Clouds 4 1016 51 10000 5.59 14 20:24 17.03.2021
1363 Clouds 4 1016 55 10000 5.59 14 19:46 17.03.2021
1364 Clouds 4 1016 55 10000 1.54 280 19:22 17.03.2021
1365 Clouds 3 1016 60 10000 3.45 343 18:55 17.03.2021
1366 Clouds 3 1016 64 10000 1.54 280 18:37 17.03.2021
1367 Clouds 1 1016 78 2021 2.26 5 17:49 17.03.2021
1368 Clouds 1 1016 79 10000 2.06 18 17:27 17.03.2021
1369 Clouds 0 1015 79 10000 2.06 18 16:47 17.03.2021
1370 Clouds 0 1015 77 10000 1.16 320 16:25 17.03.2021
1371 Clouds -1 1015 79 10000 1.16 320 15:56 17.03.2021
1372 Snow -1 1018 100 8047 2.57 350 15:36 17.03.2021
1373 Snow -2 1014 78 339 0.53 312 14:45 17.03.2021
1374 Clouds -2 1014 77 2669 0.65 84 14:27 17.03.2021
1375 Clouds -2 1019 87 2669 0.65 84 13:55 17.03.2021
1376 Clouds -2 1018 87 10000 1.1 26 13:31 17.03.2021
1377 Clouds -2 1012 76 10000 1.13 96 12:54 17.03.2021
1378 Clouds -2 1012 76 10000 1.1 97 12:34 17.03.2021
1379 Clouds -2 1011 76 10000 0.47 40 11:51 17.03.2021
1380 Clouds -2 1011 75 10000 0.99 337 11:23 17.03.2021
1381 Clouds -2 1017 88 10000 0.99 337 10:55 17.03.2021
1382 Clouds -1 1011 76 10000 0.92 281 10:31 17.03.2021
1383 Clouds -1 1011 77 10000 0.92 281 09:49 17.03.2021
1384 Clouds -1 1011 78 3905 0.5 182 09:26 17.03.2021
1385 Clouds -1 1011 80 3905 0.5 182 08:59 17.03.2021
1386 Clouds -1 1010 80 3881 0.5 183 08:39 17.03.2021
1387 Clouds -1 1010 80 10000 0.69 50 07:50 17.03.2021
1388 Clouds -1 1011 82 10000 0.69 50 07:32 17.03.2021
1389 Snow -1 1015 100 10000 1.54 350 06:46 17.03.2021
1390 Snow -1 1011 81 301 1.46 33 04:26 17.03.2021
1391 Snow -1 1010 83 243 1.75 32 03:25 17.03.2021
1392 Snow 0 1008 82 65 2.49 30 00:40 17.03.2021
1393 Snow 1 1007 69 768 3.31 40 23:38 16.03.2021
1394 Snow 1 1007 67 244 4.08 48 23:18 16.03.2021
1395 Snow 2 1011 69 10000 3.09 40 22:40 16.03.2021
1396 Snow 2 1006 66 1467 3.9 50 22:21 16.03.2021
1397 Clouds 2 1006 64 1467 0.89 36 21:39 16.03.2021
1398 Clouds 3 1006 64 1544 2.3 36 21:21 16.03.2021
1399 Clouds 3 1006 62 1544 2.3 36 20:46 16.03.2021
1400 Clouds 3 1006 59 1538 1.17 36 20:18 16.03.2021
1401 Clouds 3 1010 70 1988 1.22 38 19:43 16.03.2021
1402 Clouds 3 1010 71 7027 0.45 19 19:24 16.03.2021
1403 Clouds 3 1007 61 10000 0.91 69 18:47 16.03.2021
1404 Clouds 2 1007 63 10000 0.87 124 18:29 16.03.2021
1405 Clouds 2 1007 64 10000 0.85 125 17:50 16.03.2021
1406 Clouds 1 1007 69 10000 0.85 125 17:32 16.03.2021
1407 Clear 0 1006 79 10000 0.29 134 16:53 16.03.2021
1408 Clear -1 1007 82 10000 0.76 166 16:31 16.03.2021
1409 Clear -2 1012 95 10000 0.76 166 15:47 16.03.2021
1410 Clouds -4 1014 94 10000 0.93 153 15:22 16.03.2021
1411 Clouds -5 1008 93 10000 0.93 153 14:59 16.03.2021
1412 Clouds -5 1005 95 10000 0.93 153 14:40 16.03.2021
1413 Clear -5 1008 92 10000 0.76 206 14:21 16.03.2021
1414 Clear -5 1008 92 10000 0.76 206 13:55 16.03.2021
1415 Clear -5 1008 92 10000 0.93 267 13:28 16.03.2021
1416 Clear -5 1013 93 10000 0.93 267 12:54 16.03.2021
1417 Clear -5 1008 100 10000 3.09 80 12:35 16.03.2021
1418 Clear -5 1008 92 10000 1.86 352 11:55 16.03.2021
1419 Clear -4 1007 86 10000 0.74 306 11:29 16.03.2021
1420 Clear -4 1007 91 10000 0.45 84 10:46 16.03.2021
1421 Clear -3 1007 91 10000 2.03 218 10:20 16.03.2021
1422 Clear -3 1012 91 10000 2.03 218 09:40 16.03.2021
1423 Clear -2 1012 92 10000 2.31 209 09:19 16.03.2021
1424 Clear -2 1004 85 10000 0.89 31 08:51 16.03.2021
1425 Clear -2 1004 86 10000 2.31 209 08:32 16.03.2021
1426 Clear -2 1003 85 10000 2.54 207 07:50 16.03.2021
1427 Clear -2 1003 84 10000 2.2 211 06:57 16.03.2021
1428 Clouds -2 1003 82 10000 1.99 214 06:37 16.03.2021
1429 Clouds -1 1008 88 10000 1.91 228 05:35 16.03.2021
1430 Clouds 1 1002 73 2758 1.77 190 02:46 16.03.2021
1431 Clouds 2 1002 69 349 1.23 181 02:25 16.03.2021
1432 Clouds 2 1011 78 71 1.34 305 00:25 16.03.2021
1433 Clouds 2 1006 72 71 1.34 329 23:37 15.03.2021
1434 Clouds 2 1005 79 50 2.14 344 23:18 15.03.2021
1435 Clouds 2 1005 75 10000 2.06 300 22:42 15.03.2021
1436 Clouds 2 1010 79 38 1.34 12 22:23 15.03.2021
1437 Clouds 2 1004 72 38 2.85 346 21:47 15.03.2021
1438 Clouds 3 1004 73 49 2.72 347 21:27 15.03.2021
1439 Clouds 3 1004 74 49 1.34 35 20:47 15.03.2021
1440 Clouds 2 1005 76 194 0.45 47 20:27 15.03.2021
1441 Clouds 2 1011 89 194 0.75 70 19:57 15.03.2021
1442 Clouds 2 1011 88 194 0.75 70 19:38 15.03.2021
1443 Clouds 1 1002 92 3496 1.7 143 19:19 15.03.2021
1444 Clouds 0 1002 91 3108 1.66 143 18:40 15.03.2021
1445 Clouds 0 1002 91 10000 2.17 168 18:22 15.03.2021
1446 Clouds -1 1002 89 10000 2.17 168 17:43 15.03.2021
1447 Clouds -2 1007 86 10000 7.2 180 17:22 15.03.2021
1448 Clouds -3 1004 89 10000 0.45 157 16:44 15.03.2021
1449 Clouds -3 1004 89 10000 1.34 156 16:44 15.03.2021
1450 Clouds -5 1004 88 10000 3.77 186 15:56 15.03.2021
1451 Clear -6 1013 94 10000 0.89 196 15:28 15.03.2021
1452 Clear -7 1008 94 10000 2.74 199 14:55 15.03.2021
1453 Clear -7 1014 92 10000 2.74 199 14:36 15.03.2021
1454 Clear -8 1014 92 10000 2.64 221 14:18 15.03.2021
1455 Clear -8 1009 91 10000 2.64 221 13:41 15.03.2021
1456 Clouds -8 1009 91 10000 2.17 225 13:23 15.03.2021
1457 Clouds -7 1013 93 10000 1.26 191 12:45 15.03.2021
1458 Clouds -7 1013 93 10000 0.89 108 12:18 15.03.2021
1459 Clouds -7 1014 92 10000 1.45 214 11:41 15.03.2021
1460 Clouds -7 1010 100 10000 1.54 210 11:21 15.03.2021
1461 Clouds -6 1009 92 10000 1.89 233 10:43 15.03.2021
1462 Clouds -6 1014 89 10000 1.59 246 10:24 15.03.2021
1463 Clouds -6 1015 91 10000 1.59 246 09:44 15.03.2021
1464 Clouds -6 1015 91 10000 0.45 0 09:22 15.03.2021
1465 Snow -5 1011 100 3219 5.66 340 08:45 15.03.2021
1466 Clouds -4 1008 91 10000 1.92 337 08:25 15.03.2021
1467 Clouds -4 1008 91 10000 1.92 337 07:42 15.03.2021
1468 Snow -4 1011 100 2414 10.29 330 07:22 15.03.2021
1469 Snow -3 1007 91 4844 5.11 335 05:42 15.03.2021
1470 Snow -3 1007 91 162 8.58 335 03:21 15.03.2021
1471 Snow -2 1007 100 201 14.92 330 00:42 15.03.2021
1472 Snow -2 1006 100 402 14.4 330 23:24 14.03.2021
1473 Snow -2 1003 92 107 11.43 345 22:50 14.03.2021
1474 Snow -2 1005 100 402 13.89 340 22:28 14.03.2021
1475 Snow -1 1002 92 96 0.45 299 21:56 14.03.2021
1476 Snow -1 1002 92 45 0.45 309 21:24 14.03.2021
1477 Snow -1 1002 92 45 0.45 350 20:59 14.03.2021
1478 Snow -1 1002 92 45 6.87 360 20:40 14.03.2021
1479 Snow -1 1002 92 50 7.76 358 20:22 14.03.2021
1480 Fog -1 1004 100 402 10.29 340 19:41 14.03.2021
1481 Snow -1 1001 92 50 4.27 335 19:19 14.03.2021
1482 Snow -1 1001 92 50 4.27 335 18:37 14.03.2021
1483 Snow -1 1001 92 77 5.51 2 17:56 14.03.2021
1484 Snow -1 1003 100 402 9.77 350 17:37 14.03.2021
1485 Snow -1 1003 100 402 9.77 350 17:19 14.03.2021
1486 Snow -1 1000 92 116 5.6 12 16:40 14.03.2021
1487 Snow -1 1000 92 96 5.31 37 16:21 14.03.2021
1488 Snow -1 1003 100 805 10.8 350 15:48 14.03.2021
1489 -273 0 0 0 0 0 14:58 14.03.2021
1490 -273 0 0 0 0 0 14:58 14.03.2021
1491 Snow -1 999 92 55 0.45 304 14:31 14.03.2021
1492 Snow -1 1000 92 55 0.45 307 13:55 14.03.2021
1493 Snow -1 1000 92 55 0.45 327 13:36 14.03.2021
1494 Snow -1 1000 91 57 6.02 9 12:59 14.03.2021
1495 Snow -1 1000 91 43 4.78 356 12:41 14.03.2021
1496 Snow -1 1000 91 84 7.81 354 12:22 14.03.2021
1497 Clouds -1 1001 91 84 7.81 354 11:40 14.03.2021
1498 Snow -1 1002 91 76 5.83 354 11:22 14.03.2021
1499 Snow -1 1003 90 76 5.83 354 10:38 14.03.2021
1500 Snow -1 1003 90 39 5.12 6 10:20 14.03.2021
1501 Snow -1 1008 100 2414 6.17 340 09:57 14.03.2021
1502 Snow -1 1004 90 39 5.12 6 09:39 14.03.2021
1503 Snow -1 1004 90 29 5.38 7 09:20 14.03.2021
1504 Snow -1 1005 89 29 5.38 7 08:37 14.03.2021
1505 Snow -1 1006 89 42 4.91 353 07:58 14.03.2021
1506 Snow -1 1006 89 72 5.77 342 07:28 14.03.2021
1507 Snow -1 1008 89 30 3.61 335 05:34 14.03.2021
1508 Snow -1 1015 100 805 5.66 40 01:27 14.03.2021
1509 Snow 0 1011 89 48 4.76 331 00:20 14.03.2021
1510 Snow 0 1015 100 805 4.12 30 23:59 13.03.2021
1511 Snow 0 1011 89 48 0.89 28 23:39 13.03.2021
1512 Snow 0 1011 89 64 0.89 32 23:18 13.03.2021
1513 Snow 0 1011 89 64 4.77 4 22:46 13.03.2021
1514 Snow 0 1011 89 59 4.49 26 22:18 13.03.2021
1515 Snow 0 1012 89 59 0.45 29 21:35 13.03.2021
1516 Snow 0 1012 89 30 4.51 6 20:59 13.03.2021
1517 Snow 1 1012 88 30 1.34 26 20:41 13.03.2021
1518 Snow 1 1012 88 30 1.34 26 20:41 13.03.2021
1519 Snow 1 1012 88 30 1.34 26 20:41 13.03.2021
1520 Snow 1 1014 88 27 3.97 19 20:22 13.03.2021
1521 Snow 2 1014 88 27 1.34 40 19:38 13.03.2021
1522 Snow 2 1014 88 69 4.72 342 19:20 13.03.2021
1523 Rain 2 1014 87 72 5.06 350 18:42 13.03.2021
1524 Clouds 2 1014 87 44 0.45 33 18:20 13.03.2021
1525 Clouds 2 1014 87 44 0.89 27 17:49 13.03.2021
1526 Clouds 2 1014 87 44 0.89 27 17:49 13.03.2021
1527 Clouds 2 1014 86 44 4.36 338 17:31 13.03.2021
1528 Clouds 2 1014 86 30 2.6 337 16:52 13.03.2021
1529 Clouds 2 1014 86 24 2.02 23 16:34 13.03.2021
1530 Clouds 3 1015 83 24 2.02 23 15:55 13.03.2021
1531 Clouds 3 1017 87 47 0.89 12 14:59 13.03.2021
1532 Clouds 3 1017 87 47 0.45 12 14:40 13.03.2021
1533 Clouds 3 1017 86 2399 0.45 12 14:19 13.03.2021
1534 Clouds 3 1017 85 10000 0.89 304 13:26 13.03.2021
1535 Clouds 3 1015 73 10000 1.14 51 12:48 13.03.2021
1536 Clouds 3 1015 73 1950 2.39 329 12:29 13.03.2021
1537 Clouds 3 1015 73 1950 2.39 329 11:52 13.03.2021
1538 Clouds 3 1015 74 1950 2.39 329 11:31 13.03.2021
1539 Clouds 3 1016 74 10000 1.88 43 10:55 13.03.2021
1540 Clouds 3 1016 74 10000 1.88 43 10:31 13.03.2021
1541 Clouds 3 1017 74 10000 1.13 47 09:57 13.03.2021
1542 Clouds 3 1021 100 10000 4.12 140 09:31 13.03.2021
1543 Clouds 3 1017 70 10000 0.97 145 08:53 13.03.2021
1544 Clouds 3 1017 68 10000 1.63 146 08:20 13.03.2021
1545 Clouds 3 1017 68 10000 1.63 146 07:56 13.03.2021
1546 Clouds 4 1017 67 10000 2.91 148 07:20 13.03.2021
1547 Clouds 4 1017 62 10000 2.52 116 03:33 13.03.2021
1548 Clouds 5 1016 55 10000 2.2 88 01:21 13.03.2021
1549 Clouds 6 1019 57 10000 0.45 113 00:23 13.03.2021
1550 Clouds 6 1016 55 10000 0.89 136 23:33 12.03.2021
1551 Clouds 6 1017 58 10000 1.73 42 22:56 12.03.2021
1552 Clouds 6 1017 58 10000 0.89 64 22:29 12.03.2021
1553 Clouds 6 1017 60 10000 0.45 112 21:54 12.03.2021
1554 Clouds 5 1019 58 10000 1.34 29 21:36 12.03.2021
1555 Clouds 5 1022 65 10000 5.66 140 21:36 12.03.2021
1556 Clouds 5 1020 61 10000 1.79 89 21:18 12.03.2021
1557 Clouds 5 1020 63 10000 2.24 116 20:41 12.03.2021
1558 Clouds 5 1021 67 10000 1.34 124 20:19 12.03.2021
1559 Clouds 4 1019 66 10000 1.3 51 19:43 12.03.2021
1560 Clouds 4 1019 66 10000 0.76 9 19:24 12.03.2021
1561 Clouds 3 1019 66 10000 1.76 346 18:39 12.03.2021
1562 Clouds 3 1019 69 10000 1.86 345 18:19 12.03.2021
1563 Clouds 3 1021 83 10000 0.89 21 17:40 12.03.2021
1564 Clouds 3 1021 84 10000 0.45 293 17:22 12.03.2021
1565 Clouds 2 1021 86 10000 1.62 10 16:42 12.03.2021
1566 Clouds 2 1021 88 10000 2.06 30 15:55 12.03.2021
1567 Clouds 2 1021 88 10000 2.06 30 15:35 12.03.2021
1568 Clouds 1 1021 89 10000 2.26 16 14:49 12.03.2021
1569 Clouds 1 1020 89 10000 2.15 10 14:21 12.03.2021
1570 Clouds 1 1020 90 10000 0.45 292 13:45 12.03.2021
1571 Clouds 1 1020 90 10000 2.04 26 13:24 12.03.2021
1572 Clouds 1 1020 90 10000 0.45 292 12:59 12.03.2021
1573 Clouds 1 1019 90 10000 2.58 13 12:41 12.03.2021
1574 Clouds 1 1019 90 10000 0.89 290 12:20 12.03.2021
1575 Clouds 1 1020 90 10000 0.45 318 11:51 12.03.2021
1576 Clouds 1 1020 93 10000 2.35 32 11:22 12.03.2021
1577 Clouds 1 1020 89 10000 0.89 346 10:53 12.03.2021
1578 Clouds 1 1020 88 10000 0.89 324 10:25 12.03.2021
1579 Clouds 1 1020 88 10000 1.79 334 09:54 12.03.2021
1580 Clouds 1 1020 88 10000 1.79 334 09:54 12.03.2021
1581 Clouds 2 1020 87 10000 2.73 32 09:24 12.03.2021
1582 Clouds 2 1021 87 10000 2.72 33 08:44 12.03.2021
1583 Clouds 2 1020 83 10000 1.69 355 07:57 12.03.2021
1584 Clouds 2 1020 82 10000 0.89 312 07:32 12.03.2021
1585 Clouds 3 1020 78 10000 1.34 279 06:49 12.03.2021
1586 Clouds 3 1020 75 10000 2.24 247 06:26 12.03.2021
1587 Clouds 6 1012 40 10000 0.45 244 02:21 12.03.2021
1588 Clouds 8 1011 39 10000 4.57 350 00:19 12.03.2021
1589 Clouds 8 1011 37 10000 4.43 339 23:25 11.03.2021
1590 Clouds 8 1011 37 10000 4.43 339 22:43 11.03.2021
1591 Clouds 8 1011 36 10000 0.45 300 22:24 11.03.2021
1592 Clouds 8 1011 38 10000 0.89 280 21:47 11.03.2021
1593 Clear 8 1011 36 10000 0.45 291 21:27 11.03.2021
1594 Clear 7 1012 40 10000 3.5 328 20:53 11.03.2021
1595 Clear 7 1012 39 10000 0.89 300 20:34 11.03.2021
1596 Clear 7 1012 41 10000 0.89 34 19:58 11.03.2021
1597 Clear 6 1013 40 10000 1.96 359 19:39 11.03.2021
1598 Clear 5 1013 43 10000 1.99 339 18:56 11.03.2021
1599 Clear 4 1013 46 10000 0.45 67 18:37 11.03.2021
1600 Clear 3 1014 50 10000 1.97 337 18:18 11.03.2021
1601 Clear 2 1014 57 10000 1.97 337 17:41 11.03.2021
1602 Clear 0 1018 76 10000 0.45 192 16:43 11.03.2021
1603 Clear 0 1018 76 10000 0.45 192 16:43 11.03.2021
1604 Clear -1 1018 71 10000 2.93 328 16:25 11.03.2021
1605 Clouds -3 1018 86 10000 1.54 200 15:44 11.03.2021
1606 Clouds -4 1018 79 10000 1.54 160 15:21 11.03.2021
1607 Clouds -4 1018 79 10000 1.54 160 15:21 11.03.2021
1608 Clouds -3 1017 80 10000 2.06 120 14:45 11.03.2021
1609 Clouds -3 1017 80 10000 2.06 120 14:45 11.03.2021
1610 Clouds -3 1017 80 10000 2.06 120 14:19 11.03.2021
1611 Clouds -3 1017 79 10000 3.09 130 13:46 11.03.2021
1612 Clouds -4 1017 93 10000 2.06 360 13:24 11.03.2021
1613 Clouds -3 1019 96 10000 1.95 108 12:57 11.03.2021
1614 Clouds -3 1011 88 10000 1.95 108 12:36 11.03.2021
1615 Clouds -2 1011 87 10000 0.89 46 12:18 11.03.2021
1616 Clouds -2 1011 92 10000 1.34 270 11:42 11.03.2021
1617 Clouds -3 1016 80 10000 1.54 210 11:19 11.03.2021
1618 Clear -3 1015 84 10000 0.45 94 10:28 11.03.2021
1619 Clear -3 1025 79 10000 2.53 85 09:53 11.03.2021
1620 Clear -3 1087 73 10000 2.31 45 09:34 11.03.2021
1621 Clear -2 1024 72 10000 0.45 183 08:59 11.03.2021
1622 Clear -2 1024 73 10000 2.3 45 08:40 11.03.2021
1623 Clear -2 1024 71 10000 2.16 45 07:59 11.03.2021
1624 Clear -1 1015 52 10000 4.06 71 07:21 11.03.2021
1625 Clear -1 1014 60 10000 4.06 71 06:48 11.03.2021
1626 Clear 0 1014 57 10000 1.6 39 06:23 11.03.2021
1627 Clear 4 1009 27 10000 4.33 303 02:48 11.03.2021
1628 -273 0 0 0 0 0 00:46 11.03.2021
1629 Clouds 8 1005 12 10000 1.79 285 00:45 11.03.2021
1630 -273 0 0 0 0 0 23:26 10.03.2021
1631 Clouds 10 1003 21 10000 5.36 226 23:25 10.03.2021
1632 Clouds 10 1007 18 10000 5.66 280 23:25 10.03.2021
1633 Clouds 10 1003 13 10000 1.79 259 22:43 10.03.2021
1634 Clouds 10 1003 14 10000 0.89 240 22:23 10.03.2021
1635 Clouds 10 1002 14 10000 4.92 274 21:45 10.03.2021
1636 Clouds 10 1002 14 10000 2.68 273 21:44 10.03.2021
1637 Clouds 10 1002 14 10000 4.92 274 21:44 10.03.2021
1638 Clouds 10 1002 16 10000 0.45 277 21:21 10.03.2021
1639 Clouds 9 1002 16 10000 1.79 286 20:45 10.03.2021
1640 Clear 9 1002 17 10000 2.24 272 20:27 10.03.2021
1641 Clear 8 1002 20 10000 2.24 286 19:43 10.03.2021
1642 Clouds 7 1002 23 10000 2.68 250 19:24 10.03.2021
1643 Clouds 7 1002 54 10000 2.02 18 18:44 10.03.2021
1644 Clouds 5 1002 62 10000 2.21 3 18:24 10.03.2021
1645 Clouds 4 1002 74 10000 2.21 3 17:55 10.03.2021
1646 Clouds 4 1002 83 10000 2.21 3 17:36 10.03.2021
1647 Clouds 3 1002 85 5847 1.11 354 17:18 10.03.2021
1648 Clouds 3 1002 84 5847 0.45 300 16:41 10.03.2021
1649 Clouds 2 1002 86 5398 1.2 133 16:21 10.03.2021
1650 Clouds 2 1001 88 5398 1.2 133 15:41 10.03.2021
1651 Rain 1 1001 88 10000 2.6 121 15:22 10.03.2021
1652 Snow 1 1001 88 10000 0.89 157 14:43 10.03.2021
1653 Clouds 1 1001 88 201 2.23 84 14:19 10.03.2021
1654 Clouds 1 1001 88 201 2.23 84 13:46 10.03.2021
1655 Rain 1 1005 91 9588 2.87 23 13:25 10.03.2021
1656 Clouds 1 1015 86 9429 2.86 24 12:45 10.03.2021
1657 Rain 2 1006 75 10000 3.09 10 12:19 10.03.2021
1658 Clouds 2 1006 69 10000 3.6 70 11:32 10.03.2021
1659 Clouds 2 1002 76 10000 2.98 24 10:58 10.03.2021
1660 Clouds 3 1003 73 10000 2.98 24 10:37 10.03.2021
1661 Clouds 4 1003 64 10000 2.16 41 10:19 10.03.2021
1662 Clouds 4 1003 57 10000 0.45 39 09:42 10.03.2021
1663 Clouds 5 1003 53 10000 2.49 9 09:21 10.03.2021
1664 Clouds 6 1003 48 10000 0.45 360 08:50 10.03.2021
1665 Clouds 6 1003 40 4096 4.02 40 08:28 10.03.2021
1666 Clouds 6 1003 34 4096 2.42 14 07:58 10.03.2021
1667 Clouds 7 1003 31 10000 2.01 24 07:30 10.03.2021
1668 Clouds 7 1003 31 10000 3.57 355 07:30 10.03.2021
1669 Clouds 7 1003 30 10000 0.45 32 06:56 10.03.2021
1670 Clouds 8 1003 30 10000 0.45 360 06:23 10.03.2021
1671 Clouds 14 1002 20 10000 1.34 111 02:26 10.03.2021
1672 Clouds 17 1002 11 10000 2.19 61 23:49 09.03.2021
1673 Clouds 18 1002 10 10000 0.45 32 22:59 09.03.2021
1674 Clouds 19 1002 11 10000 2.84 40 22:38 09.03.2021
1675 Clouds 20 1008 12 10000 6.17 360 22:18 09.03.2021
1676 Clouds 19 1008 12 10000 6.17 360 21:45 09.03.2021
1677 Clouds 19 1008 12 10000 6.17 360 21:24 09.03.2021
1678 Clouds 19 1009 12 10000 2.06 230 20:56 09.03.2021
1679 Clouds 18 1009 12 10000 2.06 230 20:38 09.03.2021
1680 Clouds 18 1008 14 10000 1.79 40 20:19 09.03.2021
1681 Clouds 18 1010 12 10000 3.09 220 19:45 09.03.2021
1682 Clouds 17 1010 12 10000 3.09 220 19:25 09.03.2021
1683 Clouds 17 1010 24 10000 0.8 299 18:42 09.03.2021
1684 Clouds 16 1011 15 10000 3.6 180 18:23 09.03.2021
1685 Clouds 14 1011 18 10000 5.66 210 17:49 09.03.2021
1686 Clouds 13 1007 30 10000 0.92 211 17:28 09.03.2021
1687 Clouds 13 1007 30 10000 0.92 211 17:28 09.03.2021
1688 Clouds 11 1007 29 10000 0.92 211 16:41 09.03.2021
1689 Clouds 9 1007 32 10000 2.1 217 16:23 09.03.2021
1690 Clouds 8 1007 37 10000 2.1 217 15:57 09.03.2021
1691 Clouds 6 1007 45 10000 2.33 202 15:28 09.03.2021
1692 Clouds 6 1011 42 10000 5.14 170 14:52 09.03.2021
1693 Clear 6 1003 47 10000 0.89 184 14:27 09.03.2021
1694 Clear 6 1007 53 10000 2.14 208 13:43 09.03.2021
1695 Clouds 6 1007 52 10000 3.11 209 13:21 09.03.2021
1696 Clouds 6 1007 51 10000 3.11 209 12:55 09.03.2021
1697 Clouds 7 1010 43 10000 3.11 209 12:37 09.03.2021
1698 Clouds 6 1010 45 10000 3.74 203 11:58 09.03.2021
1699 Clouds 7 1010 44 10000 3.74 203 11:39 09.03.2021
1700 Clouds 6 1010 46 10000 0.45 0 11:19 09.03.2021
1701 Clouds 7 1011 45 10000 3.95 199 10:39 09.03.2021
1702 Clouds 7 1011 44 10000 3.23 208 10:21 09.03.2021
1703 Clouds 7 1011 44 10000 3.23 208 09:47 09.03.2021
1704 Clear 8 1013 42 10000 6.17 170 09:27 09.03.2021
1705 Clear 7 1016 49 10000 0.89 304 08:57 09.03.2021
1706 Clear 7 1009 45 10000 2.79 202 08:33 09.03.2021
1707 Clear 7 1014 45 10000 3.09 110 07:47 09.03.2021
1708 Clear 7 1010 39 10000 2.11 209 07:27 09.03.2021
1709 Clear 7 1010 37 10000 2.22 212 06:59 09.03.2021
1710 Clear 9 1010 38 10000 1.93 208 05:53 09.03.2021
1711 Clouds 16 1013 17 10000 4.12 340 01:43 09.03.2021
1712 Clouds 18 1009 13 10000 2.4 325 23:58 08.03.2021
1713 Clouds 18 1013 14 10000 2.06 280 23:39 08.03.2021
1714 Clouds 19 1009 13 10000 0.45 288 23:19 08.03.2021
1715 Clouds 19 1009 14 10000 2.55 226 22:40 08.03.2021
1716 Clouds 18 1009 15 10000 2.64 232 22:21 08.03.2021
1717 Clouds 18 1009 16 10000 2.64 232 21:50 08.03.2021
1718 Clouds 17 1014 17 10000 4.63 190 21:29 08.03.2021
1719 Clouds 16 1011 14 10000 1.89 225 20:43 08.03.2021
1720 Clouds 15 1014 30 10000 1.64 134 20:22 08.03.2021
1721 Clouds 12 1017 32 10000 1.54 130 19:46 08.03.2021
1722 Clouds 11 1095 35 10000 1.34 146 19:24 08.03.2021
1723 Clouds 11 1095 37 10000 1.42 168 18:38 08.03.2021
1724 Clouds 10 1017 46 10000 0.95 177 18:19 08.03.2021
1725 Clouds 10 1017 46 10000 0.95 177 18:19 08.03.2021
1726 Clouds 9 1027 40 10000 0.95 177 17:44 08.03.2021
1727 Clouds 8 1012 43 10000 1.31 195 17:23 08.03.2021
1728 Clouds 8 1018 42 10000 2.06 220 16:43 08.03.2021
1729 Clouds 7 1027 40 10000 1.85 218 16:24 08.03.2021
1730 Clouds 6 1027 41 10000 1.85 218 15:45 08.03.2021
1731 Clouds 5 1027 41 10000 1.55 212 15:23 08.03.2021
1732 Clouds 5 1017 48 10000 1.65 209 14:22 08.03.2021
1733 Clouds 5 1092 47 10000 1.65 209 13:58 08.03.2021
1734 Clouds 5 1018 48 10000 3.09 230 13:24 08.03.2021
1735 Clouds 5 1017 46 10000 1.91 210 12:58 08.03.2021
1736 Clouds 6 1017 45 10000 1.91 210 12:35 08.03.2021
1737 Clear 6 1018 34 10000 6.17 190 11:55 08.03.2021
1738 Clouds 6 1009 45 10000 1.94 217 11:34 08.03.2021
1739 Clouds 6 1013 41 10000 1.76 219 10:57 08.03.2021
1740 Clouds 6 1014 32 10000 1.76 219 10:39 08.03.2021
1741 Clouds 7 1019 34 10000 7.2 190 10:18 08.03.2021
1742 Clouds 8 1014 29 10000 1.42 204 09:29 08.03.2021
1743 Clouds 8 1013 33 10000 1.42 204 08:52 08.03.2021
1744 Clouds 8 1018 39 10000 1.66 212 08:25 08.03.2021
1745 Clouds 8 1015 26 10000 2.28 208 07:22 08.03.2021
1746 Clouds 10 1015 22 10000 2.46 206 05:46 08.03.2021
1747 Clouds 15 1011 20 10000 0.45 123 02:43 08.03.2021
1748 Clouds 19 1018 13 10000 6.69 140 00:42 08.03.2021
1749 Clouds 20 1018 12 10000 5.14 150 23:53 07.03.2021
1750 Clouds 20 1010 15 10000 0.89 242 23:22 07.03.2021
1751 Clouds 20 1013 9 10000 2.32 179 22:48 07.03.2021
1752 Clouds 20 1012 14 10000 1.79 128 22:28 07.03.2021
1753 Clouds 19 1012 14 10000 1.79 144 21:53 07.03.2021
1754 Clouds 19 1012 14 10000 1.79 144 21:53 07.03.2021
1755 Clouds 19 1019 13 10000 3.6 170 21:33 07.03.2021
1756 Clouds 19 1011 16 10000 1.79 125 20:59 07.03.2021
1757 Clouds 19 1012 16 10000 2.24 94 20:40 07.03.2021
1758 Clouds 19 1018 20 10000 0.45 147 20:19 07.03.2021
1759 Clouds 19 1018 20 10000 0.45 147 20:19 07.03.2021
1760 Clouds 18 1015 10 10000 0.45 150 19:41 07.03.2021
1761 Clouds 17 1018 18 10000 0.45 102 19:22 07.03.2021
1762 Clouds 17 1018 19 10000 0.45 77 18:54 07.03.2021
1763 Clouds 15 1017 24 10000 0.89 215 18:21 07.03.2021
1764 Clouds 14 1019 26 10000 0.45 116 17:59 07.03.2021
1765 Clouds 14 1013 30 10000 0.45 117 17:39 07.03.2021
1766 Clouds 12 1020 22 10000 4.63 180 17:19 07.03.2021
1767 Clouds 10 1018 35 10000 1.78 192 16:43 07.03.2021
1768 Clouds 9 1018 37 10000 2.12 208 16:21 07.03.2021
1769 Clouds 9 1018 37 10000 2.12 208 16:21 07.03.2021
1770 Clouds 7 1018 36 10000 5.14 180 15:50 07.03.2021
1771 Clouds 6 1018 36 10000 5.14 180 15:31 07.03.2021
1772 Clouds 5 1013 36 10000 0.45 175 14:51 07.03.2021
1773 Clouds 5 1017 38 10000 4.63 180 14:29 07.03.2021
1774 Clouds 5 1015 42 10000 3.22 219 13:48 07.03.2021
1775 Clouds 6 1012 34 10000 3.09 218 13:26 07.03.2021
1776 Clouds 6 1012 34 10000 0.45 175 12:48 07.03.2021
1777 Clouds 5 1015 40 10000 3.11 210 12:30 07.03.2021
1778 Clouds 6 1014 39 10000 3.11 210 11:54 07.03.2021
1779 Clouds 6 1014 38 10000 2.97 209 11:23 07.03.2021
1780 Clouds 6 1010 25 10000 2.97 209 10:51 07.03.2021
1781 Clouds 7 1010 24 10000 2.97 209 10:33 07.03.2021
1782 Clouds 7 1010 27 10000 2.23 205 09:52 07.03.2021
1783 Clouds 7 1010 28 10000 0.45 210 09:27 07.03.2021
1784 Clouds 7 1014 36 10000 6.69 210 08:55 07.03.2021
1785 Clouds 7 1010 29 10000 0.45 153 08:37 07.03.2021
1786 Clouds 7 1014 36 10000 6.69 210 08:19 07.03.2021
1787 Clouds 9 1009 23 10000 2.19 245 04:57 07.03.2021
1788 Clouds 14 1008 17 10000 1.78 330 02:26 07.03.2021
1789 Clouds 18 1008 14 10000 0.45 78 00:24 07.03.2021
1790 Clouds 19 1008 13 10000 0.89 78 23:40 06.03.2021
1791 Clouds 19 1009 12 10000 1.34 126 23:19 06.03.2021
1792 Clouds 19 1009 10 10000 1.34 64 22:41 06.03.2021
1793 Clouds 19 1013 17 10000 0.89 134 22:21 06.03.2021
1794 Clouds 18 1013 17 10000 1.6 128 21:40 06.03.2021
1795 Clouds 18 1013 14 10000 1.34 48 21:20 06.03.2021
1796 Clouds 17 1014 18 10000 0.45 88 20:41 06.03.2021
1797 Clouds 16 1015 16 10000 1.27 169 19:51 06.03.2021
1798 Clouds 15 1018 14 10000 2.06 210 19:25 06.03.2021
1799 Clear 14 1016 19 10000 1.09 164 18:57 06.03.2021
1800 Clear 14 1015 23 10000 0.45 142 18:39 06.03.2021
1801 Clouds 13 1017 22 10000 0.45 155 18:20 06.03.2021
1802 Clouds 12 1017 30 10000 1.38 178 17:47 06.03.2021
1803 Clouds 10 1019 25 10000 6.17 220 17:26 06.03.2021
1804 Clear 8 1015 26 10000 1.69 201 16:53 06.03.2021
1805 Clouds 6 1020 39 10000 3.6 200 16:30 06.03.2021
1806 Clear 4 1016 37 10000 1.82 207 15:55 06.03.2021
1807 Clouds 4 1020 48 10000 5.66 200 15:34 06.03.2021
1808 Clear 2 1018 59 10000 1.98 205 14:55 06.03.2021
1809 Clear 2 1029 53 10000 0.45 150 14:31 06.03.2021
1810 Clear 2 1095 58 10000 1.34 180 13:46 06.03.2021
1811 Clear 2 1019 59 10000 2.1 202 13:24 06.03.2021
1812 Clear 2 1019 58 10000 2.09 204 12:49 06.03.2021
1813 Clear 3 1021 48 10000 4.63 200 12:20 06.03.2021
1814 Clear 2 1030 49 10000 0.45 107 11:59 06.03.2021
1815 Clear 3 1025 46 10000 0.45 203 11:27 06.03.2021
1816 Clear 2 1022 57 10000 2.17 204 10:54 06.03.2021
1817 Clear 2 1021 56 10000 0.45 181 10:36 06.03.2021
1818 Clear 3 1022 45 10000 6.17 190 09:56 06.03.2021
1819 Clear 3 1022 55 10000 2.12 201 09:21 06.03.2021
1820 Clear 3 1022 53 10000 2.12 201 08:54 06.03.2021
1821 Clear 3 1023 41 10000 7.2 190 08:29 06.03.2021
1822 Clear 3 1019 52 10000 2.2 203 07:43 06.03.2021
1823 Clear 4 1023 52 10000 2.24 203 07:21 06.03.2021
1824 Clear 5 1020 40 10000 2.2 212 05:40 06.03.2021
1825 Clear 7 1022 38 10000 1.81 176 03:36 06.03.2021
1826 Clear 13 1021 14 10000 2.71 159 01:32 06.03.2021
1827 Clear 14 1021 13 10000 3.36 158 00:45 06.03.2021
1828 Clear 14 1021 13 10000 0.89 136 23:41 05.03.2021
1829 Clear 14 1021 15 10000 2.68 159 23:19 05.03.2021
1830 Clear 14 1021 18 10000 1.34 136 22:43 05.03.2021
1831 Clear 14 1021 19 10000 2.42 159 22:20 05.03.2021
1832 Clouds 13 1026 30 10000 4.12 140 21:43 05.03.2021
1833 Clear 13 1025 33 10000 0.89 191 21:23 05.03.2021
1834 Clear 13 1025 35 10000 0.89 153 20:47 05.03.2021
1835 Clear 12 1026 35 10000 0.89 154 20:24 05.03.2021
1836 Clear 12 1026 32 10000 1.34 136 19:45 05.03.2021
1837 Clear 11 1027 41 10000 1.79 114 19:22 05.03.2021
1838 Clear 10 1024 33 10000 1.9 174 18:45 05.03.2021
1839 Clear 9 1024 37 10000 1.87 204 18:26 05.03.2021
1840 Clear 9 1024 37 10000 1.87 204 18:26 05.03.2021
1841 Clear 8 1024 44 10000 1.87 204 17:51 05.03.2021
1842 Clear 7 1028 57 10000 2.24 141 17:32 05.03.2021
1843 Clear 5 1028 81 10000 0.89 126 16:43 05.03.2021
1844 Clear 3 1024 65 10000 0.89 175 16:23 05.03.2021
1845 Clear 3 1028 68 10000 2.41 216 15:54 05.03.2021
1846 Clear 1 1027 75 10000 1.92 228 15:27 05.03.2021
1847 Clear 0 1027 81 10000 0.89 121 14:46 05.03.2021
1848 Clear 1 1026 65 10000 2.24 277 14:27 05.03.2021
1849 Clear 1 1025 67 10000 1.34 250 13:44 05.03.2021
1850 Clear 1 1026 93 10000 4.12 190 13:21 05.03.2021
1851 Clouds 1 1024 100 10000 2.68 267 12:45 05.03.2021
1852 Clouds 1 1025 80 10000 2.29 243 11:40 05.03.2021
1853 Clouds 1 1027 91 10000 2.14 218 11:20 05.03.2021
1854 Clear 1 1025 100 10000 3.6 210 10:57 05.03.2021
1855 Clear 1 1025 100 10000 3.6 210 10:37 05.03.2021
1856 Clouds 1 1021 88 10000 2.06 231 10:18 05.03.2021
1857 Clouds 1 1021 88 10000 2.06 231 09:39 05.03.2021
1858 Clouds 1 1020 87 10000 3.41 257 09:20 05.03.2021
1859 Clouds 1 1020 87 10000 3.41 257 08:39 05.03.2021
1860 Clouds 1 1024 100 10000 3.09 200 08:20 05.03.2021
1861 Clouds 2 1024 100 10000 1.54 180 07:34 05.03.2021
1862 Rain 3 1020 84 10000 2.05 12 06:35 05.03.2021
1863 Rain 3 1020 86 9108 0.89 295 05:42 05.03.2021
1864 Rain 3 1015 83 10000 7.3 352 01:35 05.03.2021
1865 Snow 3 1017 93 6437 6.17 340 23:55 04.03.2021
1866 Rain 4 1015 71 10000 3.13 337 23:24 04.03.2021
1867 Clouds 5 1012 44 10000 0.89 291 22:31 04.03.2021
1868 Clouds 6 1011 51 10000 0.45 31 21:54 04.03.2021
1869 Clouds 6 1011 45 10000 0.45 30 21:33 04.03.2021
1870 Clouds 6 1011 45 10000 5.12 2 20:58 04.03.2021
1871 Clouds 6 1011 46 10000 5.15 2 20:39 04.03.2021
1872 Clouds 6 1011 50 10000 3.49 3 20:20 04.03.2021
1873 Clouds 5 1011 47 10000 0.45 252 19:49 04.03.2021
1874 Clouds 5 1011 35 10000 3.18 356 19:23 04.03.2021
1875 Clouds 5 1011 35 10000 3.18 356 18:51 04.03.2021
1876 Clouds 5 1011 36 10000 3.48 359 18:30 04.03.2021
1877 Clouds 5 1011 37 10000 3.48 359 17:48 04.03.2021
1878 Clouds 5 1010 34 10000 3.7 324 17:30 04.03.2021
1879 Clouds 4 1010 35 10000 3.7 324 16:51 04.03.2021
1880 Clouds 4 1010 35 10000 3.7 324 16:32 04.03.2021
1881 Clouds 3 1010 44 10000 0.44 33 15:57 04.03.2021
1882 Clouds 2 1010 49 10000 0.44 33 15:38 04.03.2021
1883 Clouds 2 1010 50 10000 2.23 341 15:20 04.03.2021
1884 Clouds 2 1010 51 10000 2.23 341 14:39 04.03.2021
1885 Clouds 2 1014 50 10000 0.45 303 13:57 04.03.2021
1886 Clouds 2 1014 60 10000 1.6 342 13:36 04.03.2021
1887 Clouds 3 1023 31 10000 1.34 124 13:18 04.03.2021
1888 Clouds 2 1015 51 10000 5.66 120 12:40 04.03.2021
1889 Clouds 4 1014 40 10000 0.32 279 11:49 04.03.2021
1890 Clouds 3 1024 34 10000 0.89 126 11:28 04.03.2021
1891 Clouds 3 1087 37 10000 0.89 150 10:57 04.03.2021
1892 Clouds 3 1014 42 10000 0.77 210 10:35 04.03.2021
1893 Clear 3 1011 39 10000 1.33 219 09:51 04.03.2021
1894 Clear 3 1012 39 10000 1.86 210 09:26 04.03.2021
1895 Clear 3 1012 33 10000 1.86 210 08:49 04.03.2021
1896 Clear 3 1012 30 10000 1.56 192 08:23 04.03.2021
1897 Clear 4 1017 41 10000 4.63 180 07:35 04.03.2021
1898 Clear 5 1012 26 10000 1.5 221 06:28 04.03.2021
1899 Clear 5 1013 41 10000 1.5 221 05:52 04.03.2021
1900 Clear 11 1016 31 10000 5.66 140 02:20 04.03.2021
1901 Clouds 14 1016 13 10000 4.63 110 23:36 03.03.2021
1902 Clouds 16 1016 12 10000 1.54 200 22:29 03.03.2021
1903 Clouds 15 1016 13 10000 1.29 66 21:57 03.03.2021
1904 Clouds 15 1016 13 10000 1.29 66 21:39 03.03.2021
1905 Clouds 15 1016 13 10000 1.14 75 21:21 03.03.2021
1906 Clouds 14 1017 15 10000 2.06 60 20:43 03.03.2021
1907 Clouds 14 1017 15 10000 2.06 60 20:24 03.03.2021
1908 Clear 13 1015 23 10000 0.45 118 19:47 03.03.2021
1909 Clouds 12 1018 19 10000 0.29 126 19:28 03.03.2021
1910 Clouds 12 1016 22 10000 0.45 257 18:48 03.03.2021
1911 Clouds 11 1018 23 10000 3.6 230 18:30 03.03.2021
1912 Clouds 10 1016 26 10000 0.45 186 17:56 03.03.2021
1913 Clouds 8 1014 21 10000 1.34 186 17:20 03.03.2021
1914 Clouds 6 1014 24 10000 1.79 169 16:50 03.03.2021
1915 Clouds 4 1014 28 10000 0.45 158 16:27 03.03.2021
1916 Clouds 3 1014 31 10000 1.36 217 15:49 03.03.2021
1917 Clouds 1 1013 35 10000 1.47 217 15:28 03.03.2021
1918 Clouds 0 1016 53 10000 1.55 216 14:35 03.03.2021
1919 Clouds 0 1016 57 10000 0.45 90 13:59 03.03.2021
1920 Clear -1 1017 55 10000 5.14 180 13:38 03.03.2021
1921 Clear 0 1016 61 10000 1.47 228 13:18 03.03.2021
1922 Clear 0 1015 56 10000 0.45 88 12:41 03.03.2021
1923 Clear 0 1015 62 10000 1.16 220 12:22 03.03.2021
1924 Clear 0 1015 53 10000 1.16 220 11:44 03.03.2021
1925 Clear 0 1012 42 10000 0.73 212 11:22 03.03.2021
1926 Clear 0 1012 39 10000 0.73 212 10:44 03.03.2021
1927 Clear 1 1016 55 10000 0.95 242 10:21 03.03.2021
1928 Clear 1 1012 40 10000 0.95 242 09:41 03.03.2021
1929 Clear 2 1012 41 10000 2.11 264 08:51 03.03.2021
1930 Clear 2 1012 41 10000 1.02 276 08:23 03.03.2021
1931 Clear 2 1012 40 10000 1.02 276 07:53 03.03.2021
1932 Clear 3 1013 36 10000 1.32 257 07:20 03.03.2021
1933 Clear 4 1015 44 10000 0.45 19 06:19 03.03.2021
1934 Clear 4 1015 41 10000 1.23 261 05:31 03.03.2021
1935 Clear 5 1014 42 10000 1.3 252 04:36 03.03.2021
1936 Clear 6 1013 40 10000 0.45 176 03:52 03.03.2021
1937 Clouds 15 1014 17 10000 5.14 70 00:18 03.03.2021
1938 Clouds 16 1014 15 10000 2.06 90 23:32 02.03.2021
1939 Clouds 16 1015 11 10000 2.57 80 22:48 02.03.2021
1940 Clouds 16 1015 11 10000 2.57 80 22:21 02.03.2021
1941 Clear 14 1015 13 10000 0.64 166 21:46 02.03.2021
1942 Clear 14 1015 13 10000 0.76 177 21:28 02.03.2021
1943 Clear 13 1016 14 10000 2.06 160 20:55 02.03.2021
1944 Clear 13 1016 18 10000 2.57 110 20:36 02.03.2021
1945 Clear 13 1016 18 10000 2.57 110 20:18 02.03.2021
1946 Clear 13 1017 16 10000 0.9 190 19:43 02.03.2021
1947 Clear 12 1017 16 10000 1.38 177 19:24 02.03.2021
1948 Clear 11 1018 18 10000 2.57 240 18:41 02.03.2021
1949 Clear 11 1022 25 10000 0.89 168 18:21 02.03.2021
1950 Clear 9 1019 28 10000 1.41 179 17:50 02.03.2021
1951 Clear 8 1019 28 10000 1.4 178 17:31 02.03.2021
1952 Clear 6 1017 34 10000 0.89 218 16:58 02.03.2021
1953 Clear 5 1014 28 10000 1.48 199 16:36 02.03.2021
1954 Clear 1 1014 36 10000 1.72 203 15:52 02.03.2021
1955 Clear 1 1014 36 10000 1.72 203 15:52 02.03.2021
1956 Clear 0 1027 39 10000 0.89 213 15:25 02.03.2021
1957 Clear -1 1016 50 10000 0.88 244 14:28 02.03.2021
1958 Clear -1 1017 43 10000 4.63 200 13:59 02.03.2021
1959 Clear -1 1016 51 10000 0.88 244 13:39 02.03.2021
1960 Clear 0 1016 51 10000 1.14 218 13:20 02.03.2021
1961 Clear 0 1015 49 10000 0.45 195 12:31 02.03.2021
1962 Clear 0 1013 41 10000 1.35 222 11:57 02.03.2021
1963 Clear 0 1013 37 10000 1.35 222 11:38 02.03.2021
1964 Clear 0 1013 41 10000 1.2 226 11:18 02.03.2021
1965 Clear 0 1014 41 10000 1.2 226 10:33 02.03.2021
1966 Clear 0 1014 46 10000 1.2 229 09:59 02.03.2021
1967 Clear 0 1015 44 10000 1.2 229 09:40 02.03.2021
1968 Clear 0 1015 42 10000 1.31 231 09:19 02.03.2021
1969 Clear 0 1015 40 10000 1.31 231 08:38 02.03.2021
1970 Clear 0 1015 46 10000 1.31 229 07:58 02.03.2021
1971 Clear 0 1016 51 10000 1.34 217 07:27 02.03.2021
1972 Clear 0 1017 50 10000 1.37 203 06:33 02.03.2021
1973 Clear 1 1017 42 10000 1.41 193 05:45 02.03.2021
1974 Clear 1 1017 39 10000 1.12 198 05:27 02.03.2021
1975 Clear 9 1022 27 10000 1.54 130 01:44 02.03.2021
1976 Clear 9 1022 27 10000 1.54 130 01:44 02.03.2021
1977 Clear 9 1022 27 10000 1.54 130 01:44 02.03.2021
1978 Clear 9 1022 27 10000 1.54 130 01:44 02.03.2021
1979 Clear 9 1022 27 10000 1.54 130 01:44 02.03.2021
1980 Clear 9 1022 25 10000 5.14 160 01:25 02.03.2021
1981 Clear 9 1022 31 10000 3.6 140 00:21 02.03.2021
1982 Clear 9 1023 25 10000 2.06 150 23:22 01.03.2021
1983 Clear 9 1023 31 10000 4.12 150 22:40 01.03.2021
1984 Clear 8 1023 31 10000 4.12 150 22:21 01.03.2021
1985 Clear 9 1023 25 10000 0.89 28 21:45 01.03.2021
1986 Clear 8 1024 23 10000 3.6 160 21:23 01.03.2021
1987 Clear 8 1023 26 10000 0.89 162 20:47 01.03.2021
1988 Clear 6 1025 26 10000 2.23 161 20:27 01.03.2021
1989 Clear 7 1030 26 10000 1.98 149 19:51 01.03.2021
1990 Clear 6 840 24 10000 1.86 157 19:32 01.03.2021
1991 Clear 4 1026 28 10000 1.54 180 18:45 01.03.2021
1992 Clear 4 1031 25 10000 1.49 174 18:24 01.03.2021
1993 Clear 2 1022 19 10000 0.45 190 17:49 01.03.2021
1994 Clear 1 1022 20 10000 1.79 179 17:25 01.03.2021
1995 Clear 0 1022 23 10000 1.79 145 16:48 01.03.2021
1996 Clear -2 1022 25 10000 1.34 205 16:30 01.03.2021
1997 Clear -2 1022 25 10000 1.34 205 16:30 01.03.2021
1998 Clear -3 1021 27 10000 0.45 166 15:58 01.03.2021
1999 Clear -4 1024 48 10000 0.89 192 15:38 01.03.2021
2000 Clear -6 1031 48 10000 1.1 198 15:18 01.03.2021
2001 Clear -6 1031 48 10000 1.1 198 14:40 01.03.2021
2002 Clear -6 1031 47 10000 0.99 197 14:21 01.03.2021
2003 Clear -6 1027 48 10000 0.89 201 13:38 01.03.2021
2004 Clear -6 1030 48 10000 0.91 208 13:20 01.03.2021
2005 Clear -6 1030 47 10000 1.11 198 12:42 01.03.2021
2006 Clear -6 1023 42 10000 4.63 190 12:24 01.03.2021
2007 Clear -6 1029 48 10000 1.04 199 11:57 01.03.2021
2008 Clear -6 1029 47 10000 0.96 198 11:26 01.03.2021
2009 Clear -6 1029 43 10000 0.96 198 10:42 01.03.2021
2010 Clear -6 1029 43 10000 0.34 235 10:22 01.03.2021
2011 Clear -5 1029 44 10000 0.34 235 09:53 01.03.2021
2012 Clear -5 1029 47 10000 0.49 235 09:31 01.03.2021
2013 Clear -5 1029 48 10000 0.49 235 08:56 01.03.2021
2014 Clear -5 1022 49 10000 3.6 190 08:32 01.03.2021
2015 Clear -4 1021 54 10000 1.75 251 07:32 01.03.2021
2016 Clear -3 1016 34 10000 1.86 248 06:25 01.03.2021
2017 Clear -1 1022 31 10000 1.79 238 02:40 01.03.2021
2018 Clear 3 1020 21 10000 1.34 265 23:47 28.02.2021
2019 Clear 3 1013 13 10000 2.23 144 22:57 28.02.2021
2020 Clear 2 1023 20 10000 2.25 145 22:38 28.02.2021
2021 Clear 2 1016 23 10000 0.45 88 22:20 28.02.2021
2022 Clear 2 1013 13 10000 2.49 143 21:43 28.02.2021
2023 Clear 2 1013 14 10000 2.5 146 21:23 28.02.2021
2024 Clouds 1 1019 25 10000 2.06 140 20:41 28.02.2021
2025 Clear 1 1017 27 10000 0.89 102 20:19 28.02.2021
2026 Clear 1 1018 27 10000 0.45 221 19:46 28.02.2021
2027 Clear 0 1018 28 10000 2.2 170 19:27 28.02.2021
2028 Clear 0 1023 32 10000 0.89 159 18:46 28.02.2021
2029 Clear -1 1023 33 10000 1.34 111 18:26 28.02.2021
2030 Clear -1 1015 22 10000 0.45 174 17:56 28.02.2021
2031 Clear -2 1015 26 10000 1.34 176 17:37 28.02.2021
2032 Clear -3 1015 27 10000 2.2 203 17:18 28.02.2021
2033 Clear -4 1015 32 10000 0.45 178 16:44 28.02.2021
2034 Clear -5 1015 34 10000 1.73 202 16:26 28.02.2021
2035 Clear -6 1014 41 10000 1.73 202 15:51 28.02.2021
2036 Clear -7 1014 46 10000 1.35 217 15:26 28.02.2021
2037 Clouds -8 1017 57 10000 1.34 216 14:57 28.02.2021
2038 Clear -8 1016 64 10000 1.35 217 14:30 28.02.2021
2039 Clear -7 1016 61 10000 1.09 271 13:53 28.02.2021
2040 Clear -7 1015 59 10000 1.44 267 13:22 28.02.2021
2041 Clouds -7 1015 49 10000 3.09 50 12:59 28.02.2021
2042 Clouds -7 1015 49 10000 3.09 50 12:59 28.02.2021
2043 Clear -7 1021 52 10000 1.44 267 12:59 28.02.2021
2044 Clear -6 1015 41 10000 1.44 267 12:41 28.02.2021
2045 Clear -6 1015 41 10000 1.44 267 12:41 28.02.2021
2046 Clear -6 1020 46 10000 2.08 236 12:22 28.02.2021
2047 Clear -6 1011 38 10000 2.08 236 11:55 28.02.2021
2048 Clear -6 1010 36 10000 1.69 219 11:26 28.02.2021
2049 Clear -6 1010 33 10000 1.68 218 10:59 28.02.2021
2050 Clear -5 1010 37 10000 0.91 188 10:29 28.02.2021
2051 Clear -5 1010 32 10000 0.91 188 09:57 28.02.2021
2052 Clear -5 1010 33 10000 0.91 188 09:35 28.02.2021
2053 Clear -5 1010 34 10000 2.22 205 08:55 28.02.2021
2054 Clear -4 1010 32 10000 2.22 205 08:33 28.02.2021
2055 Clear -4 1010 28 10000 3.4 235 07:59 28.02.2021
2056 Clear -4 1009 28 10000 3.37 234 07:39 28.02.2021
2057 Clouds -4 1009 27 10000 0.45 294 07:19 28.02.2021
2058 Clouds -3 1014 42 10000 3.6 290 06:23 28.02.2021
2059 Clouds -2 1008 28 10000 0.45 290 03:48 28.02.2021
2060 Clouds -1 1006 28 10000 0.45 288 02:25 28.02.2021
2061 Snow 1 1007 51 10000 3.09 20 01:20 28.02.2021
2062 Clouds 2 1004 27 10000 0.11 185 00:38 28.02.2021
2063 Clouds 2 1003 37 10000 0.45 29 23:49 27.02.2021
2064 Clouds 2 1003 35 10000 0.89 322 23:21 27.02.2021
2065 Clouds 2 1002 36 10000 3.18 144 22:49 27.02.2021
2066 Clouds 2 1002 34 10000 3.33 123 22:23 27.02.2021
2067 Clouds 2 1002 31 10000 3.33 123 21:55 27.02.2021
2068 Clouds 2 1001 28 10000 0.89 32 21:35 27.02.2021
2069 Clouds 1 1001 31 10000 0.45 52 20:54 27.02.2021
2070 Clouds 1 1001 32 10000 3.87 88 20:35 27.02.2021
2071 Clouds 1 1001 32 10000 0.45 38 19:58 27.02.2021
2072 Clouds 1 1001 34 10000 3.72 32 19:39 27.02.2021
2073 Clouds 1 1001 33 10000 0.45 26 19:21 27.02.2021
2074 Snow 0 1004 47 10000 3.6 340 18:38 27.02.2021
2075 Clouds 0 1000 32 7476 1.34 32 18:18 27.02.2021
2076 Clouds 1 1000 32 7476 0.45 18 17:43 27.02.2021
2077 Clear 0 999 38 10000 0.43 180 17:20 27.02.2021
2078 Clear -1 999 43 10000 0.43 180 16:50 27.02.2021
2079 Clear -2 1000 44 10000 0.43 180 16:30 27.02.2021
2080 Clear -3 1000 54 10000 1.13 208 15:49 27.02.2021
2081 Clear -4 999 56 10000 1.13 208 15:30 27.02.2021
2082 Clear -4 1000 55 10000 0.39 214 14:41 27.02.2021
2083 Clear -4 1000 57 10000 2.23 4 14:23 27.02.2021
2084 Clouds -4 1001 56 10000 0.57 236 13:47 27.02.2021
2085 Clouds -4 1001 54 10000 1.59 349 13:25 27.02.2021
2086 Clouds -3 1001 52 10000 1.59 349 12:49 27.02.2021
2087 Clouds -3 1001 54 10000 2.41 342 12:26 27.02.2021
2088 Clouds -3 1001 54 10000 2.41 342 11:54 27.02.2021
2089 Clouds -3 1001 53 10000 2.41 342 11:31 27.02.2021
2090 Clouds -4 1006 58 10000 2.06 240 10:53 27.02.2021
2091 Clouds -3 1001 51 10000 1.14 300 10:35 27.02.2021
2092 Clouds -3 1002 50 10000 1.21 301 09:54 27.02.2021
2093 Clouds -3 1006 58 10000 5.14 130 09:33 27.02.2021
2094 Clear -3 1002 48 10000 1.49 124 08:44 27.02.2021
2095 Clear -3 1002 45 10000 1.34 100 08:24 27.02.2021
2096 Clear -2 1002 41 10000 0.45 72 07:58 27.02.2021
2097 Clouds -2 1002 38 10000 0.89 105 07:25 27.02.2021
2098 Clear 4 1001 29 10000 1.43 151 01:30 27.02.2021
2099 Clear 5 1001 30 10000 0.89 46 00:31 27.02.2021
2100 Clear 6 1001 29 10000 0.89 49 23:41 26.02.2021
2101 Clear 6 1001 28 10000 0.89 31 23:22 26.02.2021
2102 Clear 6 1001 26 10000 0.89 44 22:34 26.02.2021
2103 Clear 6 1001 25 10000 0.45 36 21:54 26.02.2021
2104 Clear 6 1001 25 10000 0.45 36 21:35 26.02.2021
2105 Clear 5 1002 28 10000 2.32 272 20:56 26.02.2021
2106 Clear 5 1002 28 10000 2.34 271 20:56 26.02.2021
2107 Clear 5 1003 27 10000 0.89 51 20:37 26.02.2021
2108 Clear 5 1003 30 10000 2.34 271 20:37 26.02.2021
2109 Clear 5 1003 28 10000 1.47 246 20:18 26.02.2021
2110 Clear 4 1015 49 10000 0.45 36 19:27 26.02.2021
2111 Clear 4 1003 30 10000 0.89 265 18:57 26.02.2021
2112 Clouds 3 1008 44 10000 6.17 230 18:25 26.02.2021
2113 Clear 2 1004 46 10000 0.45 215 17:59 26.02.2021
2114 Clear 1 1004 48 10000 0.45 279 17:37 26.02.2021
2115 Clear -1 1005 68 10000 1.74 219 17:18 26.02.2021
2116 Clear -2 1014 89 10000 0.45 355 16:46 26.02.2021
2117 Clear -4 1012 92 10000 0.89 144 16:27 26.02.2021
2118 Clouds -7 1009 92 10000 2.57 180 15:44 26.02.2021
2119 Clear -7 1018 89 10000 0.89 166 15:24 26.02.2021
2120 Clouds -8 1008 92 10000 3.09 190 14:57 26.02.2021
2121 Clouds -8 1008 92 10000 3.09 190 14:35 26.02.2021
2122 Clear -9 1008 92 10000 0.17 242 13:54 26.02.2021
2123 Clear -9 1008 93 10000 3.09 220 13:34 26.02.2021
2124 Clear -7 1009 93 10000 1.54 210 12:57 26.02.2021
2125 Clear -7 1009 93 10000 1.54 300 12:28 26.02.2021
2126 Clear -8 1009 92 10000 3.6 320 11:43 26.02.2021
2127 Clouds -8 1017 92 10000 1.34 186 11:20 26.02.2021
2128 Mist -9 1010 100 6437 3.09 220 10:37 26.02.2021
2129 Clouds -8 1019 90 10000 0.19 40 09:48 26.02.2021
2130 Mist -8 1010 100 4023 2.06 290 09:28 26.02.2021
2131 Clouds -8 1019 89 10000 0.98 15 08:36 26.02.2021
2132 Clouds -7 1019 86 10000 1.25 358 07:58 26.02.2021
2133 Clouds -7 1015 87 10000 1.04 266 07:22 26.02.2021
2134 Clouds -7 1008 81 10000 1.14 236 06:32 26.02.2021
2135 Clouds -6 1016 82 10000 1.57 201 05:18 26.02.2021
2136 Clouds -4 1014 82 10000 1.4 199 02:38 26.02.2021
2137 Clouds -2 1015 76 10000 0.94 284 00:33 26.02.2021
2138 Clouds -1 1016 77 10000 1.6 335 23:39 25.02.2021
2139 Clouds -2 1018 69 10000 2.57 20 22:58 25.02.2021
2140 Clouds -2 1017 75 10000 0.45 61 22:38 25.02.2021
2141 Clouds -2 1019 80 10000 3.6 10 21:51 25.02.2021
2142 Clouds -2 1018 79 10000 2.41 356 21:32 25.02.2021
2143 Clouds -2 1019 80 10000 0.45 59 20:54 25.02.2021
2144 Clouds -2 1019 80 10000 0.89 64 20:36 25.02.2021
2145 Clouds -2 1021 86 10000 4.63 10 20:18 25.02.2021
2146 Clouds -2 1021 86 10000 4.63 10 20:18 25.02.2021
2147 Clear -2 1017 80 10000 1.65 23 19:46 25.02.2021
2148 Clouds -3 1018 80 10000 0.45 36 19:19 25.02.2021
2149 Clouds -3 1019 81 10000 1.49 33 18:39 25.02.2021
2150 Clouds -3 1019 80 10000 0.67 83 18:18 25.02.2021
2151 Clouds -4 1019 84 10000 0.67 83 17:33 25.02.2021
2152 Clouds -5 1020 85 10000 0.89 154 16:56 25.02.2021
2153 Clouds -6 1021 85 10000 1.38 185 16:33 25.02.2021
2154 Clouds -8 1021 85 10000 1.38 185 15:48 25.02.2021
2155 Clouds -8 1024 89 10000 1.35 199 15:28 25.02.2021
2156 Snow -8 1025 100 3219 0.76 189 14:32 25.02.2021
2157 Clouds -7 1028 88 10000 0.77 191 13:59 25.02.2021
2158 Clouds -7 1021 87 10000 0.77 191 13:40 25.02.2021
2159 Snow -6 1025 93 2012 3.09 360 13:20 25.02.2021
2160 Snow -6 1021 88 9272 1.59 351 12:24 25.02.2021
2161 Snow -6 1021 88 9272 1.59 351 11:57 25.02.2021
2162 Snow -6 1021 88 9272 1.59 351 11:39 25.02.2021
2163 Snow -6 1022 88 1425 2.53 351 10:51 25.02.2021
2164 Snow -6 1022 88 1425 2.53 351 10:32 25.02.2021
2165 Snow -6 1022 88 164 3.44 347 09:45 25.02.2021
2166 Snow -6 1022 88 164 3.44 347 09:45 25.02.2021
2167 Snow -5 1022 88 132 3.44 349 09:22 25.02.2021
2168 Snow -5 1022 88 132 3.44 349 08:32 25.02.2021
2169 Snow -5 1022 88 138 4.11 358 07:58 25.02.2021
2170 Snow -5 1025 100 2012 6.17 70 07:38 25.02.2021
2171 Snow -4 1022 88 110 5.36 2 06:57 25.02.2021
2172 Snow -4 1022 88 110 5.36 2 06:57 25.02.2021
2173 Snow -3 1020 87 72 4.88 3 04:22 25.02.2021
2174 Clouds 2 1015 44 10000 3.52 81 01:42 25.02.2021
2175 Clouds 4 1014 34 10000 1.79 154 00:46 25.02.2021
2176 Clouds 4 1018 35 10000 5.66 130 23:56 24.02.2021
2177 Clouds 4 1014 30 10000 1.34 157 23:32 24.02.2021
2178 Clouds 5 1013 31 10000 0.89 113 22:47 24.02.2021
2179 Clouds 5 1017 35 10000 0.45 58 22:29 24.02.2021
2180 Clouds 5 1018 38 10000 2.57 90 21:48 24.02.2021
2181 Clear 5 1016 41 10000 0.89 84 21:24 24.02.2021
2182 Clear 4 1017 41 10000 1.93 112 20:48 24.02.2021
2183 Clear 4 1018 42 10000 0.45 94 20:25 24.02.2021
2184 Clear 3 1018 46 10000 1.79 160 19:40 24.02.2021
2185 Clear 3 1018 50 10000 1.79 204 19:20 24.02.2021
2186 Clear 2 1016 44 10000 0.89 83 18:48 24.02.2021
2187 Clear 2 1016 46 10000 0.45 104 18:29 24.02.2021
2188 Clear 0 1016 50 10000 0.45 120 17:39 24.02.2021
2189 Clear 0 1016 50 10000 0.45 130 17:20 24.02.2021
2190 Clear -1 1016 48 10000 0.89 113 16:45 24.02.2021
2191 Clear -2 1020 57 10000 3.38 110 16:20 24.02.2021
2192 Clear -3 1050 59 10000 0.89 54 15:47 24.02.2021
2193 Clear -4 1029 58 10000 1.79 126 15:25 24.02.2021
2194 Clouds -5 1019 68 10000 4.12 160 14:35 24.02.2021
2195 Clear -5 1028 64 10000 0.89 127 13:59 24.02.2021
2196 Clear -5 1026 70 10000 0.45 117 13:40 24.02.2021
2197 Clear -4 1017 70 10000 3.74 144 13:22 24.02.2021
2198 Clear -4 1017 70 10000 3.74 144 12:45 24.02.2021
2199 Clear -4 1017 68 10000 3.18 134 12:26 24.02.2021
2200 Clear -4 1016 70 10000 3.18 134 11:47 24.02.2021
2201 Clear -4 1027 65 10000 0.45 126 10:57 24.02.2021
2202 Clear -4 1051 70 10000 3.27 121 10:32 24.02.2021
2203 Clear -4 1026 68 10000 0.45 144 09:46 24.02.2021
2204 Clear -4 1016 66 10000 2.74 118 09:20 24.02.2021
2205 Clear -3 1016 65 10000 2.76 119 08:34 24.02.2021
2206 Clear -3 1016 66 10000 2.89 102 07:57 24.02.2021
2207 Clear -2 1016 66 10000 4.47 70 07:20 24.02.2021
2208 Clear -1 1027 41 10000 1.44 358 06:31 24.02.2021
2209 Clouds 8 1012 20 10000 8.75 300 03:31 24.02.2021
2210 Clouds 14 1007 15 10000 10.29 320 00:26 24.02.2021
2211 Clouds 15 1007 16 10000 9.77 330 23:24 23.02.2021
2212 Clouds 15 1007 17 10000 5.14 30 22:40 23.02.2021
2213 Clouds 15 1007 17 10000 5.14 30 22:19 23.02.2021
2214 Clouds 16 1007 20 10000 3.6 30 21:44 23.02.2021
2215 Clouds 16 1007 20 10000 3.6 30 21:22 23.02.2021
2216 Clouds 16 1007 16 10000 4.63 40 20:48 23.02.2021
2217 Clouds 16 1007 16 10000 4.63 40 20:29 23.02.2021
2218 Clouds 15 1008 14 10000 1.54 350 19:48 23.02.2021
2219 Clouds 14 1008 14 10000 1.54 350 19:27 23.02.2021
2220 Clouds 13 1009 13 10000 6.69 140 18:55 23.02.2021
2221 Clouds 12 1009 15 10000 1.25 192 18:32 23.02.2021
2222 Clouds 10 1011 27 10000 0.89 247 17:54 23.02.2021
2223 Clouds 10 1010 19 10000 2.06 170 17:33 23.02.2021
2224 Clouds 6 1009 46 10000 0.86 193 16:50 23.02.2021
2225 Clouds 3 1009 48 10000 0.45 216 16:27 23.02.2021
2226 Clouds 2 1011 30 10000 2.57 180 15:57 23.02.2021
2227 Clouds 2 1008 51 10000 1.69 227 15:38 23.02.2021
2228 Clouds 1 1008 52 10000 2.3 206 15:18 23.02.2021
2229 Clouds 1 1011 38 10000 4.12 190 14:42 23.02.2021
2230 Clouds 1 1006 51 10000 2.4 208 14:24 23.02.2021
2231 Clouds 1 1006 48 10000 2.4 208 13:43 23.02.2021
2232 Clouds 1 1006 48 10000 2.42 208 13:23 23.02.2021
2233 Clouds 1 1007 47 10000 2.42 208 12:51 23.02.2021
2234 Clouds 2 1007 46 10000 2.75 205 12:20 23.02.2021
2235 Clouds 2 1008 40 10000 2.75 205 11:47 23.02.2021
2236 Clear 2 1015 38 10000 7.2 190 11:21 23.02.2021
2237 Clouds 2 1013 47 10000 2.34 203 10:41 23.02.2021
2238 Clear 2 1013 46 10000 2.25 202 10:21 23.02.2021
2239 Clear 2 1014 52 10000 2.25 202 09:43 23.02.2021
2240 Clear 2 1014 53 10000 2.15 208 09:22 23.02.2021
2241 Clear 3 1014 58 10000 2.15 208 08:48 23.02.2021
2242 Clear 3 1015 58 10000 2.33 217 08:21 23.02.2021
2243 Clear 3 1012 41 10000 2.33 217 07:49 23.02.2021
2244 Clear 4 1014 34 10000 2.76 228 05:30 23.02.2021
2245 Clear 5 1014 36 10000 0.45 228 04:25 23.02.2021
2246 Clouds 13 1018 29 10000 6.17 290 02:34 23.02.2021
2247 Clouds 14 1018 23 10000 5.14 310 00:20 23.02.2021
2248 Clouds 14 1018 24 10000 5.66 310 23:46 22.02.2021
2249 Clouds 14 1018 24 10000 5.66 310 23:20 22.02.2021
2250 Clouds 14 1018 26 10000 7.72 320 22:39 22.02.2021
2251 Clear 14 1017 24 10000 4.02 258 22:20 22.02.2021
2252 Clouds 14 1017 28 10000 7.2 300 21:40 22.02.2021
2253 Clouds 14 1017 28 10000 7.2 300 21:21 22.02.2021
2254 Clear 14 1020 23 10000 2.68 313 20:49 22.02.2021
2255 Clouds 12 1018 25 10000 6.17 270 20:27 22.02.2021
2256 Clouds 12 1018 19 10000 10.29 260 19:51 22.02.2021
2257 Clouds 10 1018 25 10000 7.2 300 19:30 22.02.2021
2258 Clouds 9 1018 31 10000 6.69 250 18:49 22.02.2021
2259 Clouds 9 1018 31 10000 6.69 250 18:30 22.02.2021
2260 Clouds 7 1018 36 10000 5.66 260 17:54 22.02.2021
2261 Clouds 7 1018 36 10000 5.66 260 17:22 22.02.2021
2262 Clouds 7 1018 36 10000 5.66 260 17:22 22.02.2021
2263 Clouds 4 1018 44 10000 4.12 240 16:53 22.02.2021
2264 Clouds 4 1018 44 10000 4.12 240 16:31 22.02.2021
2265 Clouds 1 1017 51 10000 3.09 250 15:39 22.02.2021
2266 Clouds -1 1017 51 10000 3.09 250 15:21 22.02.2021
2267 Clear -2 1015 63 10000 2.37 209 14:42 22.02.2021
2268 Clouds -2 1018 50 10000 2.06 210 14:21 22.02.2021
2269 Clear -3 1013 53 10000 2.32 209 13:41 22.02.2021
2270 Clear -2 1012 47 10000 2.38 200 12:55 22.02.2021
2271 Clear -2 1012 45 10000 2.66 193 12:23 22.02.2021
2272 Clear -2 1012 41 10000 2.66 193 11:56 22.02.2021
2273 Clouds -2 1017 54 10000 4.12 210 11:32 22.02.2021
2274 Clear -2 1020 53 10000 1.96 204 10:59 22.02.2021
2275 Clear -2 1020 54 10000 1.96 204 10:40 22.02.2021
2276 Clear -2 1020 54 10000 2.35 205 10:20 22.02.2021
2277 Clear -2 1017 54 10000 5.14 200 09:38 22.02.2021
2278 Clear -2 1013 38 10000 2.54 213 09:19 22.02.2021
2279 Clear -2 1020 50 10000 2.54 213 08:49 22.02.2021
2280 Clear -2 1013 35 10000 2.93 213 08:21 22.02.2021
2281 Clear -2 1027 60 10000 2.89 213 07:46 22.02.2021
2282 Clear -2 1020 48 10000 2.73 212 07:22 22.02.2021
2283 Clear -2 1018 50 10000 4.12 200 06:26 22.02.2021
2284 Clear 0 1024 45 10000 1.97 232 04:25 22.02.2021
2285 Clear 1 1019 38 10000 2.24 259 03:22 22.02.2021
2286 Clear 4 1017 32 10000 2.24 247 00:54 22.02.2021
2287 Clear 4 1017 32 10000 3.58 294 00:29 22.02.2021
2288 Clear 5 1017 31 10000 3.13 260 23:55 21.02.2021
2289 Clear 5 1012 19 10000 2.68 297 23:23 21.02.2021
2290 Clear 5 1011 20 10000 2.24 248 22:30 21.02.2021
2291 Clear 4 1011 20 10000 3.13 257 21:52 21.02.2021
2292 Clear 4 1012 23 10000 3.13 236 21:34 21.02.2021
2293 Clear 4 1012 23 10000 3.13 236 21:34 21.02.2021
2294 Clear 3 1012 23 10000 1.34 285 20:58 21.02.2021
2295 Clear 3 1012 24 10000 2.68 286 20:36 21.02.2021
2296 Clear 3 1013 32 10000 3.9 313 20:18 21.02.2021
2297 Clear 2 1013 31 10000 4.84 302 19:43 21.02.2021
2298 Clear 2 1013 31 10000 4.06 288 19:23 21.02.2021
2299 Clear 1 1013 41 10000 2.63 282 18:29 21.02.2021
2300 Clear 0 1013 48 10000 2.63 282 17:58 21.02.2021
2301 Clouds -1 1014 53 10000 2.05 232 17:26 21.02.2021
2302 Clouds -2 1014 56 10000 2.05 232 16:53 21.02.2021
2303 Clouds -3 1014 61 10000 2.05 232 16:31 21.02.2021
2304 Clouds -5 1013 81 10000 2.58 213 15:47 21.02.2021
2305 Clouds -6 1013 80 10000 1.56 207 15:19 21.02.2021
2306 Clouds -6 1012 79 10000 1.56 206 14:41 21.02.2021
2307 Clear -5 1012 79 10000 1.36 288 14:20 21.02.2021
2308 Clear -5 1012 76 10000 1.36 288 13:43 21.02.2021
2309 Clouds -5 1012 73 10000 1.46 286 13:22 21.02.2021
2310 Clouds -4 1010 64 10000 1.47 352 12:29 21.02.2021
2311 Clouds -4 1009 71 10000 1.44 352 11:43 21.02.2021
2312 Clouds -3 1009 75 10000 2.14 346 10:58 21.02.2021
2313 Clouds -2 1009 82 10000 3.5 311 10:23 21.02.2021
2314 Clouds -2 1009 85 10000 3.5 311 09:53 21.02.2021
2315 Clouds -1 1009 85 10000 3.06 275 09:28 21.02.2021
2316 Clouds -1 1012 92 10000 3.06 275 08:49 21.02.2021
2317 Clouds -1 1008 84 10000 1.9 221 08:19 21.02.2021
2318 Clouds -1 1008 83 10000 2.21 211 07:33 21.02.2021
2319 Clouds 0 1007 87 10000 1.25 207 06:52 21.02.2021
2320 Snow 1 1006 83 72 0.45 34 02:49 21.02.2021
2321 Rain 2 1005 76 191 0.45 298 02:29 21.02.2021
2322 Clouds 6 1006 49 10000 6.17 340 00:42 21.02.2021
2323 Clouds 7 1005 40 10000 2.68 47 00:18 21.02.2021
2324 Clouds 9 1005 42 10000 0.45 265 23:18 20.02.2021
2325 Clouds 9 1003 37 10000 4.02 343 22:40 20.02.2021
2326 Clouds 9 1004 41 10000 2.76 345 22:21 20.02.2021
2327 Clouds 9 1013 40 10000 1.34 360 21:41 20.02.2021
2328 Clouds 10 1005 19 10000 7.72 230 21:20 20.02.2021
2329 Clouds 9 1007 24 10000 7.72 220 20:42 20.02.2021
2330 Clouds 11 1007 24 10000 7.72 220 20:21 20.02.2021
2331 Clouds 10 1009 31 10000 7.2 170 19:52 20.02.2021
2332 Clouds 8 1009 31 10000 7.2 170 19:23 20.02.2021
2333 Clouds 9 1010 31 10000 2.57 140 18:38 20.02.2021
2334 Clouds 7 1010 31 10000 7.2 200 18:19 20.02.2021
2335 Clear 7 1009 45 10000 0.45 136 17:37 20.02.2021
2336 Clear 4 1020 43 10000 1.34 177 16:54 20.02.2021
2337 Clear 1 828 55 10000 2.58 196 16:27 20.02.2021
2338 Clear 1 1010 52 10000 0.89 164 15:46 20.02.2021
2339 Clear -1 1010 54 10000 0.45 154 15:21 20.02.2021
2340 Clear -1 1010 54 10000 0.45 179 14:44 20.02.2021
2341 Clear -1 1011 60 10000 2.56 197 14:23 20.02.2021
2342 Clear -2 1011 60 10000 2.51 197 13:41 20.02.2021
2343 Clouds -2 1008 51 10000 2.7 192 13:22 20.02.2021
2344 Clouds -3 1009 51 10000 2.7 192 12:49 20.02.2021
2345 Clouds -2 1009 56 10000 2.69 197 12:22 20.02.2021
2346 Clouds -2 1010 55 10000 2.69 197 11:42 20.02.2021
2347 Clouds -2 1010 55 10000 2.56 198 11:23 20.02.2021
2348 Clouds -2 1011 51 10000 2.56 198 10:43 20.02.2021
2349 Clouds -2 1012 50 10000 2.26 196 09:50 20.02.2021
2350 Clouds -2 1012 48 10000 1.99 200 09:20 20.02.2021
2351 Clouds -2 1012 50 10000 1.96 201 08:34 20.02.2021
2352 Clear -2 1021 60 10000 1.93 206 07:54 20.02.2021
2353 Clouds 3 1017 30 10000 8.75 300 02:45 20.02.2021
2354 Clouds 3 1017 33 10000 1.54 0 02:21 20.02.2021
2355 Clouds 6 1016 26 10000 9.26 300 01:22 20.02.2021
2356 Clouds 6 1016 25 10000 12.35 290 00:45 20.02.2021
2357 Clouds 7 1016 25 10000 10.8 280 23:43 19.02.2021
2358 Clear 8 1019 27 10000 4.47 303 22:51 19.02.2021
2359 Clear 8 1021 31 10000 4.02 340 22:26 19.02.2021
2360 Clear 8 1015 32 10000 2.68 291 21:48 19.02.2021
2361 Clear 8 1014 34 10000 0.89 112 21:28 19.02.2021
2362 Clear 7 1015 31 10000 4.02 310 20:47 19.02.2021
2363 Clear 7 1016 40 10000 0.07 326 20:27 19.02.2021
2364 Clear 6 1015 38 10000 0.45 281 19:50 19.02.2021
2365 Clouds 5 1015 45 10000 0.78 214 19:20 19.02.2021
2366 Clouds 4 1016 35 10000 0.89 229 18:54 19.02.2021
2367 Clouds 3 1016 36 10000 1.35 200 18:31 19.02.2021
2368 Clouds 1 1012 27 10000 1.35 200 17:45 19.02.2021
2369 Clouds -2 1011 31 10000 0.89 165 16:50 19.02.2021
2370 Clouds -4 1015 50 10000 0.45 207 16:23 19.02.2021
2371 Clouds -5 1011 41 10000 2.21 197 15:57 19.02.2021
2372 Clouds -6 1015 58 10000 2.91 193 15:30 19.02.2021
2373 Clouds -6 1011 42 10000 2.88 192 14:55 19.02.2021
2374 Clear -7 1016 67 10000 4.12 190 14:35 19.02.2021
2375 Clouds -7 1012 54 10000 2.97 185 13:57 19.02.2021
2376 Clouds -7 1011 53 10000 2.97 185 13:36 19.02.2021
2377 Clouds -8 1015 64 10000 2.45 195 12:58 19.02.2021
2378 Clouds -8 1012 46 10000 2.45 195 12:38 19.02.2021
2379 Clear -8 1016 67 10000 4.63 180 12:20 19.02.2021
2380 Clouds -8 1012 50 10000 2.62 199 12:20 19.02.2021
2381 Clouds -9 1013 62 10000 2.62 199 11:41 19.02.2021
2382 Clear -9 1013 59 10000 2.76 199 11:18 19.02.2021
2383 Clear -9 1014 65 10000 2.12 207 10:34 19.02.2021
2384 Clear -9 1014 65 10000 2.12 207 09:59 19.02.2021
2385 Clear -9 1015 65 10000 1.84 221 09:29 19.02.2021
2386 Clear -9 1019 73 10000 5.14 180 08:55 19.02.2021
2387 Clear -9 1015 65 10000 1.84 221 08:30 19.02.2021
2388 Clear -8 1016 65 10000 1.69 216 07:57 19.02.2021
2389 Clear -8 1020 79 10000 5.66 190 07:37 19.02.2021
2390 Clear -8 1016 65 10000 1.87 231 07:19 19.02.2021
2391 Clear -8 1017 65 10000 1.87 231 06:36 19.02.2021
2392 Clear -7 1021 73 10000 2.05 248 04:42 19.02.2021
2393 Clear -4 1028 64 10000 0.45 93 02:44 19.02.2021
2394 Clear -2 1018 46 10000 0.89 29 01:26 19.02.2021
2395 Clear -1 1017 44 10000 0.89 55 00:27 19.02.2021
2396 Clear 0 1017 34 10000 2.33 35 23:45 18.02.2021
2397 Clear 0 1017 35 10000 2.44 50 23:27 18.02.2021
2398 Clear 0 1017 40 10000 0.89 32 22:37 18.02.2021
2399 Clear 0 1017 36 10000 0.89 39 22:18 18.02.2021
2400 Clear 0 1017 47 10000 2.38 36 21:37 18.02.2021
2401 Clear -1 1017 47 10000 0.45 294 21:19 18.02.2021
2402 Clear -1 1018 55 10000 1.63 41 20:39 18.02.2021
2403 Clouds -2 1022 59 10000 1.54 210 20:20 18.02.2021
2404 Clear -2 1019 66 10000 1.1 91 19:43 18.02.2021
2405 Clouds -3 1019 67 10000 0.45 158 19:20 18.02.2021
2406 Clouds -3 1019 67 10000 0.45 158 19:20 18.02.2021
2407 Clouds -4 1018 73 10000 1.38 117 18:48 18.02.2021
2408 Clouds -4 1018 76 10000 1.29 88 18:26 18.02.2021
2409 Clouds -5 1029 89 10000 0.45 21 17:46 18.02.2021
2410 Clouds -7 1022 86 10000 2.57 130 17:24 18.02.2021
2411 Clouds -7 1018 84 10000 0.83 21 16:46 18.02.2021
2412 Clouds -8 1022 100 10000 2.57 110 16:28 18.02.2021
2413 Clouds -9 1023 88 6545 0.82 333 15:42 18.02.2021
2414 Clouds -10 1029 89 5405 1.13 7 15:23 18.02.2021
2415 Clouds -10 1020 89 5405 1.13 7 14:52 18.02.2021
2416 Clouds -9 1020 90 3921 1.46 8 14:31 18.02.2021
2417 Clouds -9 1028 89 4541 1.47 359 13:50 18.02.2021
2418 Clouds -9 1028 89 4541 1.47 359 13:50 18.02.2021
2419 Snow -9 1029 89 510 2.08 10 13:21 18.02.2021
2420 Snow -9 1020 100 10000 2.06 10 12:54 18.02.2021
2421 Snow -9 836 89 510 2.08 10 12:30 18.02.2021
2422 Snow -8 1034 100 206 2.19 28 11:47 18.02.2021
2423 Snow -8 1034 100 206 2.19 28 11:47 18.02.2021
2424 Snow -7 1015 80 130 2.06 43 11:27 18.02.2021
2425 Snow -7 1015 80 130 2.06 43 10:57 18.02.2021
2426 Snow -7 1015 82 125 2.07 42 10:36 18.02.2021
2427 Snow -7 1015 82 112 2.18 48 10:18 18.02.2021
2428 Snow -6 1015 83 108 2.49 42 09:28 18.02.2021
2429 Snow -6 1015 84 108 2.49 42 08:49 18.02.2021
2430 Snow -6 1015 84 105 2.97 26 08:31 18.02.2021
2431 Snow -6 1015 85 105 2.97 26 07:47 18.02.2021
2432 Snow -5 1014 84 140 1.89 20 07:20 18.02.2021
2433 Snow -5 1014 85 181 0.45 37 05:42 18.02.2021
2434 Snow -5 1014 85 181 0.45 36 05:42 18.02.2021
2435 Snow -2 1008 65 2365 3.48 57 00:26 18.02.2021
2436 Snow -2 1008 67 2365 0.45 29 23:38 17.02.2021
2437 Snow -2 1008 67 2365 0.45 29 23:38 17.02.2021
2438 Clouds -2 1007 67 3891 3.2 55 22:59 17.02.2021
2439 Snow -2 1010 74 10000 2.57 50 22:39 17.02.2021
2440 Clouds -2 1006 69 10000 2.81 57 22:19 17.02.2021
2441 Clouds -2 1006 67 10000 2.81 57 21:42 17.02.2021
2442 Clouds -2 1006 69 10000 2.46 60 21:19 17.02.2021
2443 Clouds -1 1006 70 10000 1.34 34 20:40 17.02.2021
2444 Clouds -1 1006 66 10000 2.07 52 19:59 17.02.2021
2445 Clouds -1 1006 65 10000 2.07 52 19:37 17.02.2021
2446 Clouds -2 1006 67 10000 1.2 60 18:57 17.02.2021
2447 Clouds -2 1006 71 10000 1.2 60 18:34 17.02.2021
2448 Clouds -3 1006 81 10000 1.13 53 17:47 17.02.2021
2449 Mist -4 1010 100 4828 1.54 200 17:22 17.02.2021
2450 Clouds -4 1006 84 10000 0.89 254 16:52 17.02.2021
2451 Clouds -5 1006 85 10000 0.72 54 16:29 17.02.2021
2452 Clouds -5 1005 87 10000 0.71 55 15:56 17.02.2021
2453 Clouds -5 1005 87 10000 0.71 55 15:37 17.02.2021
2454 Clouds -6 1012 91 10000 0.2 36 15:19 17.02.2021
2455 Fog -6 1008 100 402 2.57 280 14:41 17.02.2021
2456 Clouds -6 1004 87 10000 0.2 36 14:41 17.02.2021
2457 Fog -6 1008 100 402 2.57 280 14:23 17.02.2021
2458 Clouds -6 1004 85 10000 1.11 7 13:42 17.02.2021
2459 Clear -6 1003 82 10000 2.24 14 12:59 17.02.2021
2460 Clear -6 1003 75 10000 2.64 9 12:26 17.02.2021
2461 Clouds -7 1006 79 10000 2.57 220 11:49 17.02.2021
2462 Clear -7 1008 83 10000 2.64 9 11:30 17.02.2021
2463 Clear -6 1008 81 10000 0.87 358 10:58 17.02.2021
2464 Clouds -6 1005 79 10000 2.57 250 10:40 17.02.2021
2465 Clear -6 1006 74 10000 0.27 217 10:20 17.02.2021
2466 Clear -6 1005 72 10000 0.89 305 09:40 17.02.2021
2467 Clear -5 1007 77 10000 0.45 285 08:58 17.02.2021
2468 Clouds -5 1005 68 10000 3.09 140 08:37 17.02.2021
2469 Clear -5 1004 76 10000 1.23 347 08:19 17.02.2021
2470 Clouds -5 1001 62 10000 0.32 201 07:23 17.02.2021
2471 Clouds -2 1004 63 10000 4.12 160 03:54 17.02.2021
2472 Clouds -1 1003 53 10000 1.19 224 02:33 17.02.2021
2473 Clouds 2 1002 51 10000 2.06 80 01:37 17.02.2021
2474 Clouds 3 1002 48 10000 5.14 70 00:28 17.02.2021
2475 Clouds 3 997 33 10000 0.89 28 23:49 16.02.2021
2476 Clouds 3 997 31 10000 1.79 40 23:25 16.02.2021
2477 Clouds 4 1000 41 10000 6.69 70 22:42 16.02.2021
2478 Clouds 4 1000 36 10000 5.66 90 22:22 16.02.2021
2479 Clear 5 995 23 10000 1.79 38 21:40 16.02.2021
2480 Clear 6 995 22 10000 1.34 42 21:22 16.02.2021
2481 Clear 5 1009 32 10000 0.89 109 20:58 16.02.2021
2482 Clouds 6 1000 33 10000 3.6 80 20:38 16.02.2021
2483 Clear 6 1009 31 10000 0.89 73 20:20 16.02.2021
2484 Clear 5 999 34 10000 1.34 57 19:40 16.02.2021
2485 Clouds 5 1001 28 10000 2.57 60 19:21 16.02.2021
2486 Clear 4 1007 39 10000 0.89 114 18:38 16.02.2021
2487 Clear 3 1001 44 10000 2.13 191 18:19 16.02.2021
2488 Clear 2 1007 50 10000 0.89 30 17:49 16.02.2021
2489 Clear -1 1000 55 10000 0.45 37 17:23 16.02.2021
2490 Clear -2 996 43 10000 2.12 210 16:47 16.02.2021
2491 Clear -4 1010 67 10000 2.13 213 16:24 16.02.2021
2492 Clear -6 1010 66 10000 2.13 213 15:47 16.02.2021
2493 Clear -7 999 70 10000 1.89 206 15:26 16.02.2021
2494 Clear -7 995 59 10000 1.89 206 14:48 16.02.2021
2495 Clear -7 999 65 10000 1.89 212 14:29 16.02.2021
2496 Clear -7 999 68 10000 1.89 212 13:56 16.02.2021
2497 Clouds -7 1001 69 10000 2.68 214 13:33 16.02.2021
2498 Clear -6 1002 60 10000 3.06 221 12:44 16.02.2021
2499 Clear -6 1002 57 10000 3.14 216 12:24 16.02.2021
2500 Clear -7 1000 62 10000 3.14 216 11:49 16.02.2021
2501 Clear -7 1002 74 10000 1.79 258 11:23 16.02.2021
2502 Clear -7 998 67 10000 2.35 231 10:55 16.02.2021
2503 Clear -7 998 66 10000 2.35 231 10:36 16.02.2021
2504 Clear -7 1010 71 10000 2.48 213 10:18 16.02.2021
2505 Clear -7 995 67 10000 2.48 213 09:44 16.02.2021
2506 Clear -7 995 65 10000 2.19 210 09:25 16.02.2021
2507 Clouds -7 1000 58 10000 4.63 180 08:42 16.02.2021
2508 Clear -7 995 64 10000 1.4 205 08:19 16.02.2021
2509 Clouds -8 996 63 10000 1.36 194 07:21 16.02.2021
2510 Clouds -10 997 62 10000 0.6 39 05:28 16.02.2021
2511 Clouds -7 1000 54 10000 2.07 11 00:45 16.02.2021
2512 Clouds -5 1001 49 10000 2.69 15 23:39 15.02.2021
2513 Clear -4 1005 55 10000 0.45 46 23:20 15.02.2021
2514 Clear -4 1001 47 10000 0.89 11 22:43 15.02.2021
2515 Clear -3 1001 47 10000 0.89 19 22:20 15.02.2021
2516 Clouds -2 1006 46 10000 2.57 90 21:38 15.02.2021
2517 Clear -3 1002 45 10000 0.89 30 21:20 15.02.2021
2518 Clear -3 1003 42 10000 1.94 26 20:45 15.02.2021
2519 Clear -3 1003 42 10000 1.94 26 20:45 15.02.2021
2520 Clear -4 1004 42 10000 1.48 66 20:25 15.02.2021
2521 Clear -5 1024 53 10000 0.89 220 19:44 15.02.2021
2522 Clouds -6 1024 56 10000 0.45 328 19:22 15.02.2021
2523 Clouds -8 1005 42 10000 1.28 103 18:44 15.02.2021
2524 Clouds -9 1026 58 10000 0.89 240 18:26 15.02.2021
2525 Clouds -12 1006 52 10000 0.68 109 17:42 15.02.2021
2526 Clouds -14 1006 56 10000 0.77 118 17:22 15.02.2021
2527 Clouds -16 1010 75 10000 0.45 91 16:55 15.02.2021
2528 Clouds -18 1007 66 10000 0.63 132 16:27 15.02.2021
2529 Clouds -20 1011 81 10000 0.63 132 15:50 15.02.2021
2530 Clouds -21 1011 81 10000 1.15 41 15:22 15.02.2021
2531 Clouds -21 1007 67 10000 1.15 41 14:54 15.02.2021
2532 Clouds -21 1011 81 10000 1.15 46 14:22 15.02.2021
2533 Clouds -21 1007 66 10000 1.21 36 13:58 15.02.2021
2534 Clouds -21 1007 66 10000 1.21 36 13:58 15.02.2021
2535 Clouds -21 1032 82 10000 1.21 36 13:39 15.02.2021
2536 Clouds -22 1011 80 10000 1.26 26 13:18 15.02.2021
2537 Clouds -22 1012 80 10000 1.26 26 12:39 15.02.2021
2538 Clouds -22 1008 67 10000 1.34 53 12:19 15.02.2021
2539 Clouds -22 1009 68 10000 1.34 53 11:41 15.02.2021
2540 Clouds -22 1012 81 10000 1.53 52 11:19 15.02.2021
2541 Clouds -22 1009 68 10000 1.53 52 10:46 15.02.2021
2542 Clouds -22 1014 84 10000 1.02 42 10:22 15.02.2021
2543 Clouds -22 1014 80 10000 1.05 42 09:53 15.02.2021
2544 Clouds -22 1015 77 10000 0.88 26 09:33 15.02.2021
2545 Clouds -22 1014 80 10000 1.05 42 09:33 15.02.2021
2546 Clouds -21 1011 68 10000 0.91 26 08:41 15.02.2021
2547 Clouds -21 1012 68 10000 1.12 37 07:38 15.02.2021
2548 Clouds -21 1012 69 10000 1.35 351 06:45 15.02.2021
2549 Clouds -21 1013 69 8725 1.08 41 06:27 15.02.2021
2550 Clouds -19 1013 63 3945 2.25 62 02:28 15.02.2021
2551 Clouds -17 1012 53 2776 2.47 48 00:35 15.02.2021
2552 Clouds -16 1012 51 8598 0.45 30 23:33 14.02.2021
2553 Clouds -16 1012 51 10000 0.45 59 22:54 14.02.2021
2554 Clouds -16 1033 61 10000 1.47 51 22:36 14.02.2021
2555 Clouds -16 1012 51 5922 0.45 23 22:18 14.02.2021
2556 Clouds -16 1033 59 5922 1.15 68 21:42 14.02.2021
2557 Clouds -16 1012 56 1420 1.34 26 21:21 14.02.2021
2558 Clouds -17 1013 49 1420 1.12 87 20:39 14.02.2021
2559 Snow -17 1018 60 10000 2.06 70 20:20 14.02.2021
2560 Snow -17 1014 52 1141 0.45 33 19:40 14.02.2021
2561 Snow -18 1014 56 554 2.03 25 18:51 14.02.2021
2562 Snow -18 1015 59 277 2.21 17 18:29 14.02.2021
2563 Snow -19 1015 58 277 2.21 17 17:51 14.02.2021
2564 Snow -19 1015 58 182 0.89 32 17:32 14.02.2021
2565 Snow -20 1015 65 182 2.35 12 16:44 14.02.2021
2566 Snow -21 1015 65 174 2.5 19 16:25 14.02.2021
2567 Snow -21 1015 66 174 2.5 19 15:47 14.02.2021
2568 Snow -21 1015 66 380 2.79 25 15:29 14.02.2021
2569 Snow -21 1015 66 386 2.79 25 14:43 14.02.2021
2570 Clouds -21 1014 66 824 2.94 23 14:24 14.02.2021
2571 Clouds -21 1014 66 824 2.94 23 13:41 14.02.2021
2572 Snow -21 1014 65 556 3.65 14 13:23 14.02.2021
2573 Snow -21 1013 66 195 3.76 8 12:24 14.02.2021
2574 Snow -21 1013 66 194 3.76 9 11:52 14.02.2021
2575 Snow -20 1013 66 195 3.76 8 11:33 14.02.2021
2576 Snow -20 1013 64 151 3.95 7 10:59 14.02.2021
2577 Snow -20 1013 65 239 4.53 3 10:23 14.02.2021
2578 Snow -20 1013 65 239 4.53 3 09:40 14.02.2021
2579 Snow -20 1013 64 269 0.45 30 09:21 14.02.2021
2580 Snow -20 1013 65 269 4.97 2 08:56 14.02.2021
2581 Snow -20 1032 79 245 0.89 21 07:58 14.02.2021
2582 Snow -19 1015 77 314 0.89 42 06:54 14.02.2021
2583 Snow -18 1014 78 171 5.12 3 05:43 14.02.2021
2584 Snow -17 1013 76 189 0.45 68 03:51 14.02.2021
2585 Clouds -17 1012 74 757 2.64 51 02:29 14.02.2021
2586 Snow -17 1012 85 3219 3.09 40 00:57 14.02.2021
2587 Snow -16 1012 85 3219 3.09 40 00:37 14.02.2021
2588 Snow -17 1012 85 3219 4.12 40 23:44 13.02.2021
2589 Snow -17 1012 85 3219 4.12 40 23:25 13.02.2021
2590 Snow -17 1012 78 3219 3.09 30 22:49 13.02.2021
2591 Snow -17 1011 78 4828 3.09 40 22:21 13.02.2021
2592 Snow -17 1011 78 4828 2.57 60 21:49 13.02.2021
2593 Snow -17 1011 78 4828 2.57 60 21:22 13.02.2021
2594 Clouds -17 1013 71 10000 2.57 360 20:31 13.02.2021
2595 Snow -17 1014 78 9656 2.06 20 19:59 13.02.2021
2596 Snow -17 1014 78 9656 2.06 20 19:41 13.02.2021
2597 Clouds -16 1027 69 10000 1.34 110 19:21 13.02.2021
2598 Clouds -17 1014 78 10000 2.06 10 18:45 13.02.2021
2599 Clouds -17 1014 78 10000 2.06 10 18:24 13.02.2021
2600 Snow -17 1014 78 10000 2.06 40 17:43 13.02.2021
2601 Clouds -18 1023 74 10000 0.45 340 17:23 13.02.2021
2602 Snow -18 1015 84 10000 1.54 30 16:44 13.02.2021
2603 Clouds -18 1014 76 3884 2.59 28 16:26 13.02.2021
2604 Snow -19 1014 84 10000 2.57 10 15:41 13.02.2021
2605 Snow -19 1014 84 10000 2.57 10 15:22 13.02.2021
2606 Clouds -19 1013 76 3305 2.24 21 14:33 13.02.2021
2607 Clouds -18 1013 76 3305 2.24 21 13:48 13.02.2021
2608 Clouds -18 1036 78 2900 2.72 14 13:25 13.02.2021
2609 Clouds -18 1030 80 5219 1.79 30 12:50 13.02.2021
2610 Clouds -17 1035 78 4879 3.62 356 12:19 13.02.2021
2611 Clouds -17 1009 70 4879 3.62 356 11:45 13.02.2021
2612 Clouds -17 1009 70 4879 3.62 356 11:45 13.02.2021
2613 Clouds -16 1010 70 5850 3.02 347 11:20 13.02.2021
2614 Clouds -16 1009 70 5850 3.02 347 10:47 13.02.2021
2615 Snow -16 1013 85 10000 5.14 330 10:26 13.02.2021
2616 Clouds -16 1010 69 8758 2.64 334 09:56 13.02.2021
2617 Clouds -16 1009 69 4876 3.92 331 09:30 13.02.2021
2618 Clouds -15 1009 68 4876 3.92 331 08:59 13.02.2021
2619 Clouds -15 1009 68 4876 0.45 290 08:39 13.02.2021
2620 Clouds -14 1009 68 5541 4.2 340 07:52 13.02.2021
2621 Clouds -14 1011 78 10000 1.54 330 06:41 13.02.2021
2622 Clouds -14 1008 65 10000 3.13 4 05:27 13.02.2021
2623 Clouds -14 1010 74 10000 2.58 16 03:58 13.02.2021
2624 Clear -13 1010 66 10000 2.36 2 01:48 13.02.2021
2625 Snow -12 1011 72 3219 4.63 10 00:42 13.02.2021
2626 Clouds -12 1010 72 10000 4.63 10 23:54 12.02.2021
2627 Clouds -13 1010 72 10000 3.09 10 23:26 12.02.2021
2628 Clouds -12 1009 72 10000 2.06 20 22:44 12.02.2021
2629 Haze -12 1008 57 9656 3.09 360 22:25 12.02.2021
2630 Mist -13 1011 78 8047 2.06 350 21:46 12.02.2021
2631 Snow -13 1011 72 10000 2.57 330 21:27 12.02.2021
2632 Snow -14 1012 85 10000 3.09 340 20:49 12.02.2021
2633 Snow -14 1012 85 10000 3.09 340 20:30 12.02.2021
2634 Snow -16 1013 92 10000 2.57 350 19:57 12.02.2021
2635 Snow -16 1013 92 10000 2.57 350 19:37 12.02.2021
2636 Mist -17 1014 78 8047 3.6 360 18:57 12.02.2021
2637 Snow -17 1013 85 10000 2.97 359 18:30 12.02.2021
2638 Snow -17 1013 85 3219 2.82 3 17:46 12.02.2021
2639 Snow -17 1014 85 10000 2.57 30 17:21 12.02.2021
2640 Snow -17 1014 85 3219 3.6 350 16:28 12.02.2021
2641 Snow -17 1014 85 10000 2.57 360 15:46 12.02.2021
2642 Snow -17 1014 85 10000 2.57 360 15:21 12.02.2021
2643 Snow -16 1014 85 10000 3.6 10 14:42 12.02.2021
2644 Snow -16 1014 85 10000 3.6 10 14:23 12.02.2021
2645 Snow -16 1014 85 10000 4.63 10 13:40 12.02.2021
2646 Clouds -15 1015 85 10000 3.09 40 12:56 12.02.2021
2647 Snow -14 1014 92 8047 2.57 10 12:37 12.02.2021
2648 Snow -15 1014 92 8047 2.57 10 12:18 12.02.2021
2649 Clouds -13 1014 78 10000 3.07 38 11:38 12.02.2021
2650 Snow -13 1015 85 10000 3.6 40 11:19 12.02.2021
2651 Clouds -13 1014 78 10000 3.2 43 10:41 12.02.2021
2652 Clouds -12 1015 78 10000 2.95 42 09:49 12.02.2021
2653 Snow -13 1016 92 10000 4.12 80 09:25 12.02.2021
2654 Snow -12 1017 85 10000 4.12 90 08:49 12.02.2021
2655 Clouds -12 1012 69 10000 2.4 62 08:28 12.02.2021
2656 Clouds -12 1016 76 10000 0.89 66 07:57 12.02.2021
2657 Clouds -12 1017 76 10000 0.89 67 07:32 12.02.2021
2658 Clouds -12 1017 76 10000 2.71 66 06:55 12.02.2021
2659 Clouds -12 1017 76 10000 2.71 66 06:55 12.02.2021
2660 Clouds -11 1016 75 10000 3.16 63 05:47 12.02.2021
2661 Snow -11 1017 85 6437 3.6 90 04:30 12.02.2021
2662 Snow -10 1016 79 9656 6.69 40 01:32 12.02.2021
2663 Clouds -5 1013 54 10000 2.24 44 23:41 11.02.2021
2664 Clouds -4 1014 54 10000 4.12 40 23:22 11.02.2021
2665 Clouds -4 1013 58 10000 4.63 360 22:46 11.02.2021
2666 Clouds -4 1013 58 10000 4.63 360 22:24 11.02.2021
2667 Clouds -3 1012 63 10000 5.14 40 21:57 11.02.2021
2668 Clouds -3 1012 63 10000 5.14 40 21:36 11.02.2021
2669 Clouds -3 1012 63 10000 5.14 40 21:18 11.02.2021
2670 Clouds -3 1013 68 10000 4.63 40 20:41 11.02.2021
2671 Clouds -3 1013 68 10000 4.63 40 20:21 11.02.2021
2672 Clouds -4 1013 86 10000 3.09 30 19:47 11.02.2021
2673 Clouds -4 1013 86 10000 3.09 30 19:27 11.02.2021
2674 Mist -6 1013 100 9656 3.09 340 18:49 11.02.2021
2675 Mist -6 1013 100 9656 3.09 340 18:25 11.02.2021
2676 Mist -8 1013 100 6437 1.54 320 17:51 11.02.2021
2677 Mist -8 1013 100 6437 1.54 320 17:22 11.02.2021
2678 Mist -10 1013 100 6437 1.68 11 16:53 11.02.2021
2679 Mist -10 1013 100 6437 1.68 11 16:34 11.02.2021
2680 Mist -11 1013 92 8047 0.38 20 15:58 11.02.2021
2681 Mist -11 1013 92 8047 0.38 20 15:38 11.02.2021
2682 Mist -11 1013 92 8047 1.08 165 15:20 11.02.2021
2683 Clouds -11 1012 85 10000 1.54 130 14:38 11.02.2021
2684 Mist -11 1012 85 2414 1.47 153 14:19 11.02.2021
2685 Mist -11 1013 100 4828 2.06 210 13:37 11.02.2021
2686 Fog -11 1013 100 805 1.54 170 13:18 11.02.2021
2687 Snow -11 1013 92 6437 1.03 110 12:37 11.02.2021
2688 Mist -11 1014 92 4023 1.75 60 11:58 11.02.2021
2689 Fog -11 1013 92 805 1.75 60 11:40 11.02.2021
2690 Fog -11 1013 92 805 2.09 32 11:20 11.02.2021
2691 Clouds -11 1013 92 10000 3.6 350 10:42 11.02.2021
2692 Fog -11 1013 92 805 1.93 24 10:22 11.02.2021
2693 Mist -11 1013 92 2012 2.06 360 09:42 11.02.2021
2694 Clouds -11 1013 92 10000 1.54 30 09:19 11.02.2021
2695 Clouds -11 1013 92 10000 1.54 30 09:19 11.02.2021
2696 Mist -10 1013 92 8047 2.06 40 08:49 11.02.2021
2697 Mist -9 1013 92 8047 3.09 10 07:54 11.02.2021
2698 Clouds -10 1013 92 10000 1.68 36 06:48 11.02.2021
2699 Clear -10 1013 92 10000 1.54 50 06:25 11.02.2021
2700 Clear -4 1022 71 10000 1.62 22 03:47 11.02.2021
2701 Clear -2 1021 62 10000 1.54 26 02:26 11.02.2021
2702 Clouds 2 1012 51 10000 4.12 360 00:24 11.02.2021
2703 Clouds 2 1013 45 10000 0.45 57 23:59 10.02.2021
2704 Clouds 2 1011 54 10000 0.45 32 23:28 10.02.2021
2705 Clouds 2 1011 55 10000 1.54 290 22:48 10.02.2021
2706 Clouds 1 1007 46 10000 1.66 36 22:24 10.02.2021
2707 Clouds 1 1012 69 10000 3.09 90 21:40 10.02.2021
2708 Clouds 0 1008 53 10000 0.93 75 21:21 10.02.2021
2709 Clouds -5 1013 74 10000 1.54 160 20:52 10.02.2021
2710 Clouds -2 1022 61 10000 0.89 248 20:29 10.02.2021
2711 Mist -6 1014 100 9656 0.94 108 19:57 10.02.2021
2712 Mist -5 1014 100 9656 0.94 108 19:39 10.02.2021
2713 Mist -7 1014 100 9656 1.19 75 19:18 10.02.2021
2714 Mist -9 1015 100 8047 1.46 41 18:36 10.02.2021
2715 Mist -9 1015 100 8047 1.99 29 18:18 10.02.2021
2716 Mist -9 1014 79 3219 1.54 80 17:44 10.02.2021
2717 Mist -9 1014 79 1609 2.06 80 17:20 10.02.2021
2718 Snow -10 1015 92 402 1.54 70 16:46 10.02.2021
2719 Mist -10 1015 100 2012 1.54 110 16:25 10.02.2021
2720 Fog -10 1015 92 402 2.57 70 15:25 10.02.2021
2721 Fog -10 1015 92 402 2.57 60 14:58 10.02.2021
2722 Snow -10 1015 92 10000 3.09 50 14:39 10.02.2021
2723 Mist -10 1015 92 8047 3.09 30 13:55 10.02.2021
2724 Snow -10 1015 92 8047 3.6 30 13:31 10.02.2021
2725 Clouds -9 1015 92 10000 3.6 40 12:55 10.02.2021
2726 Clouds -9 1014 92 10000 4.12 40 12:31 10.02.2021
2727 Mist -8 1014 100 8047 3.09 20 11:59 10.02.2021
2728 Clouds -8 1014 100 10000 4.63 40 11:39 10.02.2021
2729 Mist -8 1014 93 8047 3.6 10 11:21 10.02.2021
2730 Clouds -8 1013 93 10000 4.12 10 10:25 10.02.2021
2731 Clouds -7 1013 93 10000 3.09 360 09:57 10.02.2021
2732 Clouds -7 1012 86 10000 3.09 360 09:33 10.02.2021
2733 Clouds -7 1011 86 10000 1.37 63 08:57 10.02.2021
2734 Clouds -7 1011 86 10000 1.37 63 08:39 10.02.2021
2735 Clouds -7 1011 92 10000 1.8 34 07:41 10.02.2021
2736 Clouds -6 1011 73 10000 1.51 42 06:33 10.02.2021
2737 Clouds -2 1011 60 10000 2.65 29 01:56 10.02.2021
2738 Clouds 0 1011 51 10000 2.06 60 00:24 10.02.2021
2739 Clouds 0 1010 51 10000 2.06 50 23:34 09.02.2021
2740 Clouds -1 1011 55 10000 2.57 10 22:54 09.02.2021
2741 Clouds -1 1011 55 10000 2.57 10 22:24 09.02.2021
2742 Clouds -3 1011 63 10000 2.57 10 21:52 09.02.2021
2743 Clouds -3 1011 63 10000 2.57 10 21:27 09.02.2021
2744 Mist -2 1012 68 8047 3.6 10 20:49 09.02.2021
2745 Clouds -5 1011 54 10000 3.09 350 20:26 09.02.2021
2746 Clouds -6 1013 73 10000 1.54 40 19:58 09.02.2021
2747 Mist -6 1013 73 8047 1.54 30 19:35 09.02.2021
2748 Mist -7 1013 79 3219 2.06 0 18:58 09.02.2021
2749 Mist -7 1013 79 3219 2.06 0 18:58 09.02.2021
2750 Mist -8 1013 79 9656 1.54 0 18:36 09.02.2021
2751 Mist -10 1013 92 8047 1.18 49 17:57 09.02.2021
2752 Mist -10 1013 92 8047 1.18 49 17:37 09.02.2021
2753 Mist -10 1013 92 8047 1.9 32 17:18 09.02.2021
2754 Mist -11 1013 100 4023 1.9 32 16:40 09.02.2021
2755 Mist -12 1013 92 2414 2.4 16 16:18 09.02.2021
2756 Mist -12 1013 92 2414 2.4 16 15:48 09.02.2021
2757 Mist -12 1014 92 2414 2.06 360 15:24 09.02.2021
2758 Mist -12 1013 92 8047 2.57 30 14:53 09.02.2021
2759 Clouds -12 1012 79 10000 2.15 12 14:26 09.02.2021
2760 Clear -11 1013 85 10000 1.54 310 13:50 09.02.2021
2761 Clouds -11 1013 92 10000 2.57 30 13:25 09.02.2021
2762 Clear -12 1013 85 10000 1.54 40 12:49 09.02.2021
2763 Clear -12 1013 92 10000 3.09 20 12:31 09.02.2021
2764 Clear -10 1012 92 10000 2.28 13 11:54 09.02.2021
2765 Clear -10 1012 85 10000 2.57 360 11:36 09.02.2021
2766 Clouds -10 1012 85 10000 1.42 2 11:18 09.02.2021
2767 Clear -10 1012 85 10000 1.43 3 10:41 09.02.2021
2768 Clouds -10 1012 85 10000 3.09 320 10:18 09.02.2021
2769 Clear -9 1011 85 10000 4.12 320 09:42 09.02.2021
2770 Clouds -9 1011 79 10000 2.57 200 09:23 09.02.2021
2771 Clear -10 1011 79 10000 2.06 100 08:37 09.02.2021
2772 Clouds -10 1012 85 10000 0.93 53 08:18 09.02.2021
2773 Clouds -8 1012 73 10000 1.54 350 05:55 09.02.2021
2774 Clouds -6 1010 73 10000 4.12 130 03:50 09.02.2021
2775 Clouds -4 1009 63 10000 4.12 70 02:27 09.02.2021
2776 Clouds 1 1007 43 10000 4.12 70 00:32 09.02.2021
2777 Clouds 1 1007 40 10000 5.14 40 23:54 08.02.2021
2778 Clouds 1 1007 40 10000 5.14 40 23:20 08.02.2021
2779 Clouds 1 1006 44 10000 4.12 70 22:43 08.02.2021
2780 Clouds 1 1006 44 10000 4.12 70 22:23 08.02.2021
2781 Clouds 0 1006 47 10000 4.63 60 21:53 08.02.2021
2782 Clouds 0 1006 47 10000 4.63 60 21:31 08.02.2021
2783 Clouds -2 1007 63 10000 3.09 70 20:57 08.02.2021
2784 Clouds -2 1007 63 10000 3.09 70 20:36 08.02.2021
2785 Clouds -2 1007 63 10000 3.09 70 20:18 08.02.2021
2786 Clouds -4 1007 68 10000 5.14 40 19:41 08.02.2021
2787 Mist -4 1007 63 8047 5.14 60 19:22 08.02.2021
2788 Clouds -5 1007 79 10000 4.63 20 18:46 08.02.2021
2789 Clouds 0 1005 48 10000 6.17 360 18:19 08.02.2021
2790 Mist -1 1005 92 3219 4.63 10 17:43 08.02.2021
2791 Clouds -6 1005 48 10000 2.06 210 17:24 08.02.2021
2792 Clouds -8 1005 92 10000 2.57 360 16:43 08.02.2021
2793 Clouds -8 1005 92 10000 2.57 360 16:43 08.02.2021
2794 Clouds -8 1005 92 10000 2.57 360 16:21 08.02.2021
2795 Clouds -11 1005 92 10000 3.6 200 15:42 08.02.2021
2796 Clouds -11 1005 92 10000 3.6 200 15:20 08.02.2021
2797 Mist -12 1005 92 3219 4.12 70 14:51 08.02.2021
2798 Clouds -12 1005 92 10000 1.54 220 14:31 08.02.2021
2799 Mist -12 1005 92 6437 2.57 180 13:56 08.02.2021
2800 Mist -12 1006 92 8047 0.58 95 13:32 08.02.2021
2801 Clouds -11 1006 92 10000 2.57 80 12:53 08.02.2021
2802 Clouds -11 1005 92 10000 2.57 70 12:35 08.02.2021
2803 Clouds -11 1006 92 10000 1.54 70 11:47 08.02.2021
2804 Mist -11 1005 92 6437 4.12 90 11:21 08.02.2021
2805 Clouds -11 1006 92 10000 1.54 110 10:44 08.02.2021
2806 Clouds -11 1006 92 10000 2.06 90 10:24 08.02.2021
2807 Clouds -11 1007 85 10000 2.01 139 09:51 08.02.2021
2808 Clouds -11 1007 85 10000 1.54 150 09:30 08.02.2021
2809 Snow -11 1009 92 10000 2.06 140 08:41 08.02.2021
2810 Snow -11 1009 92 10000 2.06 140 08:18 08.02.2021
2811 Snow -12 1010 92 9656 3.09 90 07:22 08.02.2021
2812 Snow -11 1011 85 8047 4.12 70 05:53 08.02.2021
2813 Clouds 3 1005 63 10000 7.72 90 02:28 08.02.2021
2814 Clouds 11 1002 7 10000 11.32 300 00:56 08.02.2021
2815 Clouds 11 998 6 10000 1.79 282 00:21 08.02.2021
2816 Clouds 12 998 5 10000 4.02 288 23:46 07.02.2021
2817 Clouds 12 1002 6 10000 11.83 290 23:20 07.02.2021
2818 Clouds 12 999 12 10000 4.47 283 22:44 07.02.2021
2819 Clouds 12 998 6 10000 2.24 292 22:25 07.02.2021
2820 Clouds 12 998 6 10000 4.02 288 21:52 07.02.2021
2821 Clouds 12 1002 6 10000 12.86 300 21:27 07.02.2021
2822 Clouds 12 998 6 10000 2.24 294 20:54 07.02.2021
2823 Clouds 12 998 6 10000 3.58 293 20:33 07.02.2021
2824 Clear 11 998 7 10000 4.02 263 19:55 07.02.2021
2825 Clear 11 999 8 10000 5.36 248 19:31 07.02.2021
2826 Clear 10 1005 15 10000 1.34 329 18:56 07.02.2021
2827 Clear 10 1005 14 10000 3.58 293 18:36 07.02.2021
2828 Clouds 8 1004 23 10000 2.06 340 18:18 07.02.2021
2829 Clear 8 1000 25 10000 0.9 252 17:44 07.02.2021
2830 Clear 5 1006 46 10000 0.45 231 17:20 07.02.2021
2831 Clear 3 1000 41 10000 1.21 149 16:47 07.02.2021
2832 Clouds 2 1005 55 10000 2.06 220 16:26 07.02.2021
2833 Clear 2 1000 44 10000 0.47 279 15:55 07.02.2021
2834 Clear 1 1003 54 10000 0.45 19 15:37 07.02.2021
2835 Clouds 1 1004 51 10000 4.63 290 15:18 07.02.2021
2836 Clear 1 1004 58 10000 0.89 333 14:39 07.02.2021
2837 Clear 1 1004 58 10000 0.89 333 14:19 07.02.2021
2838 Clear 1 1000 45 10000 0.45 296 13:36 07.02.2021
2839 Clear 0 1000 51 10000 0.64 202 12:57 07.02.2021
2840 Clear 0 1003 62 10000 0.64 202 12:37 07.02.2021
2841 Clear 0 1003 61 10000 0.93 239 12:18 07.02.2021
2842 Clear 1 1003 56 10000 2.12 197 11:28 07.02.2021
2843 Clear 1 1000 48 10000 2.12 197 10:57 07.02.2021
2844 Clear 1 1000 46 10000 2.76 173 10:27 07.02.2021
2845 Clear 0 1003 54 10000 2.77 174 09:50 07.02.2021
2846 Clear 0 1000 43 10000 2.4 170 09:24 07.02.2021
2847 Clouds -1 1005 54 10000 2.39 170 08:36 07.02.2021
2848 Clear -1 1012 54 10000 1.56 183 07:47 07.02.2021
2849 Clouds 0 1000 37 10000 1.37 144 05:58 07.02.2021
2850 Clouds 0 1000 37 10000 1.37 144 05:58 07.02.2021
2851 Clouds 2 1000 27 10000 1.21 137 03:55 07.02.2021
2852 Clouds 4 1007 29 10000 1.42 26 01:39 07.02.2021
2853 Clouds 6 1007 24 10000 2.68 299 00:36 07.02.2021
2854 Clouds 7 1008 21 10000 1.34 306 23:48 06.02.2021
2855 Clouds 7 1009 20 10000 1.79 301 22:50 06.02.2021
2856 Clouds 6 1004 18 10000 0.45 306 21:45 06.02.2021
2857 Clouds 6 1010 25 10000 1.79 330 21:24 06.02.2021
2858 Clouds 6 1011 23 10000 1.79 292 20:53 06.02.2021
2859 Clouds 5 1005 18 10000 1.34 312 20:26 06.02.2021
2860 Clouds 5 1006 19 10000 2.24 279 19:59 06.02.2021
2861 Clouds 5 1013 26 10000 1.34 302 19:35 06.02.2021
2862 Clouds 5 1007 19 10000 1.34 304 18:59 06.02.2021
2863 Clouds 4 1014 27 10000 2.68 307 18:41 06.02.2021
2864 Clouds 4 1014 28 10000 1.34 5 18:20 06.02.2021
2865 Clouds 3 1014 33 10000 1.34 344 17:40 06.02.2021
2866 Clouds 2 1014 37 10000 0.89 291 17:20 06.02.2021
2867 Clouds 1 1008 39 10000 0.45 25 16:42 06.02.2021
2868 Clouds 1 1008 39 10000 0.45 25 16:42 06.02.2021
2869 Clouds 0 1012 59 10000 2.06 60 16:24 06.02.2021
2870 Clouds -1 1008 43 10000 3.54 308 15:48 06.02.2021
2871 Clouds -1 1008 47 10000 3.87 317 15:26 06.02.2021
2872 Clouds -1 1007 47 10000 0.45 275 14:46 06.02.2021
2873 Clouds -1 1011 59 10000 3.6 330 14:28 06.02.2021
2874 Clouds -1 1009 64 10000 1.54 290 13:53 06.02.2021
2875 Clouds -1 1006 47 10000 5.2 301 13:34 06.02.2021
2876 Clear -1 1004 46 10000 3.41 306 12:23 06.02.2021
2877 Clear 0 1004 45 10000 3.41 306 11:57 06.02.2021
2878 Clear 0 1004 48 10000 3.48 305 11:38 06.02.2021
2879 Clear 0 1010 57 10000 0.89 298 11:19 06.02.2021
2880 Clear 0 1003 50 10000 1.79 269 10:44 06.02.2021
2881 Clear 0 1010 59 10000 0.89 336 10:24 06.02.2021
2882 Clear 0 1009 45 10000 0.45 308 09:37 06.02.2021
2883 Clear 1 1009 46 10000 0.89 279 09:18 06.02.2021
2884 Clear 1 1009 46 10000 1.79 277 08:49 06.02.2021
2885 Clear 1 1003 38 10000 0.89 279 08:28 06.02.2021
2886 Clouds 1 1008 36 10000 2.24 324 06:40 06.02.2021
2887 Clouds 1 1001 35 10000 2.76 259 04:45 06.02.2021
2888 Clouds 3 1007 38 10000 2.33 308 02:39 06.02.2021
2889 Clouds 5 1000 21 10000 0.45 286 00:49 06.02.2021
2890 Clouds 6 1006 27 10000 0.89 6 00:21 06.02.2021
2891 Clouds 6 1006 31 10000 0.45 166 23:50 05.02.2021
2892 Clouds 6 1000 26 10000 0.45 32 23:27 05.02.2021
2893 Clouds 6 1006 32 10000 0.89 86 22:49 05.02.2021
2894 Clouds 6 1006 30 10000 0.89 88 22:24 05.02.2021
2895 Clouds 6 1000 21 10000 6.26 307 21:52 05.02.2021
2896 Clouds 6 1000 21 10000 6.26 307 21:30 05.02.2021
2897 Clouds 6 1001 20 10000 3.72 312 20:48 05.02.2021
2898 Clouds 5 1009 27 10000 0.89 90 19:57 05.02.2021
2899 Clouds 4 1003 21 10000 0.89 158 19:25 05.02.2021
2900 Clouds 4 1004 21 10000 0.45 144 18:55 05.02.2021
2901 Clouds 2 1009 30 10000 3.6 290 18:29 05.02.2021
2902 Clouds 2 1005 24 10000 3.04 176 17:56 05.02.2021
2903 Clouds 1 1006 29 10000 0.89 163 17:33 05.02.2021
2904 Clouds 1 1010 37 10000 3.6 290 16:57 05.02.2021
2905 Clouds 1 1014 34 10000 2.74 181 16:38 05.02.2021
2906 Clouds 0 1013 35 10000 0.45 344 16:19 05.02.2021
2907 Clouds -1 1014 38 10000 2.89 174 15:31 05.02.2021
2908 Clouds -1 1014 35 10000 1.34 278 14:59 05.02.2021
2909 Clouds 0 1011 34 10000 7.72 320 14:38 05.02.2021
2910 Clouds 0 1014 36 10000 0.45 324 14:18 05.02.2021
2911 Clouds -1 1014 34 10000 2.24 320 13:39 05.02.2021
2912 Clouds -1 1015 34 10000 2.68 298 13:19 05.02.2021
2913 Clouds -1 1014 35 10000 1.34 329 12:41 05.02.2021
2914 Clouds -1 1014 35 10000 1.34 329 12:41 05.02.2021
2915 Clouds -1 1011 34 10000 8.75 310 11:58 05.02.2021
2916 Clouds -1 1011 40 10000 2.24 290 11:37 05.02.2021
2917 Clouds -1 1011 34 10000 8.75 310 11:19 05.02.2021
2918 Clouds -1 1015 44 10000 0.89 304 10:43 05.02.2021
2919 Clouds -1 1015 49 10000 1.06 180 10:22 05.02.2021
2920 Clouds -1 1006 35 10000 1.06 180 09:42 05.02.2021
2921 Clouds -1 1015 36 10000 0.45 199 09:22 05.02.2021
2922 Clouds -1 1015 38 10000 0.89 346 08:37 05.02.2021
2923 Clouds -1 1007 34 10000 3.49 241 07:40 05.02.2021
2924 Clouds -1 1007 34 10000 3.49 241 07:19 05.02.2021
2925 Clouds 0 1015 36 10000 2.47 217 05:40 05.02.2021
2926 Clouds 0 1007 24 10000 1.86 281 04:59 05.02.2021
2927 Clear 1 1015 31 10000 0.45 275 02:25 05.02.2021
2928 Clouds 3 1011 25 10000 11.83 320 00:44 05.02.2021
2929 Clear 3 1013 28 10000 1.79 327 00:21 05.02.2021
2930 Clear 3 1007 24 10000 0.45 286 23:59 04.02.2021
2931 Clear 4 1013 27 10000 2.24 275 23:40 04.02.2021
2932 Clouds 4 1011 20 10000 11.83 300 23:22 04.02.2021
2933 Clear 4 1013 28 10000 2.24 320 22:52 04.02.2021
2934 Clear 4 1007 19 10000 2.24 313 22:29 04.02.2021
2935 Clouds 4 1011 22 10000 9.77 300 21:43 04.02.2021
2936 Clear 4 1013 28 10000 2.68 337 21:22 04.02.2021
2937 Clear 3 1013 27 10000 2.24 358 20:54 04.02.2021
2938 Clear 3 1013 27 10000 1.79 271 20:34 04.02.2021
2939 Clear 3 1014 27 10000 3.13 334 19:49 04.02.2021
2940 Clouds 3 1015 27 10000 2.68 21 19:21 04.02.2021
2941 Clouds 2 1015 28 10000 2.68 296 18:39 04.02.2021
2942 Clouds 2 1015 28 10000 2.68 296 18:39 04.02.2021
2943 Clear 2 1010 21 10000 1.79 293 18:20 04.02.2021
2944 Clear 1 1010 23 10000 1.79 287 17:44 04.02.2021
2945 Clear 0 1010 24 10000 2.24 294 17:21 04.02.2021
2946 Clear -1 1010 32 10000 4.25 295 16:46 04.02.2021
2947 Clouds -3 1014 79 10000 2.57 210 16:19 04.02.2021
2948 Clear -3 1013 41 10000 3.13 348 15:40 04.02.2021
2949 Clear -4 1012 35 10000 1.79 322 15:21 04.02.2021
2950 Clear -5 1012 81 10000 0.89 0 14:49 04.02.2021
2951 Clear -5 1014 57 10000 2.04 173 14:21 04.02.2021
2952 Clear -6 1012 84 10000 2.04 173 13:56 04.02.2021
2953 Clear -6 1013 73 10000 2.04 173 13:36 04.02.2021
2954 Clouds -5 1012 81 10000 0.59 156 12:57 04.02.2021
2955 Clouds -5 1023 97 10000 1.92 58 12:20 04.02.2021
2956 Clouds -4 1013 86 10000 2.06 330 11:38 04.02.2021
2957 Clouds -4 1012 71 10000 2.4 29 11:20 04.02.2021
2958 Clouds -3 1009 61 10000 2.4 29 10:43 04.02.2021
2959 Clouds -2 1012 67 10000 0.89 74 09:47 04.02.2021
2960 Clouds -2 1012 69 10000 0.45 61 09:23 04.02.2021
2961 Clouds -2 1008 64 10000 6.64 32 08:59 04.02.2021
2962 Clouds -1 1018 77 10000 2.73 8 08:28 04.02.2021
2963 Clouds 1 1010 52 10000 2.68 52 07:59 04.02.2021
2964 Clouds 2 1009 39 10000 1.34 49 07:35 04.02.2021
2965 Clouds 2 1008 51 10000 11.83 350 06:54 04.02.2021
2966 Clouds 2 1008 75 10000 1.87 275 06:34 04.02.2021
2967 Clouds 8 1000 47 10000 0.45 10 02:43 04.02.2021
2968 Clouds 8 1002 49 10000 0.45 60 02:24 04.02.2021
2969 Clouds 11 999 41 10000 5.47 356 00:31 04.02.2021
2970 Clouds 11 1001 44 10000 1.34 357 23:39 03.02.2021
2971 Clouds 14 1000 37 10000 3.13 298 22:41 03.02.2021
2972 Clouds 15 999 28 10000 0.89 304 22:21 03.02.2021
2973 Clouds 16 999 18 10000 7.92 226 21:55 03.02.2021
2974 Clear 17 999 15 10000 4.95 234 21:25 03.02.2021
2975 Clear 18 999 17 10000 0.45 269 20:58 03.02.2021
2976 Clear 18 1001 20 10000 0.45 337 20:37 03.02.2021
2977 Clear 17 1003 26 10000 1.34 24 19:57 03.02.2021
2978 Clear 17 998 25 10000 1.34 138 19:36 03.02.2021
2979 Clouds 16 1006 22 10000 6.69 230 19:18 03.02.2021
2980 Clouds 15 1003 28 10000 3.58 203 18:39 03.02.2021
2981 Clouds 13 1007 26 10000 7.2 190 18:19 03.02.2021
2982 Clouds 13 1007 26 10000 7.2 190 18:19 03.02.2021
2983 Clouds 12 1006 40 10000 1.79 209 17:48 03.02.2021
2984 Clouds 10 825 42 10000 2.63 201 17:29 03.02.2021
2985 Clouds 8 1004 43 10000 2.63 201 16:51 03.02.2021
2986 Clouds 5 1009 52 10000 4.63 190 16:26 03.02.2021
2987 Clouds 4 1060 53 10000 2.24 173 15:41 03.02.2021
2988 Clouds 3 1004 60 10000 2.57 206 15:23 03.02.2021
2989 Clouds 3 1005 57 10000 2.57 206 14:53 03.02.2021
2990 Clouds 4 1007 61 10000 2.31 206 14:25 03.02.2021
2991 Clouds 4 1007 61 10000 2.31 206 13:53 03.02.2021
2992 Clouds 4 1008 60 10000 2.11 214 13:21 03.02.2021
2993 Clouds 5 1008 59 10000 2.11 214 12:47 03.02.2021
2994 Clear 5 1008 58 10000 0.45 177 12:22 03.02.2021
2995 Clear 5 1010 63 10000 1.87 215 11:47 03.02.2021
2996 Clear 4 1010 61 10000 2.26 205 11:28 03.02.2021
2997 Clouds 4 1013 52 10000 3.09 280 10:52 03.02.2021
2998 Clear 4 1010 54 10000 0.89 171 10:21 03.02.2021
2999 Clouds 5 1012 56 10000 2.31 208 09:46 03.02.2021
3000 Clear 5 1010 53 10000 2.28 218 09:27 03.02.2021
3001 Clear 5 1010 52 10000 2.28 218 08:49 03.02.2021
3002 Clear 5 1011 50 10000 2.18 218 07:59 03.02.2021
3003 Clouds 6 1012 49 10000 2.14 218 07:32 03.02.2021
3004 Clouds 6 1011 39 10000 1.96 224 06:38 03.02.2021
3005 Clouds 7 1011 34 10000 2.06 221 04:51 03.02.2021
3006 Clear 7 1011 29 10000 1.46 246 04:27 03.02.2021
3007 Clear 9 1015 38 10000 0.87 226 02:43 03.02.2021
3008 Clouds 12 1015 30 10000 0.46 255 01:58 03.02.2021
3009 Clouds 17 1016 20 10000 3.09 10 00:27 03.02.2021
3010 Clouds 18 1016 19 10000 3.6 340 23:47 02.02.2021
3011 Clouds 18 1017 22 10000 0.89 68 23:28 02.02.2021
3012 Clouds 17 1016 19 10000 0.17 136 22:52 02.02.2021
3013 Clear 18 1016 24 10000 0.97 109 22:22 02.02.2021
3014 Clear 17 1016 25 10000 0.45 121 21:48 02.02.2021
3015 Clouds 17 1017 20 10000 1.54 250 21:29 02.02.2021
3016 Clear 16 1017 26 10000 0.45 92 20:52 02.02.2021
3017 Clear 15 1017 21 10000 0.89 203 20:25 02.02.2021
3018 Clouds 15 1019 21 10000 3.09 190 19:59 02.02.2021
3019 Clear 15 1018 22 10000 0.89 188 19:40 02.02.2021
3020 Clear 13 1018 29 10000 0.45 89 19:22 02.02.2021
3021 Clouds 12 1020 25 10000 4.12 210 18:42 02.02.2021
3022 Clear 11 1023 32 10000 0.45 168 18:24 02.02.2021
3023 Clear 9 1016 26 10000 1.34 172 17:42 02.02.2021
3024 Clear 7 1019 42 10000 0.45 211 17:21 02.02.2021
3025 Clear 6 1016 35 10000 1.34 175 16:51 02.02.2021
3026 Clear 4 1020 48 10000 0.89 180 16:31 02.02.2021
3027 Clear 3 1029 45 10000 0.45 151 15:57 02.02.2021
3028 Clear 2 1018 54 10000 1.79 216 15:34 02.02.2021
3029 Clear 2 1018 53 10000 1.9 212 14:56 02.02.2021
3030 Clear 2 1018 53 10000 1.9 212 14:37 02.02.2021
3031 Clear 2 1028 45 10000 1.95 211 14:18 02.02.2021
3032 Clear 2 1028 43 10000 1.95 211 13:42 02.02.2021
3033 Clouds 2 1019 44 10000 4.63 180 13:24 02.02.2021
3034 Clear 2 1017 49 10000 2.05 212 12:53 02.02.2021
3035 Clear 2 1017 48 10000 1.43 230 12:23 02.02.2021
3036 Clouds 3 1019 35 10000 4.63 200 11:40 02.02.2021
3037 Clear 2 1017 49 10000 1.21 243 11:19 02.02.2021
3038 Clear 2 1056 47 10000 0.89 157 10:45 02.02.2021
3039 Clear 3 1017 48 10000 2.04 230 10:26 02.02.2021
3040 Clouds 3 1019 37 10000 3.09 190 09:45 02.02.2021
3041 Clear 3 1017 45 10000 1.78 207 09:23 02.02.2021
3042 Clear 3 1028 36 10000 1.78 207 08:43 02.02.2021
3043 Clear 3 1017 44 10000 1.77 198 07:47 02.02.2021
3044 Clouds 3 1020 52 10000 1.06 198 07:23 02.02.2021
3045 Clouds 3 1020 35 10000 3.09 190 06:40 02.02.2021
3046 Clouds 3 1020 44 10000 2.06 220 05:51 02.02.2021
3047 Clouds 5 1021 45 10000 0.39 155 03:35 02.02.2021
3048 Clouds 7 1021 39 10000 2.06 330 02:24 02.02.2021
3049 Clouds 9 1020 27 10000 0.45 117 00:38 02.02.2021
3050 Clouds 10 1020 23 10000 1.22 360 23:56 01.02.2021
3051 Clouds 12 1015 10 10000 0.56 12 22:57 01.02.2021
3052 Clouds 12 1015 10 10000 0.56 12 22:57 01.02.2021
3053 Clouds 12 1015 10 10000 0.56 12 22:57 01.02.2021
3054 Clouds 12 1015 10 10000 0.56 12 22:38 01.02.2021
3055 Clouds 12 1021 10 10000 3.09 220 22:19 01.02.2021
3056 Clouds 12 1016 10 10000 0.33 88 21:42 01.02.2021
3057 Clouds 12 1016 9 10000 0.45 184 21:21 01.02.2021
3058 Clouds 12 1022 12 10000 3.6 200 20:41 01.02.2021
3059 Clouds 12 1017 9 10000 0.86 154 20:41 01.02.2021
3060 Clouds 12 1021 18 10000 1.13 169 20:23 01.02.2021
3061 Clouds 11 1018 11 10000 0.89 172 19:42 01.02.2021
3062 Clouds 11 1025 16 10000 0.45 221 19:21 01.02.2021
3063 Clouds 9 1022 23 10000 1.34 218 18:51 01.02.2021
3064 Clouds 8 1022 24 10000 1.34 223 18:29 01.02.2021
3065 Clouds 5 1019 20 10000 1.79 150 17:48 01.02.2021
3066 Clouds 3 1020 24 10000 1.76 201 17:26 01.02.2021
3067 Clouds 3 1033 30 10000 0.45 201 16:58 01.02.2021
3068 Clouds 2 1022 42 10000 1.76 201 16:32 01.02.2021
3069 Clouds 1 1022 45 10000 1.63 204 15:48 01.02.2021
3070 Clouds 0 1025 37 10000 3.6 200 15:20 01.02.2021
3071 Clouds 0 1022 47 10000 1.51 200 14:52 01.02.2021
3072 Clouds 0 1022 50 10000 1.51 200 14:34 01.02.2021
3073 Clouds 0 1022 50 10000 1.51 198 13:52 01.02.2021
3074 Clouds 0 1034 40 10000 0.45 138 13:28 01.02.2021
3075 Clouds 0 1034 42 10000 1.29 209 12:58 01.02.2021
3076 Clouds -1 1022 53 10000 1.29 209 12:40 01.02.2021
3077 Clouds -1 1022 53 10000 1.29 209 12:40 01.02.2021
3078 Clouds -1 1022 53 10000 1.32 210 12:40 01.02.2021
3079 Clouds -1 1022 55 10000 1.47 217 12:21 01.02.2021
3080 Clouds -1 1023 55 10000 1.45 217 11:39 01.02.2021
3081 Clouds 0 1023 55 10000 1.54 213 11:19 01.02.2021
3082 Clouds 0 1023 56 10000 1.54 213 10:44 01.02.2021
3083 Clouds 0 1023 57 10000 1.57 209 10:19 01.02.2021
3084 Clouds 0 1023 57 10000 1.57 209 09:43 01.02.2021
3085 Clouds 0 1026 59 10000 5.66 180 09:19 01.02.2021
3086 Clouds 0 1035 52 10000 1.64 203 08:41 01.02.2021
3087 Clouds 0 1023 59 10000 1.86 197 07:37 01.02.2021
3088 Clouds 1 1036 47 10000 1.34 211 05:59 01.02.2021
3089 Clouds 3 1026 29 10000 0.44 307 02:49 01.02.2021
3090 Clouds 10 1027 13 10000 2.06 90 00:40 01.02.2021
3091 Clouds 10 1026 11 10000 2.06 60 23:40 31.01.2021
3092 Clear 11 1022 8 10000 1.79 32 22:43 31.01.2021
3093 Clouds 10 1026 11 10000 2.06 60 22:23 31.01.2021
3094 Clear 10 1028 15 10000 1.34 55 21:50 31.01.2021
3095 Clouds 9 1027 12 10000 1.54 290 21:23 31.01.2021
3096 Clear 9 1028 19 10000 1.2 156 20:49 31.01.2021
3097 Clear 8 841 19 10000 0.89 91 20:21 31.01.2021
3098 Clear 8 1028 24 10000 0.45 121 19:55 31.01.2021
3099 Clear 8 1028 26 10000 1.34 171 19:37 31.01.2021
3100 Clear 6 1028 28 10000 1.34 115 19:18 31.01.2021
3101 Clear 5 1029 34 10000 1.79 108 18:40 31.01.2021
3102 Clear 5 1029 35 10000 1.34 138 18:20 31.01.2021
3103 Clear 3 1024 25 10000 1.34 165 17:46 31.01.2021
3104 Clear 1 1024 29 10000 0.45 192 17:23 31.01.2021
3105 Clear 1 1028 43 10000 0.89 144 16:50 31.01.2021
3106 Clear 0 1036 52 10000 1.55 192 16:50 31.01.2021
3107 Clear -1 1027 46 10000 0.45 214 16:31 31.01.2021
3108 Clear -4 1027 73 10000 4.63 180 15:52 31.01.2021
3109 Clear -3 1027 54 10000 1.54 220 15:34 31.01.2021
3110 Clear -4 1046 62 10000 0.89 175 14:42 31.01.2021
3111 Clear -3 1082 62 10000 1.34 184 14:24 31.01.2021
3112 Clear -3 1048 60 10000 0.66 195 13:53 31.01.2021
3113 Clear -3 1035 56 10000 0.45 108 13:34 31.01.2021
3114 Clear -3 1023 62 10000 0.51 211 12:49 31.01.2021
3115 Clear -3 1022 61 10000 0.92 238 12:22 31.01.2021
3116 Clear -2 1025 58 10000 0.92 238 11:44 31.01.2021
3117 Clear -2 1033 53 10000 0.45 107 11:25 31.01.2021
3118 Clear -2 1022 55 10000 1.58 247 10:57 31.01.2021
3119 Clear -1 1020 41 10000 1.58 247 10:35 31.01.2021
3120 Clear -1 1022 48 10000 1.65 264 09:51 31.01.2021
3121 Clear 0 1022 47 10000 2.06 50 09:25 31.01.2021
3122 Clear 0 1018 35 10000 1.82 254 08:33 31.01.2021
3123 Clouds 2 1016 30 10000 2.04 248 06:57 31.01.2021
3124 Clouds 3 1019 35 10000 6.69 280 05:35 31.01.2021
3125 Clear 8 1010 21 10000 1.34 257 00:47 31.01.2021
3126 Clear 7 1010 21 10000 3.2 301 00:47 31.01.2021
3127 Clear 9 1010 19 10000 0.89 302 00:22 31.01.2021
3128 Clear 10 1009 17 10000 1.34 299 23:33 30.01.2021
3129 Clear 10 1010 28 10000 2.68 255 22:57 30.01.2021
3130 Clear 10 1010 28 10000 2.68 255 22:56 30.01.2021
3131 Clear 10 1010 28 10000 2.24 255 22:30 30.01.2021
3132 Clear 10 1007 20 10000 0.45 292 21:40 30.01.2021
3133 Clear 10 1007 19 10000 1.34 271 21:22 30.01.2021
3134 Clear 10 1007 19 10000 3.13 286 20:47 30.01.2021
3135 Clear 10 1006 20 10000 0.89 279 20:28 30.01.2021
3136 Clear 10 1006 21 10000 0.89 273 19:46 30.01.2021
3137 Clouds 9 1006 21 10000 1.34 286 19:26 30.01.2021
3138 Clouds 9 1006 24 10000 0.45 288 18:43 30.01.2021
3139 Clouds 8 1008 38 10000 3.13 266 18:22 30.01.2021
3140 Clouds 7 1006 33 10000 0.45 327 17:59 30.01.2021
3141 Clouds 5 1009 53 10000 3.33 273 17:20 30.01.2021
3142 Clouds 4 1004 48 10000 3.33 273 16:47 30.01.2021
3143 Clouds 3 1003 46 10000 2.36 259 16:25 30.01.2021
3144 Clouds 2 1006 62 10000 2.36 259 15:57 30.01.2021
3145 Clouds 2 1006 62 10000 2.36 259 15:57 30.01.2021
3146 Clouds 2 1006 51 10000 2.33 259 15:39 30.01.2021
3147 Clear 2 1004 58 10000 1.34 322 15:20 30.01.2021
3148 Clear 2 1003 57 10000 0.45 322 14:47 30.01.2021
3149 Clear 2 1003 58 10000 0.45 277 14:21 30.01.2021
3150 Clear 2 1002 66 10000 1.34 240 13:32 30.01.2021
3151 Clouds 1 998 49 10000 1.14 288 12:49 30.01.2021
3152 Clouds 1 998 48 10000 0.51 26 12:28 30.01.2021
3153 Clouds 0 998 51 10000 0.51 26 11:57 30.01.2021
3154 Clouds 0 1001 69 10000 1.58 247 11:28 30.01.2021
3155 Clouds 0 1002 53 10000 1.58 247 10:48 30.01.2021
3156 Clouds 1 997 48 10000 1.22 218 09:48 30.01.2021
3157 Clouds 1 1001 38 10000 2.57 280 09:30 30.01.2021
3158 Clouds 2 997 45 10000 0.37 273 08:47 30.01.2021
3159 Clouds 1 998 50 10000 1.65 220 07:48 30.01.2021
3160 Clouds 2 999 53 10000 0.94 210 06:49 30.01.2021
3161 Clear 2 1002 64 10000 0.67 248 04:59 30.01.2021
3162 Clear 4 1004 60 10000 1.08 200 03:35 30.01.2021
3163 Clear 6 1004 50 10000 0.49 266 02:24 30.01.2021
3164 Clouds 9 1004 40 10000 0.45 279 01:29 30.01.2021
3165 Clouds 13 1005 30 10000 3.6 340 00:37 30.01.2021
3166 Clear 11 1005 39 10000 0.45 332 00:18 30.01.2021
3167 Clouds 14 1005 38 10000 4.12 340 23:44 29.01.2021
3168 Clouds 12 1005 38 10000 1.34 4 23:20 29.01.2021
3169 Clouds 12 1001 26 10000 0.45 28 22:40 29.01.2021
3170 Clouds 13 1001 24 10000 0.45 29 22:18 29.01.2021
3171 Clouds 12 1001 26 10000 3.58 21 21:28 29.01.2021
3172 Clouds 13 824 27 10000 1.79 344 20:45 29.01.2021
3173 Clouds 10 1007 45 10000 1.79 323 20:25 29.01.2021
3174 Clouds 10 1007 47 10000 0.89 44 19:43 29.01.2021
3175 Clouds 10 1010 17 10000 8.75 220 19:22 29.01.2021
3176 Clouds 10 827 34 10000 2.19 189 18:58 29.01.2021
3177 Clouds 9 1019 25 10000 2.76 199 18:18 29.01.2021
3178 Clouds 7 1013 45 10000 2.76 199 17:37 29.01.2021
3179 Clouds 5 1014 58 10000 2.25 200 17:18 29.01.2021
3180 Clouds 3 1008 30 10000 2.21 200 16:44 29.01.2021
3181 Clouds 2 1008 33 10000 2.22 202 16:23 29.01.2021
3182 Clouds 3 1012 21 10000 6.69 190 15:42 29.01.2021
3183 Clouds 1 1011 47 10000 1.34 0 15:23 29.01.2021
3184 Clouds 2 1014 42 10000 1.97 205 14:31 29.01.2021
3185 Clouds 2 1011 44 10000 2.23 206 13:59 29.01.2021
3186 Clouds 4 1012 23 10000 8.23 210 13:36 29.01.2021
3187 Clouds 2 1008 40 10000 1.59 208 12:49 29.01.2021
3188 Clouds 1 1015 46 10000 1.76 212 12:22 29.01.2021
3189 Clouds 2 1016 53 10000 1.76 212 11:46 29.01.2021
3190 Clear 1 1012 59 10000 0.45 63 11:18 29.01.2021
3191 Clear 2 1016 52 10000 2.32 204 10:47 29.01.2021
3192 Clear 3 1017 50 10000 2.76 209 10:26 29.01.2021
3193 Clear 2 1018 64 10000 2.76 209 09:44 29.01.2021
3194 Clear 1 1019 65 10000 2.72 211 08:52 29.01.2021
3195 Clear 1 1019 71 10000 2.58 213 08:28 29.01.2021
3196 Clear 1 1020 71 10000 2.58 213 07:54 29.01.2021
3197 Clear 1 1020 72 10000 2.58 213 07:35 29.01.2021
3198 Clouds 1 1015 66 10000 2.57 223 06:50 29.01.2021
3199 Clouds 1 1026 75 10000 2.18 207 05:18 29.01.2021
3200 Clouds 2 1014 59 10000 0.55 217 02:37 29.01.2021
3201 Clouds 5 1014 52 10000 0.22 211 00:38 29.01.2021
3202 Clouds 6 1014 60 10000 0.15 313 00:19 29.01.2021
3203 Clouds 6 1018 57 10000 5.14 20 23:41 28.01.2021
3204 Clouds 5 1014 55 10000 0.15 313 23:41 28.01.2021
3205 Clouds 7 1021 57 10000 2.24 27 23:23 28.01.2021
3206 Clouds 6 1016 65 10000 0.45 68 22:43 28.01.2021
3207 Clouds 5 1016 62 10000 0.45 59 22:25 28.01.2021
3208 Clouds 6 1013 55 10000 0.89 47 21:49 28.01.2021
3209 Clouds 7 1018 24 10000 4.12 210 21:31 28.01.2021
3210 Clouds 10 1019 24 10000 4.63 240 20:54 28.01.2021
3211 Clouds 10 1019 24 10000 4.63 240 20:36 28.01.2021
3212 Clouds 9 1019 24 10000 4.63 240 20:18 28.01.2021
3213 Clouds 9 1020 30 10000 7.2 200 19:37 28.01.2021
3214 Clouds 9 1020 30 10000 7.2 200 19:18 28.01.2021
3215 Clouds 5 1016 44 10000 1.26 187 18:42 28.01.2021
3216 Clouds 3 1016 57 10000 1.24 190 18:20 28.01.2021
3217 Clouds 3 1027 77 10000 1.21 188 17:44 28.01.2021
3218 Clouds 1 1028 78 10000 1.32 194 17:26 28.01.2021
3219 Clouds 1 1016 61 10000 0.89 230 16:44 28.01.2021
3220 Clouds 0 1028 65 10000 0.97 200 16:22 28.01.2021
3221 Clouds -2 1028 68 10000 0.97 200 15:41 28.01.2021
3222 Clouds -2 1028 69 10000 0.45 0 14:58 28.01.2021
3223 Clouds -2 1028 69 10000 0.45 248 14:39 28.01.2021
3224 Clouds -2 1025 57 10000 1.83 201 14:20 28.01.2021
3225 Clouds -1 1015 68 10000 1.83 201 13:44 28.01.2021
3226 Clouds -2 1019 69 10000 5.14 180 12:53 28.01.2021
3227 Clouds -2 1019 69 10000 5.14 180 12:34 28.01.2021
3228 Clouds -2 1019 69 10000 5.66 180 11:59 28.01.2021
3229 Clouds -2 1019 69 10000 5.66 180 11:40 28.01.2021
3230 Clouds -1 1019 69 10000 5.66 180 11:19 28.01.2021
3231 Clear -3 1017 85 10000 2.23 202 10:50 28.01.2021
3232 Clear -1 1019 69 10000 5.66 180 10:32 28.01.2021
3233 Clear -2 1014 70 10000 1.34 274 09:44 28.01.2021
3234 Clear 0 1018 69 10000 5.66 190 09:22 28.01.2021
3235 Clear -3 1019 69 10000 2 195 08:54 28.01.2021
3236 Clear -3 1019 69 10000 1.87 204 08:18 28.01.2021
3237 Clear -4 1018 74 10000 2.06 340 07:44 28.01.2021
3238 Clear -4 1018 86 10000 1.5 194 06:49 28.01.2021
3239 Clear -5 1018 93 10000 2.57 300 05:35 28.01.2021
3240 Clear -5 1030 96 10000 1.14 175 03:52 28.01.2021
3241 Clear -3 1028 72 10000 0.84 32 01:38 28.01.2021
3242 Clear 0 1017 59 10000 0.89 36 23:47 27.01.2021
3243 Clear 0 1017 48 10000 0.45 11 23:23 27.01.2021
3244 Clear 2 1026 59 10000 1.34 35 22:41 27.01.2021
3245 Clear 2 1026 56 10000 0.89 327 22:21 27.01.2021
3246 Clear 3 1012 47 10000 1.14 14 21:43 27.01.2021
3247 Clear 2 1027 58 10000 0.89 18 21:23 27.01.2021
3248 Clear 2 1013 48 10000 0.45 29 20:52 27.01.2021
3249 Clear 2 1017 48 10000 1.34 69 20:23 27.01.2021
3250 Clear 2 1017 60 10000 1.5 150 19:49 27.01.2021
3251 Clear 0 1029 54 10000 1.54 167 19:23 27.01.2021
3252 Clear -1 1014 40 10000 2.2 165 18:45 27.01.2021
3253 Clear -2 1018 58 10000 0.89 304 18:24 27.01.2021
3254 Clear -3 1014 64 10000 1.91 175 17:52 27.01.2021
3255 Clear -5 1018 73 10000 0.45 304 17:34 27.01.2021
3256 Clear -7 1017 69 10000 2 198 16:57 27.01.2021
3257 Clear -7 1016 71 10000 0.45 190 16:38 27.01.2021
3258 Clear -9 1027 75 10000 0.45 216 16:20 27.01.2021
3259 Clear -9 1026 80 10000 0.45 93 15:48 27.01.2021
3260 Clear -10 1016 75 10000 0.45 180 15:27 27.01.2021
3261 Clear -10 1015 81 10000 0.45 177 14:24 27.01.2021
3262 Clear -11 1025 88 10000 0.45 146 13:50 27.01.2021
3263 Clouds -10 1029 84 10000 1.79 145 13:32 27.01.2021
3264 Mist -12 1015 92 6437 1 198 12:42 27.01.2021
3265 Mist -12 1015 92 6437 1.54 150 12:23 27.01.2021
3266 Mist -12 1015 92 8047 1.05 179 11:47 27.01.2021
3267 Fog -12 1015 92 805 0.81 183 11:23 27.01.2021
3268 Fog -12 1015 92 805 0.81 183 11:23 27.01.2021
3269 Fog -12 1015 92 402 0.8 183 10:42 27.01.2021
3270 Fog -11 1015 92 402 0.77 151 10:21 27.01.2021
3271 Clouds -11 1024 88 10000 0.77 151 09:51 27.01.2021
3272 Clouds -10 1013 90 10000 0.45 184 09:25 27.01.2021
3273 Clouds -11 1078 86 10000 0.88 140 08:40 27.01.2021
3274 Clouds -10 1023 85 10000 0.82 148 07:46 27.01.2021
3275 Clouds -10 1022 85 10000 0.31 261 07:21 27.01.2021
3276 Clouds -9 1011 86 4578 1.68 358 06:23 27.01.2021
3277 Clouds -9 1011 86 4578 1.68 358 05:48 27.01.2021
3278 Snow -9 1016 83 905 0.89 0 04:37 27.01.2021
3279 Snow -7 1014 85 145 2.24 346 02:24 27.01.2021
3280 Snow -7 1017 87 145 0.45 10 01:52 27.01.2021
3281 Snow -6 1007 88 273 1.34 306 00:48 27.01.2021
3282 Snow -6 1007 87 1052 0.45 285 23:51 26.01.2021
3283 Snow -5 1006 86 1052 2.23 17 23:32 26.01.2021
3284 Snow -5 1017 86 2012 2.25 1 22:52 26.01.2021
3285 Snow -5 1006 82 2012 1.34 279 22:33 26.01.2021
3286 Snow -5 1003 78 2267 2.25 2 21:57 26.01.2021
3287 Snow -5 1013 83 2267 1.34 313 21:39 26.01.2021
3288 Snow -5 1013 81 1895 0.89 294 21:21 26.01.2021
3289 Snow -5 1003 79 1895 0.45 154 20:41 26.01.2021
3290 Snow -5 1003 81 329 2.26 10 20:21 26.01.2021
3291 Snow -5 1008 100 2816 6.69 130 19:46 26.01.2021
3292 Snow -5 1014 85 10000 1.34 134 19:24 26.01.2021
3293 Snow -5 1014 85 10000 0.45 61 18:49 26.01.2021
3294 Snow -5 1004 82 4295 2.14 31 18:28 26.01.2021
3295 Snow -5 1004 81 4295 2.14 31 17:58 26.01.2021
3296 Snow -6 1014 83 4295 0.89 61 17:40 26.01.2021
3297 Snow -6 1014 84 3898 2.16 32 17:19 26.01.2021
3298 Snow -6 1014 84 3898 0.45 94 16:40 26.01.2021
3299 Snow -6 1014 84 1000 2.06 39 16:19 26.01.2021
3300 Snow -6 1013 84 1000 0.45 123 15:48 26.01.2021
3301 Snow -6 1003 79 398 2.39 56 15:26 26.01.2021
3302 Snow -6 1002 80 413 2.41 58 14:48 26.01.2021
3303 Clouds -6 1002 80 1333 2.41 48 14:29 26.01.2021
3304 Clouds -6 1013 84 1333 2.41 48 13:37 26.01.2021
3305 Clouds -5 1002 79 2444 2.06 53 13:19 26.01.2021
3306 Snow -5 1002 79 3662 1.95 58 12:43 26.01.2021
3307 Snow -5 1013 83 4112 1.76 72 12:24 26.01.2021
3308 Snow -5 1013 83 4112 1.76 72 11:54 26.01.2021
3309 Snow -5 1007 100 10000 3.6 80 11:33 26.01.2021
3310 Clouds -5 1003 78 7181 1.94 68 10:45 26.01.2021
3311 Snow -5 1007 100 10000 3.6 80 10:45 26.01.2021
3312 Snow -5 1007 100 10000 3.6 80 10:26 26.01.2021
3313 Clouds -5 1003 80 3278 2.07 72 09:42 26.01.2021
3314 Clouds -5 1013 83 1579 2.23 62 09:23 26.01.2021
3315 Clouds -5 1003 79 1579 2.23 62 08:50 26.01.2021
3316 Clouds -5 1013 81 2415 0.45 92 08:21 26.01.2021
3317 Clouds -5 1014 80 2415 0.45 93 07:39 26.01.2021
3318 Snow -5 1004 75 457 2.68 33 05:59 26.01.2021
3319 Snow -5 1004 75 457 2.68 33 05:41 26.01.2021
3320 Snow -5 1013 78 283 0.45 82 03:58 26.01.2021
3321 Clouds -3 1011 64 10000 0.89 36 02:19 26.01.2021
3322 Clouds -1 1010 58 10000 0.89 77 00:49 26.01.2021
3323 Clouds 1 1000 51 10000 1.79 34 23:36 25.01.2021
3324 Clouds 1 1000 47 10000 1.34 30 22:57 25.01.2021
3325 Clouds 1 1003 55 10000 3.6 20 22:36 25.01.2021
3326 Clouds 1 1007 53 10000 0.89 38 21:50 25.01.2021
3327 Clouds 1 1003 59 10000 4.12 20 21:26 25.01.2021
3328 Clouds 1 999 47 10000 0.45 300 20:51 25.01.2021
3329 Clouds 1 1008 54 10000 1.34 20 20:33 25.01.2021
3330 Clouds 0 1009 57 10000 1.34 22 19:51 25.01.2021
3331 Clouds 0 1009 57 10000 0.45 95 19:31 25.01.2021
3332 Clouds 0 1001 52 10000 2.33 360 18:48 25.01.2021
3333 Clouds -1 1001 54 10000 3.09 43 18:28 25.01.2021
3334 Clouds -2 1000 68 10000 3.1 44 17:56 25.01.2021
3335 Clouds -2 1010 79 10000 3.1 44 17:38 25.01.2021
3336 Clouds -3 1010 79 10000 3.08 31 17:19 25.01.2021
3337 Clouds -4 1000 79 10000 3.08 31 16:41 25.01.2021
3338 Clouds -5 1009 84 10000 2.79 3 16:21 25.01.2021
3339 Clouds -5 1000 80 10000 2.79 3 15:43 25.01.2021
3340 Mist -5 1004 100 9656 3.09 320 15:24 25.01.2021
3341 Clouds -5 999 80 10000 3.02 334 14:46 25.01.2021
3342 Clouds -5 1008 83 10000 0.45 47 14:19 25.01.2021
3343 Clouds -4 999 78 10000 2.43 348 13:49 25.01.2021
3344 Clouds -4 999 78 10000 2.56 23 13:26 25.01.2021
3345 Clouds -4 1007 81 10000 2.56 23 12:45 25.01.2021
3346 Clouds -4 1007 80 10000 0.89 324 12:20 25.01.2021
3347 Clouds -4 1008 79 10000 0.45 316 11:47 25.01.2021
3348 Clouds -4 1008 79 10000 0.45 36 11:18 25.01.2021
3349 Clouds -4 1008 79 10000 0.89 14 10:40 25.01.2021
3350 Clouds -4 998 74 10000 3.86 346 10:18 25.01.2021
3351 Clouds -4 998 73 10000 3.86 346 09:43 25.01.2021
3352 Clouds -4 1007 77 10000 1.34 330 09:25 25.01.2021
3353 Clouds -4 1007 77 10000 0.45 306 08:28 25.01.2021
3354 Clouds -4 999 72 10000 0.69 54 07:32 25.01.2021
3355 Clouds -4 1008 77 10000 0.45 343 06:55 25.01.2021
3356 Clouds -1 1000 62 10000 1.09 85 03:46 25.01.2021
3357 Clouds 0 1009 57 10000 0.45 307 01:32 25.01.2021
3358 Clouds 2 1004 51 10000 2.57 20 23:44 24.01.2021
3359 Clouds 2 1008 54 10000 0.89 83 23:19 24.01.2021
3360 Clouds 2 1008 53 10000 0.89 293 22:42 24.01.2021
3361 Clouds 2 1009 52 10000 0.89 43 22:21 24.01.2021
3362 Clouds 2 1009 54 10000 1.34 74 21:48 24.01.2021
3363 Clouds 2 1010 53 10000 0.89 75 21:24 24.01.2021
3364 Clouds 2 1002 47 10000 0.45 40 20:46 24.01.2021
3365 Clear 1 1011 56 10000 0.45 44 20:22 24.01.2021
3366 Clear 0 1012 57 10000 0.89 121 19:53 24.01.2021
3367 Clear 0 1004 51 10000 1.69 7 19:27 24.01.2021
3368 Clear -1 1005 53 10000 1.56 22 18:58 24.01.2021
3369 Clear -1 1014 65 10000 0.89 339 18:39 24.01.2021
3370 Clear -2 1014 66 10000 0.89 277 18:20 24.01.2021
3371 Clear -2 1015 66 10000 0.45 14 17:50 24.01.2021
3372 Clear -3 1015 67 10000 1.62 357 17:29 24.01.2021
3373 Clear -3 1006 65 10000 1.62 357 16:58 24.01.2021
3374 Clear -4 1015 72 10000 0.89 147 16:39 24.01.2021
3375 Clear -4 1015 73 10000 0.45 164 16:19 24.01.2021
3376 Clear -4 1006 68 10000 1.47 358 15:43 24.01.2021
3377 Clear -4 1016 73 10000 1.79 359 15:19 24.01.2021
3378 Clear -4 1007 68 10000 1.79 359 14:43 24.01.2021
3379 Clear -4 1007 70 10000 1.49 18 13:48 24.01.2021
3380 Clear -4 1008 71 10000 2.02 77 13:30 24.01.2021
3381 Clouds -4 1008 71 10000 1.94 95 12:50 24.01.2021
3382 Clouds -4 1017 75 10000 2.15 85 12:20 24.01.2021
3383 Clouds -4 1017 75 10000 0.45 147 11:52 24.01.2021
3384 Clouds -4 1018 76 10000 0.45 105 11:24 24.01.2021
3385 Clouds -4 1008 70 10000 1.1 85 10:50 24.01.2021
3386 Clouds -4 1009 70 10000 1.12 105 10:29 24.01.2021
3387 Clouds -4 1018 74 10000 1.21 65 09:23 24.01.2021
3388 Clouds -4 1009 68 10000 1.21 65 08:59 24.01.2021
3389 Clouds -4 1018 73 10000 0.45 79 08:24 24.01.2021
3390 Clouds -2 1016 72 10000 0.45 8 03:37 24.01.2021
3391 Clouds 2 1013 59 10000 1.34 40 02:18 24.01.2021
3392 Clouds 5 1001 40 10000 3.15 38 00:27 24.01.2021
3393 Clouds 5 1001 39 10000 3.16 38 23:57 23.01.2021
3394 Clouds 6 1000 36 10000 0.45 38 23:29 23.01.2021
3395 Clouds 6 1008 43 10000 0.89 31 22:57 23.01.2021
3396 Clouds 6 1007 42 10000 1.79 31 22:38 23.01.2021
3397 Clouds 7 999 35 10000 3.17 1 21:57 23.01.2021
3398 Clear 7 1006 42 10000 0.89 46 21:23 23.01.2021
3399 Clear 7 1005 44 10000 1.79 19 20:50 23.01.2021
3400 Clear 6 1008 44 10000 0.45 77 20:29 23.01.2021
3401 Clear 5 1008 46 10000 0.45 23 19:47 23.01.2021
3402 Clear 5 1008 46 10000 0.45 23 19:47 23.01.2021
3403 Clouds 5 1001 39 10000 0.85 138 19:25 23.01.2021
3404 Clouds 5 1008 49 10000 0.87 137 19:25 23.01.2021
3405 Clouds 4 1009 54 10000 0.45 257 18:52 23.01.2021
3406 Clouds 3 1001 43 10000 1.26 192 18:28 23.01.2021
3407 Clouds 1 1005 63 10000 0.45 21 17:56 23.01.2021
3408 Clouds 0 1001 57 10000 0.91 118 17:28 23.01.2021
3409 Clouds -2 1005 74 10000 3.09 170 16:51 23.01.2021
3410 Clouds -3 1005 74 10000 3.09 170 16:32 23.01.2021
3411 Clouds -3 1005 79 10000 2.06 180 15:49 23.01.2021
3412 Clouds -3 1005 79 10000 2.06 180 15:27 23.01.2021
3413 Clouds -3 972 68 10000 1.16 19 14:37 23.01.2021
3414 Clouds -3 1005 79 10000 0.68 8 14:19 23.01.2021
3415 Clouds -3 1005 79 10000 0.68 8 14:19 23.01.2021
3416 Clear -3 1006 74 10000 0.68 8 13:40 23.01.2021
3417 Clear -2 1005 69 10000 0.31 70 13:21 23.01.2021
3418 Clear -4 1006 74 10000 1.54 230 12:42 23.01.2021
3419 Clear -4 1006 74 10000 0.34 127 12:22 23.01.2021
3420 Clear -3 1006 69 10000 0.34 127 11:34 23.01.2021
3421 Clear -3 1007 64 10000 1.54 350 10:53 23.01.2021
3422 Clear -4 1007 64 10000 0.3 8 10:22 23.01.2021
3423 Clear -3 1007 64 10000 1.54 330 09:49 23.01.2021
3424 Clear -3 1007 74 10000 1.54 330 09:24 23.01.2021
3425 Clouds -2 1017 67 10000 0.29 73 08:39 23.01.2021
3426 Clouds -2 1018 64 10000 0.56 138 07:38 23.01.2021
3427 Clouds -1 1018 62 10000 0.93 142 06:48 23.01.2021
3428 Clouds 3 1007 40 10000 2.75 344 01:44 23.01.2021
3429 Clouds 5 1014 43 10000 1.34 301 00:23 23.01.2021
3430 Clouds 6 1014 43 10000 1.34 17 23:35 22.01.2021
3431 Clouds 6 1007 34 10000 3.09 22 22:41 22.01.2021
3432 Clouds 8 1007 31 10000 0.89 5 21:56 22.01.2021
3433 Clouds 8 1014 37 10000 1.34 21 21:37 22.01.2021
3434 Clouds 8 1007 29 10000 0.45 34 21:19 22.01.2021
3435 Clouds 8 1007 28 10000 1.34 49 20:44 22.01.2021
3436 Clear 7 1014 39 10000 0.89 76 20:25 22.01.2021
3437 Clear 6 1015 46 10000 0.45 95 19:37 22.01.2021
3438 Clear 5 1016 47 10000 0.96 150 19:18 22.01.2021
3439 Clear 4 1012 52 10000 0.96 150 18:41 22.01.2021
3440 Clear 2 1010 46 10000 1.01 193 18:23 22.01.2021
3441 Clear 2 1016 50 10000 0.89 336 17:44 22.01.2021
3442 Clear 1 1012 60 10000 1.23 207 17:24 22.01.2021
3443 Clouds -3 1013 63 10000 1.24 207 16:44 22.01.2021
3444 Clear -2 1016 61 10000 0.45 292 16:23 22.01.2021
3445 Clouds -3 1022 67 10000 1.37 183 15:30 22.01.2021
3446 Clouds -3 1022 67 10000 1.37 183 15:30 22.01.2021
3447 Clouds -3 1022 63 10000 0.45 166 14:59 22.01.2021
3448 Clouds -2 1022 62 10000 0.45 121 14:31 22.01.2021
3449 Clouds -2 1022 64 10000 1.09 182 13:50 22.01.2021
3450 Clouds -2 1022 65 10000 1.09 181 13:31 22.01.2021
3451 Clouds -2 1049 61 10000 0.89 141 12:48 22.01.2021
3452 Clouds -2 1057 62 10000 0.45 210 12:23 22.01.2021
3453 Clouds -2 1021 63 10000 0.35 87 11:46 22.01.2021
3454 Clear -2 1080 65 10000 0.45 185 10:56 22.01.2021
3455 Clear -2 1022 65 10000 0.45 285 10:35 22.01.2021
3456 Clear -2 1022 65 10000 1.22 18 09:59 22.01.2021
3457 Clear -2 1022 66 10000 1.47 349 09:29 22.01.2021
3458 Clear -2 1022 67 10000 1.48 351 08:51 22.01.2021
3459 Clear -1 1022 66 10000 1.73 322 08:27 22.01.2021
3460 Clear -1 1023 63 10000 1.73 322 07:34 22.01.2021
3461 Clouds 3 1015 46 10000 0.85 27 03:40 22.01.2021
3462 Clouds 6 1009 33 10000 2.11 20 00:40 22.01.2021
3463 Clouds 7 1009 29 10000 0.45 74 23:55 21.01.2021
3464 Clouds 7 1009 27 10000 2.09 15 23:32 21.01.2021
3465 Clouds 8 1013 33 10000 0.45 130 22:53 21.01.2021
3466 Clouds 9 1013 32 10000 0.45 107 22:35 21.01.2021
3467 Clouds 9 1009 25 10000 1.43 29 21:44 21.01.2021
3468 Clouds 9 1009 25 10000 1.25 77 21:22 21.01.2021
3469 Clouds 9 1009 22 10000 1.25 77 20:51 21.01.2021
3470 Clouds 9 1011 35 10000 1.72 76 20:31 21.01.2021
3471 Clouds 9 1014 30 10000 0.45 68 19:52 21.01.2021
3472 Clouds 8 1012 43 10000 0.89 109 19:30 21.01.2021
3473 Clouds 7 1011 26 10000 0.98 105 18:59 21.01.2021
3474 Clouds 7 1015 36 10000 0.98 105 18:40 21.01.2021
3475 Clouds 6 1015 38 10000 1.06 180 18:20 21.01.2021
3476 Clouds 6 1015 45 10000 0.45 318 17:51 21.01.2021
3477 Clouds 5 1015 46 10000 1.44 224 17:20 21.01.2021
3478 Clouds 3 1011 38 10000 1.44 224 16:49 21.01.2021
3479 Clouds 2 1011 43 10000 2 231 16:27 21.01.2021
3480 Clouds 1 1010 49 10000 2 231 15:59 21.01.2021
3481 Clouds 1 1013 58 10000 2 231 15:34 21.01.2021
3482 Clouds 1 1013 58 10000 2.3 227 14:53 21.01.2021
3483 Clouds 1 1013 58 10000 2.46 222 14:35 21.01.2021
3484 Clouds 0 1013 60 10000 2.46 222 13:51 21.01.2021
3485 Clouds 1 1013 60 10000 1.67 216 13:32 21.01.2021
3486 Clouds 0 1014 58 10000 1.67 216 12:56 21.01.2021
3487 Clouds 1 1014 57 10000 1.67 216 12:38 21.01.2021
3488 Clouds 1 1014 55 10000 1.93 214 12:20 21.01.2021
3489 Clouds 1 1014 54 10000 1.93 214 11:43 21.01.2021
3490 Clouds 1 1014 54 10000 2.33 223 11:23 21.01.2021
3491 Clouds 1 1010 43 10000 2.33 223 10:45 21.01.2021
3492 Clouds 1 1015 53 10000 0.89 167 10:25 21.01.2021
3493 Clouds 1 1010 44 10000 2.59 227 09:43 21.01.2021
3494 Clouds 1 1010 46 10000 2.56 223 09:24 21.01.2021
3495 Clouds 1 1011 43 10000 2.56 223 08:37 21.01.2021
3496 Clear 1 1016 52 10000 2.71 224 07:54 21.01.2021
3497 Clear 1 1011 40 10000 2.75 230 07:26 21.01.2021
3498 Clear 2 1011 33 10000 1.88 230 06:43 21.01.2021
3499 Clear 3 1016 37 10000 0.45 182 04:58 21.01.2021
3500 Clear 7 1014 30 10000 1.32 215 02:22 21.01.2021
3501 Clouds 12 1013 16 10000 5.66 40 00:43 21.01.2021
3502 Clear 14 1012 18 10000 13.89 260 23:52 20.01.2021
3503 Clear 14 1012 18 10000 13.89 260 23:30 20.01.2021
3504 Clear 14 1012 18 10000 15.43 250 22:53 20.01.2021
3505 Clear 12 1012 18 10000 15.43 250 22:32 20.01.2021
3506 Clouds 12 1013 17 10000 8.75 320 21:56 20.01.2021
3507 Clouds 14 1013 17 10000 8.75 320 21:24 20.01.2021
3508 Clouds 14 1012 15 10000 15.43 260 20:54 20.01.2021
3509 Clouds 14 1013 18 10000 8.23 290 20:24 20.01.2021
3510 Clouds 12 1015 22 10000 1.54 40 19:55 20.01.2021
3511 Clouds 12 1015 22 10000 1.54 40 19:37 20.01.2021
3512 Clouds 12 1015 22 10000 1.54 40 19:18 20.01.2021
3513 Clear 10 1015 36 10000 0.45 132 18:41 20.01.2021
3514 Clear 6 1022 43 10000 0.89 232 17:56 20.01.2021
3515 Clear 6 1014 40 10000 0.45 182 17:36 20.01.2021
3516 Clear 2 1020 40 10000 2.24 310 16:52 20.01.2021
3517 Clear 0 1019 60 10000 3.22 202 16:30 20.01.2021
3518 Clouds 0 1015 44 10000 1.54 70 16:30 20.01.2021
3519 Clear -1 1014 49 10000 3.22 202 15:47 20.01.2021
3520 Clear -1 986 64 10000 0.89 78 15:19 20.01.2021
3521 Clear 0 1011 42 10000 0.45 229 14:44 20.01.2021
3522 Clear -1 1020 56 10000 2.52 209 14:21 20.01.2021
3523 Clear 0 1017 41 10000 1.34 300 13:41 20.01.2021
3524 Clear -1 1016 44 10000 4.63 220 13:19 20.01.2021
3525 Clear -1 1021 55 10000 2.61 225 12:35 20.01.2021
3526 Clear 0 1021 51 10000 0.89 217 11:54 20.01.2021
3527 Clear 0 1017 44 10000 6.69 200 11:35 20.01.2021
3528 Clear 0 1022 50 10000 0.89 168 10:51 20.01.2021
3529 Clear 0 1016 50 10000 1.34 216 10:28 20.01.2021
3530 Clear -1 1013 43 10000 0.45 177 09:48 20.01.2021
3531 Clear -1 1013 44 10000 1.34 165 09:24 20.01.2021
3532 Clear -1 1018 65 10000 2.72 200 08:47 20.01.2021
3533 Clear -2 1019 55 10000 6.17 200 08:26 20.01.2021
3534 Clear -2 989 68 10000 2.85 194 07:56 20.01.2021
3535 Clear -3 1046 66 10000 2.68 196 07:25 20.01.2021
3536 Clear -3 1032 59 10000 0.81 188 05:38 20.01.2021
3537 Clear -2 1030 48 10000 0.43 261 03:22 20.01.2021
3538 Clouds 2 1021 29 10000 0.44 334 00:59 20.01.2021
3539 Clouds 3 1021 27 10000 0.74 74 00:31 20.01.2021
3540 Clouds 3 1022 28 10000 0.45 26 23:42 19.01.2021
3541 Clouds 3 1030 34 10000 0.89 36 23:18 19.01.2021
3542 Clouds 4 1026 35 10000 1.54 130 22:41 19.01.2021
3543 Clouds 3 1031 34 10000 0.89 155 22:22 19.01.2021
3544 Clouds 3 1031 34 10000 2.03 106 21:58 19.01.2021
3545 Clouds 3 1026 35 10000 2.57 160 21:40 19.01.2021
3546 Clouds 2 1026 35 10000 2.57 160 21:18 19.01.2021
3547 Clouds 2 1032 36 10000 0.89 130 20:40 19.01.2021
3548 Clouds 2 1023 27 10000 0.89 163 20:22 19.01.2021
3549 Clouds 1 1025 31 10000 1.34 142 19:41 19.01.2021
3550 Clouds 1 1025 32 10000 1.34 163 19:20 19.01.2021
3551 Clouds 0 1026 37 10000 0.89 168 18:39 19.01.2021
3552 Clouds 0 1026 41 10000 0.45 169 18:21 19.01.2021
3553 Clouds -1 1026 48 10000 1 110 17:45 19.01.2021
3554 Clouds -2 1036 65 10000 0.45 206 17:23 19.01.2021
3555 Clouds -3 1026 63 10000 0.45 205 16:45 19.01.2021
3556 Clouds -4 1035 72 10000 0.45 195 16:25 19.01.2021
3557 Clouds -4 1025 65 10000 0.88 148 15:55 19.01.2021
3558 Clouds -4 1035 74 10000 0.88 148 15:34 19.01.2021
3559 Clouds -4 1034 77 10000 1.03 157 14:51 19.01.2021
3560 Clouds -4 1034 76 10000 1.03 157 14:31 19.01.2021
3561 Clouds -4 1024 66 10000 0.9 150 13:55 19.01.2021
3562 Clouds -4 1033 77 10000 0.9 150 13:34 19.01.2021
3563 Clouds -4 1023 69 10000 1.37 166 12:58 19.01.2021
3564 Clouds -4 1032 77 10000 1.19 181 12:35 19.01.2021
3565 Clouds -4 1022 69 10000 0.45 205 11:59 19.01.2021
3566 Clouds -4 1031 77 10000 0.45 201 11:40 19.01.2021
3567 Clouds -4 1031 77 10000 0.45 197 11:21 19.01.2021
3568 Clouds -4 1022 62 10000 2.7 193 10:47 19.01.2021
3569 Clouds -4 1031 68 10000 0.89 184 10:27 19.01.2021
3570 Clouds -4 1031 65 10000 0.89 148 09:51 19.01.2021
3571 Clouds -4 1030 61 10000 0.45 149 09:20 19.01.2021
3572 Clouds -3 1022 53 10000 1.71 162 08:45 19.01.2021
3573 Clouds -3 1022 52 10000 1.65 149 07:57 19.01.2021
3574 Clouds -3 1029 57 10000 0.45 58 07:19 19.01.2021
3575 Clouds -2 1027 64 10000 0.89 64 04:50 19.01.2021
3576 Clouds 0 1023 59 6591 0.45 200 02:24 19.01.2021
3577 Clouds 2 1015 36 10000 0.45 26 00:45 19.01.2021
3578 Clouds 3 1014 34 10000 0.9 177 23:57 18.01.2021
3579 Clouds 3 1014 36 10000 1.76 198 23:28 18.01.2021
3580 Clouds 3 1013 40 10000 1.76 198 22:44 18.01.2021
3581 Clouds 3 1013 42 10000 1.97 195 22:23 18.01.2021
3582 Clouds 2 1013 48 10000 0.45 118 21:47 18.01.2021
3583 Clouds 2 1018 52 10000 0.89 81 21:23 18.01.2021
3584 Clouds 2 1013 46 10000 1.34 32 20:57 18.01.2021
3585 Clouds 2 1017 60 10000 3.09 30 20:34 18.01.2021
3586 Clouds 2 1018 51 10000 0.89 88 19:54 18.01.2021
3587 Clouds 2 1018 49 10000 1.34 351 19:35 18.01.2021
3588 Clouds 2 1019 51 10000 1.34 21 18:51 18.01.2021
3589 Clouds 1 1019 54 10000 0.45 62 18:32 18.01.2021
3590 Clouds 1 1019 63 10000 2.14 123 17:50 18.01.2021
3591 Clouds 1 1016 57 10000 2.66 155 17:31 18.01.2021
3592 Clouds 0 1015 65 10000 1.34 158 16:54 18.01.2021
3593 Clouds 0 1017 55 10000 4.63 360 16:32 18.01.2021
3594 Clouds -1 1017 67 10000 0.45 167 15:56 18.01.2021
3595 Clouds -1 1018 65 10000 2.78 190 15:37 18.01.2021
3596 Clouds -1 1016 64 10000 2.06 310 15:18 18.01.2021
3597 Clouds 0 1017 63 10000 0.45 62 14:41 18.01.2021
3598 Clouds 0 1017 63 10000 0.56 10 14:22 18.01.2021
3599 Clouds 0 1017 65 10000 0.89 44 13:44 18.01.2021
3600 Clouds 0 1017 68 10000 1.38 29 13:21 18.01.2021
3601 Clouds 0 1016 71 10000 1.38 29 12:47 18.01.2021
3602 Clouds 0 1016 70 10000 0.82 36 12:19 18.01.2021
3603 Clouds 0 1016 69 10000 0.82 36 11:48 18.01.2021
3604 Clouds 1 1015 68 10000 0.45 83 11:27 18.01.2021
3605 Clouds 1 1015 62 10000 0.89 71 10:49 18.01.2021
3606 Clouds 2 1014 55 10000 2.24 51 10:30 18.01.2021
3607 Clouds 3 1007 58 10000 0.89 117 09:40 18.01.2021
3608 Clear 4 1011 51 10000 1.18 116 09:18 18.01.2021
3609 Clear 3 1012 60 10000 0.64 156 08:27 18.01.2021
3610 Clear 1 1011 54 10000 0.64 156 07:55 18.01.2021
3611 Clouds 3 1011 49 10000 1.43 213 06:35 18.01.2021
3612 Clouds 5 1011 49 10000 0.45 132 04:46 18.01.2021
3613 Clouds 5 1010 47 10000 1.2 236 04:27 18.01.2021
3614 Clouds 5 1011 44 10000 1.2 236 03:52 18.01.2021
3615 Clouds 6 1011 42 10000 0.89 163 03:29 18.01.2021
3616 Clouds 7 1012 39 10000 1.48 222 02:58 18.01.2021
3617 Clouds 8 1011 34 10000 5.66 290 02:19 18.01.2021
3618 Clouds 9 1012 25 10000 4.12 300 00:41 18.01.2021
3619 Clouds 9 1014 26 10000 0.45 232 23:57 17.01.2021
3620 Clouds 9 1013 23 10000 7.72 300 23:39 17.01.2021
3621 Clouds 9 1014 24 10000 1.54 164 23:19 17.01.2021
3622 Clouds 9 1014 24 10000 3.13 277 22:24 17.01.2021
3623 Clouds 9 1014 23 10000 2.57 340 21:45 17.01.2021
3624 Clouds 9 1014 23 10000 2.57 340 21:27 17.01.2021
3625 Clouds 8 1016 31 10000 0.45 152 20:55 17.01.2021
3626 Clouds 8 1017 33 10000 1.01 146 20:37 17.01.2021
3627 Clouds 7 1016 29 10000 2.06 50 20:18 17.01.2021
3628 Clouds 7 1018 36 10000 0.45 218 19:40 17.01.2021
3629 Clouds 6 1019 49 10000 0.45 172 18:57 17.01.2021
3630 Clouds 4 988 1 10000 2.7 201 18:30 17.01.2021
3631 Clouds 2 1021 62 10000 2.7 201 17:52 17.01.2021
3632 Clouds 2 988 62 10000 0.89 148 17:34 17.01.2021
3633 Clouds 0 1021 63 10000 0.89 204 16:56 17.01.2021
3634 Clouds 0 1018 59 10000 3.09 210 16:37 17.01.2021
3635 Clouds -1 1021 64 10000 1.2 241 16:18 17.01.2021
3636 Clouds -1 1019 59 10000 3.6 150 15:37 17.01.2021
3637 Clouds -1 1021 59 10000 1.27 229 15:19 17.01.2021
3638 Clouds -1 1021 62 10000 0.45 181 14:40 17.01.2021
3639 Clouds -2 1022 64 10000 2.23 194 14:21 17.01.2021
3640 Clouds -2 1022 66 10000 2.23 194 13:43 17.01.2021
3641 Clouds -2 1022 66 10000 2.25 172 13:24 17.01.2021
3642 Clouds -2 1022 67 10000 0.85 130 12:45 17.01.2021
3643 Clouds -2 1021 67 10000 0.45 172 12:25 17.01.2021
3644 Clouds -2 1022 67 10000 0.45 161 11:26 17.01.2021
3645 Clouds -2 1022 66 10000 1.9 116 10:54 17.01.2021
3646 Clouds -2 1022 66 10000 1.9 116 10:36 17.01.2021
3647 Clouds -2 1022 67 10000 2.65 127 10:18 17.01.2021
3648 Clouds -2 1022 67 10000 2.92 121 08:59 17.01.2021
3649 Clouds -2 1022 66 10000 2.92 121 08:41 17.01.2021
3650 Clouds -1 1021 61 10000 2.58 144 04:39 17.01.2021
3651 Clouds 0 1021 59 10000 2.39 128 04:20 17.01.2021
3652 Clouds 3 1020 49 10000 0.89 73 01:37 17.01.2021
3653 Clear 6 1019 44 10000 0.45 138 00:21 17.01.2021
3654 Clear 6 1019 42 10000 0.89 101 23:53 16.01.2021
3655 Clear 7 1019 41 10000 1.34 74 23:25 16.01.2021
3656 Clear 8 1019 38 10000 1.79 77 22:58 16.01.2021
3657 Clear 8 1016 45 10000 1.34 80 22:26 16.01.2021
3658 Clear 9 1018 38 10000 1.34 360 21:50 16.01.2021
3659 Clear 8 1018 37 10000 2.12 103 21:23 16.01.2021
3660 Clear 8 1017 40 10000 1.34 21 20:52 16.01.2021
3661 Clear 8 987 1 10000 1.79 10 20:28 16.01.2021
3662 Clear 8 1020 39 10000 0.89 74 19:49 16.01.2021
3663 Clouds 7 1020 43 10000 2.24 30 19:30 16.01.2021
3664 Clouds 6 1018 46 10000 0.89 65 18:47 16.01.2021
3665 Clouds 6 1020 45 10000 2.02 174 18:27 16.01.2021
3666 Clouds 5 1020 47 10000 0.89 153 17:58 16.01.2021
3667 Clouds 5 1023 46 10000 2.02 174 17:39 16.01.2021
3668 Clouds 4 1019 56 10000 2.57 60 17:20 16.01.2021
3669 Clouds 4 1023 45 10000 1.37 179 16:41 16.01.2021
3670 Clouds 3 1018 51 10000 1.54 80 16:18 16.01.2021
3671 Clouds 3 1017 46 10000 1.3 116 15:41 16.01.2021
3672 Clouds 1 1020 48 10000 1.4 66 14:34 16.01.2021
3673 Clouds 1 1020 47 10000 0.45 355 13:53 16.01.2021
3674 Clouds 1 1015 35 10000 2.06 280 13:53 16.01.2021
3675 Clouds 0 1020 48 10000 0.86 276 13:31 16.01.2021
3676 Clouds 0 1019 47 10000 0.89 176 12:48 16.01.2021
3677 Clouds 1 1019 47 10000 0.45 184 12:27 16.01.2021
3678 Clouds 0 1020 45 10000 0.62 246 11:56 16.01.2021
3679 Clouds 0 1019 44 10000 0.92 211 11:27 16.01.2021
3680 Clouds 1 1020 44 10000 0.92 211 10:59 16.01.2021
3681 Clouds 1 1020 43 10000 0.92 211 10:41 16.01.2021
3682 Clouds 1 1013 44 10000 1.59 204 09:54 16.01.2021
3683 Clouds 0 1015 40 10000 3.09 200 09:20 16.01.2021
3684 Clouds 0 1021 47 10000 2.51 211 08:19 16.01.2021
3685 Clouds -1 1017 38 10000 0.45 0 06:49 16.01.2021
3686 Clouds 0 1017 44 10000 0.45 130 04:53 16.01.2021
3687 Clear 0 1025 41 10000 0.45 187 03:18 16.01.2021
3688 Clear 1 1025 38 10000 1.48 207 02:37 16.01.2021
3689 Clouds 4 1019 22 10000 2.57 140 00:45 16.01.2021
3690 Clear 5 1023 24 10000 0.89 149 00:21 16.01.2021
3691 Clear 6 1023 24 10000 0.45 155 23:36 15.01.2021
3692 Clear 6 1023 22 10000 1.34 126 22:38 15.01.2021
3693 Clear 6 1023 22 10000 1.79 156 22:18 15.01.2021
3694 Clear 5 1023 22 10000 2.68 101 21:42 15.01.2021
3695 Clear 4 1024 25 10000 1.34 135 20:47 15.01.2021
3696 Clear 3 1025 26 10000 1.34 192 20:23 15.01.2021
3697 Clear 2 1026 28 10000 0.89 179 19:47 15.01.2021
3698 Clouds 2 1021 23 10000 5.14 30 19:26 15.01.2021
3699 Clear 1 1018 24 10000 1.44 129 18:45 15.01.2021
3700 Clear 0 1029 35 10000 0.45 191 18:20 15.01.2021
3701 Clear -1 1029 47 10000 0.89 195 17:56 15.01.2021
3702 Clouds -2 1021 36 10000 2.06 80 17:38 15.01.2021
3703 Clear -2 1021 51 10000 0.89 55 17:19 15.01.2021
3704 Clear -2 992 51 10000 0.89 167 17:19 15.01.2021
3705 Clouds -5 1020 42 10000 1.25 165 16:43 15.01.2021
3706 Clouds -5 1020 42 10000 1.53 188 16:22 15.01.2021
3707 Clouds -7 1020 42 10000 3.6 60 15:40 15.01.2021
3708 Clouds -6 1020 42 10000 3.6 60 15:19 15.01.2021
3709 Clear -6 1020 42 10000 1.54 320 14:41 15.01.2021
3710 Clear -6 1020 45 10000 3.6 320 14:22 15.01.2021
3711 Clear -6 1020 45 10000 3.6 320 13:40 15.01.2021
3712 Clear -6 1020 45 10000 3.6 320 13:40 15.01.2021
3713 Clear -6 1020 45 10000 3.6 320 13:20 15.01.2021
3714 Clear -7 1020 53 10000 1.54 270 12:47 15.01.2021
3715 Clear -7 1020 58 10000 2.06 140 12:26 15.01.2021
3716 Clear -7 1021 53 10000 2.06 290 11:42 15.01.2021
3717 Clear -7 1021 53 10000 2.06 290 11:21 15.01.2021
3718 Clear -7 1021 58 10000 1.54 200 10:51 15.01.2021
3719 Clear -6 1022 49 10000 5.14 340 10:22 15.01.2021
3720 Clear -5 1031 48 10000 0.45 297 09:49 15.01.2021
3721 Clear -5 1022 49 10000 5.14 340 09:29 15.01.2021
3722 Clear -5 1031 47 10000 0.89 339 08:28 15.01.2021
3723 Clear -5 1031 47 10000 1.34 327 07:46 15.01.2021
3724 Clear -5 1079 53 10000 0.45 348 07:24 15.01.2021
3725 Clear -5 1043 56 10000 0.45 332 06:51 15.01.2021
3726 Clear -3 1017 44 10000 5.17 318 02:45 15.01.2021
3727 Clouds 0 1019 37 10000 10.8 20 00:52 15.01.2021
3728 Clear 2 1019 29 10000 1.34 62 23:35 14.01.2021
3729 Clear 3 1015 20 10000 0.45 51 22:58 14.01.2021
3730 Clear 3 1018 25 10000 0.45 78 22:38 14.01.2021
3731 Clear 3 1018 25 10000 0.89 55 22:20 14.01.2021
3732 Clear 3 1015 20 10000 0.45 25 21:41 14.01.2021
3733 Clear 3 1018 24 10000 0.89 33 21:20 14.01.2021
3734 Clear 2 1015 19 10000 8.18 321 20:48 14.01.2021
3735 Clear 2 1018 23 10000 0.89 323 20:22 14.01.2021
3736 Clear 2 1015 16 10000 0.45 11 19:41 14.01.2021
3737 Clouds 2 1018 22 10000 2.24 287 19:23 14.01.2021
3738 Clouds 2 1019 23 10000 2.68 315 18:49 14.01.2021
3739 Clear 1 1019 25 10000 2.68 307 18:18 14.01.2021
3740 Clouds 0 1021 32 10000 6.69 280 17:44 14.01.2021
3741 Clear 0 1020 28 10000 2.68 329 17:25 14.01.2021
3742 Clear 0 1020 31 10000 1.79 310 16:39 14.01.2021
3743 Clear -1 1018 27 10000 0.45 288 15:56 14.01.2021
3744 Clear -1 1021 35 10000 0.45 327 15:56 14.01.2021
3745 Clear -1 1020 36 10000 0.89 315 15:38 14.01.2021
3746 Clear -1 1018 27 10000 6.39 302 14:58 14.01.2021
3747 Clear -1 1018 26 10000 1.79 261 14:37 14.01.2021
3748 Clear -1 1020 36 10000 6.65 301 14:18 14.01.2021
3749 Clear 0 1020 36 10000 0.89 315 13:48 14.01.2021
3750 Clear 0 1019 31 10000 0.89 276 13:19 14.01.2021
3751 Clear 1 1019 32 10000 0.45 296 12:38 14.01.2021
3752 Clear 1 1016 26 10000 1.34 290 12:18 14.01.2021
3753 Clear 2 1015 25 10000 1.79 275 11:41 14.01.2021
3754 Clear 2 1017 27 10000 3.13 315 11:20 14.01.2021
3755 Clouds 1 1018 69 10000 6.69 340 10:49 14.01.2021
3756 Clear 2 1015 25 10000 4.92 305 10:22 14.01.2021
3757 Clear 1 1017 47 10000 4.27 288 09:44 14.01.2021
3758 Clouds 3 1014 42 10000 11.83 290 09:22 14.01.2021
3759 Clouds 6 1014 42 10000 11.83 290 08:43 14.01.2021
3760 Clouds 6 1015 21 10000 11.83 300 08:22 14.01.2021
3761 Clouds 8 1014 36 10000 11.32 290 07:45 14.01.2021
3762 Clouds 9 1011 27 10000 7.2 300 06:43 14.01.2021
3763 Clouds 8 1011 39 10000 3.09 250 05:34 14.01.2021
3764 Clouds 14 1012 33 10000 4.63 320 00:36 14.01.2021
3765 Clouds 13 1011 35 10000 3.6 290 23:49 13.01.2021
3766 Clouds 13 1011 35 10000 3.6 290 23:20 13.01.2021
3767 Clouds 14 1011 35 10000 4.12 310 22:28 13.01.2021
3768 Clouds 16 1012 25 10000 7.2 300 21:50 13.01.2021
3769 Clouds 16 1012 25 10000 7.2 300 21:24 13.01.2021
3770 Clouds 17 1013 25 10000 5.66 250 20:54 13.01.2021
3771 Clouds 17 1013 25 10000 5.66 250 20:28 13.01.2021
3772 Clouds 15 1015 28 10000 4.63 240 19:57 13.01.2021
3773 Clouds 15 1015 28 10000 4.63 240 19:32 13.01.2021
3774 Clouds 12 1016 37 10000 4.63 210 18:58 13.01.2021
3775 Clouds 12 1016 37 10000 4.63 210 18:36 13.01.2021
3776 Clouds 9 1016 39 10000 4.12 220 17:51 13.01.2021
3777 Clouds 7 1016 39 10000 4.12 220 17:23 13.01.2021
3778 Clouds 5 1016 49 10000 0.45 143 16:50 13.01.2021
3779 Clouds 4 1020 55 10000 0.45 155 16:21 13.01.2021
3780 Clouds 3 1016 45 10000 4.63 220 15:52 13.01.2021
3781 Clouds 3 1016 49 10000 2.63 203 15:32 13.01.2021
3782 Clouds 2 1015 52 10000 1.34 157 14:43 13.01.2021
3783 Clouds 3 1014 48 10000 1.57 228 13:51 13.01.2021
3784 Clouds 3 1014 47 10000 2.41 222 13:27 13.01.2021
3785 Clouds 3 1015 48 10000 2.6 212 12:46 13.01.2021
3786 Clouds 3 1015 47 10000 3.14 211 12:28 13.01.2021
3787 Clouds 3 1015 47 10000 3.14 211 12:28 13.01.2021
3788 Clouds 3 1014 45 10000 0.45 157 11:53 13.01.2021
3789 Clouds 3 1015 45 10000 3.14 211 11:34 13.01.2021
3790 Clouds 3 1015 44 10000 2.87 206 10:50 13.01.2021
3791 Clouds 3 1016 45 10000 2.87 206 10:32 13.01.2021
3792 Clouds 3 1016 45 10000 2.58 225 09:53 13.01.2021
3793 Clouds 3 1016 46 10000 3.28 223 09:30 13.01.2021
3794 Clouds 2 1013 34 10000 3.28 223 08:50 13.01.2021
3795 Clouds 2 1013 43 10000 3.12 222 08:28 13.01.2021
3796 Clouds 2 1014 39 10000 3.12 222 07:34 13.01.2021
3797 Clouds 2 1013 41 10000 2.69 237 06:53 13.01.2021
3798 Clouds 2 1017 45 10000 2.35 228 04:20 13.01.2021
3799 Clouds 2 1018 45 10000 2.35 228 03:44 13.01.2021
3800 Clouds 3 1018 44 10000 2.06 256 03:25 13.01.2021
3801 Clouds 6 1023 30 10000 1.11 257 01:19 13.01.2021
3802 Clouds 11 1019 16 10000 2.06 190 23:55 12.01.2021
3803 Clouds 11 1019 16 10000 2.06 190 23:22 12.01.2021
3804 Clouds 11 1019 14 10000 3.6 190 22:46 12.01.2021
3805 Clear 12 1020 12 10000 0.45 203 22:23 12.01.2021
3806 Clear 11 1019 16 10000 2.07 191 21:49 12.01.2021
3807 Clear 11 1019 17 10000 2.23 197 21:30 12.01.2021
3808 Clear 10 1019 12 10000 1.34 198 20:49 12.01.2021
3809 Clouds 9 1021 16 10000 4.12 190 20:27 12.01.2021
3810 Clear 8 1027 19 10000 1.34 206 19:49 12.01.2021
3811 Clouds 7 1028 20 10000 0.89 147 19:27 12.01.2021
3812 Clouds 5 1019 13 10000 0.89 188 18:44 12.01.2021
3813 Clouds 4 1023 24 10000 4.63 200 18:24 12.01.2021
3814 Clouds 2 1019 15 10000 0.45 195 17:43 12.01.2021
3815 Clouds 0 1030 31 10000 0.89 171 17:24 12.01.2021
3816 Clouds -1 1031 25 10000 0.89 124 16:43 12.01.2021
3817 Clouds -3 1023 28 10000 1.34 213 16:24 12.01.2021
3818 Clouds -4 1031 33 10000 0.45 176 15:40 12.01.2021
3819 Clear -4 1031 32 10000 0.45 98 15:21 12.01.2021
3820 Clear -4 1031 33 10000 0.45 136 14:42 12.01.2021
3821 Clear -4 1022 33 10000 4.12 200 14:21 12.01.2021
3822 Clear -4 1031 36 10000 0.45 94 13:52 12.01.2021
3823 Clear -5 1027 31 10000 2.24 206 12:55 12.01.2021
3824 Clear -4 1021 36 10000 5.66 190 12:22 12.01.2021
3825 Clear -4 1027 38 10000 2.24 169 11:41 12.01.2021
3826 Clear -4 1020 37 10000 1.24 205 10:52 12.01.2021
3827 Clear -3 1021 46 10000 4.63 190 10:25 12.01.2021
3828 Clear -3 1021 46 10000 5.14 180 09:58 12.01.2021
3829 Clear -3 1027 40 10000 1.79 163 09:28 12.01.2021
3830 Clear -4 1027 41 10000 2.24 180 08:54 12.01.2021
3831 Clear -4 1027 42 10000 2.24 177 08:26 12.01.2021
3832 Clear -4 1080 51 10000 1.79 149 07:37 12.01.2021
3833 Clear -3 1029 47 10000 1.79 148 06:39 12.01.2021
3834 Clouds -3 1032 46 10000 0.45 154 05:34 12.01.2021
3835 Clouds -2 1022 52 10000 1.5 349 03:27 12.01.2021
3836 Clouds -1 1021 40 10000 1.51 353 02:19 12.01.2021
3837 Clouds 2 1028 33 10000 0.2 229 01:28 12.01.2021
3838 Clouds 7 1021 13 10000 1.54 180 23:57 11.01.2021
3839 Clouds 7 1021 24 10000 0.49 131 23:36 11.01.2021
3840 Clouds 7 1021 26 10000 2.06 80 23:18 11.01.2021
3841 Clouds 7 1021 20 10000 0.83 159 22:44 11.01.2021
3842 Clouds 7 1020 16 10000 0.45 96 22:26 11.01.2021
3843 Clouds 7 1027 22 10000 1.36 174 21:39 11.01.2021
3844 Clouds 6 1027 20 10000 0.45 126 21:21 11.01.2021
3845 Clouds 5 1029 26 10000 0.45 190 20:41 11.01.2021
3846 Clouds 5 1023 28 10000 1.54 210 20:23 11.01.2021
3847 Clouds 4 1030 30 10000 0.45 199 19:56 11.01.2021
3848 Clouds 3 1031 33 10000 0.45 139 19:33 11.01.2021
3849 Clouds 1 1032 37 10000 0.45 244 18:46 11.01.2021
3850 Clouds 0 1033 35 10000 1.23 184 18:27 11.01.2021
3851 Clouds -1 1032 42 10000 0.89 181 17:56 11.01.2021
3852 Clouds -1 1024 43 10000 1.23 184 17:37 11.01.2021
3853 Clear -3 1032 47 10000 1.34 197 17:19 11.01.2021
3854 Clear -4 1035 49 10000 2.25 196 16:39 11.01.2021
3855 Clear -5 1026 48 10000 1.34 213 16:20 11.01.2021
3856 Clear -6 1023 58 10000 5.14 190 15:47 11.01.2021
3857 Clear -6 1032 55 10000 0.45 163 15:26 11.01.2021
3858 Clear -6 1025 53 10000 1.34 205 14:40 11.01.2021
3859 Clear -6 1022 63 10000 4.63 190 13:53 11.01.2021
3860 Clear -6 1025 54 10000 1.34 207 13:27 11.01.2021
3861 Clear -6 1032 58 10000 0.45 213 12:52 11.01.2021
3862 Clear -6 1022 68 10000 4.63 190 12:32 11.01.2021
3863 Clear -6 1023 68 10000 3.6 200 11:56 11.01.2021
3864 Clear -6 1032 63 10000 1.84 215 11:34 11.01.2021
3865 Clear -5 1019 51 10000 0.45 0 10:51 11.01.2021
3866 Clear -5 1021 52 10000 1.69 211 10:25 11.01.2021
3867 Clear -5 1031 55 10000 1.69 211 09:43 11.01.2021
3868 Clear -5 1021 55 10000 1.29 231 09:21 11.01.2021
3869 Clear -5 1021 61 10000 1.29 231 08:45 11.01.2021
3870 Clear -5 1030 71 10000 2.24 171 08:18 11.01.2021
3871 Clear -5 1023 86 10000 4.12 180 07:27 11.01.2021
3872 Clear -5 1030 77 10000 1.79 142 06:58 11.01.2021
3873 Clear -4 1022 87 10000 1.57 185 03:57 11.01.2021
3874 Clouds -2 1019 69 10000 1.09 13 01:33 11.01.2021
3875 Clouds 0 1019 65 10000 1.07 355 00:34 11.01.2021
3876 Clouds 1 1028 64 10000 0.53 3 23:35 10.01.2021
3877 Clouds 1 1028 67 10000 0.87 77 22:48 10.01.2021
3878 Clouds 1 1028 64 10000 0.45 326 22:24 10.01.2021
3879 Clouds 1 1022 74 10000 1.54 50 22:24 10.01.2021
3880 Clouds 1 1019 60 10000 1.33 100 21:46 10.01.2021
3881 Clouds 1 1019 63 10000 1.35 106 21:21 10.01.2021
3882 Clouds 0 1024 93 10000 1.33 107 20:56 10.01.2021
3883 Clouds 0 1029 75 10000 0.45 166 20:33 10.01.2021
3884 Clouds -1 1020 78 10000 0.95 105 19:44 10.01.2021
3885 Clouds -1 1031 84 10000 0.45 300 19:26 10.01.2021
3886 Clouds -1 1031 84 10000 0.45 300 19:26 10.01.2021
3887 Clouds -2 1032 87 10000 0.45 296 18:56 10.01.2021
3888 Clouds -2 1032 89 10000 0.87 99 18:37 10.01.2021
3889 Clouds -2 1032 89 10000 0.87 89 18:18 10.01.2021
3890 Clouds -3 1022 89 10000 0.76 82 17:21 10.01.2021
3891 Clouds -3 1032 92 10000 0.79 82 16:33 10.01.2021
3892 Clouds -3 1032 92 10000 0.79 82 16:33 10.01.2021
3893 Drizzle -3 1025 100 8047 1.54 320 15:57 10.01.2021
3894 Clouds -3 1031 92 10000 1.09 17 15:25 10.01.2021
3895 Clouds -3 1031 92 10000 1.09 17 14:50 10.01.2021
3896 Clouds -3 1021 89 10000 1.49 16 14:32 10.01.2021
3897 Clouds -3 1031 92 10000 1.49 16 13:55 10.01.2021
3898 Clouds -3 1031 92 10000 1.49 16 13:55 10.01.2021
3899 Clouds -3 1031 92 10000 1.49 16 13:37 10.01.2021
3900 Fog -3 1025 100 805 2.57 290 13:18 10.01.2021
3901 Clouds -3 1031 92 10000 1.62 7 12:47 10.01.2021
3902 Clouds -3 1021 88 10000 1.74 3 12:27 10.01.2021
3903 Clouds -3 1025 100 10000 3.6 230 11:39 10.01.2021
3904 Clouds -3 1031 91 10000 1.73 349 11:18 10.01.2021
3905 Clouds -3 1021 88 10000 1.7 349 10:36 10.01.2021
3906 Clouds -3 1031 90 10000 1.3 324 10:18 10.01.2021
3907 Clouds -3 1021 88 10000 0.42 303 09:27 10.01.2021
3908 Snow -2 1031 90 8670 0.28 116 08:21 10.01.2021
3909 Snow -2 1032 90 5696 0.13 160 07:29 10.01.2021
3910 Snow -2 1025 100 4023 2.57 100 06:20 10.01.2021
3911 Snow -2 1032 89 673 0.66 35 05:36 10.01.2021
3912 Snow -2 1021 84 153 3.19 337 02:58 10.01.2021
3913 Snow -2 1029 83 4315 0.45 45 01:22 10.01.2021
3914 Snow -1 1028 81 10000 0.45 67 23:49 09.01.2021
3915 Snow -1 1019 77 10000 2.43 5 23:30 09.01.2021
3916 Snow -1 1027 80 10000 0.45 71 22:48 09.01.2021
3917 Snow 0 1027 80 10000 0.45 32 22:19 09.01.2021
3918 Snow 0 1027 82 10000 2.2 5 21:57 09.01.2021
3919 Snow -1 1027 84 10000 2.2 5 21:38 09.01.2021
3920 Snow -1 1027 83 10000 2.16 11 21:18 09.01.2021
3921 Snow -1 1027 83 10000 2.16 11 20:44 09.01.2021
3922 Snow -1 1019 81 10000 1.89 9 19:45 09.01.2021
3923 Snow -1 1028 81 10000 0.45 211 19:22 09.01.2021
3924 Clouds -2 1019 77 10000 1.83 4 18:52 09.01.2021
3925 Clouds -2 1019 78 10000 1.83 4 18:33 09.01.2021
3926 Clouds -2 1019 79 10000 1.96 351 17:48 09.01.2021
3927 Clouds -2 1019 80 1378 2.26 349 17:30 09.01.2021
3928 Clouds -3 1019 77 1378 2.26 349 16:36 09.01.2021
3929 Clouds -3 1027 80 3666 0.89 18 15:52 09.01.2021
3930 Clouds -3 1027 80 3666 0.45 314 15:33 09.01.2021
3931 Clouds -3 1017 66 10000 3.04 340 14:41 09.01.2021
3932 Clouds -3 1017 65 10000 3.12 335 14:20 09.01.2021
3933 Clouds -4 1026 75 10000 3.12 335 13:49 09.01.2021
3934 Clouds -3 1021 74 10000 1.54 220 13:31 09.01.2021
3935 Clouds -3 1026 72 10000 2.39 339 12:50 09.01.2021
3936 Clouds -3 1021 74 10000 3.09 210 12:25 09.01.2021
3937 Clouds -3 1017 63 10000 2.16 350 11:56 09.01.2021
3938 Clouds -3 1020 72 10000 3.08 350 11:33 09.01.2021
3939 Clouds -3 1020 73 10000 2.16 350 11:33 09.01.2021
3940 Clouds -3 1019 67 10000 3.08 350 10:55 09.01.2021
3941 Clouds -3 1021 68 10000 2.06 220 10:36 09.01.2021
3942 Clouds -3 1019 67 10000 3.01 347 09:53 09.01.2021
3943 Clouds -3 989 68 10000 2.34 347 09:29 09.01.2021
3944 Clouds -3 1029 64 10000 2.34 347 08:47 09.01.2021
3945 Clouds -3 1021 68 10000 5.14 140 07:38 09.01.2021
3946 Clouds -2 1020 59 10000 1.67 359 07:38 09.01.2021
3947 Clouds -2 1020 64 10000 1.64 10 06:40 09.01.2021
3948 Clouds -2 1021 62 10000 2.29 109 04:53 09.01.2021
3949 Clouds 0 1026 49 10000 2.58 117 03:25 09.01.2021
3950 Clouds 1 1026 44 10000 2.58 117 02:32 09.01.2021
3951 Clouds 2 1025 40 10000 0.45 95 01:54 09.01.2021
3952 Clear 5 1025 33 10000 0.89 168 00:37 09.01.2021
3953 Clear 6 1025 31 10000 0.89 67 23:59 08.01.2021
3954 Clear 7 1017 23 10000 0.45 76 23:19 08.01.2021
3955 Clear 7 1017 21 10000 1.39 74 22:19 08.01.2021
3956 Clear 7 1017 22 10000 1.39 74 21:44 08.01.2021
3957 Clear 6 1018 24 10000 0.89 144 20:49 08.01.2021
3958 Clear 5 1018 26 10000 0.45 161 20:25 08.01.2021
3959 Clear 5 1019 27 10000 0.89 123 19:55 08.01.2021
3960 Clear 4 1028 37 10000 1.34 168 19:22 08.01.2021
3961 Clear 3 1030 43 10000 0.89 164 18:36 08.01.2021
3962 Clear 2 1030 46 10000 1.34 156 18:18 08.01.2021
3963 Clear 1 1021 43 10000 0.13 26 17:44 08.01.2021
3964 Clear 0 1025 49 10000 0.29 189 17:20 08.01.2021
3965 Clear -3 1033 58 10000 0.29 189 16:33 08.01.2021
3966 Clouds -4 1025 63 10000 3.6 240 15:43 08.01.2021
3967 Clear -3 1028 62 10000 0.45 167 14:51 08.01.2021
3968 Clear -3 1028 62 10000 0.45 167 14:32 08.01.2021
3969 Clear -3 1022 54 10000 0.84 180 13:39 08.01.2021
3970 Clear -3 1022 51 10000 0.85 8 13:18 08.01.2021
3971 Clear -3 1022 52 10000 0.85 8 13:18 08.01.2021
3972 Clear -2 1021 69 10000 0.41 259 12:42 08.01.2021
3973 Clear -2 1032 66 10000 0.92 306 12:19 08.01.2021
3974 Clear -3 1023 58 10000 0.9 306 11:42 08.01.2021
3975 Clear -2 1021 49 10000 0.89 261 11:22 08.01.2021
3976 Clear -2 1049 71 10000 1.34 304 10:48 08.01.2021
3977 Clear -2 1021 69 10000 1.12 243 10:24 08.01.2021
3978 Clear -2 1020 56 10000 0.89 260 09:44 08.01.2021
3979 Clear -2 1021 58 10000 2.17 209 09:21 08.01.2021
3980 Clear -1 1021 59 10000 1.79 204 08:19 08.01.2021
3981 Clouds -1 1022 73 10000 1.46 232 07:25 08.01.2021
3982 Clouds 0 1018 54 10000 2.21 23 04:26 08.01.2021
3983 Clouds 6 1021 44 10000 0.89 33 23:46 07.01.2021
3984 Clouds 7 1021 43 10000 0.45 68 23:28 07.01.2021
3985 Clouds 8 1021 38 10000 0.45 58 22:42 07.01.2021
3986 Clouds 9 1017 29 10000 1.54 70 22:18 07.01.2021
3987 Clouds 9 1017 29 10000 1.54 70 21:40 07.01.2021
3988 Clouds 9 1017 29 10000 1.54 70 21:21 07.01.2021
3989 Clouds 8 1022 37 10000 0.87 33 20:44 07.01.2021
3990 Clouds 8 1022 37 10000 0.45 162 20:23 07.01.2021
3991 Clouds 6 1018 46 10000 1.19 140 19:42 07.01.2021
3992 Clouds 3 1019 48 10000 1.49 182 18:54 07.01.2021
3993 Clouds 2 1016 46 10000 1.64 185 18:23 07.01.2021
3994 Clouds 0 1020 55 10000 3.6 190 17:42 07.01.2021
3995 Clouds 0 1029 56 10000 1.52 200 17:18 07.01.2021
3996 Clouds -1 1020 59 10000 3.6 180 16:51 07.01.2021
3997 Clouds -2 1029 58 10000 0.91 191 16:20 07.01.2021
3998 Clouds -2 1029 58 10000 0.91 191 15:34 07.01.2021
3999 Clouds -2 1029 57 10000 0.51 240 14:42 07.01.2021
4000 Clouds -2 1045 61 10000 1.34 185 14:42 07.01.2021
4001 Clouds -2 1029 57 10000 0.51 240 14:42 07.01.2021
4002 Clouds -2 1018 60 10000 0.51 240 14:42 07.01.2021
4003 Clouds -2 1018 60 10000 0.16 206 14:23 07.01.2021
4004 Clear -2 1019 54 10000 3.6 190 13:36 07.01.2021
4005 Clouds -2 1017 57 10000 0.33 247 13:18 07.01.2021
4006 Clear -2 1017 57 10000 0.31 256 12:33 07.01.2021
4007 Clear -2 1017 57 10000 0.4 255 11:52 07.01.2021
4008 Clear -2 1028 52 10000 0.57 227 11:30 07.01.2021
4009 Clear -2 1028 49 10000 0.57 227 10:48 07.01.2021
4010 Clouds -2 1020 53 10000 4.6 180 10:19 07.01.2021
4011 Clouds -2 1020 53 10000 4.6 180 09:46 07.01.2021
4012 Clear -2 1028 50 10000 1.28 205 09:18 07.01.2021
4013 Clear -2 1048 55 10000 0.89 177 08:26 07.01.2021
4014 Clear -2 1018 53 10000 1.09 186 07:45 07.01.2021
4015 Clouds -2 1019 51 10000 1.54 184 06:59 07.01.2021
4016 Clear -1 1020 46 10000 1.15 171 03:35 07.01.2021
4017 Clouds 5 1020 25 10000 4.6 110 00:27 07.01.2021
4018 Clear 6 1023 25 10000 0.89 40 23:36 06.01.2021
4019 Clouds 7 1020 24 10000 5.1 120 22:37 06.01.2021
4020 Clear 7 1018 29 10000 0.89 142 21:43 06.01.2021
4021 Clear 7 1019 28 10000 1.75 58 21:23 06.01.2021
4022 Clear 6 1021 27 10000 1.34 217 20:51 06.01.2021
4023 Clear 6 1021 28 10000 1.34 125 20:23 06.01.2021
4024 Clear 5 1022 30 10000 2.24 126 19:49 06.01.2021
4025 Clear 5 1022 35 10000 1.79 163 19:29 06.01.2021
4026 Clear 3 1018 27 10000 0.89 165 18:55 06.01.2021
4027 Clear 3 1018 27 10000 0.45 155 18:36 06.01.2021
4028 Clear 1 1018 30 10000 0.89 167 18:18 06.01.2021
4029 Clear 1 1018 37 10000 1.28 190 17:41 06.01.2021
4030 Clear -1 1018 42 10000 1.34 167 17:21 06.01.2021
4031 Clouds -4 1023 85 10000 3.6 150 16:39 06.01.2021
4032 Clouds -5 1022 85 10000 4.1 180 16:18 06.01.2021
4033 Clouds -4 1022 85 10000 4.1 180 15:49 06.01.2021
4034 Clouds -5 1022 85 10000 4.1 180 15:24 06.01.2021
4035 Clouds -4 1022 79 10000 3.6 180 14:41 06.01.2021
4036 Clear -4 1022 79 10000 3.1 130 14:19 06.01.2021
4037 Clear -5 1022 85 10000 3.6 190 13:40 06.01.2021
4038 Clear -4 1021 79 10000 2.1 230 13:18 06.01.2021
4039 Clear -4 1023 76 10000 1.34 155 12:45 06.01.2021
4040 Clear -4 1031 73 10000 0.63 162 11:50 06.01.2021
4041 Clear -4 1020 71 10000 1.04 168 11:24 06.01.2021
4042 Clear -4 1031 72 10000 1.04 168 10:46 06.01.2021
4043 Clouds -3 1022 73 10000 1.5 280 09:53 06.01.2021
4044 Clouds -3 1021 76 10000 0.98 174 09:34 06.01.2021
4045 Clouds -3 1021 73 10000 0.36 356 08:55 06.01.2021
4046 Clear -2 1022 74 10000 4.6 350 08:21 06.01.2021
4047 Clear -2 1022 74 10000 4.6 350 07:53 06.01.2021
4048 Clouds -1 1017 61 10000 3.62 24 06:45 06.01.2021
4049 Clouds 0 1017 60 10000 3.9 23 05:31 06.01.2021
4050 Clouds 3 1018 41 10000 8.2 360 04:21 06.01.2021
4051 Clouds 5 1014 25 10000 0.45 306 02:44 06.01.2021
4052 Clouds 5 1013 25 10000 5.67 313 02:21 06.01.2021
4053 Clear 7 1009 21 10000 0.89 273 23:57 05.01.2021
4054 Clear 8 1007 23 10000 1.34 286 22:57 05.01.2021
4055 Clouds 10 1010 25 10000 7.7 300 22:39 05.01.2021
4056 Clear 10 1006 22 10000 3.58 293 22:19 05.01.2021
4057 Clear 10 1008 32 10000 3.13 258 21:37 05.01.2021
4058 Clear 10 1005 27 10000 2.24 265 20:37 05.01.2021
4059 Clear 11 1005 26 10000 2.68 279 20:18 05.01.2021
4060 Clear 11 1008 32 10000 2.24 287 19:41 05.01.2021
4061 Clouds 11 1009 35 10000 0.45 19 19:21 05.01.2021
4062 Clear 10 1008 35 10000 0.45 261 18:42 05.01.2021
4063 Clear 7 1008 37 10000 1.17 215 18:21 05.01.2021
4064 Clear 7 1010 43 10000 1.17 215 17:47 05.01.2021
4065 Clear 5 1009 56 10000 2.24 173 17:26 05.01.2021
4066 Clear 4 1006 43 10000 1.19 219 16:51 05.01.2021
4067 Clear 1 1006 48 10000 1.57 236 16:21 05.01.2021
4068 Clear 2 1010 64 10000 2.68 299 15:49 05.01.2021
4069 Clouds 1 1010 44 10000 4.1 290 14:49 05.01.2021
4070 Clouds 1 1010 44 10000 4.1 290 14:25 05.01.2021
4071 Clear 1 1005 45 10000 2.21 213 13:46 05.01.2021
4072 Clouds 2 1011 43 10000 3.1 170 13:22 05.01.2021
4073 Clouds 1 1011 43 10000 3.1 170 12:47 05.01.2021
4074 Clouds 2 1011 43 10000 3.1 170 12:24 05.01.2021
4075 Clouds 2 1006 36 10000 1.94 201 11:39 05.01.2021
4076 Clouds 2 1007 36 10000 1.94 201 11:39 05.01.2021
4077 Clouds 2 1006 36 10000 1.94 201 11:39 05.01.2021
4078 Clouds 2 1006 36 10000 1.94 201 11:39 05.01.2021
4079 Clouds 2 1006 36 10000 1.94 201 11:38 05.01.2021
4080 Clouds 2 1012 34 10000 1.5 180 10:46 05.01.2021
4081 Clouds 1 1012 34 10000 1.5 180 10:26 05.01.2021
4082 Clouds 1 1012 32 10000 5.1 190 09:48 05.01.2021
4083 Clear 2 1008 39 10000 1.98 206 09:28 05.01.2021
4084 Clouds 1 1013 34 10000 5.1 200 08:25 05.01.2021
4085 Clouds 1 1014 40 10000 6.7 200 06:47 05.01.2021
4086 Clouds 2 1016 38 10000 5.1 200 04:50 05.01.2021
4087 Clouds 11 1018 17 10000 3.6 170 00:50 05.01.2021
4088 Clouds 13 1018 12 10000 2.6 190 23:46 04.01.2021
4089 Clouds 13 1018 12 10000 2.6 190 23:25 04.01.2021
4090 Clouds 13 1018 11 10000 4.6 190 22:51 04.01.2021
4091 Clouds 13 1018 11 10000 4.6 190 22:32 04.01.2021
4092 Clouds 13 1018 11 10000 2.6 190 21:49 04.01.2021
4093 Clouds 13 1018 11 10000 2.6 190 21:31 04.01.2021
4094 Clouds 11 1019 15 10000 4.1 180 20:44 04.01.2021
4095 Clouds 11 1019 15 10000 4.1 180 20:25 04.01.2021
4096 Clouds 9 1021 19 10000 3.1 200 19:52 04.01.2021
4097 Clouds 9 1021 19 10000 3.1 200 19:24 04.01.2021
4098 Clouds 7 1022 26 10000 4.6 200 18:54 04.01.2021
4099 Clouds 5 1021 37 10000 3.6 190 18:24 04.01.2021
4100 Clouds 4 1021 37 10000 3.6 190 17:42 04.01.2021
4101 Clouds 3 1021 37 10000 3.6 190 17:24 04.01.2021
4102 Clouds 1 1021 50 10000 5.1 180 16:46 04.01.2021
4103 Clouds -1 1021 50 10000 5.1 180 16:27 04.01.2021
4104 Clouds -1 1020 63 10000 5.7 180 15:49 04.01.2021
4105 Clear -2 1020 54 10000 3.6 180 15:27 04.01.2021
4106 Clear -1 1020 54 10000 3.6 180 15:27 04.01.2021
4107 Clear -1 1020 54 10000 3.6 180 14:34 04.01.2021
4108 Clear -1 1019 77 10000 3.6 220 13:46 04.01.2021
4109 Clear 0 1019 77 10000 3.6 220 13:23 04.01.2021
4110 Clear 0 1019 40 10000 2.1 280 12:36 04.01.2021
4111 Clear 1 1019 43 10000 2.1 320 11:55 04.01.2021
4112 Clear 3 1019 43 10000 2.1 320 11:21 04.01.2021
4113 Clear 2 1019 73 10000 2.6 330 10:47 04.01.2021
4114 Clear 3 1018 37 10000 3.13 313 10:25 04.01.2021
4115 Clear 3 1018 38 10000 5.1 320 09:51 04.01.2021
4116 Clear 4 1017 47 10000 4.6 310 09:19 04.01.2021
4117 Clear 4 1018 41 10000 0.89 358 08:42 04.01.2021
4118 Clouds 4 1016 41 10000 5.1 310 07:54 04.01.2021
4119 Clouds 4 1016 41 10000 5.1 310 07:27 04.01.2021
4120 Clouds 4 1014 41 10000 6.7 290 05:31 04.01.2021
4121 Clouds 7 1012 30 10000 6.2 290 02:45 04.01.2021
4122 Clouds 6 1009 26 10000 7.2 280 00:40 04.01.2021
4123 Clouds 9 1009 26 10000 3.6 320 23:48 03.01.2021
4124 Clouds 8 1008 23 10000 3.1 340 23:20 03.01.2021
4125 Clouds 10 1008 23 10000 3.1 340 22:51 03.01.2021
4126 Clouds 10 1008 23 10000 3.1 340 22:30 03.01.2021
4127 Clouds 11 1008 21 10000 3.1 260 21:48 03.01.2021
4128 Clouds 11 1008 21 10000 3.1 260 21:25 03.01.2021
4129 Clouds 11 1009 23 10000 1.1 171 20:44 03.01.2021
4130 Clouds 11 1009 23 10000 1.75 177 20:24 03.01.2021
4131 Clouds 9 1011 24 10000 2.6 170 19:55 03.01.2021
4132 Clouds 9 1011 24 10000 2.6 170 19:34 03.01.2021
4133 Clouds 7 1012 26 10000 2.1 240 18:54 03.01.2021
4134 Clouds 7 1012 26 10000 2.1 240 18:36 03.01.2021
4135 Clouds 4 1012 29 10000 2.6 200 17:57 03.01.2021
4136 Clouds 2 1012 29 10000 2.6 200 17:38 03.01.2021
4137 Clouds 1 1008 33 10000 2.67 204 17:18 03.01.2021
4138 Clouds 0 1012 39 10000 4.6 180 16:41 03.01.2021
4139 Clouds -1 1012 45 10000 3.6 210 16:19 03.01.2021
4140 Clouds -2 1012 45 10000 3.6 210 15:45 03.01.2021
4141 Clear -3 1012 49 10000 3.6 190 15:23 03.01.2021
4142 Clear -2 1012 49 10000 3.6 190 14:44 03.01.2021
4143 Clear -3 1012 49 10000 3.6 190 14:22 03.01.2021
4144 Clear -3 1012 53 10000 3.6 190 13:38 03.01.2021
4145 Clear -3 1013 49 10000 4.1 200 13:19 03.01.2021
4146 Clear -2 1013 46 10000 5.1 210 11:53 03.01.2021
4147 Clear -2 1013 46 10000 5.1 210 11:34 03.01.2021
4148 Clouds -2 1013 46 10000 5.1 240 10:58 03.01.2021
4149 Clouds -1 1013 46 10000 5.1 240 10:33 03.01.2021
4150 Clouds 0 1013 42 10000 4.6 210 09:52 03.01.2021
4151 Clouds -1 1013 42 10000 4.6 210 09:26 03.01.2021
4152 Clouds 0 1013 37 10000 4.6 270 08:31 03.01.2021
4153 Clouds 1 1014 34 10000 6.2 280 06:57 03.01.2021
4154 Clouds 4 1010 28 10000 1.34 295 03:29 03.01.2021
4155 Clouds 4 1013 37 10000 5.1 280 02:26 03.01.2021
4156 Clouds 5 1012 55 10000 4.1 340 00:27 03.01.2021
4157 Clouds 7 1010 16 10000 8.2 310 23:46 02.01.2021
4158 Clear 7 1011 26 10000 4.47 279 23:19 02.01.2021
4159 Clouds 7 1009 13 10000 3.1 300 22:47 02.01.2021
4160 Clouds 9 1009 13 10000 3.1 300 22:28 02.01.2021
4161 Clouds 10 1009 12 10000 3.1 230 21:47 02.01.2021
4162 Clouds 10 1009 12 10000 3.1 230 21:28 02.01.2021
4163 Clouds 8 1011 16 10000 3.6 210 20:45 02.01.2021
4164 Clouds 8 1011 16 10000 3.6 210 20:25 02.01.2021
4165 Clouds 7 1012 24 10000 4.1 220 19:44 02.01.2021
4166 Clouds 5 1013 32 10000 5.1 210 19:20 02.01.2021
4167 Clouds 5 1013 32 10000 5.1 210 19:20 02.01.2021
4168 Clouds 4 1013 32 10000 5.1 210 18:43 02.01.2021
4169 Clouds 3 1013 32 10000 5.1 210 18:25 02.01.2021
4170 Clear 1 1014 77 10000 4.6 200 17:46 02.01.2021
4171 Clear -1 1014 84 10000 4.6 200 17:26 02.01.2021
4172 Clear -2 1014 58 10000 3.6 180 16:41 02.01.2021
4173 Clear -4 1014 62 10000 4.1 190 16:20 02.01.2021
4174 Clear -4 1014 62 10000 4.1 190 15:43 02.01.2021
4175 Clear -4 1014 62 10000 4.1 190 15:25 02.01.2021
4176 Clear -4 1014 67 10000 3.6 180 14:37 02.01.2021
4177 Clear -4 1014 68 10000 4.6 200 14:18 02.01.2021
4178 Clear -3 1014 68 10000 4.6 200 13:39 02.01.2021
4179 Clear -3 1015 73 10000 4.6 190 12:54 02.01.2021
4180 Clear -3 1015 73 10000 4.6 190 12:54 02.01.2021
4181 Clear -3 1015 73 10000 4.6 190 12:32 02.01.2021
4182 Clear -3 1013 62 10000 1.21 220 11:49 02.01.2021
4183 Clear -3 1014 71 10000 1.29 215 11:22 02.01.2021
4184 Clear -3 1016 68 10000 4.1 190 10:52 02.01.2021
4185 Clear -3 1016 68 10000 4.1 190 10:30 02.01.2021
4186 Clear -3 1016 68 10000 4.1 210 09:54 02.01.2021
4187 Clear -3 1017 68 10000 4.1 200 09:28 02.01.2021
4188 Clear -3 1017 68 10000 4.1 200 08:50 02.01.2021
4189 Clear -3 1017 68 10000 4.1 200 08:28 02.01.2021
4190 Clear -3 1018 68 10000 5.1 190 07:49 02.01.2021
4191 Clear -3 1018 68 10000 5.1 190 07:22 02.01.2021
4192 Clear -3 1018 73 10000 4.6 190 06:46 02.01.2021
4193 Clouds -2 1019 68 10000 5.1 160 05:45 02.01.2021
4194 Clouds 4 1019 44 10000 4.1 140 00:59 02.01.2021
4195 Clouds 4 1019 44 10000 4.1 140 00:37 02.01.2021
4196 Clouds 4 1019 41 10000 1.5 80 23:57 01.01.2021
4197 Clouds 5 1019 41 10000 1.5 80 23:22 01.01.2021
4198 Clouds 5 1018 41 10000 2.1 50 22:48 01.01.2021
4199 Clouds 5 1018 41 10000 2.1 50 22:26 01.01.2021
4200 Clouds 4 1019 47 10000 0.63 140 21:44 01.01.2021
4201 Clouds 4 1019 47 10000 0.2 324 21:22 01.01.2021
4202 Clear 4 1023 46 10000 0.45 139 20:54 01.01.2021
4203 Clouds 3 1020 47 10000 1.5 340 20:23 01.01.2021
4204 Clear 3 1025 51 10000 0.45 152 19:59 01.01.2021
4205 Clouds 3 1021 55 10000 0.71 6 19:41 01.01.2021
4206 Clouds 2 1017 46 10000 0.78 16 19:20 01.01.2021
4207 Clear 1 1017 49 10000 1.17 25 18:42 01.01.2021
4208 Clouds 0 1022 68 10000 2.6 280 18:22 01.01.2021
4209 Clouds -1 1022 73 10000 1.5 220 17:43 01.01.2021
4210 Clouds -2 1022 73 10000 1.5 220 17:23 01.01.2021
4211 Clouds -3 1020 73 10000 1.5 260 16:45 01.01.2021
4212 Clouds -4 1020 73 10000 2.1 240 15:57 01.01.2021
4213 Clouds -4 1020 73 10000 2.1 240 15:39 01.01.2021
4214 Clouds -4 1019 73 10000 1.5 230 14:42 01.01.2021
4215 Clouds -4 1018 73 10000 2.1 210 14:21 01.01.2021
4216 Clouds -4 1018 73 10000 2.1 210 13:37 01.01.2021
4217 Clouds -4 1018 73 10000 1.5 210 12:51 01.01.2021
4218 Clouds -4 1018 73 10000 1.5 210 12:26 01.01.2021
4219 Clouds -4 1018 73 10000 2.1 220 11:40 01.01.2021
4220 Clouds -4 1018 73 10000 1.5 230 11:18 01.01.2021
4221 Clouds -4 1018 73 10000 1.5 230 10:56 01.01.2021
4222 Clouds -3 1018 73 10000 1.5 230 10:22 01.01.2021
4223 Clouds -3 1018 68 10000 0.86 140 09:24 01.01.2021
4224 Clouds -3 1018 63 10000 0.35 330 08:30 01.01.2021
4225 Clouds -1 1018 74 10000 1.33 24 06:42 01.01.2021
4226 Clouds 0 1017 68 10000 2.1 30 04:49 01.01.2021
4227 Clouds 2 1014 59 10000 3.1 330 01:42 01.01.2021
4228 Clouds 4 1013 44 10000 3.1 50 00:32 01.01.2021
4229 Clouds 4 1013 38 10000 2.6 30 23:40 31.12.2020
4230 Clear 5 1012 42 10000 0.89 84 23:20 31.12.2020
4231 Clouds 6 1012 35 10000 3.1 360 22:42 31.12.2020
4232 Clouds 6 1012 35 10000 3.1 360 22:22 31.12.2020
4233 Clear 6 1012 37 10000 0.45 125 21:56 31.12.2020
4234 Clouds 6 1012 35 10000 1.5 40 21:36 31.12.2020
4235 Clear 5 1011 41 10000 0.67 80 20:58 31.12.2020
4236 Clouds 5 1013 38 10000 1.5 290 20:27 31.12.2020
4237 Clouds 4 1013 40 10000 3.6 320 19:50 31.12.2020
4238 Clouds 4 1013 40 10000 3.6 320 19:32 31.12.2020
4239 Clouds 2 1013 37 10000 2.6 260 18:53 31.12.2020
4240 Clouds 2 1013 37 10000 2.6 260 18:25 31.12.2020
4241 Clouds 1 1013 58 10000 0.34 224 17:48 31.12.2020
4242 Clouds -1 1013 63 10000 1.5 170 17:28 31.12.2020
4243 Clouds -2 1022 59 10000 0.64 198 16:55 31.12.2020
4244 Clouds -3 1013 62 10000 1.5 340 16:37 31.12.2020
4245 Clouds -4 1012 62 10000 2.1 10 16:18 31.12.2020
4246 Clouds -3 1012 62 10000 2.1 10 15:42 31.12.2020
4247 Clouds -2 1012 54 10000 1.5 180 15:19 31.12.2020
4248 Clouds -2 1012 54 10000 1.5 180 14:41 31.12.2020
4249 Clouds -2 1012 58 10000 3.1 170 14:22 31.12.2020
4250 Clouds -3 1012 58 10000 3.1 170 13:57 31.12.2020
4251 Clouds -2 1012 58 10000 3.1 170 13:36 31.12.2020
4252 Clouds -3 1012 53 10000 1.39 192 13:18 31.12.2020
4253 Clouds -3 1012 53 10000 1.41 195 12:45 31.12.2020
4254 Clouds -3 1012 53 10000 1.6 188 12:27 31.12.2020
4255 Clouds -3 1012 58 10000 1.6 188 11:46 31.12.2020
4256 Clouds -3 1013 57 10000 1.28 188 11:28 31.12.2020
4257 Clouds -3 1013 57 10000 1.28 188 11:28 31.12.2020
4258 Clouds -3 1013 57 10000 1.28 188 11:28 31.12.2020
4259 Clouds -3 1013 57 10000 1.28 188 11:28 31.12.2020
4260 Clouds -3 1013 57 10000 1.28 188 11:28 31.12.2020
4261 Clouds -3 1013 57 10000 1.28 188 11:28 31.12.2020
4262 Clouds -3 1013 57 10000 1.28 188 11:28 31.12.2020
4263 Clouds -3 1013 57 10000 1.28 188 11:28 31.12.2020
4264 Clouds -3 1013 57 10000 1.28 188 11:28 31.12.2020
4265 Clouds -3 1013 57 10000 1.28 188 11:28 31.12.2020
4266 Clouds -3 1022 48 10000 0.77 185 10:41 31.12.2020
4267 Clouds -3 1012 54 10000 0.77 185 10:23 31.12.2020
4268 Clouds -2 1013 46 10000 3.6 190 09:47 31.12.2020
4269 Clouds -2 1013 46 10000 3.6 190 09:23 31.12.2020
4270 Clouds -2 1013 46 10000 4.1 190 08:46 31.12.2020
4271 Clouds -2 1013 46 10000 4.1 190 08:46 31.12.2020
4272 Clouds -2 1013 46 10000 4.1 190 08:28 31.12.2020
4273 Clouds -2 1014 46 10000 3.6 200 07:54 31.12.2020
4274 Clouds -2 1014 46 10000 5.1 180 06:57 31.12.2020
4275 Clear -2 1014 49 10000 4.6 190 05:30 31.12.2020
4276 Clear -2 1015 42 10000 4.6 180 03:25 31.12.2020
4277 Clouds -1 1015 54 10000 0.74 305 02:27 31.12.2020
4278 Clouds 0 1015 47 10000 0.74 305 01:54 31.12.2020
4279 Clouds 0 1015 47 10000 0.74 305 01:33 31.12.2020
4280 Clear 1 1011 34 10000 1.04 8 00:56 31.12.2020
4281 Clouds 3 1015 17 10000 0.35 62 00:26 31.12.2020
4282 Clouds 6 1015 16 10000 1.5 170 23:21 30.12.2020
4283 Clouds 6 1015 18 10000 1.5 120 22:59 30.12.2020
4284 Clouds 6 1015 18 10000 1.5 120 22:35 30.12.2020
4285 Clouds 6 1016 18 10000 1.05 156 21:52 30.12.2020
4286 Clouds 5 1016 18 10000 1.51 165 21:27 30.12.2020
4287 Clouds 4 1017 23 10000 3.1 220 20:53 30.12.2020
4288 Clouds 4 1017 23 10000 3.1 220 20:28 30.12.2020
4289 Clouds 3 1018 29 10000 4.1 200 19:58 30.12.2020
4290 Clouds 3 1018 29 10000 4.1 200 19:37 30.12.2020
4291 Clear 2 1026 35 10000 1.34 181 19:18 30.12.2020
4292 Clouds 0 1019 33 10000 4.6 200 18:38 30.12.2020
4293 Clouds -1 1019 33 10000 4.6 200 18:20 30.12.2020
4294 Clear -2 1015 28 10000 2.68 190 17:43 30.12.2020
4295 Clouds -4 1019 41 10000 5.1 190 17:24 30.12.2020
4296 Clear -5 1028 48 10000 0.89 171 16:43 30.12.2020
4297 Clear -7 1027 51 10000 0.89 159 15:51 30.12.2020
4298 Clear -7 1027 53 10000 0.89 154 15:30 30.12.2020
4299 Clouds -8 1018 66 10000 4.6 190 14:58 30.12.2020
4300 Clouds -8 1018 66 10000 4.6 190 14:39 30.12.2020
4301 Clear -8 1018 66 10000 5.1 200 14:18 30.12.2020
4302 Clear -8 1017 72 10000 5.7 190 13:18 30.12.2020
4303 Clear -8 1017 72 10000 5.7 190 12:26 30.12.2020
4304 Clear -8 1018 78 10000 4.1 180 11:44 30.12.2020
4305 Clear -8 1018 67 10000 3.1 190 11:22 30.12.2020
4306 Clear -8 1018 78 10000 4.6 170 10:57 30.12.2020
4307 Clear -8 1018 78 10000 4.6 170 10:37 30.12.2020
4308 Clear -8 1018 78 10000 3.6 180 10:18 30.12.2020
4309 Clear -8 1018 78 10000 3.6 180 09:41 30.12.2020
4310 Clear -8 1019 78 10000 3.6 180 08:35 30.12.2020
4311 Clear -7 1019 67 10000 4.1 160 07:46 30.12.2020
4312 Clear -7 1017 71 10000 2.75 150 07:21 30.12.2020
4313 Clear -6 1019 62 10000 2.6 130 06:38 30.12.2020
4314 Clear -5 1018 62 10000 4.1 130 05:47 30.12.2020
4315 Clouds -5 1019 69 10000 2.94 148 05:27 30.12.2020
4316 Clouds -4 1017 57 10000 2.1 70 03:29 30.12.2020
4317 Clouds -3 1016 58 10000 1.5 350 02:47 30.12.2020
4318 Clouds -3 1016 58 10000 1.5 350 02:28 30.12.2020
4319 Clouds -2 1021 65 10000 2.57 75 01:34 30.12.2020
4320 Clouds -2 1021 65 10000 2.57 75 01:34 30.12.2020
4321 Clouds -1 1014 86 10000 1.5 360 00:51 30.12.2020
4322 Clouds 0 1014 85 10000 1.5 360 00:32 30.12.2020
4323 Clouds 0 1012 80 10000 1.5 30 23:59 29.12.2020
4324 Clouds 1 1012 80 10000 1.5 30 23:40 29.12.2020
4325 Clouds 1 1012 79 10000 1.5 30 23:22 29.12.2020
4326 Clouds 1 1008 59 10000 1.5 74 22:44 29.12.2020
4327 Clouds 1 1008 61 10000 1.53 110 22:23 29.12.2020
4328 Clouds 1 1011 81 10000 1.5 360 21:50 29.12.2020
4329 Clouds 1 1011 84 10000 1.5 360 21:32 29.12.2020
4330 Clouds 0 1007 70 10000 2.04 105 20:54 29.12.2020
4331 Clouds 0 1016 72 10000 0.45 306 20:36 29.12.2020
4332 Clouds 0 1016 76 10000 2.34 94 20:18 29.12.2020
4333 Clouds 0 1016 82 10000 0.89 200 19:37 29.12.2020
4334 Mist -1 1011 100 6437 2.1 360 19:19 29.12.2020
4335 Clouds -1 1007 77 10000 1.66 106 18:44 29.12.2020
4336 Mist -2 1011 100 4828 2.1 340 18:24 29.12.2020
4337 Mist -3 1010 92 3219 5.1 340 17:44 29.12.2020
4338 Mist -3 1009 92 2816 3.6 340 17:20 29.12.2020
4339 Clouds -4 1005 87 10000 2.62 322 16:37 29.12.2020
4340 Clear -5 1004 87 10000 4.15 350 15:59 29.12.2020
4341 Clouds -5 1006 100 10000 3.1 330 15:37 29.12.2020
4342 Mist -4 1006 100 8047 4.1 200 14:59 29.12.2020
4343 Mist -4 1006 100 2816 5.1 160 14:36 29.12.2020
4344 Mist -4 1007 100 4828 1.5 250 14:18 29.12.2020
4345 Mist -3 1007 100 4828 1.5 250 13:39 29.12.2020
4346 Snow -3 1007 100 2414 3.6 270 13:18 29.12.2020
4347 Clouds -3 1012 91 10000 2.43 183 12:37 29.12.2020
4348 Clouds -3 1013 92 10000 2.4 207 12:19 29.12.2020
4349 Clouds -3 1003 87 10000 2.4 207 11:52 29.12.2020
4350 Snow -3 1004 87 10000 0.45 26 11:31 29.12.2020
4351 Clouds -3 1007 79 10000 6.2 180 10:27 29.12.2020
4352 Clouds -3 1008 86 10000 7.7 180 09:48 29.12.2020
4353 Clouds -3 1008 86 10000 7.7 180 09:20 29.12.2020
4354 Clouds -3 1008 86 10000 7.7 180 09:20 29.12.2020
4355 Snow -3 1005 86 10000 1.17 176 08:53 29.12.2020
4356 Clouds -3 1005 86 10000 0.6 102 08:22 29.12.2020
4357 Snow -3 1011 100 4828 2.1 100 07:26 29.12.2020
4358 Mist -3 1012 100 1609 2.1 300 06:27 29.12.2020
4359 Snow -2 1013 100 2414 2.1 310 04:49 29.12.2020
4360 Clouds -2 1016 92 10000 2.28 6 00:49 29.12.2020
4361 Clouds -2 1016 92 10000 1.6 16 00:20 29.12.2020
4362 Snow -2 1017 92 10000 2.1 120 23:34 28.12.2020
4363 Clouds -1 1018 92 10000 1.5 30 22:28 28.12.2020
4364 Snow -1 1019 92 10000 1.5 60 21:45 28.12.2020
4365 Snow -1 1019 92 10000 1.5 60 21:26 28.12.2020
4366 Mist -1 1019 92 8047 2.6 40 20:43 28.12.2020
4367 Snow -2 1019 92 8047 2.6 40 20:22 28.12.2020
4368 Snow -2 1021 92 6437 2.1 30 19:49 28.12.2020
4369 Snow -2 1021 92 6437 2.1 30 19:24 28.12.2020
4370 Snow -2 1021 86 3219 3.1 60 18:53 28.12.2020
4371 Snow -2 1021 86 3219 3.1 60 18:28 28.12.2020
4372 Clouds -1 1018 67 8144 1.68 3 17:46 28.12.2020
4373 Clouds -1 1017 65 6857 0.45 22 17:26 28.12.2020
4374 Clouds -1 1017 65 6857 1.87 13 16:46 28.12.2020
4375 Clouds -2 1021 86 10000 1.5 100 16:26 28.12.2020
4376 Clouds -2 1021 86 10000 2.1 40 15:52 28.12.2020
4377 Clouds -2 1021 86 10000 1.73 4 15:26 28.12.2020
4378 Clouds -2 1021 86 10000 0.98 20 14:23 28.12.2020
4379 Clouds -2 1020 86 10000 0.98 20 13:36 28.12.2020
4380 Clouds -2 1021 86 10000 2.1 110 12:57 28.12.2020
4381 Clouds -2 1017 68 10000 2.58 355 12:24 28.12.2020
4382 Clouds -2 1017 69 10000 2.58 355 11:47 28.12.2020
4383 Clouds -2 1023 74 10000 2.58 355 11:47 28.12.2020
4384 Clouds -2 1017 69 10000 2.51 3 11:26 28.12.2020
4385 Clouds -2 1020 86 10000 4.1 90 10:52 28.12.2020
4386 Clouds -2 1020 86 10000 4.1 90 10:28 28.12.2020
4387 Clouds -1 1020 74 10000 5.7 80 09:49 28.12.2020
4388 Clouds -1 1020 74 10000 5.7 80 09:21 28.12.2020
4389 Clouds -1 1016 52 10000 2.64 343 08:55 28.12.2020
4390 Clouds 0 1019 47 10000 3.1 160 06:51 28.12.2020
4391 Clouds 2 1018 37 10000 2.1 270 04:44 28.12.2020
4392 Clouds 3 1017 34 10000 4.1 310 02:59 28.12.2020
4393 Clouds 4 1016 25 10000 4.1 310 01:46 28.12.2020
4394 Clouds 6 1015 22 10000 5.7 300 23:50 27.12.2020
4395 Clouds 7 1014 22 10000 4.1 320 23:20 27.12.2020
4396 Clouds 7 1015 24 10000 3.1 310 21:59 27.12.2020
4397 Clouds 7 1015 24 10000 3.1 310 21:27 27.12.2020
4398 Clouds 7 1015 24 10000 2.1 290 20:53 27.12.2020
4399 Clear 7 1014 26 10000 0.89 26 19:49 27.12.2020
4400 Clouds 6 1016 27 10000 2.1 190 19:23 27.12.2020
4401 Clouds 6 1016 35 10000 3.1 130 18:47 27.12.2020
4402 Clouds 5 1016 35 10000 3.1 130 18:20 27.12.2020
4403 Clouds 5 1015 28 10000 0.89 316 17:52 27.12.2020
4404 Clouds 4 1016 37 10000 2.1 70 17:34 27.12.2020
4405 Clouds 3 1011 25 10000 2.09 64 16:54 27.12.2020
4406 Clouds 2 1011 27 10000 2.96 292 16:20 27.12.2020
4407 Clouds 2 1012 40 10000 5.1 280 15:21 27.12.2020
4408 Clouds 2 1012 40 10000 5.1 280 14:42 27.12.2020
4409 Clouds 2 1012 40 10000 7.2 270 14:22 27.12.2020
4410 Clouds 3 1012 40 10000 7.2 270 13:23 27.12.2020
4411 Clouds 3 1012 44 10000 8.7 280 12:49 27.12.2020
4412 Clouds 3 1012 44 10000 8.7 280 12:22 27.12.2020
4413 Clouds 4 1011 47 10000 6.7 280 11:39 27.12.2020
4414 Clouds 4 1011 38 10000 7.2 280 10:52 27.12.2020
4415 Clouds 4 1011 38 10000 7.2 280 10:26 27.12.2020
4416 Clouds 4 1010 44 10000 5.1 290 09:56 27.12.2020
4417 Clear 4 1010 44 10000 0.45 277 08:50 27.12.2020
4418 Clouds 5 1010 44 10000 4.1 300 08:26 27.12.2020
4419 Clear 5 1006 34 10000 0.89 286 07:27 27.12.2020
4420 Clouds 5 1008 30 10000 3.1 300 05:46 27.12.2020
4421 Clouds 4 1007 30 10000 2.1 60 04:32 27.12.2020
4422 Clouds 6 1007 35 10000 4.6 350 03:21 27.12.2020
4423 Clouds 9 1006 24 10000 4.1 90 01:35 27.12.2020
4424 Clouds 14 1007 17 10000 2.6 100 00:24 27.12.2020
4425 Clouds 16 1007 13 10000 3.1 110 23:40 26.12.2020
4426 Clouds 15 1008 12 10000 2.1 90 23:19 26.12.2020
4427 Clouds 15 1008 12 10000 2.1 90 22:36 26.12.2020
4428 Clouds 15 1008 13 10000 2.1 140 22:18 26.12.2020
4429 Clouds 15 1008 12 10000 2.6 140 21:48 26.12.2020
4430 Clouds 15 1009 11 10000 2.1 60 21:24 26.12.2020
4431 Clouds 14 1011 11 10000 0.31 231 20:43 26.12.2020
4432 Clouds 14 1011 11 10000 1.16 168 20:19 26.12.2020
4433 Clouds 12 1012 14 10000 2.1 250 19:29 26.12.2020
4434 Clouds 11 1013 17 10000 4.1 190 18:53 26.12.2020
4435 Clouds 11 1013 17 10000 4.1 190 18:32 26.12.2020
4436 Clouds 7 1013 26 10000 5.7 180 17:44 26.12.2020
4437 Clouds 5 1013 26 10000 5.7 180 17:26 26.12.2020
4438 Clouds 3 1013 25 10000 4.1 200 16:37 26.12.2020
4439 Clear 2 1013 32 10000 4.1 190 15:52 26.12.2020
4440 Clouds 2 1013 29 10000 3.6 180 15:19 26.12.2020
4441 Clouds 2 1013 29 10000 3.6 180 14:29 26.12.2020
4442 Clouds 2 1013 34 10000 5.7 180 13:54 26.12.2020
4443 Clouds 2 1013 34 10000 5.7 180 13:32 26.12.2020
4444 Clouds 1 1014 31 10000 5.1 200 12:50 26.12.2020
4445 Clouds 1 1014 31 10000 5.1 200 12:30 26.12.2020
4446 Clouds 1 1014 37 10000 5.1 190 11:51 26.12.2020
4447 Clouds 1 1014 37 10000 5.1 190 11:24 26.12.2020
4448 Clouds 1 1013 34 10000 4.1 200 10:55 26.12.2020
4449 Clouds 2 1013 34 10000 4.1 200 10:28 26.12.2020
4450 Clouds 2 1013 37 10000 6.2 180 09:55 26.12.2020
4451 Clouds 2 1013 37 10000 6.2 180 09:32 26.12.2020
4452 Clouds 2 1015 43 10000 5.1 170 08:39 26.12.2020
4453 Clouds 2 1016 37 10000 5.1 190 08:18 26.12.2020
4454 Clouds 2 1016 37 10000 5.1 190 07:20 26.12.2020
4455 Clouds 3 1016 35 10000 3.6 190 03:53 26.12.2020
4456 Clouds 5 1016 26 10000 3.6 160 02:24 26.12.2020
4457 Clouds 13 1017 17 10000 3.1 130 00:28 26.12.2020
4458 Clouds 15 1017 12 10000 2.6 120 23:43 25.12.2020
4459 Clouds 15 1017 12 10000 2.6 120 23:25 25.12.2020
4460 Clouds 15 1017 12 10000 2.1 120 22:50 25.12.2020
4461 Clouds 15 1017 12 10000 2.1 120 22:23 25.12.2020
4462 Clouds 14 1018 12 10000 1.5 190 21:37 25.12.2020
4463 Clouds 13 1019 17 10000 3.1 240 21:19 25.12.2020
4464 Clouds 13 1019 17 10000 3.1 240 20:38 25.12.2020
4465 Clouds 12 1020 20 10000 4.1 220 19:52 25.12.2020
4466 Clouds 10 1020 20 10000 4.1 220 19:33 25.12.2020
4467 Clouds 8 1021 24 10000 5.7 210 18:39 25.12.2020
4468 Clouds 6 1021 27 10000 5.1 200 17:57 25.12.2020
4469 Clouds 5 1021 27 10000 5.1 200 17:34 25.12.2020
4470 Clear 2 1020 37 10000 5.7 200 16:48 25.12.2020
4471 Clear 1 1020 69 10000 6.2 190 16:20 25.12.2020
4472 Clear 1 1020 69 10000 6.2 190 15:39 25.12.2020
4473 Clear 0 1021 70 10000 5.1 200 15:21 25.12.2020
4474 Clear 1 1021 70 10000 5.1 200 14:30 25.12.2020
4475 Clear 1 1021 43 10000 6.2 200 13:46 25.12.2020
4476 Clear 1 1021 72 10000 5.1 200 13:26 25.12.2020
4477 Clear 1 1021 72 10000 5.1 200 12:47 25.12.2020
4478 Clear 1 1021 73 10000 5.1 200 12:25 25.12.2020
4479 Clear 0 1021 54 10000 4.1 190 11:46 25.12.2020
4480 Clear 0 1022 74 10000 4.1 180 11:21 25.12.2020
4481 Clear 0 1022 73 10000 4.1 180 10:32 25.12.2020
4482 Clear 0 1022 54 10000 4.1 180 09:49 25.12.2020
4483 Clear 0 1023 74 10000 4.1 180 08:49 25.12.2020
4484 Clear 0 1023 74 10000 4.1 180 08:28 25.12.2020
4485 Clear 0 1024 73 10000 5.1 180 06:48 25.12.2020
4486 Clear 1 1024 47 10000 4.6 190 05:24 25.12.2020
4487 Clouds 4 1023 28 10000 1.95 245 02:19 25.12.2020
4488 Clouds 10 1022 21 10000 4.6 20 00:19 25.12.2020
4489 Clear 10 1023 17 10000 6.2 270 23:29 24.12.2020
4490 Clouds 11 1022 20 10000 4.6 20 22:53 24.12.2020
4491 Clouds 11 1022 20 10000 4.6 20 22:23 24.12.2020
4492 Clouds 10 1022 19 10000 3.1 300 21:42 24.12.2020
4493 Clouds 10 1022 19 10000 5.1 270 20:48 24.12.2020
4494 Clouds 7 1023 20 10000 5.7 300 19:20 24.12.2020
4495 Clouds 3 1022 29 10000 3.1 230 18:21 24.12.2020
4496 Clouds 3 1022 29 10000 3.1 230 17:37 24.12.2020
4497 Clouds 0 1021 33 10000 3.6 220 16:59 24.12.2020
4498 Clouds -1 1021 28 10000 5.7 260 16:24 24.12.2020
4499 Clouds -1 1021 28 10000 5.7 260 15:43 24.12.2020
4500 Clouds -1 1021 28 10000 5.7 260 15:21 24.12.2020
4501 Clouds -2 1020 65 10000 12.3 270 14:55 24.12.2020
4502 Clouds -2 1021 30 10000 4.6 240 14:24 24.12.2020
4503 Clouds -2 1020 30 10000 5.7 270 13:48 24.12.2020
4504 Clouds -3 1020 30 10000 5.7 270 13:30 24.12.2020
4505 Clouds -2 1020 32 10000 6.7 280 12:45 24.12.2020
4506 Clouds -2 1020 32 10000 6.7 280 12:21 24.12.2020
4507 Clouds -3 1028 32 10000 0.45 337 11:47 24.12.2020
4508 Clouds -3 1020 35 10000 4.6 290 11:21 24.12.2020
4509 Clouds -3 1027 29 10000 1.34 326 10:56 24.12.2020
4510 Clouds -3 1027 28 10000 0.45 328 10:38 24.12.2020
4511 Clouds -3 1027 28 10000 1.34 339 09:53 24.12.2020
4512 Clouds -3 1019 34 10000 5.1 240 09:30 24.12.2020
4513 Clouds -4 1020 41 10000 4.6 230 08:43 24.12.2020
4514 Clouds -4 1016 23 10000 2.56 227 07:43 24.12.2020
4515 Clouds -4 1016 24 10000 2.46 236 07:20 24.12.2020
4516 Clouds -5 1028 32 10000 0.89 303 05:49 24.12.2020
4517 Clouds -5 1017 27 10000 3.25 325 02:26 24.12.2020
4518 Clouds -5 1017 28 10000 3.25 325 01:43 24.12.2020
4519 Clouds -5 1021 29 10000 6.7 350 01:18 24.12.2020
4520 Clouds -3 1020 38 10000 4.6 340 00:22 24.12.2020
4521 Clouds -3 1020 38 10000 4.6 340 23:49 23.12.2020
4522 Clouds -3 1020 38 10000 4.6 340 23:49 23.12.2020
4523 Clouds -3 1020 38 10000 4.6 340 23:30 23.12.2020
4524 Clouds -2 1016 20 10000 6.11 332 22:57 23.12.2020
4525 Clouds -2 1015 21 10000 6.11 332 22:33 23.12.2020
4526 Clouds -2 1015 31 10000 6.83 346 21:57 23.12.2020
4527 Clouds -3 1015 34 10000 8.02 358 21:28 23.12.2020
4528 Clouds -3 1020 41 10000 7.2 10 20:56 23.12.2020
4529 Clouds -4 1020 41 10000 7.2 10 20:37 23.12.2020
4530 Clouds -3 1016 37 10000 5.02 339 20:19 23.12.2020
4531 Clouds -4 1020 49 10000 8.7 30 19:39 23.12.2020
4532 Clouds -4 1019 45 10000 11.8 20 19:20 23.12.2020
4533 Clouds -4 1019 45 10000 11.8 20 18:49 23.12.2020
4534 Clouds -4 1019 45 10000 11.8 20 18:29 23.12.2020
4535 Clouds -4 1016 36 10000 0.45 26 17:41 23.12.2020
4536 Clouds -4 1015 36 10000 5.7 355 17:22 23.12.2020
4537 Clouds -4 1015 36 10000 5.7 355 17:22 23.12.2020
4538 Clouds -5 1017 53 10000 9.8 10 16:49 23.12.2020
4539 Clouds -5 1017 53 10000 9.8 10 16:29 23.12.2020
4540 Clear -5 1014 37 10000 4.73 349 15:58 23.12.2020
4541 Clear -5 1019 36 10000 4.73 349 15:37 23.12.2020
4542 Clouds -5 1015 48 10000 7.2 350 15:19 23.12.2020
4543 Clear -4 1012 27 10000 4.35 350 14:40 23.12.2020
4544 Clear -4 1012 27 10000 4.97 357 14:21 23.12.2020
4545 Clouds -4 1014 49 10000 8.7 340 13:44 23.12.2020
4546 Clouds -3 1012 41 10000 6.2 300 13:20 23.12.2020
4547 Clouds -3 1012 41 10000 6.2 300 12:54 23.12.2020
4548 Clouds -3 1012 41 10000 6.2 300 12:30 23.12.2020
4549 Clear -3 1011 35 10000 6.2 280 11:54 23.12.2020
4550 Clear -3 1011 35 10000 6.2 280 11:27 23.12.2020
4551 Clear -3 1010 32 10000 7.2 290 10:52 23.12.2020
4552 Clear -3 1010 32 10000 7.2 290 10:33 23.12.2020
4553 Clear -2 1009 30 10000 7.7 290 09:37 23.12.2020
4554 Clear -2 1007 26 10000 7.2 300 08:52 23.12.2020
4555 Clear -1 1007 26 10000 7.2 300 08:23 23.12.2020
4556 Clear -1 1006 66 10000 8.7 310 07:43 23.12.2020
4557 Clouds 0 1004 31 10000 6.2 280 06:42 23.12.2020
4558 Clear 0 1000 25 10000 4.02 288 05:55 23.12.2020
4559 Clouds 2 999 26 10000 3.58 291 05:20 23.12.2020
4560 Clouds 10 998 25 10000 7.7 210 01:38 23.12.2020
4561 Clouds 12 999 22 10000 4.6 220 00:32 23.12.2020
4562 Clouds 15 999 19 10000 9.3 220 23:39 22.12.2020
4563 Clouds 16 999 19 10000 9.3 220 23:21 22.12.2020
4564 Clouds 16 1000 19 10000 8.7 210 22:42 22.12.2020
4565 Clouds 16 1001 19 10000 7.2 190 22:22 22.12.2020
4566 Clouds 16 1001 19 10000 7.2 190 21:48 22.12.2020
4567 Clouds 14 1003 22 10000 7.7 190 21:20 22.12.2020
4568 Clouds 14 1003 22 10000 7.7 190 20:51 22.12.2020
4569 Clouds 14 1003 22 10000 7.7 190 20:31 22.12.2020
4570 Clouds 13 1004 22 10000 7.2 200 19:52 22.12.2020
4571 Clouds 13 1004 22 10000 7.2 200 19:28 22.12.2020
4572 Clouds 11 1006 29 10000 5.1 200 18:58 22.12.2020
4573 Clouds 11 1006 29 10000 5.1 200 18:38 22.12.2020
4574 Clouds 9 1007 42 10000 6.2 190 18:19 22.12.2020
4575 Clouds 6 1007 42 10000 6.2 190 17:36 22.12.2020
4576 Clouds 5 1008 41 10000 5.7 200 17:18 22.12.2020
4577 Clouds 5 1008 41 10000 5.7 200 16:46 22.12.2020
4578 Clouds 3 1009 51 10000 5.7 200 16:21 22.12.2020
4579 Clouds 3 1009 51 10000 5.7 200 15:45 22.12.2020
4580 Clouds 3 1009 51 10000 5.7 200 15:27 22.12.2020
4581 Clouds 3 1010 55 10000 5.1 190 14:56 22.12.2020
4582 Clouds 3 1010 55 10000 5.1 190 14:37 22.12.2020
4583 Clear 2 1011 55 10000 5.1 180 14:18 22.12.2020
4584 Clear 2 1011 55 10000 5.1 180 13:42 22.12.2020
4585 Clear 2 1012 55 10000 4.1 200 13:18 22.12.2020
4586 Clear 2 1012 55 10000 4.1 200 12:43 22.12.2020
4587 Clear 2 1012 55 10000 4.1 200 12:25 22.12.2020
4588 Clear 2 1013 51 10000 5.1 220 11:56 22.12.2020
4589 Clear 3 1013 51 10000 5.1 220 11:38 22.12.2020
4590 Clear 3 1014 55 10000 6.7 180 11:19 22.12.2020
4591 Clear 2 1014 55 10000 6.7 180 10:46 22.12.2020
4592 Clear 2 1015 64 10000 5.7 190 10:23 22.12.2020
4593 Clear 2 1015 64 10000 5.7 190 09:55 22.12.2020
4594 Clear 2 1016 60 10000 4.6 190 09:21 22.12.2020
4595 Clear 3 1016 60 10000 4.6 190 08:48 22.12.2020
4596 Clear 3 1016 60 10000 4.6 190 08:27 22.12.2020
4597 Clear 3 1017 60 10000 5.1 180 07:47 22.12.2020
4598 Clear 3 1017 60 10000 5.1 190 06:38 22.12.2020
4599 Clear 3 1018 60 10000 4.6 190 05:39 22.12.2020
4600 Clouds 6 1019 56 10000 5.7 140 02:39 22.12.2020
4601 Clouds 12 1018 34 10000 0.94 225 00:44 22.12.2020
4602 Clouds 13 1018 33 10000 2.6 310 23:52 21.12.2020
4603 Clouds 13 1018 33 10000 2.6 310 23:24 21.12.2020
4604 Clouds 13 1018 35 10000 4.6 280 22:38 21.12.2020
4605 Clouds 12 1018 34 10000 4.1 320 22:19 21.12.2020
4606 Clouds 12 1019 40 10000 6.2 280 21:49 21.12.2020
4607 Clouds 12 1019 40 10000 6.2 280 21:30 21.12.2020
4608 Clouds 11 1020 43 10000 3.6 250 20:46 21.12.2020
4609 Clouds 11 1020 43 10000 3.6 250 20:25 21.12.2020
4610 Clouds 9 1020 52 10000 3.6 220 19:55 21.12.2020
4611 Clouds 10 1020 52 10000 3.6 220 19:37 21.12.2020
4612 Clouds 8 1020 52 10000 3.6 220 19:18 21.12.2020
4613 Clouds 8 1020 52 10000 3.6 220 19:18 21.12.2020
4614 Clouds 8 1021 52 10000 5.1 230 18:49 21.12.2020
4615 Clouds 6 1021 52 10000 5.1 230 18:31 21.12.2020
4616 Clouds 7 1020 56 10000 5.1 210 17:43 21.12.2020
4617 Clouds 5 1020 56 10000 5.1 210 17:24 21.12.2020
4618 Clouds 4 1020 55 10000 1.5 200 16:46 21.12.2020
4619 Clouds 3 1019 64 10000 4.1 190 16:25 21.12.2020
4620 Clouds 3 1019 64 10000 4.1 190 15:45 21.12.2020
4621 Clouds 3 1019 64 10000 4.1 190 15:26 21.12.2020
4622 Clouds 3 1019 60 10000 3.1 220 14:56 21.12.2020
4623 Clouds 3 1019 60 10000 3.1 220 14:56 21.12.2020
4624 Clouds 2 1015 55 10000 4.13 230 14:20 21.12.2020
4625 Clouds 3 1024 77 10000 4.13 230 13:42 21.12.2020
4626 Clouds 2 1018 62 10000 3.92 208 13:22 21.12.2020
4627 Clouds 2 1022 70 10000 3.92 208 12:43 21.12.2020
4628 Clouds 2 1018 61 10000 0.45 294 12:24 21.12.2020
4629 Clouds 2 1018 67 10000 3.29 208 11:43 21.12.2020
4630 Clear 2 1013 70 10000 3.08 201 11:23 21.12.2020
4631 Clear 2 1020 70 10000 0.45 161 10:58 21.12.2020
4632 Clear 2 1020 68 10000 0.45 191 10:40 21.12.2020
4633 Clouds 4 1017 45 10000 1.5 0 10:18 21.12.2020
4634 Clouds 7 1017 45 10000 1.5 0 09:42 21.12.2020
4635 Clouds 7 1017 45 10000 1.5 0 09:24 21.12.2020
4636 Clouds 8 1017 42 10000 4.6 270 08:47 21.12.2020
4637 Clouds 8 1017 49 10000 5.7 290 07:37 21.12.2020
4638 Clouds 9 1017 42 10000 7.2 280 06:21 21.12.2020
4639 Clouds 10 1016 39 10000 3.1 220 04:31 21.12.2020
4640 Clouds 10 1014 39 10000 7.7 280 00:51 21.12.2020
4641 Clouds 10 1014 39 10000 7.7 280 00:30 21.12.2020
4642 Clouds 11 1013 34 10000 9.8 270 23:24 20.12.2020
4643 Clouds 10 1013 34 10000 2.6 280 22:56 20.12.2020
4644 Clouds 10 1013 34 10000 2.6 280 22:38 20.12.2020
4645 Clouds 10 1013 34 10000 5.7 260 22:19 20.12.2020
4646 Clouds 10 1013 34 10000 5.7 260 21:39 20.12.2020
4647 Clouds 9 1014 33 10000 4.1 230 21:20 20.12.2020
4648 Clouds 9 1014 33 10000 4.1 230 20:47 20.12.2020
4649 Clouds 8 1014 33 10000 4.1 230 20:22 20.12.2020
4650 Clouds 6 1015 35 10000 6.2 220 19:45 20.12.2020
4651 Clouds 5 1015 35 10000 6.2 220 19:24 20.12.2020
4652 Clouds 4 1016 41 10000 3.6 190 18:56 20.12.2020
4653 Clouds 4 1016 41 10000 3.6 190 18:37 20.12.2020
4654 Clouds 3 1016 43 10000 4.1 190 17:57 20.12.2020
4655 Clouds 1 1016 43 10000 4.1 190 17:39 20.12.2020
4656 Clouds 0 1016 50 10000 6.7 190 17:18 20.12.2020
4657 Clouds 0 1016 50 10000 6.7 190 16:44 20.12.2020
4658 Clouds -2 1017 46 10000 4.6 190 16:24 20.12.2020
4659 Clouds -2 1017 46 10000 4.6 190 15:41 20.12.2020
4660 Clouds -3 1017 46 10000 4.6 190 15:22 20.12.2020
4661 Clouds -3 1018 49 10000 4.1 190 14:48 20.12.2020
4662 Clouds -3 1018 49 10000 4.1 190 14:29 20.12.2020
4663 Clouds -3 1019 53 10000 5.1 180 13:44 20.12.2020
4664 Clouds -3 1019 53 10000 5.1 180 13:23 20.12.2020
4665 Clear -3 1020 53 10000 5.1 180 12:51 20.12.2020
4666 Clear -4 1020 57 10000 4.6 180 12:26 20.12.2020
4667 Clear -4 1020 57 10000 4.6 180 11:52 20.12.2020
4668 Clear -4 1020 57 10000 4.6 180 11:28 20.12.2020
4669 Clear -4 1021 49 10000 2.6 190 10:50 20.12.2020
4670 Clear -3 1021 46 10000 2.6 230 10:22 20.12.2020
4671 Clear -3 1021 46 10000 2.6 230 09:57 20.12.2020
4672 Clear -3 1021 46 10000 2.6 230 09:37 20.12.2020
4673 Clear -2 1021 89 10000 3.6 280 09:19 20.12.2020
4674 Clear -3 1026 55 10000 0.45 216 08:48 20.12.2020
4675 Clear -2 1025 60 10000 2.3 207 08:29 20.12.2020
4676 Clouds -2 1021 90 10000 3.6 260 07:22 20.12.2020
4677 Clouds 2 1020 40 10000 7.2 310 04:42 20.12.2020
4678 Clouds 4 1017 38 10000 9.8 300 01:30 20.12.2020
4679 Clouds 6 1015 35 10000 9.3 310 00:20 20.12.2020
4680 Clouds 7 1015 33 10000 11.3 300 23:18 19.12.2020
4681 Clouds 7 1015 33 10000 11.3 300 22:44 19.12.2020
4682 Clouds 7 1015 33 10000 11.3 300 22:25 19.12.2020
4683 Clouds 6 1015 38 10000 2.1 290 21:58 19.12.2020
4684 Clouds 6 1015 38 10000 2.1 290 21:58 19.12.2020
4685 Clouds 6 1015 38 10000 2.1 290 21:39 19.12.2020
4686 Clouds 6 1015 38 10000 2.1 290 21:21 19.12.2020
4687 Clouds 5 1015 41 10000 1.5 280 20:39 19.12.2020
4688 Clouds 5 1016 32 10000 2.6 210 20:18 19.12.2020
4689 Clouds 4 1016 32 10000 2.6 210 19:49 19.12.2020
4690 Clouds 3 1016 32 10000 2.6 210 19:24 19.12.2020
4691 Clouds 3 1017 40 10000 3.6 190 18:34 19.12.2020
4692 Clear 1 1015 51 10000 0.45 42 17:58 19.12.2020
4693 Clouds 0 1017 50 10000 5.1 190 17:40 19.12.2020
4694 Clear -2 1016 58 10000 2.03 199 17:20 19.12.2020
4695 Clouds -3 1016 57 10000 4.6 180 16:42 19.12.2020
4696 Clouds -5 1016 57 10000 4.6 180 16:24 19.12.2020
4697 Clear -5 1017 62 10000 5.1 200 15:54 19.12.2020
4698 Clear -6 1017 62 10000 5.1 200 15:30 19.12.2020
4699 Clear -6 1017 67 10000 4.1 190 14:40 19.12.2020
4700 Clear -6 1017 73 10000 4.6 190 13:59 19.12.2020
4701 Clear -6 1017 73 10000 4.6 190 13:41 19.12.2020
4702 Clear -6 1018 73 10000 3.6 200 13:19 19.12.2020
4703 Clear -6 1018 73 10000 3.6 200 12:42 19.12.2020
4704 Clear -6 1018 79 10000 3.6 190 12:24 19.12.2020
4705 Clear -6 1018 79 10000 3.6 190 11:56 19.12.2020
4706 Clear -6 1018 79 10000 3.6 190 11:35 19.12.2020
4707 Clear -6 1019 79 10000 4.1 190 10:42 19.12.2020
4708 Clear -6 1017 74 10000 1.84 215 10:20 19.12.2020
4709 Clear -6 1028 72 10000 1.84 215 09:42 19.12.2020
4710 Clear -6 1077 73 10000 2.24 128 08:59 19.12.2020
4711 Clouds -5 1018 73 10000 0.45 193 08:23 19.12.2020
4712 Clear -5 1019 79 10000 2.21 192 07:22 19.12.2020
4713 Clouds -4 1030 73 10000 0.45 129 06:51 19.12.2020
4714 Clouds -4 1017 72 10000 2.78 174 05:25 19.12.2020
4715 Clouds -3 1017 78 10000 2.23 184 03:55 19.12.2020
4716 Clouds -1 1021 96 10000 1.69 224 01:21 19.12.2020
4717 Clouds 1 1020 94 10000 1.81 199 00:36 19.12.2020
4718 Clouds 1 1019 69 10000 1.5 330 00:18 19.12.2020
4719 Clouds 2 1019 69 10000 1.5 330 23:44 18.12.2020
4720 Clouds 2 1024 65 10000 0.68 63 23:21 18.12.2020
4721 Clouds 2 1015 60 10000 2.08 20 22:43 18.12.2020
4722 Clouds 2 1023 68 10000 0.45 85 22:20 18.12.2020
4723 Snow 1 1018 83 4828 7.7 360 21:47 18.12.2020
4724 Snow 1 1018 79 4828 5.7 350 21:28 18.12.2020
4725 Snow 1 1018 79 4828 5.7 350 20:38 18.12.2020
4726 Snow 1 1018 80 2012 7.7 360 20:19 18.12.2020
4727 Snow 0 1018 74 10000 9.3 10 19:41 18.12.2020
4728 Snow 1 1017 69 10000 3.6 20 18:57 18.12.2020
4729 Snow 1 1017 69 10000 3.6 20 18:38 18.12.2020
4730 Snow 1 1016 64 10000 3.6 30 18:20 18.12.2020
4731 Snow 1 1016 64 10000 3.6 30 17:22 18.12.2020
4732 Clouds 0 1013 90 10000 2.6 50 16:49 18.12.2020
4733 Clouds -1 1013 89 10000 2.6 50 16:27 18.12.2020
4734 Clouds -1 1012 58 10000 1.52 204 15:56 18.12.2020
4735 Clouds -1 1009 61 10000 1.52 204 15:38 18.12.2020
4736 Clouds -2 1008 61 10000 1.68 196 15:20 18.12.2020
4737 Clouds -2 1007 60 10000 1.68 196 14:54 18.12.2020
4738 Clouds -2 1008 90 10000 4.1 180 14:21 18.12.2020
4739 Clouds -1 1008 90 10000 4.1 180 13:46 18.12.2020
4740 Clouds -2 1008 89 10000 4.1 180 13:24 18.12.2020
4741 Clouds -1 1008 54 10000 3.6 180 12:46 18.12.2020
4742 Clouds -2 1008 50 10000 4.1 190 11:45 18.12.2020
4743 Clear -2 1010 63 10000 2.2 201 11:22 18.12.2020
4744 Clouds -1 1007 40 10000 3.1 200 10:39 18.12.2020
4745 Clear -1 1004 54 10000 0.45 68 10:20 18.12.2020
4746 Clear -1 1006 52 10000 0.45 300 10:20 18.12.2020
4747 Clear -1 1003 55 10000 2.07 206 09:38 18.12.2020
4748 Clouds -1 1006 43 10000 3.1 200 09:20 18.12.2020
4749 Clouds -1 1006 43 10000 3.1 200 08:53 18.12.2020
4750 Clouds 0 1006 43 10000 3.1 200 08:29 18.12.2020
4751 Clouds -1 1006 87 10000 3.1 290 07:36 18.12.2020
4752 Clouds 0 1005 40 10000 5.1 210 07:18 18.12.2020
4753 Clouds 0 1005 40 10000 5.1 210 06:42 18.12.2020
4754 Clouds 1 1004 60 10000 0.45 296 05:38 18.12.2020
4755 Clouds 0 1010 76 10000 0.95 218 04:51 18.12.2020
4756 Clouds 3 1011 58 10000 0.61 243 01:57 18.12.2020
4757 Clouds 3 1011 56 10000 0.61 243 01:37 18.12.2020
4758 Clouds 5 1007 33 10000 1.5 210 23:58 17.12.2020
4759 Clouds 5 1007 33 10000 1.5 210 23:25 17.12.2020
4760 Clouds 6 1008 30 10000 6.7 190 22:52 17.12.2020
4761 Clouds 7 1008 30 10000 6.7 190 22:28 17.12.2020
4762 Clouds 5 1009 30 10000 6.2 180 21:55 17.12.2020
4763 Clouds 8 1009 30 10000 6.2 180 21:37 17.12.2020
4764 Clouds 7 1010 30 10000 6.7 180 21:18 17.12.2020
4765 Clouds 7 1010 30 10000 6.7 180 21:18 17.12.2020
4766 Clouds 7 1010 30 10000 6.7 180 20:41 17.12.2020
4767 Clouds 6 1012 35 10000 4.6 170 20:19 17.12.2020
4768 Clouds 7 1010 36 10000 0.98 154 19:47 17.12.2020
4769 Clouds 5 1013 32 10000 6.7 190 19:24 17.12.2020
4770 Clouds 4 1013 32 10000 6.7 190 18:42 17.12.2020
4771 Clouds 3 1013 32 10000 6.7 190 18:23 17.12.2020
4772 Clouds 2 1014 37 10000 6.7 190 17:53 17.12.2020
4773 Clouds 1 1014 37 10000 6.7 190 17:32 17.12.2020
4774 Clouds -1 1014 42 10000 6.2 190 16:46 17.12.2020
4775 Clouds -2 1014 42 10000 6.2 190 16:27 17.12.2020
4776 Clouds -3 1015 45 10000 6.7 190 15:52 17.12.2020
4777 Clouds -3 1015 45 10000 6.7 190 15:52 17.12.2020
4778 Clouds -3 1015 45 10000 6.7 190 15:34 17.12.2020
4779 Clouds -4 1015 49 10000 6.2 190 14:55 17.12.2020
4780 Clouds -4 1015 49 10000 6.2 190 14:34 17.12.2020
4781 Clear -4 1011 40 10000 2.82 200 13:58 17.12.2020
4782 Clouds -4 1016 53 10000 3.1 180 13:35 17.12.2020
4783 Clouds -5 1016 53 10000 3.1 180 12:49 17.12.2020
4784 Clouds -4 1016 53 10000 3.1 180 12:26 17.12.2020
4785 Clouds -5 1012 52 10000 2.78 204 11:45 17.12.2020
4786 Clouds -5 1017 53 10000 4.6 180 11:25 17.12.2020
4787 Clouds -5 1017 53 10000 4.6 180 10:56 17.12.2020
4788 Clouds -4 1017 53 10000 4.6 180 10:29 17.12.2020
4789 Clear -4 1018 57 10000 5.7 190 09:31 17.12.2020
4790 Clear -4 1014 49 10000 2.43 222 08:20 17.12.2020
4791 Clear -4 1014 49 10000 2.43 222 07:40 17.12.2020
4792 Clear -4 1019 57 10000 4.1 190 07:18 17.12.2020
4793 Clear -3 1019 57 10000 4.1 190 06:42 17.12.2020
4794 Clear -3 1019 57 10000 4.1 190 06:24 17.12.2020
4795 Clouds 1 1017 47 10000 3.6 130 00:55 17.12.2020
4796 Clouds 2 1016 43 10000 3.6 120 23:57 16.12.2020
4797 Clouds 5 1016 41 10000 4.1 50 23:22 16.12.2020
4798 Clouds 5 1016 41 10000 4.1 50 23:22 16.12.2020
4799 Clouds 5 1016 41 10000 4.1 50 22:57 16.12.2020
4800 Clouds 5 1016 41 10000 4.1 50 22:36 16.12.2020
4801 Clouds 5 1015 38 10000 3.1 350 21:54 16.12.2020
4802 Clouds 5 1015 38 10000 3.1 350 21:36 16.12.2020
4803 Clouds 5 1015 36 10000 4.02 40 20:56 16.12.2020
4804 Clouds 5 1013 39 10000 6.71 346 20:37 16.12.2020
4805 Clouds 5 1014 32 10000 1.79 269 20:18 16.12.2020
4806 Clouds 4 1015 39 10000 0.45 78 19:20 16.12.2020
4807 Clouds 3 1012 37 10000 1.84 178 18:56 16.12.2020
4808 Clouds 2 1024 58 10000 1.66 184 18:29 16.12.2020
4809 Clouds 1 1012 39 10000 1.66 184 17:51 16.12.2020
4810 Clouds 0 1015 46 10000 2.6 250 17:29 16.12.2020
4811 Clouds -1 1014 46 10000 4.1 330 16:40 16.12.2020
4812 Clouds -4 1014 49 10000 2.1 240 16:22 16.12.2020
4813 Clouds -4 1014 49 10000 2.1 240 15:51 16.12.2020
4814 Clouds -5 1014 49 10000 2.1 240 15:28 16.12.2020
4815 Clouds -5 1013 57 10000 4.1 170 14:48 16.12.2020
4816 Clouds -5 1013 57 10000 4.1 170 14:28 16.12.2020
4817 Clear -5 1012 72 10000 2.66 218 13:50 16.12.2020
4818 Clouds -5 1012 49 10000 4.1 200 13:31 16.12.2020
4819 Clouds -5 1012 49 10000 4.1 200 12:56 16.12.2020
4820 Clouds -6 1012 49 10000 4.1 200 12:36 16.12.2020
4821 Clouds -6 1013 57 10000 3.1 210 11:41 16.12.2020
4822 Clouds -6 1012 49 10000 3.6 220 11:22 16.12.2020
4823 Clouds -6 1012 49 10000 3.6 220 10:49 16.12.2020
4824 Clouds -6 1012 49 10000 3.6 220 10:26 16.12.2020
4825 Clouds -7 1012 67 10000 4.1 200 09:48 16.12.2020
4826 Clouds -7 1012 73 10000 4.1 200 08:45 16.12.2020
4827 Clear -7 1012 73 10000 2.76 196 07:58 16.12.2020
4828 Clouds -7 1013 72 10000 3.6 180 07:39 16.12.2020
4829 Clouds -8 1013 72 10000 3.6 180 06:53 16.12.2020
4830 Clear -5 1011 62 10000 3.09 191 02:26 16.12.2020
4831 Clouds -4 1015 68 10000 3.14 189 01:20 16.12.2020
4832 Clouds -1 1011 50 10000 2.43 177 23:45 15.12.2020
4833 Clouds 0 1015 58 10000 2.6 20 22:48 15.12.2020
4834 Clouds 0 1015 58 10000 2.6 20 22:25 15.12.2020
4835 Clouds 0 1016 63 10000 4.1 30 21:57 15.12.2020
4836 Clouds 0 1016 63 10000 4.1 30 21:38 15.12.2020
4837 Clouds -1 1016 63 10000 5.1 20 21:19 15.12.2020
4838 Clouds -1 1016 63 10000 5.1 20 20:44 15.12.2020
4839 Clouds -1 1017 58 10000 4.6 20 20:25 15.12.2020
4840 Clouds -1 1017 58 10000 4.6 20 19:51 15.12.2020
4841 Clouds -1 1017 58 10000 4.6 20 19:26 15.12.2020
4842 Clouds -2 1025 65 10000 0.75 43 18:39 15.12.2020
4843 Clouds -2 1014 60 10000 1.03 360 18:21 15.12.2020
4844 Snow -3 1017 73 9656 8.2 360 17:44 15.12.2020
4845 Snow -4 1017 73 9656 8.2 360 17:23 15.12.2020
4846 Clouds -4 1013 81 4231 1.43 33 16:40 15.12.2020
4847 Clouds -5 1013 82 6926 1.3 47 16:21 15.12.2020
4848 Snow -6 1016 85 9656 2.6 320 15:37 15.12.2020
4849 Clouds -6 1024 88 616 0.96 8 15:18 15.12.2020
4850 Snow -6 1016 92 10000 3.1 290 14:41 15.12.2020
4851 Snow -6 1016 92 10000 3.1 290 14:41 15.12.2020
4852 Clouds -6 1015 92 10000 2.6 280 14:19 15.12.2020
4853 Clouds -6 1015 92 10000 2.6 280 13:49 15.12.2020
4854 Clouds -6 1015 92 10000 2.6 280 13:24 15.12.2020
4855 Clouds -6 1011 82 10000 0.59 3 12:46 15.12.2020
4856 Clouds -6 1014 100 10000 3.6 330 12:19 15.12.2020
4857 Clouds -6 1014 100 10000 3.6 330 11:51 15.12.2020
4858 Clouds -6 1014 100 10000 3.6 330 11:23 15.12.2020
4859 Clouds -6 1014 100 10000 3.1 350 10:48 15.12.2020
4860 Snow -6 1014 100 4828 4.1 340 10:20 15.12.2020
4861 Snow -6 1014 100 4828 4.1 340 09:43 15.12.2020
4862 Mist -5 1014 100 4828 4.1 340 09:25 15.12.2020
4863 Snow -5 1014 100 3621 3.6 320 08:41 15.12.2020
4864 Snow -5 1014 100 2816 4.6 330 08:21 15.12.2020
4865 Snow -5 1014 100 2816 4.6 330 07:44 15.12.2020
4866 Snow -5 1013 100 6437 2.6 350 06:59 15.12.2020
4867 Snow -4 1013 92 4828 1.5 30 05:37 15.12.2020
4868 Clouds -1 1007 50 10000 2.12 15 00:39 15.12.2020
4869 Clouds 0 1007 46 10000 2.18 17 23:51 14.12.2020
4870 Clouds 1 1006 45 10000 2.35 344 23:19 14.12.2020
4871 Clouds 1 1018 53 10000 1.79 15 22:44 14.12.2020
4872 Clouds 1 1006 34 10000 2.72 325 22:19 14.12.2020
4873 Clouds 1 1006 31 10000 2.72 325 21:40 14.12.2020
4874 Clouds 1 1006 37 10000 3.18 360 21:18 14.12.2020
4875 Clouds 1 1006 40 10000 3.18 360 20:48 14.12.2020
4876 Clouds 0 1006 47 10000 1.34 8 20:27 14.12.2020
4877 Clouds 0 1006 54 10000 1.34 8 19:44 14.12.2020
4878 Clouds -1 1007 53 10000 0.4 248 19:25 14.12.2020
4879 Clouds -1 1007 57 10000 1.16 356 18:44 14.12.2020
4880 Clouds -2 1008 61 10000 1.25 31 18:24 14.12.2020
4881 Clouds -4 983 82 10000 1.25 31 17:45 14.12.2020
4882 Clouds -5 982 88 10000 0.45 144 17:21 14.12.2020
4883 Clouds -8 1010 85 10000 0.57 79 16:42 14.12.2020
4884 Clouds -10 1010 100 10000 4.1 210 16:23 14.12.2020
4885 Clouds -10 1010 100 10000 4.1 210 15:33 14.12.2020
4886 Clouds -10 1011 92 10000 2.6 180 14:51 14.12.2020
4887 Clouds -10 1011 92 10000 2.6 180 14:32 14.12.2020
4888 Clear -9 1011 85 10000 1.15 38 13:57 14.12.2020
4889 Clear -9 1011 79 10000 2.6 320 13:35 14.12.2020
4890 Clear -9 1011 79 10000 3.6 320 12:56 14.12.2020
4891 Clear -9 1011 79 10000 4.6 340 12:34 14.12.2020
4892 Clouds -8 1012 78 10000 2.1 140 11:58 14.12.2020
4893 Clouds -8 1012 78 10000 2.1 140 11:25 14.12.2020
4894 Clouds -7 1013 61 10000 0.36 101 10:28 14.12.2020
4895 Clouds -7 1014 61 10000 2.1 10 09:53 14.12.2020
4896 Clouds -7 1014 61 10000 2.1 10 09:25 14.12.2020
4897 Clouds -6 1014 57 10000 0.36 83 08:44 14.12.2020
4898 Clouds -7 1014 57 10000 0.22 116 08:23 14.12.2020
4899 Clouds -5 1016 62 10000 4.6 180 07:22 14.12.2020
4900 Clouds -5 1016 62 10000 4.6 180 06:43 14.12.2020
4901 Clouds -6 1014 69 10000 0.7 159 03:58 14.12.2020
4902 Clouds -4 1019 73 10000 2.6 290 02:25 14.12.2020
4903 Clouds -2 1019 92 10000 3.1 220 00:51 14.12.2020
4904 Clouds 0 1019 91 10000 3.1 220 00:29 14.12.2020
4905 Clouds 1 1018 91 10000 3.1 160 23:44 13.12.2020
4906 Clear 2 1014 38 10000 1.14 4 23:18 13.12.2020
4907 Clear 2 1027 50 10000 1.14 4 22:43 13.12.2020
4908 Clear 2 1014 40 10000 0.66 103 22:18 13.12.2020
4909 Clear 1 1015 39 10000 0.45 134 21:42 13.12.2020
4910 Clouds 0 1016 47 10000 1.83 150 20:57 13.12.2020
4911 Clouds 0 1016 48 10000 1.83 150 20:32 13.12.2020
4912 Clouds -1 1017 40 10000 1.34 156 19:49 13.12.2020
4913 Clear -2 1018 44 10000 1.79 152 19:24 13.12.2020
4914 Clear -3 1018 51 10000 3.18 167 18:56 13.12.2020
4915 Clear -3 1019 53 10000 0.45 178 18:36 13.12.2020
4916 Clear -4 1019 59 10000 0.45 149 18:18 13.12.2020
4917 Clear -5 1020 67 10000 3.11 169 17:45 13.12.2020
4918 Clear -7 1020 76 10000 2.78 175 17:18 13.12.2020
4919 Clear -8 1039 100 10000 2.78 175 16:50 13.12.2020
4920 Clear -9 994 94 10000 2.28 181 16:31 13.12.2020
4921 Clear -10 1033 87 10000 1.79 138 15:47 13.12.2020
4922 Clear -11 1033 87 10000 1.34 148 15:26 13.12.2020
4923 Clear -10 1069 88 10000 0.45 151 14:47 13.12.2020
4924 Clear -10 1069 88 10000 1.28 161 14:29 13.12.2020
4925 Clear -9 1031 89 10000 1.28 161 13:50 13.12.2020
4926 Clouds -9 1021 100 10000 2.1 200 13:31 13.12.2020
4927 Clouds -9 1021 100 10000 2.1 240 12:57 13.12.2020
4928 Clouds -9 1021 100 10000 2.1 240 12:25 13.12.2020
4929 Clouds -9 1020 100 10000 0.4 354 11:58 13.12.2020
4930 Clouds -8 1020 100 10000 0.4 354 11:32 13.12.2020
4931 Clouds -8 1020 100 10000 4.1 10 10:45 13.12.2020
4932 Clouds -7 1016 81 10000 3.61 354 10:21 13.12.2020
4933 Mist -7 1019 100 6437 6.7 330 09:46 13.12.2020
4934 Snow -6 1019 100 2816 6.2 340 08:52 13.12.2020
4935 Snow -6 1019 100 2816 6.2 340 08:30 13.12.2020
4936 Snow -5 1018 100 2615 6.7 350 07:25 13.12.2020
4937 Snow -5 1012 92 3219 3.1 330 03:24 13.12.2020
4938 Snow -6 1012 92 3219 3.1 330 02:32 13.12.2020
4939 Snow -5 1011 92 4828 3.6 340 01:36 13.12.2020
4940 Mist -5 1010 92 8047 3.6 340 00:44 13.12.2020
4941 Mist -5 1008 92 9656 2.6 20 23:40 12.12.2020
4942 Mist -5 1008 92 9656 2.6 20 23:40 12.12.2020
4943 Clouds -5 1004 74 10000 0.45 31 23:20 12.12.2020
4944 Clouds -4 1008 85 10000 2.6 340 22:36 12.12.2020
4945 Clouds -4 1009 79 10000 3.6 350 21:47 12.12.2020
4946 Clouds -4 1009 79 10000 3.6 350 21:20 12.12.2020
4947 Clouds -4 1009 73 10000 2.6 340 20:46 12.12.2020
4948 Clouds -4 1009 73 10000 2.6 340 20:21 12.12.2020
4949 Clouds -4 1011 73 10000 2.32 11 19:53 12.12.2020
4950 Clouds -4 1011 73 10000 2.24 25 19:33 12.12.2020
4951 Clouds -5 1007 67 10000 2.06 15 18:56 12.12.2020
4952 Clouds -5 1007 75 10000 0.45 272 18:38 12.12.2020
4953 Clouds -5 1009 71 10000 2.34 10 18:20 12.12.2020
4954 Clouds -6 984 87 10000 2.34 10 17:41 12.12.2020
4955 Clouds -7 1013 85 10000 3.6 230 16:44 12.12.2020
4956 Clouds -8 1022 82 10000 1.2 357 15:58 12.12.2020
4957 Clouds -8 1014 66 10000 0.45 45 15:39 12.12.2020
4958 Clouds -8 1022 80 10000 0.89 228 14:54 12.12.2020
4959 Clouds -8 1013 86 10000 0.45 139 14:22 12.12.2020
4960 Clouds -7 1013 68 10000 1.3 139 13:41 12.12.2020
4961 Clouds -8 1014 68 10000 2.57 156 13:23 12.12.2020
4962 Clouds -8 1014 92 10000 2.6 170 12:36 12.12.2020
4963 Clouds -9 1014 100 10000 2.1 130 11:20 12.12.2020
4964 Clouds -9 1014 100 10000 2.1 130 10:45 12.12.2020
4965 Clouds -7 1014 100 10000 2.1 210 09:24 12.12.2020
4966 Clouds -6 1015 92 10000 1.5 150 07:42 12.12.2020
4967 Snow -5 1011 77 614 2.06 34 01:41 12.12.2020
4968 Snow -4 1013 85 6437 2.1 10 23:30 11.12.2020
4969 Snow -3 1012 92 4828 3.6 30 20:57 11.12.2020
4970 Snow -3 1013 92 2414 3.1 80 19:42 11.12.2020
4971 Clouds -3 1009 82 2224 2.26 42 16:52 11.12.2020
4972 Clouds -4 1008 82 10000 1.91 58 14:37 11.12.2020
4973 Clouds -4 1008 83 10000 1.66 56 13:42 11.12.2020
4974 Clouds -3 1008 83 2587 1.89 63 12:22 11.12.2020
4975 Snow -3 1014 92 8047 2.1 70 11:54 11.12.2020
4976 Snow -3 1014 92 8047 2.1 70 11:35 11.12.2020
4977 Snow -3 1013 100 4023 2.1 20 10:40 11.12.2020
4978 Snow -3 1011 84 324 2.07 22 07:31 11.12.2020
4979 Snow -2 1016 100 10000 3.1 60 05:36 11.12.2020
4980 Clouds 0 1014 79 10000 4.1 60 02:58 11.12.2020
4981 Clouds 3 1009 45 10000 3.49 50 00:42 11.12.2020
4982 Clouds 4 1014 48 10000 4.1 60 23:26 10.12.2020
4983 Clouds 5 1014 41 10000 3.1 360 21:37 10.12.2020
4984 Clouds 5 1011 30 10000 1.49 38 20:51 10.12.2020
4985 Clouds 5 1017 38 10000 2.1 350 19:53 10.12.2020
4986 Clouds 5 1017 38 10000 2.1 350 19:29 10.12.2020
4987 Clouds 4 1018 36 10000 0.45 192 18:47 10.12.2020
4988 Clouds 3 1019 41 10000 0.45 166 17:26 10.12.2020
4989 Clouds 1 1014 28 10000 0.89 27 15:58 10.12.2020
4990 Clouds 2 1017 31 10000 2.1 360 15:19 10.12.2020
4991 Clouds 2 1017 31 10000 2.1 360 14:42 10.12.2020
4992 Clouds 2 1015 48 10000 2.6 80 13:26 10.12.2020
4993 Clouds 3 1014 23 10000 5.1 190 11:54 10.12.2020
4994 Clouds 3 1015 23 10000 3.1 210 10:54 10.12.2020
4995 Clouds 4 1015 21 10000 3.6 200 08:21 10.12.2020
4996 Clouds 4 1015 25 10000 4.6 190 07:26 10.12.2020
4997 Clouds 5 1025 24 10000 2.25 200 05:34 10.12.2020
4998 Clouds 7 1016 20 10000 4.1 180 02:31 10.12.2020
4999 Clear 9 1017 22 10000 0.91 280 01:25 10.12.2020
5000 Clouds 19 1016 4 10000 0.69 291 23:38 09.12.2020
5001 Clear 16 1019 5 10000 3.1 190 20:37 09.12.2020
5002 Clear 14 1020 9 10000 3.1 180 19:46 09.12.2020
5003 Clear 11 1022 11 10000 3.6 200 18:36 09.12.2020
5004 Clear 5 1023 18 10000 5.1 190 16:57 09.12.2020
5005 Clear 4 1023 18 10000 5.1 190 16:26 09.12.2020
5006 Clear 3 1023 21 10000 5.1 190 15:44 09.12.2020
5007 Clear 2 1023 21 10000 5.1 200 14:50 09.12.2020
5008 Clear 2 1023 22 10000 4.6 190 14:26 09.12.2020
5009 Clear 3 1024 21 10000 4.6 190 13:19 09.12.2020
5010 Clear 3 1024 21 10000 4.6 190 12:58 09.12.2020
5011 Clear 3 1024 22 10000 4.6 180 12:23 09.12.2020
5012 Clear 3 1024 22 10000 4.6 180 11:33 09.12.2020
5013 Clear 3 1023 23 10000 4.6 200 09:51 09.12.2020
5014 Clear 3 1024 27 10000 5.1 190 08:34 09.12.2020
5015 Clear 4 1024 29 10000 5.1 180 06:29 09.12.2020
5016 Clear 4 1024 29 10000 5.1 180 05:27 09.12.2020
5017 Clouds 5 1024 35 10000 3.1 180 02:31 09.12.2020
5018 Clouds 12 1023 16 10000 1.5 360 00:24 09.12.2020
5019 Clear 15 1023 8 10000 1.34 120 23:28 08.12.2020
5020 Clear 16 1020 28 10000 0.63 34 21:54 08.12.2020
5021 Clouds 15 1024 5 10000 3.6 210 20:23 08.12.2020
5022 Clear 14 1026 13 10000 0.89 209 19:25 08.12.2020
5023 Clouds 12 1025 12 10000 6.7 200 18:34 08.12.2020
5024 Clouds 3 1026 22 10000 3.6 180 16:28 08.12.2020
5025 Clouds 2 1027 22 10000 5.7 190 14:46 08.12.2020
5026 Clear 1 1027 24 10000 4.6 190 13:44 08.12.2020
5027 Clear 1 1027 26 10000 5.1 190 12:37 08.12.2020
5028 Clear 1 1027 29 10000 4.6 180 11:52 08.12.2020
5029 Clear 2 1027 29 10000 4.6 190 10:54 08.12.2020
5030 Clear 2 1027 29 10000 4.6 190 10:34 08.12.2020
5031 Clear 2 1027 27 10000 4.6 200 09:35 08.12.2020
5032 Clear 3 1027 29 10000 3.6 200 07:35 08.12.2020
5033 Clear 4 1026 32 10000 5.7 180 04:42 08.12.2020
5034 Clear 7 1025 31 10000 2.54 207 01:48 08.12.2020
5035 Clear 10 1027 17 10000 2.6 200 00:44 08.12.2020
5036 Clear 14 1027 10 10000 2.1 90 22:56 07.12.2020
5037 Clear 15 1027 9 10000 1.5 40 22:18 07.12.2020
5038 Clear 14 1027 11 10000 1.34 44 20:47 07.12.2020
5039 Clear 11 1024 14 10000 1.23 179 18:58 07.12.2020
5040 Clear 7 1029 24 10000 5.1 200 17:38 07.12.2020
5041 Clear 6 1028 18 10000 1.79 260 17:18 07.12.2020
5042 Clear 3 1029 31 10000 3.1 190 16:23 07.12.2020
5043 Clear 1 1029 50 10000 4.1 200 15:24 07.12.2020
5044 Clear 0 1028 39 10000 3.1 210 14:28 07.12.2020
5045 Clear 1 1028 34 10000 4.1 190 13:35 07.12.2020
5046 Clear 1 1027 34 10000 4.1 210 11:58 07.12.2020
5047 Clear 1 1027 34 10000 4.1 210 11:38 07.12.2020
5048 Clear 1 1026 34 10000 4.6 200 10:23 07.12.2020
5049 Clear 1 1026 50 10000 4.6 180 08:37 07.12.2020
5050 Clear 2 1026 50 10000 4.1 180 07:23 07.12.2020
5051 Clear 3 1025 40 10000 3.1 200 05:26 07.12.2020
5052 Clear 4 1025 32 10000 3.1 190 03:43 07.12.2020
5053 Clouds 11 1023 18 10000 2.6 90 00:33 07.12.2020
5054 Clouds 14 1022 11 10000 3.6 60 22:46 06.12.2020
5055 Clouds 15 1023 10 10000 1.12 81 21:44 06.12.2020
5056 Clouds 14 1023 11 10000 1.1 90 20:35 06.12.2020
5057 Clouds 13 1024 14 10000 2.6 260 19:57 06.12.2020
5058 Clouds 11 1024 18 10000 4.1 210 18:53 06.12.2020
5059 Clouds 5 1023 26 10000 4.6 200 17:24 06.12.2020
5060 Clear 2 1023 37 10000 4.6 190 16:33 06.12.2020
5061 Clear 1 1023 37 10000 4.6 180 14:46 06.12.2020
5062 Clear 1 1023 57 10000 5.7 180 12:53 06.12.2020
5063 Clear 1 1023 57 10000 5.7 180 12:27 06.12.2020
5064 Clear 1 1024 40 10000 3.1 190 11:40 06.12.2020
5065 Clear 1 1024 40 10000 3.1 190 11:21 06.12.2020
5066 Clouds 1 1025 56 10000 4.1 200 10:31 06.12.2020
5067 Clouds 0 1025 57 10000 3.6 190 08:49 06.12.2020
5068 Clouds 1 1026 43 10000 4.1 180 06:53 06.12.2020
5069 Clear 3 1026 47 10000 3.1 170 02:40 06.12.2020
5070 Clear 8 1027 28 10000 0.95 191 00:42 06.12.2020
5071 Clear 9 1027 28 10000 0.86 133 00:24 06.12.2020
5072 Clear 11 1028 25 10000 4.1 40 22:52 05.12.2020
5073 Clear 11 1028 25 10000 4.1 40 22:21 05.12.2020
5074 Clear 11 1028 25 10000 4.6 40 21:51 05.12.2020
5075 Clear 11 1028 25 10000 4.6 40 21:26 05.12.2020
5076 Clear 10 1030 24 10000 2.1 110 19:49 05.12.2020
5077 Clear 8 1026 23 10000 0.45 142 18:45 05.12.2020
5078 Clear 5 1031 40 10000 4.6 220 17:35 05.12.2020
5079 Clear 0 1030 54 10000 3.6 190 16:42 05.12.2020
5080 Clear 1 1030 55 10000 1.62 213 16:20 05.12.2020
5081 Clear -1 1030 54 10000 4.1 180 14:28 05.12.2020
5082 Clear -1 1030 54 10000 3.6 190 12:32 05.12.2020
5083 Clear 0 1030 54 10000 3.6 190 11:48 05.12.2020
5084 Clear 1 1030 54 10000 3.6 210 10:32 05.12.2020
5085 Clear 1 1029 62 10000 2.6 200 07:49 05.12.2020
5086 Clear 1 1029 60 10000 2.6 200 07:25 05.12.2020
5087 Clear 3 1037 45 10000 2.04 249 04:44 05.12.2020
5088 Clear 13 1024 20 10000 3.1 40 23:56 04.12.2020
5089 Clear 14 1024 17 10000 2.6 40 22:32 04.12.2020
5090 Clear 13 1025 19 10000 0.78 183 20:29 04.12.2020
5091 Clear 10 1029 29 10000 0.89 197 18:53 04.12.2020
5092 Clear 7 1025 35 10000 4.1 210 18:20 04.12.2020
5093 Clear 6 1025 35 10000 4.1 210 17:40 04.12.2020
5094 Clear 1 1024 46 10000 4.6 190 15:50 04.12.2020
5095 Clear 0 1024 67 10000 5.1 200 13:57 04.12.2020
5096 Clear -1 1024 68 10000 5.1 200 13:29 04.12.2020
5097 Clear 0 1024 68 10000 4.6 200 12:54 04.12.2020
5098 Clear 0 1024 68 10000 4.6 200 10:41 04.12.2020
5099 Clear 0 1024 68 10000 4.1 200 09:55 04.12.2020
5100 Clear 0 1024 66 10000 4.1 200 07:20 04.12.2020
5101 Clear 0 1024 30 10000 3.6 210 06:39 04.12.2020
5102 Clear 1 1030 34 10000 1.84 234 01:57 04.12.2020
5103 Clear 7 1023 13 10000 3.1 10 23:21 03.12.2020
5104 Clear 8 1023 12 10000 1.5 260 22:45 03.12.2020
5105 Clear 7 1031 16 10000 0.45 289 20:49 03.12.2020
5106 Clouds 5 1026 19 10000 1.32 185 19:37 03.12.2020
5107 Clouds 5 1026 19 10000 1.6 183 19:18 03.12.2020
5108 Clouds 2 1035 33 10000 0.45 199 18:18 03.12.2020
5109 Clouds -1 1036 44 10000 0.89 192 17:19 03.12.2020
5110 Clouds -5 1026 52 10000 4.1 200 15:56 03.12.2020
5111 Clouds -6 1026 52 10000 4.1 200 15:31 03.12.2020
5112 Clear -6 1026 52 10000 4.1 190 14:48 03.12.2020
5113 Clear -5 1026 52 10000 3.6 200 13:36 03.12.2020
5114 Clear -6 1026 67 10000 4.1 190 12:28 03.12.2020
5115 Clear -6 1027 67 10000 4.1 210 11:31 03.12.2020
5116 Clear -6 1027 67 10000 3.6 210 10:25 03.12.2020
5117 Clouds -7 1029 72 10000 2.6 190 07:47 03.12.2020
5118 Clouds -4 1037 53 10000 1.89 342 03:22 03.12.2020
5119 Clouds -3 1036 44 10000 0.45 29 01:19 03.12.2020
5120 Clouds -1 1025 34 10000 0.45 24 22:48 02.12.2020
5121 Clouds -1 1036 41 10000 0.89 38 22:26 02.12.2020
5122 Clouds -1 1029 46 10000 8.2 20 21:25 02.12.2020
5123 Clouds -1 1030 46 10000 7.2 10 20:46 02.12.2020
5124 Clouds -1 1030 46 10000 7.2 10 20:28 02.12.2020
5125 Clouds -3 1031 45 10000 5.7 340 18:39 02.12.2020
5126 Clouds -4 1027 54 10000 3.01 5 17:47 02.12.2020
5127 Clouds -5 1027 57 10000 2.99 18 17:28 02.12.2020
5128 Clouds -8 1030 72 10000 1.5 360 15:23 02.12.2020
5129 Clouds -7 1028 73 10000 7.7 30 12:45 02.12.2020
5130 Clouds -5 1027 73 10000 7.2 30 10:29 02.12.2020
5131 Clouds -4 1027 67 10000 8.2 10 09:27 02.12.2020
5132 Clouds -2 1025 79 10000 5.1 10 04:39 02.12.2020
5133 Clouds 3 1019 55 10000 8.2 20 22:21 01.12.2020
5134 Clouds 3 1016 38 9678 2.68 351 21:53 01.12.2020
5135 Clouds 4 1019 47 10000 5.7 310 19:36 01.12.2020
5136 Clouds 4 1015 39 10000 0.45 304 18:18 01.12.2020
5137 Clouds 2 1016 64 10000 3.6 60 16:37 01.12.2020
5138 Clouds 1 1013 43 10000 3.1 180 13:39 01.12.2020
5139 Clouds 1 1014 32 10000 2.1 360 12:25 01.12.2020
5140 Clouds 1 1014 27 10000 2.1 280 11:27 01.12.2020
5141 Clouds 1 1014 29 10000 3.1 290 10:39 01.12.2020
5142 Clouds 0 1013 39 10000 5.1 180 09:26 01.12.2020
5143 Clouds 1 1009 29 10000 2.68 220 07:19 01.12.2020
5144 Clear 4 1015 30 10000 1.49 265 01:56 01.12.2020
5145 Clouds 11 1017 17 10000 2.1 140 00:56 01.12.2020
5146 Clear 14 1017 19 10000 3.1 140 23:22 30.11.2020
5147 Clear 14 1017 15 10000 2.6 110 22:45 30.11.2020
5148 Clear 13 1019 11 10000 2.1 180 22:25 30.11.2020
5149 Clear 13 1019 11 10000 2.1 180 21:22 30.11.2020
5150 Clear 11 1021 21 10000 4.1 190 19:42 30.11.2020
5151 Clear 7 1022 24 10000 4.6 190 18:24 30.11.2020
5152 Clear 5 1028 28 10000 1.34 149 17:51 30.11.2020
5153 Clear 3 1022 27 10000 4.6 190 17:24 30.11.2020
5154 Clear 1 1018 23 10000 1.79 169 16:43 30.11.2020
5155 Clear -3 1023 49 10000 4.1 190 14:47 30.11.2020
5156 Clear -3 1024 53 10000 5.7 190 13:53 30.11.2020
5157 Clear -4 1025 57 10000 4.1 180 12:34 30.11.2020
5158 Clear -4 1026 62 10000 5.7 180 11:58 30.11.2020
5159 Clear -4 1027 62 10000 4.6 190 10:30 30.11.2020
5160 Clear -4 1028 62 10000 4.1 170 09:51 30.11.2020
5161 Clear -4 1030 62 10000 5.1 180 07:26 30.11.2020
5162 Clear 1 1031 78 10000 2.6 80 00:54 30.11.2020
5163 Clouds 3 1030 43 10000 2.1 80 22:19 29.11.2020
5164 Clouds 3 1030 43 10000 3.1 50 21:42 29.11.2020
5165 Clouds 3 1030 43 10000 3.1 50 21:24 29.11.2020
5166 Clouds 1 1032 43 10000 2.09 28 17:48 29.11.2020
5167 Clouds 0 1028 43 10000 1.62 25 16:57 29.11.2020
5168 Clear -2 1029 49 10000 2.1 350 13:24 29.11.2020
5169 Clear -1 1028 53 10000 2.1 320 12:27 29.11.2020
5170 Clear 0 1025 54 10000 6.2 350 10:54 29.11.2020
5171 Clear 0 1021 47 10000 2.1 50 08:39 29.11.2020
5172 Clear 1 1018 62 10000 3.6 190 06:33 29.11.2020
5173 Clouds 9 1017 34 10000 2.1 90 00:30 29.11.2020
5174 Clouds 12 1018 31 10000 2.6 110 22:57 28.11.2020
5175 Clouds 11 1018 25 10000 1.7 166 20:50 28.11.2020
5176 Clear 10 1023 27 10000 0.45 265 19:51 28.11.2020
5177 Clouds 9 1020 31 10000 2.6 200 19:24 28.11.2020
5178 Clear 8 1025 36 10000 0.89 254 18:51 28.11.2020
5179 Clear 5 1026 42 10000 0.89 228 17:48 28.11.2020
5180 Clear 2 1019 49 10000 1.34 199 16:45 28.11.2020
5181 Clear -2 1021 50 10000 4.1 200 14:57 28.11.2020
5182 Clear -2 1020 54 10000 5.1 190 13:27 28.11.2020
5183 Clear -2 1021 68 10000 4.1 190 10:57 28.11.2020
5184 Clear -1 1022 74 10000 3.6 180 06:42 28.11.2020
5185 Clear -1 1022 74 10000 3.1 190 03:33 28.11.2020
5186 Clouds 1 1022 69 10000 2.1 110 01:51 28.11.2020
5187 Clear 6 1025 47 10000 1.99 172 23:18 27.11.2020
5188 Clear 5 1023 55 10000 1.5 50 21:51 27.11.2020
5189 Clear 4 1024 59 10000 3.6 350 20:37 27.11.2020
5190 Clear 3 1024 55 10000 3.1 320 19:30 27.11.2020
5191 Clouds 2 1024 64 10000 2.1 240 18:51 27.11.2020
5192 Clouds -4 1023 68 10000 6.7 160 15:21 27.11.2020
5193 Clear -3 1023 85 10000 4.6 170 13:57 27.11.2020
5194 Clouds -3 1023 86 10000 5.1 170 12:48 27.11.2020
5195 Clouds -2 1023 92 10000 4.1 170 11:55 27.11.2020
5196 Clouds -2 1023 92 10000 4.1 180 10:51 27.11.2020
5197 Clouds -2 1023 92 10000 4.1 180 10:24 27.11.2020
5198 Clouds -1 1027 84 10000 3.5 182 07:30 27.11.2020
5199 Clouds -1 1027 84 10000 3.5 182 07:30 27.11.2020
5200 Clear 7 1010 36 10000 3.96 94 22:42 26.11.2020
5201 Clear 7 1017 43 10000 0.89 1 22:22 26.11.2020
5202 Clear 7 1018 41 10000 0.89 82 21:25 26.11.2020
5203 Clouds 5 1012 37 10000 3 138 19:24 26.11.2020
5204 Clear 4 1013 35 10000 0.45 90 18:31 26.11.2020
5205 Clear 0 1014 55 10000 0.45 110 16:32 26.11.2020
5206 Clear -2 1014 68 10000 6.2 140 13:43 26.11.2020
5207 Clear -1 1076 64 10000 1.79 153 12:45 26.11.2020
5208 Clear -1 1077 66 10000 1.34 129 12:23 26.11.2020
5209 Clear -2 1014 68 10000 3.6 150 10:38 26.11.2020
5210 Clear -2 1013 68 10000 4.1 130 09:49 26.11.2020
5211 Clear -1 1013 68 10000 4.1 130 09:31 26.11.2020
5212 Clear -1 1086 76 10000 2.45 205 08:40 26.11.2020
5213 Clear 0 1012 74 10000 3.1 10 06:56 26.11.2020
5214 Clouds 6 1008 56 10000 2.1 150 00:46 26.11.2020
5215 Clouds 9 1010 48 10000 1.5 50 21:29 25.11.2020
5216 Clear 7 1006 29 10000 0.81 150 19:58 25.11.2020
5217 Clear 4 1008 37 10000 1.98 180 18:28 25.11.2020
5218 Clear 1 1008 43 10000 2.09 180 17:24 25.11.2020
5219 Clear -3 1013 68 10000 6.2 190 15:42 25.11.2020
5220 Clear -4 1013 73 10000 6.7 200 14:19 25.11.2020
5221 Clear -4 1014 73 10000 6.2 180 13:43 25.11.2020
5222 Clear -4 1014 73 10000 4.6 180 12:26 25.11.2020
5223 Clear -4 1014 73 10000 5.7 190 11:20 25.11.2020
5224 Clear -4 1014 83 10000 2.21 197 09:19 25.11.2020
5225 Clear -4 1015 88 10000 2.21 197 08:47 25.11.2020
5226 Clear -4 1043 81 10000 0.89 173 05:18 25.11.2020
5227 Clouds -3 1016 68 10000 2.6 210 02:53 25.11.2020
5228 Clouds 1 1015 58 10000 1.5 310 00:48 25.11.2020
5229 Clouds 2 1015 61 10000 3.6 340 23:55 24.11.2020
5230 Clouds 3 1011 51 10000 1.71 13 23:34 24.11.2020
5231 Clouds 2 1014 59 10000 3.6 340 22:18 24.11.2020
5232 Clouds 2 1014 70 10000 2.04 18 21:31 24.11.2020
5233 Clouds 2 1015 66 10000 2.6 270 20:45 24.11.2020
5234 Clouds 0 1015 86 10000 4.1 310 19:21 24.11.2020
5235 Mist -2 1015 100 3219 3.6 270 17:31 24.11.2020
5236 Snow -2 1014 100 1207 3.1 310 16:56 24.11.2020
5237 Snow -2 1014 100 1006 3.6 340 16:36 24.11.2020
5238 Snow -2 1013 100 805 6.2 330 15:55 24.11.2020
5239 Snow -2 1012 100 805 6.2 340 15:19 24.11.2020
5240 Snow -2 1012 100 1408 6.2 330 14:43 24.11.2020
5241 Rain 0 1010 92 4426 7.7 20 12:55 24.11.2020
5242 Rain 0 1010 73 4426 7.7 20 12:22 24.11.2020
5243 Rain 1 1010 100 4023 4.6 360 11:58 24.11.2020
5244 Rain 3 1006 82 10000 3.77 29 10:49 24.11.2020
5245 Rain 4 1009 65 10000 3.6 350 10:25 24.11.2020
5246 Rain 6 1008 60 10000 3.1 340 09:36 24.11.2020
5247 Clouds 6 1008 60 10000 3.1 310 08:27 24.11.2020
5248 Clouds 6 1008 45 10000 2.1 350 04:49 24.11.2020
5249 Clouds 14 1005 21 10000 2.1 310 23:32 23.11.2020
5250 Clouds 16 1005 19 10000 7.7 230 21:46 23.11.2020
5251 Clouds 16 1006 29 10000 5.7 220 20:58 23.11.2020
5252 Clouds 15 1006 29 10000 5.7 220 20:28 23.11.2020
5253 Clouds 15 1008 36 10000 5.1 210 19:36 23.11.2020
5254 Clouds 10 1009 58 10000 7.2 230 17:27 23.11.2020
5255 Clouds 10 1010 58 10000 4.6 210 16:54 23.11.2020
5256 Clouds 3 1011 64 10000 5.7 220 14:49 23.11.2020
5257 Clouds 1 1011 64 10000 5.1 190 13:54 23.11.2020
5258 Clear 1 1012 59 10000 1.31 214 12:39 23.11.2020
5259 Clouds 3 1012 55 10000 6.7 180 11:51 23.11.2020
5260 Clouds 3 1012 55 10000 6.7 180 11:30 23.11.2020
5261 Clouds 3 1014 47 10000 4.1 210 09:46 23.11.2020
5262 Clouds 2 1015 47 10000 6.2 190 08:49 23.11.2020
5263 Clouds 2 1016 34 10000 5.1 200 07:34 23.11.2020
5264 Clouds 3 1021 27 10000 5.7 190 02:39 23.11.2020
5265 Clouds 7 1018 20 10000 2.46 311 23:43 22.11.2020
5266 Clouds 8 1023 16 10000 4.6 180 22:19 22.11.2020
5267 Clouds 7 1025 21 10000 5.1 170 21:24 22.11.2020
5268 Clouds 6 1028 21 10000 4.1 160 19:59 22.11.2020
5269 Clouds 4 1030 25 10000 3.1 100 18:57 22.11.2020
5270 Clear 2 1026 28 10000 1.8 169 17:59 22.11.2020
5271 Clear -2 1040 46 10000 0.23 84 16:25 22.11.2020
5272 Clear -5 1040 68 10000 0.45 124 14:58 22.11.2020
5273 Clear -3 1039 48 10000 0.45 124 12:51 22.11.2020
5274 Clear -3 1039 47 10000 0.45 124 12:31 22.11.2020
5275 Clear -2 1039 50 10000 0.89 130 11:39 22.11.2020
5276 Clear -2 1029 68 10000 3.6 180 10:47 22.11.2020
5277 Clear -2 1029 68 10000 3.6 180 10:29 22.11.2020
5278 Clouds 3 1025 47 10000 1.5 220 02:47 22.11.2020
5279 Clouds 9 1023 31 10000 2.1 330 23:54 21.11.2020
5280 Clear 10 1019 26 10000 1.37 20 22:40 21.11.2020
5281 Clear 9 1024 33 10000 0.45 307 21:30 21.11.2020
5282 Clear 8 1019 28 10000 1.82 34 20:49 21.11.2020
5283 Clouds 6 1025 38 10000 4.1 360 19:58 21.11.2020
5284 Clouds 6 1025 38 10000 4.1 360 19:37 21.11.2020
5285 Clouds 5 1026 40 10000 0.89 31 18:50 21.11.2020
5286 Clouds 3 1025 47 10000 1.5 300 17:30 21.11.2020
5287 Clouds 1 1026 63 10000 1.09 140 16:44 21.11.2020
5288 Clouds -1 1026 58 10000 1.28 7 15:40 21.11.2020
5289 Clouds -1 1049 61 10000 1.71 360 15:19 21.11.2020
5290 Clouds 0 1026 62 10000 3.1 260 14:39 21.11.2020
5291 Clouds 2 1026 59 10000 2.1 130 12:43 21.11.2020
5292 Clouds 2 1026 59 10000 2.1 130 12:20 21.11.2020
5293 Clouds 2 1027 51 10000 4.6 140 11:23 21.11.2020
5294 Clouds 2 1028 43 10000 3.1 100 10:27 21.11.2020
5295 Clouds 3 1029 38 10000 3.1 260 08:52 21.11.2020
5296 Clouds 4 1029 37 10000 4.1 210 07:52 21.11.2020
5297 Clouds 4 1029 35 10000 4.6 240 05:40 21.11.2020
5298 Clouds 7 1028 24 10000 5.1 140 01:56 21.11.2020
5299 Clouds 10 1026 18 10000 5.7 120 23:59 20.11.2020
5300 Clouds 12 1027 17 10000 6.2 130 22:31 20.11.2020
5301 Clouds 12 1027 17 10000 8.2 140 21:44 20.11.2020
5302 Clouds 12 1027 17 10000 8.2 140 21:21 20.11.2020
5303 Clouds 11 1029 19 10000 8.2 160 19:52 20.11.2020
5304 Clouds 9 1030 21 10000 7.2 140 18:53 20.11.2020
5305 Clouds 7 1030 26 10000 6.2 140 17:53 20.11.2020
5306 Clouds 6 1030 26 10000 6.2 140 17:28 20.11.2020
5307 Clear 5 1034 47 10000 4.63 154 16:40 20.11.2020
5308 Clouds 1 1029 46 10000 4.1 170 15:59 20.11.2020
5309 Clouds 1 1029 46 10000 4.1 170 15:34 20.11.2020
5310 Clear 2 1028 37 10000 3.6 150 13:48 20.11.2020
5311 Clear 2 1028 37 10000 3.6 150 13:19 20.11.2020
5312 Clouds 3 1025 48 10000 2.91 140 12:36 20.11.2020
5313 Clear 3 1026 51 10000 7.2 130 11:45 20.11.2020
5314 Clear 3 1026 55 10000 6.2 140 11:19 20.11.2020
5315 Clear 4 1060 54 10000 1.34 145 09:30 20.11.2020
5316 Clear 4 1025 55 10000 5.1 140 08:26 20.11.2020
5317 Clear 5 1021 45 10000 6.68 135 07:33 20.11.2020
5318 Clear 9 1019 39 10000 3.01 27 03:44 20.11.2020
5319 Clouds 18 1017 25 10000 6.2 80 22:42 19.11.2020
5320 Clouds 18 1016 23 10000 6.2 80 21:57 19.11.2020
5321 Clouds 18 1016 23 10000 6.2 80 21:38 19.11.2020
5322 Clouds 17 1016 23 10000 4.6 90 20:33 19.11.2020
5323 Clouds 16 1017 31 10000 5.1 80 19:53 19.11.2020
5324 Clouds 16 1017 31 10000 5.1 80 19:24 19.11.2020
5325 Clouds 13 1016 30 10000 1.5 110 17:40 19.11.2020
5326 Clear 11 1025 28 10000 1.3 134 16:54 19.11.2020
5327 Clouds 9 1015 29 10000 1.5 250 15:40 19.11.2020
5328 Clouds 7 1015 45 10000 2.6 120 15:18 19.11.2020
5329 Clouds 8 1014 31 10000 3.1 30 13:46 19.11.2020
5330 Clouds 9 1014 31 10000 3.1 30 13:19 19.11.2020
5331 Clear 9 1014 27 10000 6.2 190 12:35 19.11.2020
5332 Clouds 9 1013 27 10000 5.7 180 11:50 19.11.2020
5333 Clouds 9 1013 27 10000 5.7 180 11:32 19.11.2020
5334 Clouds 10 1013 23 10000 6.2 180 10:53 19.11.2020
5335 Clouds 10 1013 23 10000 6.2 180 10:18 19.11.2020
5336 Clouds 11 1013 29 10000 6.2 180 09:38 19.11.2020
5337 Clouds 11 1013 25 10000 5.1 200 09:18 19.11.2020
5338 Clouds 11 1013 25 10000 6.7 190 08:19 19.11.2020
5339 Clouds 14 1012 21 10000 3.6 180 02:20 19.11.2020
5340 Clouds 16 1012 20 10000 4.6 160 01:30 19.11.2020
5341 Clouds 22 1013 14 10000 7.2 180 23:47 18.11.2020
5342 Clouds 22 1013 16 10000 4.1 180 23:24 18.11.2020
5343 Clouds 22 1013 16 10000 4.1 180 22:30 18.11.2020
5344 Clouds 21 1008 21 10000 0.89 216 21:47 18.11.2020
5345 Clouds 21 1008 22 10000 0.45 169 21:27 18.11.2020
5346 Clouds 20 1009 23 10000 0.89 187 20:41 18.11.2020
5347 Clouds 18 1008 28 10000 3.29 183 19:45 18.11.2020
5348 Clouds 17 1014 34 10000 4.33 200 19:25 18.11.2020
5349 Clouds 16 986 1 10000 3.13 205 18:48 18.11.2020
5350 Clouds 15 1015 37 10000 4.4 206 17:55 18.11.2020
5351 Clouds 14 1015 32 10000 4.56 201 16:58 18.11.2020
5352 Clouds 11 1011 37 10000 4.3 207 16:21 18.11.2020
5353 Clouds 11 1014 34 10000 4.66 207 14:44 18.11.2020
5354 Clouds 11 1015 35 10000 0.45 140 14:25 18.11.2020
5355 Clouds 11 1017 25 10000 4.6 180 13:37 18.11.2020
5356 Clouds 11 1017 25 10000 4.6 180 12:45 18.11.2020
5357 Clouds 11 1017 23 10000 6.7 180 12:18 18.11.2020
5358 Clouds 10 1017 23 10000 6.7 180 11:25 18.11.2020
5359 Clouds 10 1018 26 10000 6.2 200 10:31 18.11.2020
5360 Clouds 10 1019 25 10000 5.7 200 08:52 18.11.2020
5361 Clouds 8 1019 30 10000 5.1 190 07:36 18.11.2020
5362 Clouds 9 1020 30 10000 2.6 180 06:29 18.11.2020
5363 Clouds 22 1021 8 10000 1.5 30 00:22 18.11.2020
5364 Clouds 21 1022 8 10000 3.1 330 23:31 17.11.2020
5365 Clouds 22 1022 8 10000 3.1 330 22:46 17.11.2020
5366 Clouds 22 1022 8 10000 3.1 330 22:27 17.11.2020
5367 Clouds 21 1022 8 10000 0.69 20 21:49 17.11.2020
5368 Clouds 22 1022 8 10000 0.6 73 21:29 17.11.2020
5369 Clouds 21 1024 11 10000 2.1 210 20:43 17.11.2020
5370 Clouds 20 1024 11 10000 2.1 210 20:24 17.11.2020
5371 Clouds 20 1025 12 10000 3.1 200 19:50 17.11.2020
5372 Clouds 16 1025 13 10000 6.2 200 18:23 17.11.2020
5373 Clouds 13 1026 20 10000 5.1 190 17:33 17.11.2020
5374 Clouds 10 1022 24 10000 0.45 154 16:37 17.11.2020
5375 Clouds 8 1025 40 10000 0.45 67 16:18 17.11.2020
5376 Clouds 6 1026 35 10000 4.6 180 15:38 17.11.2020
5377 Clouds 6 1027 35 10000 5.7 170 15:20 17.11.2020
5378 Clouds 6 1027 35 10000 5.7 170 14:30 17.11.2020
5379 Clouds 6 1027 41 10000 5.1 190 13:45 17.11.2020
5380 Clouds 6 1027 41 10000 5.1 190 13:22 17.11.2020
5381 Clouds 5 1027 41 10000 4.1 180 12:42 17.11.2020
5382 Clouds 5 1027 39 10000 5.1 200 11:45 17.11.2020
5383 Clouds 6 1027 39 10000 5.1 200 11:21 17.11.2020
5384 Clouds 6 1027 41 10000 2.6 190 10:39 17.11.2020
5385 Clouds 6 1027 44 10000 4.1 190 09:53 17.11.2020
5386 Clouds 6 1027 44 10000 4.1 190 09:34 17.11.2020
5387 Clouds 6 1027 41 10000 2.6 180 08:25 17.11.2020
5388 Clouds 6 1027 41 10000 3.1 210 07:57 17.11.2020
5389 Clouds 6 1027 41 10000 3.1 210 07:28 17.11.2020
5390 Clouds 8 1027 34 10000 2.6 200 04:29 17.11.2020
5391 Clear 9 1026 42 10000 1.54 291 02:59 17.11.2020
5392 Clouds 10 1026 27 10000 3.1 140 02:22 17.11.2020
5393 Clouds 18 1026 18 10000 2.1 70 00:56 17.11.2020
5394 Clouds 18 1026 17 10000 2.1 0 23:52 16.11.2020
5395 Clouds 18 1025 18 10000 1.5 90 23:29 16.11.2020
5396 Clouds 18 1025 18 10000 2.6 100 22:48 16.11.2020
5397 Clouds 19 1025 18 10000 2.6 100 22:21 16.11.2020
5398 Clouds 18 1025 18 10000 1.5 80 21:49 16.11.2020
5399 Clouds 18 1025 18 10000 1.5 80 21:25 16.11.2020
5400 Clouds 18 1026 18 10000 4.1 180 20:58 16.11.2020
5401 Clouds 18 1026 18 10000 4.1 180 20:25 16.11.2020
5402 Clouds 17 1026 21 10000 4.6 200 19:42 16.11.2020
5403 Clouds 16 1026 21 10000 4.6 200 19:24 16.11.2020
5404 Clouds 14 1026 23 10000 3.1 40 18:42 16.11.2020
5405 Clouds 13 1026 26 10000 3.1 100 17:53 16.11.2020
5406 Clear 10 1025 40 10000 0.89 162 17:25 16.11.2020
5407 Clear 10 1022 31 10000 0.45 171 16:56 16.11.2020
5408 Clouds 9 1026 42 10000 3.6 120 16:36 16.11.2020
5409 Clouds 7 1026 42 10000 3.6 120 16:18 16.11.2020
5410 Clouds 5 1025 41 10000 3.6 130 15:41 16.11.2020
5411 Clouds 4 1024 41 10000 5.7 140 15:21 16.11.2020
5412 Clouds 4 1024 41 10000 5.7 140 14:39 16.11.2020
5413 Clouds 4 1023 48 10000 5.7 160 13:33 16.11.2020
5414 Clouds 3 1023 51 10000 4.1 140 12:34 16.11.2020
5415 Clouds 3 1023 48 10000 4.6 130 11:44 16.11.2020
5416 Clouds 4 1022 47 10000 5.7 130 11:25 16.11.2020
5417 Clouds 4 1022 47 10000 5.7 130 10:51 16.11.2020
5418 Clouds 4 1022 47 10000 5.7 130 10:27 16.11.2020
5419 Clouds 4 1022 51 10000 4.6 150 09:59 16.11.2020
5420 Clouds 4 1022 51 10000 4.6 150 09:40 16.11.2020
5421 Clouds 4 1022 51 10000 5.1 130 08:49 16.11.2020
5422 Clouds 4 1022 51 10000 5.1 130 08:27 16.11.2020
5423 Clouds 5 1021 47 10000 5.7 140 07:43 16.11.2020
5424 Clouds 5 1021 47 10000 5.7 140 07:43 16.11.2020
5425 Clouds 5 1021 44 10000 4.6 110 06:47 16.11.2020
5426 Clouds 5 1021 41 10000 5.7 120 05:53 16.11.2020
5427 Clouds 7 1020 41 10000 6.2 150 04:36 16.11.2020
5428 Clouds 10 1019 31 10000 4.6 20 01:47 16.11.2020
5429 Clouds 11 1020 30 10000 5.01 8 01:21 16.11.2020
5430 Clouds 14 1018 22 10000 8.7 270 23:43 15.11.2020
5431 Clouds 15 1018 20 10000 7.7 320 23:21 15.11.2020
5432 Clouds 15 1018 20 10000 7.7 320 22:37 15.11.2020
5433 Clouds 15 1017 22 10000 9.3 320 22:18 15.11.2020
5434 Clouds 15 1017 22 10000 9.3 320 21:37 15.11.2020
5435 Clouds 14 1018 24 10000 7.7 300 21:19 15.11.2020
5436 Clouds 14 1018 24 10000 7.7 300 20:40 15.11.2020
5437 Clouds 13 1018 25 10000 11.3 280 19:59 15.11.2020
5438 Clouds 13 1018 25 10000 11.3 280 19:41 15.11.2020
5439 Clouds 12 1018 25 10000 11.3 280 19:21 15.11.2020
5440 Clouds 11 1018 21 10000 5.1 260 18:45 15.11.2020
5441 Clouds 10 1018 21 10000 5.1 260 18:25 15.11.2020
5442 Clear 8 1014 24 10000 1.34 250 17:59 15.11.2020
5443 Clouds 7 1018 21 10000 2.6 140 17:40 15.11.2020
5444 Clear 5 1014 24 10000 2.79 200 17:22 15.11.2020
5445 Clouds 5 1018 22 10000 2.1 80 16:44 15.11.2020
5446 Clouds 1 1018 22 10000 2.1 80 16:19 15.11.2020
5447 Clouds 0 1018 26 10000 1.5 220 15:44 15.11.2020
5448 Clouds -1 1018 26 10000 1.5 220 15:25 15.11.2020
5449 Clouds -2 1017 30 10000 2.1 140 14:54 15.11.2020
5450 Clouds -3 1017 30 10000 2.1 140 14:27 15.11.2020
5451 Clear -3 1026 36 10000 0.89 177 13:44 15.11.2020
5452 Clear -4 1026 36 10000 0.89 121 13:25 15.11.2020
5453 Clear -4 1016 45 10000 3.29 156 12:47 15.11.2020
5454 Clear -3 1019 40 10000 0.45 182 12:19 15.11.2020
5455 Clear -3 1017 42 10000 0.89 0 11:44 15.11.2020
5456 Clear -3 1014 37 10000 2.86 148 11:19 15.11.2020
5457 Clear -3 1019 32 10000 2.86 148 10:53 15.11.2020
5458 Clear -3 1019 32 10000 3.36 146 10:31 15.11.2020
5459 Clear -2 1019 30 10000 6.7 330 09:55 15.11.2020
5460 Clear -2 1019 30 10000 6.7 330 09:32 15.11.2020
5461 Clear -2 1019 28 10000 5.1 330 08:56 15.11.2020
5462 Clear -1 1019 26 10000 9.3 310 08:38 15.11.2020
5463 Clear -1 1019 26 10000 9.3 310 07:45 15.11.2020
5464 Clear 0 1015 22 10000 0.45 288 06:42 15.11.2020
5465 Clouds 0 1018 26 10000 6.2 300 04:53 15.11.2020
5466 Clouds 1 1014 22 10000 11.3 280 01:54 15.11.2020
5467 Clouds 1 1013 31 10000 12.9 280 00:30 15.11.2020
5468 Clouds 2 1009 31 10000 5.36 288 23:49 14.11.2020
5469 Clouds 3 1010 25 10000 13.4 300 22:55 14.11.2020
5470 Clouds 3 1010 25 10000 13.4 300 22:55 14.11.2020
5471 Clouds 3 1010 25 10000 13.4 300 22:37 14.11.2020
5472 Clouds 3 1008 21 10000 15.9 290 22:18 14.11.2020
5473 Clouds 4 1008 21 10000 15.9 290 21:39 14.11.2020
5474 Clouds 4 1008 21 10000 15.9 290 21:20 14.11.2020
5475 Clouds 4 1008 23 10000 15.4 300 20:42 14.11.2020
5476 Clouds 4 1008 23 10000 15.4 300 20:23 14.11.2020
5477 Clouds 5 1007 28 10000 11.8 290 19:36 14.11.2020
5478 Clouds 6 1006 38 10000 8.2 280 18:59 14.11.2020
5479 Clouds 6 1006 38 10000 8.2 280 18:39 14.11.2020
5480 Clouds 6 1006 38 10000 8.2 280 18:21 14.11.2020
5481 Clouds 5 1002 38 10000 2.24 286 17:44 14.11.2020
5482 Clear 5 1002 42 10000 0.89 283 17:26 14.11.2020
5483 Clouds 6 1002 39 10000 4.6 260 16:52 14.11.2020
5484 Clouds 8 1002 39 10000 4.6 260 16:31 14.11.2020
5485 Clouds 7 1002 36 10000 4.1 220 15:54 14.11.2020
5486 Clouds 6 1002 36 10000 4.1 220 15:31 14.11.2020
5487 Clouds 6 1002 36 10000 2.6 200 14:56 14.11.2020
5488 Clouds 6 1002 36 10000 2.6 200 14:29 14.11.2020
5489 Clouds 7 1002 31 10000 5.1 240 13:52 14.11.2020
5490 Clouds 7 1002 31 10000 5.1 240 13:30 14.11.2020
5491 Clouds 7 1002 35 10000 4.6 170 12:52 14.11.2020
5492 Clouds 7 1002 35 10000 4.6 170 12:33 14.11.2020
5493 Clouds 8 1002 26 10000 8.2 220 11:56 14.11.2020
5494 Clouds 8 1002 26 10000 8.2 220 11:37 14.11.2020
5495 Clouds 7 1002 26 10000 6.2 240 10:59 14.11.2020
5496 Clouds 7 1002 26 10000 6.2 240 10:38 14.11.2020
5497 Clouds 7 1002 26 10000 3.1 230 10:20 14.11.2020
5498 Clouds 7 1002 26 10000 3.1 230 09:43 14.11.2020
5499 Clouds 7 1002 26 10000 3.1 230 09:23 14.11.2020
5500 Clouds 7 1002 22 10000 4.1 190 08:40 14.11.2020
5501 Clouds 8 1002 22 10000 4.1 190 08:20 14.11.2020
5502 Clouds 8 1002 19 10000 6.2 200 07:41 14.11.2020
5503 Clouds 8 1003 24 10000 6.2 160 06:43 14.11.2020
5504 Clouds 8 1003 24 10000 6.2 160 06:20 14.11.2020
5505 Clouds 8 1004 21 10000 6.7 200 04:45 14.11.2020
5506 Clouds 11 1006 20 10000 6.7 210 01:42 14.11.2020
5507 Clouds 14 1006 15 10000 7.2 240 00:25 14.11.2020
5508 Clouds 16 1007 11 10000 7.2 210 23:33 13.11.2020
5509 Clouds 16 1008 10 10000 8.7 230 22:58 13.11.2020
5510 Clouds 16 1008 10 10000 8.7 230 22:39 13.11.2020
5511 Clouds 16 1008 10 10000 8.7 230 22:20 13.11.2020
5512 Clouds 16 1010 11 10000 6.7 230 21:44 13.11.2020
5513 Clouds 16 1010 11 10000 6.7 230 21:23 13.11.2020
5514 Clouds 16 1012 11 10000 3.6 260 20:51 13.11.2020
5515 Clouds 16 1012 11 10000 3.6 260 20:29 13.11.2020
5516 Clouds 15 1013 14 10000 4.1 230 19:54 13.11.2020
5517 Clouds 15 1013 14 10000 4.1 230 19:36 13.11.2020
5518 Clouds 14 1013 14 10000 4.1 230 19:18 13.11.2020
5519 Clouds 12 1014 14 10000 6.7 200 18:32 13.11.2020
5520 Clouds 10 1015 16 10000 7.7 210 17:43 13.11.2020
5521 Clear 7 1015 30 10000 2.24 46 17:21 13.11.2020
5522 Clouds 6 1015 21 10000 5.1 180 16:50 13.11.2020
5523 Clouds 3 1015 21 10000 5.1 180 16:25 13.11.2020
5524 Clouds 1 1016 28 10000 4.6 180 15:58 13.11.2020
5525 Clouds -1 1016 28 10000 4.6 180 15:33 13.11.2020
5526 Clouds -2 1016 33 10000 4.6 180 14:55 13.11.2020
5527 Clouds -2 1016 33 10000 4.6 180 14:36 13.11.2020
5528 Clear -2 1016 35 10000 6.7 180 14:18 13.11.2020
5529 Clear -2 1016 35 10000 6.7 180 14:18 13.11.2020
5530 Clear -2 1016 35 10000 6.7 180 14:18 13.11.2020
5531 Clear -2 1016 35 10000 6.7 180 14:18 13.11.2020
5532 Clear -2 1016 35 10000 6.7 180 13:31 13.11.2020
5533 Clear -2 1016 36 10000 4.6 190 12:52 13.11.2020
5534 Clear -2 1016 36 10000 4.6 190 12:27 13.11.2020
5535 Clear -1 1016 39 10000 6.7 190 11:58 13.11.2020
5536 Clear -1 1016 39 10000 6.7 190 11:39 13.11.2020
5537 Clear -1 1017 42 10000 8.2 190 11:19 13.11.2020
5538 Clear -1 1017 42 10000 8.2 190 10:41 13.11.2020
5539 Clear -2 1017 42 10000 8.2 190 10:23 13.11.2020
5540 Clear -1 1017 42 10000 6.7 200 09:47 13.11.2020
5541 Clear -1 1017 42 10000 6.7 200 09:25 13.11.2020
5542 Clear -1 1018 61 10000 7.7 200 08:53 13.11.2020
5543 Clear -1 1018 61 10000 7.7 200 08:23 13.11.2020
5544 Clear 0 1018 61 10000 6.7 180 07:49 13.11.2020
5545 Clear 0 1018 60 10000 6.7 180 07:27 13.11.2020
5546 Clear 0 1019 40 10000 9.3 190 06:55 13.11.2020
5547 Clear 0 1019 40 10000 9.3 190 06:34 13.11.2020
5548 Clear 0 1019 40 10000 9.3 190 06:34 13.11.2020
5549 Clear 0 1019 46 10000 5.7 190 05:40 13.11.2020
5550 Clouds 1 1019 59 10000 5.1 120 02:57 13.11.2020
5551 Clouds 3 1019 43 10000 6.7 120 01:39 13.11.2020
5552 Clouds 6 1018 35 10000 7.2 120 00:35 13.11.2020
5553 Clouds 7 1017 22 10000 2.6 100 23:47 12.11.2020
5554 Clouds 8 1017 22 10000 2.6 100 23:20 12.11.2020
5555 Clouds 8 1017 24 10000 1.5 110 22:54 12.11.2020
5556 Clouds 8 1017 24 10000 1.5 110 22:36 12.11.2020
5557 Clouds 8 1017 20 10000 2.6 270 21:57 12.11.2020
5558 Clouds 7 1017 20 10000 2.6 270 21:38 12.11.2020
5559 Clear 7 1012 20 10000 0.45 156 21:18 12.11.2020
5560 Clouds 6 1018 32 10000 1.5 100 20:40 12.11.2020
5561 Clear 6 1020 30 10000 0.89 54 20:22 12.11.2020
5562 Clouds 5 1018 38 10000 2.44 103 19:52 12.11.2020
5563 Clouds 5 1018 38 10000 2.44 103 19:33 12.11.2020
5564 Clouds 4 1018 40 10000 3.16 67 18:56 12.11.2020
5565 Clouds 4 1018 40 10000 3.64 81 18:56 12.11.2020
5566 Clouds 4 1018 40 10000 3.64 81 18:37 12.11.2020
5567 Clouds 3 1022 44 10000 0.89 98 18:18 12.11.2020
5568 Clouds 3 1014 42 10000 0.45 45 17:39 12.11.2020
5569 Clouds 2 1018 50 10000 3.6 120 17:20 12.11.2020
5570 Clouds 0 1017 57 10000 0.45 45 16:44 12.11.2020
5571 Clouds -1 1017 73 10000 2.6 160 16:23 12.11.2020
5572 Clouds -2 1015 70 10000 1.99 113 15:46 12.11.2020
5573 Clouds -3 1017 73 10000 1.5 190 15:26 12.11.2020
5574 Clouds -3 1015 73 10000 3.6 170 14:47 12.11.2020
5575 Clouds -3 1015 73 10000 3.6 170 14:27 12.11.2020
5576 Clouds -3 1015 73 10000 3.6 170 14:27 12.11.2020
5577 Clouds -3 1015 79 10000 3.1 100 13:57 12.11.2020
5578 Clouds -4 1015 79 10000 3.1 100 13:37 12.11.2020
5579 Clouds -4 1014 73 10000 4.6 150 13:18 12.11.2020
5580 Clouds -4 1014 73 10000 4.6 150 12:44 12.11.2020
5581 Clouds -4 1014 73 10000 4.6 150 12:23 12.11.2020
5582 Clouds -4 1014 79 10000 4.6 130 11:52 12.11.2020
5583 Clouds -4 1014 79 10000 4.6 130 11:30 12.11.2020
5584 Clear -3 1024 68 10000 1.56 111 10:45 12.11.2020
5585 Clouds -3 1014 79 10000 5.1 130 10:27 12.11.2020
5586 Clouds -3 1014 73 10000 4.6 120 09:49 12.11.2020
5587 Clouds -3 1014 73 10000 4.6 120 09:24 12.11.2020
5588 Clouds -3 1014 73 10000 4.1 140 08:57 12.11.2020
5589 Clouds -3 1014 73 10000 4.1 140 08:39 12.11.2020
5590 Clouds -2 1014 73 10000 4.1 140 08:20 12.11.2020
5591 Clouds -2 1014 68 10000 1.5 80 07:52 12.11.2020
5592 Clouds -2 1014 68 10000 2.1 190 07:25 12.11.2020
5593 Clouds -2 1014 68 10000 2.1 190 06:51 12.11.2020
5594 Clouds -1 1013 68 10000 3.1 190 05:38 12.11.2020
5595 Clouds 1 1012 50 10000 4.1 90 03:24 12.11.2020
5596 Clouds 2 1011 47 10000 6.7 50 02:53 12.11.2020
5597 Clouds 7 1010 30 10000 8.2 40 00:22 12.11.2020
5598 Clouds 8 1010 28 10000 7.7 60 23:26 11.11.2020
5599 Clear 8 1006 18 10000 0.89 22 22:59 11.11.2020
5600 Clear 9 1006 18 10000 2.62 32 22:40 11.11.2020
5601 Clouds 8 1010 16 10000 4.1 10 22:21 11.11.2020
5602 Clouds 8 1011 18 10000 2.1 150 21:54 11.11.2020
5603 Clouds 8 1011 18 10000 2.1 150 21:36 11.11.2020
5604 Clouds 8 1011 18 10000 2.1 150 21:18 11.11.2020
5605 Clouds 8 1012 20 10000 2.6 180 20:41 11.11.2020
5606 Clouds 7 1014 24 10000 2.6 190 20:21 11.11.2020
5607 Clouds 7 1014 24 10000 2.6 190 19:49 11.11.2020
5608 Clouds 6 1014 24 10000 2.6 190 19:31 11.11.2020
5609 Clouds 5 1015 35 10000 3.6 120 18:55 11.11.2020
5610 Clouds 5 1015 35 10000 3.6 120 18:35 11.11.2020
5611 Clouds 3 1016 40 10000 5.7 160 17:43 11.11.2020
5612 Clouds 2 1016 40 10000 5.7 160 17:23 11.11.2020
5613 Clear 1 1015 42 10000 0.89 138 16:56 11.11.2020
5614 Clouds -1 1016 58 10000 3.6 190 16:35 11.11.2020
5615 Clouds -5 1015 67 10000 3.6 190 15:53 11.11.2020
5616 Clouds -5 1015 67 10000 3.6 190 15:27 11.11.2020
5617 Clear -5 1014 67 10000 1.34 171 14:59 11.11.2020
5618 Clear -5 1014 67 10000 1.34 171 14:39 11.11.2020
5619 Clear -5 1014 67 10000 1.1 178 14:18 11.11.2020
5620 Clear -4 1024 65 10000 1.1 178 13:43 11.11.2020
5621 Clear -4 1014 62 10000 3.1 190 12:52 11.11.2020
5622 Clear -3 1014 67 10000 3.6 180 12:21 11.11.2020
5623 Clear -3 1013 66 10000 1.69 172 11:50 11.11.2020
5624 Clear -3 1013 66 10000 1.69 172 11:50 11.11.2020
5625 Clear -3 1023 62 10000 1.26 181 11:30 11.11.2020
5626 Clear -3 1014 39 10000 1.5 50 10:43 11.11.2020
5627 Clear -2 1014 39 10000 1.5 50 10:25 11.11.2020
5628 Clear -2 1013 46 10000 3.1 10 09:52 11.11.2020
5629 Clear -1 1013 46 10000 3.1 10 09:29 11.11.2020
5630 Clear -1 1014 46 10000 3.6 300 08:57 11.11.2020
5631 Clear 0 1014 46 10000 3.6 300 08:36 11.11.2020
5632 Clear 0 1013 61 10000 4.1 290 08:18 11.11.2020
5633 Clear 1 1013 61 10000 4.1 290 07:41 11.11.2020
5634 Clouds 1 1009 30 10000 1.31 259 06:30 11.11.2020
5635 Clouds 1 1012 80 10000 2.1 150 04:49 11.11.2020
5636 Clouds 4 1006 24 10000 1.21 32 01:36 11.11.2020
5637 Clouds 4 1006 24 10000 1.21 32 01:36 11.11.2020
5638 Clouds 5 1008 35 10000 6.2 10 00:56 11.11.2020
5639 Clouds 6 1008 35 10000 6.2 10 00:22 11.11.2020
5640 Clouds 7 1007 24 10000 6.2 350 23:36 10.11.2020
5641 Clouds 8 1006 22 10000 2.6 280 23:18 10.11.2020
5642 Clouds 8 1006 22 10000 2.6 280 22:43 10.11.2020
5643 Clouds 8 1006 22 10000 2.6 280 22:20 10.11.2020
5644 Clouds 8 1006 26 10000 2.6 240 21:40 10.11.2020
5645 Clouds 8 1006 26 10000 2.6 240 21:22 10.11.2020
5646 Clouds 7 1007 33 10000 3.1 230 20:44 10.11.2020
5647 Clear 6 1012 36 10000 0.45 260 20:24 10.11.2020
5648 Clear 6 1003 26 10000 1.2 180 19:58 10.11.2020
5649 Clear 5 1004 28 10000 1.2 180 19:39 10.11.2020
5650 Clear 5 1012 42 10000 0.45 112 19:21 10.11.2020
5651 Clouds 4 1009 40 10000 3.6 220 18:42 10.11.2020
5652 Clouds 4 1009 40 10000 3.6 220 18:21 10.11.2020
5653 Clear 3 1005 46 10000 2 198 17:47 10.11.2020
5654 Clouds 2 1009 55 10000 3.1 210 17:28 10.11.2020
5655 Clear 2 1009 47 10000 0.45 279 16:58 10.11.2020
5656 Clear 2 1009 50 10000 1.27 200 16:40 10.11.2020
5657 Clouds -1 1010 68 10000 3.1 190 16:22 10.11.2020
5658 Clouds -5 1009 73 10000 4.1 180 15:48 10.11.2020
5659 Clear -4 1079 77 10000 0.89 159 15:27 10.11.2020
5660 Clear -4 1077 80 10000 0.45 144 14:47 10.11.2020
5661 Clouds -4 1009 79 10000 3.1 200 14:24 10.11.2020
5662 Clear -5 1009 85 10000 4.1 190 14:00 10.11.2020
5663 Clear -4 1009 85 10000 4.1 190 13:38 10.11.2020
5664 Clouds -4 1009 92 10000 1.5 0 13:19 10.11.2020
5665 Clouds -4 1009 92 10000 1.5 0 12:45 10.11.2020
5666 Clouds -4 1009 92 10000 4.1 190 12:24 10.11.2020
5667 Clouds -4 1009 92 10000 1.5 0 12:24 10.11.2020
5668 Clouds -4 1009 92 10000 4.1 190 11:43 10.11.2020
5669 Clouds -4 1009 92 10000 2.1 120 11:21 10.11.2020
5670 Clouds -4 1009 92 10000 2.1 120 11:21 10.11.2020
5671 Clouds -3 1009 92 10000 2.1 120 10:57 10.11.2020
5672 Clouds -3 1009 92 10000 2.1 120 10:37 10.11.2020
5673 Clouds -3 1009 100 10000 1.5 110 10:19 10.11.2020
5674 Clouds -3 1009 100 10000 1.5 110 09:42 10.11.2020
5675 Clouds -3 1006 83 10000 0.83 104 09:24 10.11.2020
5676 Clouds -3 1006 83 10000 0.83 104 09:24 10.11.2020
5677 Clouds -3 1013 90 10000 0.83 104 08:52 10.11.2020
5678 Clouds -3 1006 84 10000 1.27 144 08:26 10.11.2020
5679 Clouds -3 1006 84 10000 1.27 144 07:44 10.11.2020
5680 Clouds -3 1006 84 10000 0.67 74 07:22 10.11.2020
5681 Clouds -3 1007 84 10000 1.52 105 06:40 10.11.2020
5682 Clouds -3 1008 85 10000 3.32 78 05:42 10.11.2020
5683 Clouds -3 1008 86 10000 2 47 04:54 10.11.2020
5684 Rain -3 1012 92 10000 2.6 70 02:28 10.11.2020
5685 Clouds -2 1021 86 10000 0.45 269 01:29 10.11.2020
5686 Clouds -2 1011 100 10000 4.6 70 23:54 09.11.2020
5687 Clouds -2 1011 100 10000 4.6 70 23:30 09.11.2020
5688 Rain 0 1012 90 2093 0.45 36 22:47 09.11.2020
5689 Snow -1 1010 92 4828 4.6 60 22:24 09.11.2020
5690 Rain 0 1010 71 10000 3.6 60 21:54 09.11.2020
5691 Clouds 0 1010 71 10000 3.6 60 21:36 09.11.2020
5692 Mist 0 1011 100 2012 3.1 60 21:18 09.11.2020
5693 Mist 0 1011 100 2012 3.1 60 20:37 09.11.2020
5694 Mist 0 1011 65 8047 3.6 50 20:18 09.11.2020
5695 Mist 2 1011 65 8047 3.6 50 19:41 09.11.2020
5696 Mist 1 1011 70 8047 3.6 50 19:21 09.11.2020
5697 Mist 2 1011 70 6437 3.1 40 18:41 09.11.2020
5698 Clouds 2 1009 73 10000 0.45 77 18:20 09.11.2020
5699 Clouds 1 1008 72 10000 0.89 80 17:50 09.11.2020
5700 Clouds 1 1007 72 10000 0.45 29 17:30 09.11.2020
5701 Clouds 1 1008 74 10000 0.45 45 16:46 09.11.2020
5702 Clouds 1 1006 72 10000 0.45 204 16:28 09.11.2020
5703 Clouds 1 1006 72 10000 2.36 28 16:27 09.11.2020
5704 Clouds 1 1008 78 10000 0.45 31 15:51 09.11.2020
5705 Clouds 1 1007 78 10000 3.34 32 15:31 09.11.2020
5706 Clouds 1 1005 76 10000 0.45 19 14:59 09.11.2020
5707 Clear 1 1005 73 10000 4.67 16 14:40 09.11.2020
5708 Clear 1 1006 75 10000 0.89 42 14:22 09.11.2020
5709 Clouds 1 1007 50 10000 4.67 16 13:43 09.11.2020
5710 Clouds 2 1007 47 10000 5.7 40 13:19 09.11.2020
5711 Clouds 2 1007 47 10000 5.7 40 12:47 09.11.2020
5712 Clouds 3 1006 51 10000 3.6 50 12:21 09.11.2020
5713 Clouds 3 1006 51 10000 3.6 50 11:43 09.11.2020
5714 Clouds 4 1002 39 10000 7.18 358 11:25 09.11.2020
5715 Clouds 4 1002 55 10000 7.18 358 10:59 09.11.2020
5716 Clouds 5 1001 50 10000 7.18 358 10:41 09.11.2020
5717 Clouds 5 1001 56 10000 4.92 348 10:22 09.11.2020
5718 Clouds 5 1005 60 10000 7.2 270 09:40 09.11.2020
5719 Clouds 6 1000 58 10000 0.45 341 09:22 09.11.2020
5720 Clouds 7 1005 52 10000 4.66 359 08:29 09.11.2020
5721 Clouds 6 1005 52 10000 4.66 359 07:57 09.11.2020
5722 Clouds 7 1005 52 10000 4.66 359 07:38 09.11.2020
5723 Clouds 6 1005 48 10000 2.6 240 07:18 09.11.2020
5724 Clear 7 1001 46 10000 0.45 232 05:54 09.11.2020
5725 Clouds 9 1005 21 10000 5.1 190 02:57 09.11.2020
5726 Clouds 11 1004 17 10000 6.2 220 01:41 09.11.2020
5727 Clear 12 1000 15 10000 2.24 206 00:56 09.11.2020
5728 Clouds 14 1003 10 10000 4.1 190 23:50 08.11.2020
5729 Clouds 15 1003 10 10000 4.1 190 23:28 08.11.2020
5730 Clouds 15 1002 12 10000 5.7 180 22:43 08.11.2020
5731 Clouds 15 1002 12 10000 5.7 180 22:22 08.11.2020
5732 Clouds 14 1003 15 10000 7.2 200 21:49 08.11.2020
5733 Clouds 14 1003 15 10000 7.2 200 21:24 08.11.2020
5734 Clouds 14 1003 16 10000 8.2 200 20:59 08.11.2020
5735 Clouds 14 1003 16 10000 8.2 200 20:39 08.11.2020
5736 Clouds 13 1003 16 10000 8.2 200 20:20 08.11.2020
5737 Clouds 13 1003 14 10000 6.2 220 19:46 08.11.2020
5738 Clouds 12 1003 14 10000 6.2 220 19:24 08.11.2020
5739 Clouds 12 1003 14 10000 10.3 200 18:59 08.11.2020
5740 Clouds 12 1003 14 10000 10.3 200 18:41 08.11.2020
5741 Clouds 11 1002 19 10000 9.3 220 18:21 08.11.2020
5742 Clouds 11 1002 19 10000 9.3 220 17:56 08.11.2020
5743 Clouds 11 1002 19 10000 9.3 220 17:36 08.11.2020
5744 Clouds 10 1000 25 10000 9.8 230 17:18 08.11.2020
5745 Clouds 10 1000 25 10000 9.8 230 16:38 08.11.2020
5746 Clouds 10 1000 25 10000 9.8 230 16:20 08.11.2020
5747 Clouds 10 997 19 10000 12.9 230 15:46 08.11.2020
5748 Clouds 10 997 19 10000 12.9 230 15:28 08.11.2020
5749 Clouds 11 995 30 10000 10.3 210 14:44 08.11.2020
5750 Clouds 11 995 30 10000 10.3 210 14:24 08.11.2020
5751 Clouds 11 994 39 10000 14.4 200 13:57 08.11.2020
5752 Clouds 11 994 39 10000 14.4 200 13:38 08.11.2020
5753 Clouds 11 994 58 10000 8.2 180 13:18 08.11.2020
5754 Clouds 12 994 58 10000 8.2 180 12:40 08.11.2020
5755 Clouds 12 994 58 10000 8.2 180 12:22 08.11.2020
5756 Clouds 12 993 47 10000 10.3 190 11:56 08.11.2020
5757 Clouds 13 993 47 10000 10.3 190 11:37 08.11.2020
5758 Clouds 13 994 50 10000 8.7 170 11:19 08.11.2020
5759 Clouds 13 994 50 10000 8.7 170 10:42 08.11.2020
5760 Clouds 13 995 47 10000 8.7 190 10:18 08.11.2020
5761 Clouds 14 995 47 10000 8.7 190 09:42 08.11.2020
5762 Clouds 14 996 47 10000 9.8 180 09:22 08.11.2020
5763 Clouds 14 996 47 10000 9.8 180 08:47 08.11.2020
5764 Clouds 14 996 47 10000 9.8 180 08:23 08.11.2020
5765 Clouds 13 997 43 10000 5.1 180 07:53 08.11.2020
5766 Clouds 14 997 43 10000 5.1 180 07:31 08.11.2020
5767 Clouds 15 999 41 10000 8.7 180 06:29 08.11.2020
5768 Clouds 15 1000 36 10000 7.7 190 05:54 08.11.2020
5769 Clouds 16 1000 33 10000 12.9 190 04:51 08.11.2020
5770 Clouds 17 1001 28 10000 4.6 160 02:44 08.11.2020
5771 Clouds 19 997 19 10000 0.89 168 01:19 08.11.2020
5772 Clouds 19 1002 24 10000 6.2 200 01:19 08.11.2020
5773 Clouds 19 997 19 10000 0.89 168 01:19 08.11.2020
5774 Clouds 21 998 18 10000 1.34 148 00:31 08.11.2020
5775 Clouds 22 1003 21 10000 9.3 200 23:56 07.11.2020
5776 Clouds 22 1003 21 10000 9.3 200 23:37 07.11.2020
5777 Clouds 22 1004 21 10000 10.3 200 23:18 07.11.2020
5778 Clouds 22 1004 21 10000 10.3 200 22:39 07.11.2020
5779 Clouds 22 1004 21 10000 10.3 200 22:20 07.11.2020
5780 Clouds 22 1004 19 10000 9.3 200 21:40 07.11.2020
5781 Clouds 22 1005 19 10000 11.3 210 21:19 07.11.2020
5782 Clouds 22 1005 19 10000 11.3 210 20:46 07.11.2020
5783 Clouds 22 1005 19 10000 11.3 210 20:28 07.11.2020
5784 Clouds 22 1007 21 10000 9.3 180 19:49 07.11.2020
5785 Clouds 21 1007 21 10000 9.3 180 19:28 07.11.2020
5786 Clouds 20 1008 22 10000 6.2 210 18:45 07.11.2020
5787 Clouds 19 1008 22 10000 6.2 210 18:27 07.11.2020
5788 Clouds 18 1008 25 10000 11.3 190 17:57 07.11.2020
5789 Clouds 17 1008 25 10000 11.3 190 17:37 07.11.2020
5790 Clouds 17 1009 25 10000 8.7 180 16:54 07.11.2020
5791 Clouds 16 1009 25 10000 8.7 180 16:36 07.11.2020
5792 Clouds 16 1009 26 10000 7.2 200 16:18 07.11.2020
5793 Clouds 15 1009 26 10000 7.2 200 15:41 07.11.2020
5794 Clouds 15 1009 26 10000 7.2 200 15:22 07.11.2020
5795 Clouds 14 1009 28 10000 6.2 200 14:45 07.11.2020
5796 Clouds 14 1009 28 10000 6.2 200 14:26 07.11.2020
5797 Clouds 14 1009 28 10000 6.2 190 13:55 07.11.2020
5798 Clouds 14 1009 28 10000 6.2 190 13:30 07.11.2020
5799 Clouds 14 1010 28 10000 4.6 200 12:47 07.11.2020
5800 Clouds 14 1010 28 10000 4.6 200 12:25 07.11.2020
5801 Clouds 15 1010 25 10000 5.7 180 11:43 07.11.2020
5802 Clouds 15 1010 23 10000 8.2 190 11:22 07.11.2020
5803 Clouds 14 1010 23 10000 8.2 190 10:45 07.11.2020
5804 Clouds 14 1010 23 10000 8.2 190 10:27 07.11.2020
5805 Clouds 14 1010 24 10000 8.2 190 09:53 07.11.2020
5806 Clouds 14 1010 24 10000 8.2 190 09:34 07.11.2020
5807 Clouds 14 1011 24 10000 7.2 190 08:53 07.11.2020
5808 Clouds 14 1011 24 10000 7.2 190 08:35 07.11.2020
5809 Clouds 15 1006 20 10000 0.45 180 07:55 07.11.2020
5810 Clouds 15 1011 20 10000 7.2 200 07:29 07.11.2020
5811 Clouds 15 1012 22 10000 3.1 180 06:47 07.11.2020
5812 Clouds 14 1012 24 10000 5.7 200 05:34 07.11.2020
5813 Clouds 15 1012 21 10000 5.1 230 03:24 07.11.2020
5814 Clouds 16 1012 21 10000 3.1 310 01:29 07.11.2020
5815 Clouds 17 1007 16 10000 1.26 342 00:59 07.11.2020
5816 Clouds 20 1012 14 10000 4.1 20 23:56 06.11.2020
5817 Clouds 21 1012 14 10000 4.1 20 23:22 06.11.2020
5818 Clouds 21 1012 11 10000 1.63 338 22:42 06.11.2020
5819 Clouds 22 1013 11 10000 2.1 260 22:19 06.11.2020
5820 Clouds 22 1013 11 10000 2.1 260 21:46 06.11.2020
5821 Clouds 22 1013 11 10000 2.1 260 21:22 06.11.2020
5822 Clouds 22 1014 11 10000 2.6 220 20:56 06.11.2020
5823 Clouds 22 1014 11 10000 2.6 220 20:38 06.11.2020
5824 Clouds 22 1015 10 10000 0.94 52 20:18 06.11.2020
5825 Clouds 22 1015 10 10000 0.94 52 19:44 06.11.2020
5826 Clouds 22 1015 10 10000 1.31 216 19:26 06.11.2020
5827 Clouds 21 1015 14 10000 5.7 250 18:45 06.11.2020
5828 Clouds 20 1015 14 10000 5.7 250 18:23 06.11.2020
5829 Clouds 18 1016 16 10000 6.2 220 17:51 06.11.2020
5830 Clouds 16 1011 19 10000 0.45 242 17:27 06.11.2020
5831 Clouds 15 1016 20 10000 5.7 200 16:50 06.11.2020
5832 Clouds 12 1012 25 10000 1.88 211 16:31 06.11.2020
5833 Clouds 13 1016 21 10000 5.1 250 15:53 06.11.2020
5834 Clouds 13 1016 21 10000 5.1 250 15:33 06.11.2020
5835 Clouds 12 1016 26 10000 7.7 180 14:54 06.11.2020
5836 Clouds 12 1016 26 10000 7.7 180 14:27 06.11.2020
5837 Clear 11 1016 25 10000 3.6 170 13:47 06.11.2020
5838 Clear 12 1016 26 10000 6.2 210 13:25 06.11.2020
5839 Clear 13 1016 26 10000 6.2 210 12:47 06.11.2020
5840 Clear 13 1016 26 10000 6.2 210 12:25 06.11.2020
5841 Clear 12 1017 27 10000 6.7 190 11:58 06.11.2020
5842 Clear 12 1017 27 10000 6.7 190 11:36 06.11.2020
5843 Clear 13 1018 30 10000 5.7 190 10:47 06.11.2020
5844 Clear 12 1018 30 10000 5.7 190 10:27 06.11.2020
5845 Clear 12 1018 30 10000 7.2 190 09:50 06.11.2020
5846 Clear 12 1018 30 10000 7.2 190 09:22 06.11.2020
5847 Clear 12 1019 28 10000 9.3 190 08:51 06.11.2020
5848 Clear 13 1019 28 10000 9.3 190 08:29 06.11.2020
5849 Clear 13 1020 28 10000 10.8 190 07:54 06.11.2020
5850 Clear 14 1020 28 10000 10.8 190 07:34 06.11.2020
5851 Clear 14 1022 28 10000 8.7 180 06:59 06.11.2020
5852 Clear 14 1022 28 10000 8.7 180 06:24 06.11.2020
5853 Clear 14 1022 30 10000 8.2 190 05:36 06.11.2020
5854 Clouds 18 1024 20 10000 4.1 160 01:23 06.11.2020
5855 Clear 22 1024 11 10000 2.6 170 00:22 06.11.2020
5856 Clear 24 1024 11 10000 2.6 200 23:35 05.11.2020
5857 Clear 24 1025 11 10000 3.1 150 22:58 05.11.2020
5858 Clear 24 1025 11 10000 3.1 150 22:40 05.11.2020
5859 Clear 24 1026 13 10000 4.1 150 22:21 05.11.2020
5860 Clear 24 1026 13 10000 4.1 150 21:43 05.11.2020
5861 Clear 23 1027 15 10000 4.6 180 21:22 05.11.2020
5862 Clear 23 1027 15 10000 4.6 180 20:57 05.11.2020
5863 Clear 23 1027 15 10000 4.6 180 20:39 05.11.2020
5864 Clear 23 1027 15 10000 4.6 180 20:21 05.11.2020
5865 Clear 22 1028 19 10000 5.7 200 19:42 05.11.2020
5866 Clear 21 1028 19 10000 5.7 200 19:23 05.11.2020
5867 Clear 20 1029 22 10000 2.1 260 18:46 05.11.2020
5868 Clear 19 1029 22 10000 2.1 260 18:26 05.11.2020
5869 Clear 18 1025 21 10000 0.45 215 17:52 05.11.2020
5870 Clear 16 1030 26 10000 5.7 200 17:31 05.11.2020
5871 Clear 15 1025 26 10000 1.79 147 16:59 05.11.2020
5872 Clear 14 1025 28 10000 0.89 193 16:41 05.11.2020
5873 Clear 12 1029 34 10000 5.1 200 16:20 05.11.2020
5874 Clear 11 1019 42 10000 1.34 206 15:46 05.11.2020
5875 Clear 9 1029 45 10000 5.7 200 15:22 05.11.2020
5876 Clear 9 1029 45 10000 5.7 200 14:46 05.11.2020
5877 Clear 9 1029 45 10000 5.7 200 14:27 05.11.2020
5878 Clear 9 1029 42 10000 5.1 200 13:45 05.11.2020
5879 Clear 9 1029 42 10000 5.1 200 13:26 05.11.2020
5880 Clear 9 1029 45 10000 4.6 200 12:53 05.11.2020
5881 Clear 9 1029 45 10000 4.6 200 12:27 05.11.2020
5882 Clear 10 1029 42 10000 4.1 190 11:55 05.11.2020
5883 Clear 10 1029 42 10000 4.1 190 11:30 05.11.2020
5884 Clear 10 1029 42 10000 5.7 180 10:58 05.11.2020
5885 Clear 9 1029 42 10000 5.7 180 10:39 05.11.2020
5886 Clear 10 1029 42 10000 5.7 180 10:21 05.11.2020
5887 Clear 10 1029 42 10000 5.1 180 09:44 05.11.2020
5888 Clear 10 1029 45 10000 3.6 190 09:21 05.11.2020
5889 Clear 10 1029 45 10000 3.6 190 09:21 05.11.2020
5890 Clear 10 1029 45 10000 3.6 190 08:43 05.11.2020
5891 Clear 10 1029 45 10000 3.6 190 08:25 05.11.2020
5892 Clouds 11 1029 40 10000 4.1 190 07:30 05.11.2020
5893 Clouds 11 1029 43 10000 3.6 190 06:52 05.11.2020
5894 Clouds 11 1029 43 10000 3.6 190 06:34 05.11.2020
5895 Clouds 13 1028 37 10000 2.6 210 05:22 05.11.2020
5896 Clouds 19 1025 22 10000 3.6 300 01:23 05.11.2020
5897 Clouds 21 1024 19 10000 3.6 290 00:30 05.11.2020
5898 Clear 22 1020 15 10000 0.45 289 23:44 04.11.2020
5899 Clouds 23 1023 16 10000 2.1 350 23:25 04.11.2020
5900 Clouds 23 1023 15 10000 4.6 360 22:48 04.11.2020
5901 Clouds 24 1023 15 10000 4.6 360 22:24 04.11.2020
5902 Clouds 24 1023 15 10000 4.6 360 22:24 04.11.2020
5903 Clouds 24 1023 17 10000 1.5 320 21:56 04.11.2020
5904 Clouds 24 1023 17 10000 1.5 320 21:36 04.11.2020
5905 Clouds 24 1024 17 10000 1.5 270 21:18 04.11.2020
5906 Clouds 23 1024 17 10000 1.5 270 20:41 04.11.2020
5907 Clouds 23 1024 19 10000 1.5 330 20:23 04.11.2020
5908 Clouds 23 1024 19 10000 1.5 330 19:44 04.11.2020
5909 Clouds 23 1024 19 10000 1.5 330 19:44 04.11.2020
5910 Clouds 22 1024 19 10000 1.5 330 19:26 04.11.2020
5911 Clouds 20 1024 20 10000 3.6 240 18:44 04.11.2020
5912 Clouds 20 1024 20 10000 3.6 240 18:25 04.11.2020
5913 Clouds 20 1024 20 10000 3.6 240 18:25 04.11.2020
5914 Clear 18 1020 20 10000 1.61 252 17:57 04.11.2020
5915 Clear 17 1019 29 10000 0.89 206 17:38 04.11.2020
5916 Clear 16 1019 31 10000 0.89 173 17:19 04.11.2020
5917 Clouds 13 1024 30 10000 3.6 200 16:38 04.11.2020
5918 Clouds 12 1024 30 10000 3.6 200 16:20 04.11.2020
5919 Clouds 11 1023 36 10000 3.6 190 15:46 04.11.2020
5920 Clouds 9 1023 36 10000 3.6 190 15:24 04.11.2020
5921 Clouds 9 1023 34 10000 4.1 190 14:48 04.11.2020
5922 Clouds 9 1023 34 10000 4.1 190 14:27 04.11.2020
5923 Clouds 9 1022 36 10000 4.1 190 13:57 04.11.2020
5924 Clouds 9 1022 36 10000 4.1 190 13:39 04.11.2020
5925 Clouds 10 1022 36 10000 4.1 190 13:19 04.11.2020
5926 Clouds 9 1022 36 10000 4.1 190 12:48 04.11.2020
5927 Clouds 9 1022 36 10000 4.1 190 12:24 04.11.2020
5928 Clouds 9 1022 31 10000 4.6 220 11:48 04.11.2020
5929 Clouds 9 1022 31 10000 4.6 220 11:30 04.11.2020
5930 Clouds 10 1022 31 10000 4.1 200 10:58 04.11.2020
5931 Clouds 10 1022 31 10000 4.1 200 10:39 04.11.2020
5932 Clouds 9 1022 31 10000 4.1 200 10:21 04.11.2020
5933 Clouds 9 1022 31 10000 4.1 200 09:44 04.11.2020
5934 Clouds 10 1022 31 10000 4.1 200 09:20 04.11.2020
5935 Clouds 11 1022 34 10000 3.6 200 08:42 04.11.2020
5936 Clouds 11 1022 34 10000 3.6 200 08:18 04.11.2020
5937 Clouds 11 1022 39 10000 3.6 200 07:44 04.11.2020
5938 Clouds 11 1022 39 10000 3.6 200 07:25 04.11.2020
5939 Clouds 12 1022 34 10000 3.1 200 06:41 04.11.2020
5940 Clouds 12 1021 30 10000 1.5 240 05:54 04.11.2020
5941 Clouds 15 1021 23 10000 2.1 10 02:31 04.11.2020
5942 Clouds 17 1020 18 10000 3.1 360 01:40 04.11.2020
5943 Clouds 21 1020 14 10000 3.1 20 00:40 04.11.2020
5944 Clouds 23 1020 9 10000 1.5 340 23:34 03.11.2020
5945 Clouds 24 1020 10 10000 2.1 320 22:59 03.11.2020
5946 Clouds 24 1020 10 10000 2.1 320 22:40 03.11.2020
5947 Clouds 25 1020 10 10000 2.1 320 22:20 03.11.2020
5948 Clouds 24 1020 9 10000 0.82 46 21:55 03.11.2020
5949 Clouds 24 1020 9 10000 0.82 46 21:36 03.11.2020
5950 Clouds 24 1021 10 10000 0.68 76 21:18 03.11.2020
5951 Clouds 24 1021 10 10000 0.68 76 20:41 03.11.2020
5952 Clouds 23 1022 11 10000 2.1 210 20:19 03.11.2020
5953 Clouds 22 1022 11 10000 2.1 210 19:42 03.11.2020
5954 Clear 21 1018 13 10000 1.09 179 19:19 03.11.2020
5955 Clouds 20 1023 18 10000 3.1 230 18:41 03.11.2020
5956 Clouds 20 1023 18 10000 3.1 230 18:41 03.11.2020
5957 Clouds 19 1023 18 10000 3.1 230 18:20 03.11.2020
5958 Clouds 18 1023 19 10000 5.1 210 17:54 03.11.2020
5959 Clouds 17 1023 19 10000 5.1 210 17:36 03.11.2020
5960 Clear 14 1022 34 10000 1.93 197 16:54 03.11.2020
5961 Clouds 13 1023 25 10000 4.6 200 16:31 03.11.2020
5962 Clear 11 1032 32 10000 0.89 213 15:59 03.11.2020
5963 Clouds 11 1023 29 10000 4.1 190 15:41 03.11.2020
5964 Clouds 9 1023 33 10000 5.1 200 15:21 03.11.2020
5965 Clouds 9 1023 33 10000 5.1 200 14:46 03.11.2020
5966 Clouds 9 1023 33 10000 5.1 200 14:27 03.11.2020
5967 Clouds 9 1023 33 10000 5.1 200 14:27 03.11.2020
5968 Clouds 9 1023 29 10000 4.6 200 13:43 03.11.2020
5969 Clouds 9 1023 29 10000 4.6 200 13:23 03.11.2020
5970 Clear 9 1023 36 10000 4.6 190 12:48 03.11.2020
5971 Clear 9 1023 36 10000 4.6 190 12:27 03.11.2020
5972 Clear 9 1023 36 10000 4.6 190 11:57 03.11.2020
5973 Clear 9 1023 36 10000 4.6 190 11:39 03.11.2020
5974 Clear 9 1024 34 10000 4.1 190 11:18 03.11.2020
5975 Clear 9 1024 34 10000 4.1 190 10:39 03.11.2020
5976 Clear 9 1024 34 10000 4.1 190 10:19 03.11.2020
5977 Clear 10 1024 34 10000 4.1 190 09:48 03.11.2020
5978 Clear 10 1024 34 10000 4.1 190 09:27 03.11.2020
5979 Clear 10 1024 29 10000 4.1 190 08:52 03.11.2020
5980 Clear 10 1024 29 10000 4.1 190 08:34 03.11.2020
5981 Clear 10 1022 40 10000 1.79 212 07:49 03.11.2020
5982 Clear 10 1025 27 10000 4.1 190 07:22 03.11.2020
5983 Clear 11 1025 27 10000 4.1 190 06:43 03.11.2020
5984 Clear 12 1025 22 10000 4.6 200 04:40 03.11.2020
5985 Clouds 23 1026 10 10000 2.6 120 00:46 03.11.2020
5986 Clouds 23 1026 10 10000 2.6 120 00:25 03.11.2020
5987 Clouds 24 1026 8 10000 2.1 110 23:47 02.11.2020
5988 Clouds 24 1026 8 10000 2.1 110 23:28 02.11.2020
5989 Clear 24 1026 8 10000 4.1 120 22:45 02.11.2020
5990 Clear 24 1026 8 10000 4.1 120 22:27 02.11.2020
5991 Clear 24 1027 7 10000 1.5 190 21:58 02.11.2020
5992 Clear 24 1027 7 10000 1.5 190 21:36 02.11.2020
5993 Clear 23 1027 7 10000 1.5 190 21:18 02.11.2020
5994 Clear 23 1028 10 10000 2.6 190 20:38 02.11.2020
5995 Clear 22 1024 13 10000 0.45 163 20:19 02.11.2020
5996 Clear 22 1029 12 10000 2.1 200 19:44 02.11.2020
5997 Clear 21 1029 12 10000 2.1 200 19:26 02.11.2020
5998 Clear 21 1029 12 10000 2.1 200 19:26 02.11.2020
5999 Clear 19 1030 15 10000 3.1 240 18:43 02.11.2020
6000 Clear 19 1030 15 10000 3.1 240 18:43 02.11.2020
6001 Clear 18 1030 15 10000 3.1 240 18:22 02.11.2020
6002 Clear 17 1028 25 10000 0.45 189 17:59 02.11.2020
6003 Clear 15 1031 20 10000 3.6 210 17:40 02.11.2020
6004 Clear 14 1029 30 10000 0.89 155 17:20 02.11.2020
6005 Clear 12 1031 23 10000 3.6 210 16:43 02.11.2020
6006 Clear 10 1031 23 10000 3.6 210 16:24 02.11.2020
6007 Clear 9 1030 28 10000 4.6 190 15:46 02.11.2020
6008 Clear 6 1030 28 10000 4.6 190 15:24 02.11.2020
6009 Clear 7 1039 34 10000 0.45 123 14:58 02.11.2020
6010 Clear 7 1030 38 10000 5.1 190 14:37 02.11.2020
6011 Clear 6 1030 38 10000 5.1 190 14:18 02.11.2020
6012 Clear 6 1030 38 10000 5.1 190 13:42 02.11.2020
6013 Clear 7 1030 38 10000 5.1 190 13:21 02.11.2020
6014 Clear 6 1030 41 10000 5.7 190 12:40 02.11.2020
6015 Clear 7 1030 41 10000 5.7 190 12:20 02.11.2020
6016 Clear 6 1030 48 10000 5.1 180 11:45 02.11.2020
6017 Clear 6 1030 48 10000 5.1 180 11:19 02.11.2020
6018 Clear 6 1031 56 10000 5.1 190 10:44 02.11.2020
6019 Clear 6 1031 56 10000 5.1 190 10:22 02.11.2020
6020 Clear 6 1031 64 10000 5.1 190 09:55 02.11.2020
6021 Clear 5 1031 64 10000 5.1 190 09:25 02.11.2020
6022 Clear 5 1031 64 10000 3.6 200 08:46 02.11.2020
6023 Clear 5 1031 64 10000 3.6 200 08:28 02.11.2020
6024 Clear 6 1032 60 10000 3.6 200 07:54 02.11.2020
6025 Clear 6 1032 60 10000 3.6 200 07:30 02.11.2020
6026 Clear 6 1032 60 10000 3.1 190 06:37 02.11.2020
6027 Clear 8 1032 39 10000 1.5 270 04:55 02.11.2020
6028 Clear 14 1031 30 10000 2.6 30 01:26 02.11.2020
6029 Clear 16 1030 18 10000 4.1 60 00:36 02.11.2020
6030 Clear 18 1028 28 10000 3.67 19 23:55 01.11.2020
6031 Clouds 18 1029 16 10000 6.2 70 23:36 01.11.2020
6032 Clear 19 1028 27 10000 1.34 53 23:18 01.11.2020
6033 Clouds 20 1029 13 10000 4.6 70 22:38 01.11.2020
6034 Clouds 20 1029 13 10000 4.6 70 22:18 01.11.2020
6035 Clear 20 1027 24 10000 0.89 59 21:41 01.11.2020
6036 Clouds 20 1029 8 10000 3.1 70 21:23 01.11.2020
6037 Clear 21 1029 7 10000 0.58 61 20:45 01.11.2020
6038 Clear 20 1029 7 10000 0.89 134 20:25 01.11.2020
6039 Clouds 19 1030 8 10000 2.1 160 19:46 01.11.2020
6040 Clouds 18 1030 8 10000 2.1 160 19:28 01.11.2020
6041 Clouds 17 1030 16 10000 2.6 200 18:57 01.11.2020
6042 Clouds 17 1030 16 10000 2.6 200 18:37 01.11.2020
6043 Clouds 14 1030 26 10000 3.1 190 18:18 01.11.2020
6044 Clouds 13 1030 26 10000 3.1 190 17:43 01.11.2020
6045 Clouds 11 1030 26 10000 3.1 190 17:25 01.11.2020
6046 Clouds 8 1030 42 10000 3.6 190 16:44 01.11.2020
6047 Clouds 7 1030 42 10000 3.6 190 16:25 01.11.2020
6048 Clear 6 1056 58 10000 0.45 172 15:55 01.11.2020
6049 Clouds 2 1030 64 10000 2.1 170 15:37 01.11.2020
6050 Clouds 3 1030 64 10000 2.1 170 15:18 01.11.2020
6051 Clear 3 1029 59 10000 3.6 210 14:45 01.11.2020
6052 Clear 3 1029 59 10000 3.6 210 14:22 01.11.2020
6053 Clear 3 1029 59 10000 3.6 210 14:22 01.11.2020
6054 Clear 4 1029 60 10000 5.7 190 13:50 01.11.2020
6055 Clear 3 1029 60 10000 5.7 190 13:32 01.11.2020
6056 Clear 3 1029 69 10000 6.7 200 12:58 01.11.2020
6057 Clear 3 1029 69 10000 6.7 200 12:38 01.11.2020
6058 Clear 3 1030 69 10000 4.1 210 12:18 01.11.2020
6059 Clear 3 1030 69 10000 4.1 210 11:46 01.11.2020
6060 Clear 3 1030 69 10000 4.1 180 11:18 01.11.2020
6061 Clear 3 1030 69 10000 4.1 180 10:42 01.11.2020
6062 Clear 3 1030 69 10000 6.2 200 10:23 01.11.2020
6063 Clear 3 1030 69 10000 6.2 200 09:48 01.11.2020
6064 Clear 3 1030 64 10000 1.5 300 08:55 01.11.2020
6065 Clear 3 1039 60 10000 0.45 112 08:36 01.11.2020
6066 Clear 3 1031 64 10000 5.1 140 07:50 01.11.2020
6067 Clear 5 1028 60 10000 3.31 170 06:23 01.11.2020
6068 Clouds 9 1028 39 10000 2.1 50 01:58 01.11.2020
6069 Clouds 10 1028 39 10000 2.1 50 01:23 01.11.2020
6070 Clouds 13 1027 30 10000 2.6 30 23:42 31.10.2020
6071 Clouds 13 1027 30 10000 2.6 30 23:23 31.10.2020
6072 Clouds 13 1026 28 10000 6.2 30 22:44 31.10.2020
6073 Clouds 13 1026 28 10000 6.2 30 22:23 31.10.2020
6074 Clouds 14 1025 33 10000 7.7 40 21:46 31.10.2020
6075 Clouds 14 1025 33 10000 7.7 40 21:21 31.10.2020
6076 Clouds 14 1024 33 10000 6.7 60 20:41 31.10.2020
6077 Clouds 14 1024 33 10000 6.7 60 20:20 31.10.2020
6078 Clear 16 1023 25 10000 10.3 50 19:44 31.10.2020
6079 Clear 17 1023 25 10000 10.3 50 19:24 31.10.2020
6080 Clear 18 1022 16 10000 8.7 310 18:56 31.10.2020
6081 Clear 18 1022 16 10000 8.7 310 18:56 31.10.2020
6082 Clear 18 1022 16 10000 8.7 310 18:38 31.10.2020
6083 Clear 16 1022 18 10000 6.7 340 17:44 31.10.2020
6084 Clear 13 1019 30 10000 0.89 153 17:25 31.10.2020
6085 Clear 12 1021 24 10000 3.1 250 16:55 31.10.2020
6086 Clear 11 1021 24 10000 3.1 250 16:33 31.10.2020
6087 Clear 8 1020 33 10000 5.1 300 15:55 31.10.2020
6088 Clear 6 1020 33 10000 5.1 300 15:26 31.10.2020
6089 Clouds 6 1018 26 10000 2.1 250 14:55 31.10.2020
6090 Clouds 5 1018 26 10000 2.1 250 14:32 31.10.2020
6091 Clouds 5 1017 38 10000 3.1 150 13:55 31.10.2020
6092 Clouds 6 1017 38 10000 3.1 150 13:37 31.10.2020
6093 Clouds 6 1017 38 10000 3.1 150 13:18 31.10.2020
6094 Clouds 6 1016 38 10000 4.6 190 12:25 31.10.2020
6095 Clouds 5 1016 38 10000 4.6 190 11:42 31.10.2020
6096 Clouds 5 1016 38 10000 4.6 190 11:23 31.10.2020
6097 Clear 6 1015 35 10000 3.1 190 10:49 31.10.2020
6098 Clear 7 1015 35 10000 3.1 190 10:30 31.10.2020
6099 Clear 6 1015 44 10000 5.1 200 09:40 31.10.2020
6100 Clear 7 1015 44 10000 5.1 200 09:20 31.10.2020
6101 Clear 7 1015 42 10000 5.7 200 08:28 31.10.2020
6102 Clear 7 1015 48 10000 4.1 220 07:47 31.10.2020
6103 Clear 8 1015 48 10000 4.1 220 07:26 31.10.2020
6104 Clear 8 1016 56 10000 4.1 200 06:37 31.10.2020
6105 Clear 9 1017 43 10000 2.6 180 03:50 31.10.2020
6106 Clear 10 1015 43 10000 0.7 269 02:48 31.10.2020
6107 Clear 19 1016 15 10000 3.1 20 00:57 31.10.2020
6108 Clear 20 1017 12 10000 1.5 350 00:21 31.10.2020
6109 Clear 20 1017 12 10000 1.5 350 23:46 30.10.2020
6110 Clear 19 1017 12 10000 1.5 350 23:23 30.10.2020
6111 Clear 20 1018 13 10000 2.51 355 22:43 30.10.2020
6112 Clear 20 1018 13 10000 2.31 350 22:22 30.10.2020
6113 Clear 20 1019 18 10000 2.6 40 21:50 30.10.2020
6114 Clear 20 1019 18 10000 2.6 40 21:29 30.10.2020
6115 Clear 19 1020 22 10000 1.5 60 20:58 30.10.2020
6116 Clear 19 1020 22 10000 1.5 60 20:37 30.10.2020
6117 Clear 18 1022 25 10000 3.1 170 20:18 30.10.2020
6118 Clear 17 1022 25 10000 3.1 170 19:41 30.10.2020
6119 Clear 17 1022 25 10000 3.1 170 19:18 30.10.2020
6120 Clear 15 1023 26 10000 0.68 77 18:44 30.10.2020
6121 Clear 14 1022 29 10000 0.45 138 18:24 30.10.2020
6122 Clear 13 1024 34 10000 1.5 240 17:47 30.10.2020
6123 Clear 12 1021 37 10000 0.45 177 17:22 30.10.2020
6124 Clear 10 1022 43 10000 1.34 170 16:55 30.10.2020
6125 Clear 8 1024 45 10000 3.6 190 16:25 30.10.2020
6126 Clear 7 1022 47 10000 0.34 216 15:56 30.10.2020
6127 Clear 6 1024 55 10000 4.6 190 15:38 30.10.2020
6128 Clear 4 1024 55 10000 4.6 190 15:18 30.10.2020
6129 Clear 4 1024 64 10000 4.6 190 14:42 30.10.2020
6130 Clear 4 1024 64 10000 4.6 190 14:23 30.10.2020
6131 Clear 4 1024 60 10000 4.1 190 13:44 30.10.2020
6132 Clear 4 1023 64 10000 4.6 180 13:20 30.10.2020
6133 Clear 4 1023 64 10000 4.6 180 12:49 30.10.2020
6134 Clear 4 1023 69 10000 4.1 190 12:22 30.10.2020
6135 Clear 4 1023 69 10000 4.1 190 11:56 30.10.2020
6136 Clear 4 1023 69 10000 4.1 190 11:22 30.10.2020
6137 Clear 4 1023 69 10000 4.6 200 10:50 30.10.2020
6138 Clear 4 1023 69 10000 4.6 200 10:26 30.10.2020
6139 Clear 4 1024 69 10000 4.6 180 09:56 30.10.2020
6140 Clear 5 1024 69 10000 4.6 180 09:38 30.10.2020
6141 Clear 5 1021 71 10000 1.32 200 09:19 30.10.2020
6142 Clear 4 1033 62 10000 1.13 192 08:32 30.10.2020
6143 Clear 5 1024 55 10000 2.1 220 07:54 30.10.2020
6144 Clear 4 1024 55 10000 2.1 220 07:36 30.10.2020
6145 Clear 5 1024 70 10000 2.6 210 06:59 30.10.2020
6146 Clear 6 1023 53 10000 2.6 220 05:59 30.10.2020
6147 Clear 8 1022 52 10000 1.5 270 03:47 30.10.2020
6148 Clear 16 1021 30 10000 2.1 70 01:24 30.10.2020
6149 Clouds 19 1020 22 10000 2.13 7 23:59 29.10.2020
6150 Clouds 19 1020 22 10000 2.13 7 23:41 29.10.2020
6151 Clouds 19 1020 20 10000 1.63 356 23:23 29.10.2020
6152 Clouds 19 1020 20 10000 1.63 356 22:44 29.10.2020
6153 Clouds 19 1020 20 10000 0.73 20 22:25 29.10.2020
6154 Clouds 19 1020 22 10000 0.73 20 21:44 29.10.2020
6155 Clouds 18 1020 22 10000 0.83 116 21:24 29.10.2020
6156 Clouds 18 1021 22 10000 1.5 60 20:43 29.10.2020
6157 Clouds 18 1021 22 10000 1.5 60 20:24 29.10.2020
6158 Clouds 17 1022 29 10000 3.1 190 19:56 29.10.2020
6159 Clouds 16 1022 29 10000 3.1 190 19:38 29.10.2020
6160 Clouds 16 1022 29 10000 3.1 190 19:18 29.10.2020
6161 Clouds 14 1022 40 10000 4.6 220 18:45 29.10.2020
6162 Clouds 13 1022 47 10000 4.6 220 18:25 29.10.2020
6163 Clear 11 1024 44 10000 1.79 169 17:42 29.10.2020
6164 Clouds 9 1023 49 10000 5.7 200 17:22 29.10.2020
6165 Clear 9 1024 50 10000 1.79 213 17:22 29.10.2020
6166 Clear 8 1019 42 10000 1.79 180 16:52 29.10.2020
6167 Clouds 5 1023 65 10000 6.2 190 16:23 29.10.2020
6168 Clear 4 1019 54 10000 1.34 141 15:58 29.10.2020
6169 Clear 3 1019 58 10000 0.89 164 15:40 29.10.2020
6170 Clouds 2 1023 80 10000 5.1 180 15:21 29.10.2020
6171 Clouds 1 1023 74 10000 3.6 180 14:46 29.10.2020
6172 Clouds 0 1023 75 10000 3.6 180 14:24 29.10.2020
6173 Clear 0 1023 75 10000 4.6 180 13:59 29.10.2020
6174 Clear 0 1023 75 10000 4.6 180 13:39 29.10.2020
6175 Clear 0 1023 74 10000 4.6 180 13:21 29.10.2020
6176 Clear 0 1023 74 10000 4.6 180 12:40 29.10.2020
6177 Clear 1 1021 78 10000 1.43 183 12:19 29.10.2020
6178 Clear 1 1032 75 10000 1.43 183 11:45 29.10.2020
6179 Clear 0 1024 73 10000 3.6 180 11:24 29.10.2020
6180 Clear 1 1024 72 10000 3.6 180 10:37 29.10.2020
6181 Clear 1 1024 72 10000 3.1 200 10:19 29.10.2020
6182 Clear 1 1024 72 10000 3.1 200 09:53 29.10.2020
6183 Clear 1 1024 71 10000 3.1 200 09:28 29.10.2020
6184 Clear 1 1024 71 10000 3.1 180 08:55 29.10.2020
6185 Clear 1 1024 71 10000 3.1 180 08:33 29.10.2020
6186 Clouds 2 1024 69 10000 2.6 230 07:54 29.10.2020
6187 Clouds 2 1024 69 10000 2.6 230 07:35 29.10.2020
6188 Clouds 2 1024 74 10000 2.6 230 06:56 29.10.2020
6189 Clouds 3 1024 69 10000 2.06 117 04:51 29.10.2020
6190 Clouds 5 1022 64 10000 3.6 350 02:59 29.10.2020
6191 Clear 9 1017 39 10000 2.03 329 00:57 29.10.2020
6192 Clear 9 1017 37 10000 2.63 335 00:31 29.10.2020
6193 Clear 11 1016 33 10000 0.45 27 23:45 28.10.2020
6194 Clear 11 1023 41 10000 0.45 78 23:21 28.10.2020
6195 Clear 11 1015 32 10000 0.45 28 22:44 28.10.2020
6196 Clouds 11 1019 47 10000 8.2 20 22:44 28.10.2020
6197 Clouds 11 1019 44 10000 8.2 20 22:26 28.10.2020
6198 Clouds 11 1019 44 10000 8.2 20 21:55 28.10.2020
6199 Clouds 11 1019 44 10000 8.2 20 21:37 28.10.2020
6200 Clear 11 1023 40 10000 1.34 65 21:18 28.10.2020
6201 Clear 11 1015 32 10000 0.89 351 20:41 28.10.2020
6202 Clear 11 1015 31 10000 4.46 347 20:20 28.10.2020
6203 Clear 11 1015 33 10000 4.46 347 19:49 28.10.2020
6204 Clear 10 1023 43 10000 1.34 305 19:27 28.10.2020
6205 Clear 10 1016 35 10000 0.89 291 18:47 28.10.2020
6206 Clear 10 1016 35 10000 0.89 291 18:47 28.10.2020
6207 Clouds 9 1020 48 10000 6.2 310 18:21 28.10.2020
6208 Clouds 7 1020 52 10000 3.6 280 17:44 28.10.2020
6209 Clouds 6 1020 52 10000 3.6 280 17:25 28.10.2020
6210 Clear 5 1016 48 10000 0.83 260 16:50 28.10.2020
6211 Clouds 3 1020 59 10000 2.6 210 16:32 28.10.2020
6212 Clear 1 1015 53 10000 2.17 233 15:55 28.10.2020
6213 Clouds 0 1018 68 10000 4.1 190 15:36 28.10.2020
6214 Clear -1 1023 67 10000 2.05 200 15:18 28.10.2020
6215 Clear -1 1017 68 10000 5.7 180 14:41 28.10.2020
6216 Clear -2 1016 69 10000 0.89 179 14:20 28.10.2020
6217 Clear -2 1015 68 10000 1.34 178 12:40 28.10.2020
6218 Clear -2 1015 70 10000 2.15 214 12:21 28.10.2020
6219 Clear -2 1015 68 10000 0.89 215 11:45 28.10.2020
6220 Clear -3 1018 63 10000 5.1 180 11:24 28.10.2020
6221 Clear -3 1016 69 10000 0.89 234 11:00 28.10.2020
6222 Clear -3 1018 79 10000 2.15 209 10:41 28.10.2020
6223 Clear -3 1018 68 10000 3.6 190 10:22 28.10.2020
6224 Clear -3 1018 68 10000 3.6 190 09:42 28.10.2020
6225 Clear -3 1018 68 10000 3.6 190 09:22 28.10.2020
6226 Clear -3 1019 68 10000 3.1 210 08:49 28.10.2020
6227 Clear -3 1019 68 10000 3.1 210 08:27 28.10.2020
6228 Clear -3 1019 68 10000 3.6 190 07:49 28.10.2020
6229 Clear -3 1019 68 10000 3.6 190 07:30 28.10.2020
6230 Clear -3 1019 68 10000 3.6 190 07:30 28.10.2020
6231 Clear -3 1019 68 10000 3.6 200 06:42 28.10.2020
6232 Clear -3 1019 67 10000 3.1 190 05:52 28.10.2020
6233 Clouds -3 1015 65 10000 1.67 210 05:20 28.10.2020
6234 Clear -2 1019 68 10000 3.1 200 04:25 28.10.2020
6235 Clouds -1 1028 61 10000 1.26 211 02:26 28.10.2020
6236 Clouds 1 1027 52 10000 1.26 211 01:51 28.10.2020
6237 Clear 5 1026 37 10000 0.45 50 00:22 28.10.2020
6238 Clear 5 1017 33 10000 1.5 120 23:43 27.10.2020
6239 Clear 7 1018 38 10000 0.45 112 23:20 27.10.2020
6240 Clear 7 1026 26 10000 0.91 344 22:44 27.10.2020
6241 Clear 7 1027 35 10000 0.45 204 22:19 27.10.2020
6242 Clear 7 1027 35 10000 0.45 204 22:19 27.10.2020
6243 Clear 6 1027 32 10000 0.89 165 21:56 27.10.2020
6244 Clear 6 1028 38 10000 0.89 197 21:37 27.10.2020
6245 Clear 6 1028 38 10000 0.89 197 21:37 27.10.2020
6246 Clear 6 1028 38 10000 0.89 197 21:37 27.10.2020
6247 Clear 6 1028 38 10000 0.89 197 21:37 27.10.2020
6248 Clear 5 1029 39 10000 1.18 186 21:19 27.10.2020
6249 Clear 5 1014 23 10000 0.45 127 20:45 27.10.2020
6250 Clear 4 1029 37 10000 0.89 244 20:23 27.10.2020
6251 Clear 3 1016 28 10000 1.34 174 19:40 27.10.2020
6252 Clear 3 1016 28 10000 0.45 163 19:21 27.10.2020
6253 Clear 2 1016 30 10000 0.45 171 18:59 27.10.2020
6254 Clear 2 1016 32 10000 0.45 162 18:40 27.10.2020
6255 Clear 2 1016 32 10000 0.45 162 18:40 27.10.2020
6256 Clear 1 1016 35 10000 0.89 140 18:20 27.10.2020
6257 Clear -1 1016 39 10000 2.46 178 17:44 27.10.2020
6258 Clear -2 1017 42 10000 1.91 194 17:22 27.10.2020
6259 Clear -3 1017 45 10000 0.45 138 16:57 27.10.2020
6260 Clear -5 1018 48 10000 1.91 194 16:39 27.10.2020
6261 Clear -6 1035 67 10000 0.89 201 16:20 27.10.2020
6262 Clouds -8 1021 66 10000 6.2 180 15:40 27.10.2020
6263 Clear -10 1020 73 10000 0.45 176 15:21 27.10.2020
6264 Clear -10 1030 81 10000 0.89 145 14:48 27.10.2020
6265 Clear -11 1030 77 10000 1.34 153 14:29 27.10.2020
6266 Clear -11 1019 76 10000 1.98 194 13:54 27.10.2020
6267 Clear -11 1020 72 10000 4.1 210 13:24 27.10.2020
6268 Clear -11 1020 72 10000 4.1 210 12:42 27.10.2020
6269 Clear -11 1020 72 10000 4.1 210 12:24 27.10.2020
6270 Clear -12 1021 72 10000 4.6 190 11:43 27.10.2020
6271 Clear -11 1021 72 10000 4.6 190 11:25 27.10.2020
6272 Clear -11 1021 71 10000 4.1 190 10:51 27.10.2020
6273 Clear -11 1021 71 10000 4.1 190 10:33 27.10.2020
6274 Clear -11 1021 71 10000 4.6 180 09:47 27.10.2020
6275 Clear -12 1021 71 10000 4.6 180 09:27 27.10.2020
6276 Clear -12 1034 79 10000 0.89 180 08:56 27.10.2020
6277 Clear -11 1021 83 10000 2 184 08:27 27.10.2020
6278 Clear -11 1021 83 10000 2 184 07:52 27.10.2020
6279 Clouds -11 1022 78 10000 3.1 220 07:33 27.10.2020
6280 Clouds -12 1022 78 10000 3.1 220 06:49 27.10.2020
6281 Clouds -12 1022 78 10000 3.1 220 06:19 27.10.2020
6282 Clouds -12 1022 84 10000 3.1 200 05:44 27.10.2020
6283 Clouds -12 1021 84 10000 3.1 210 04:57 27.10.2020
6284 Clouds -11 1021 78 10000 0.54 275 02:40 27.10.2020
6285 Clouds -9 1017 59 10000 0.85 333 00:59 27.10.2020
6286 Clouds -8 1017 59 10000 0.65 359 23:57 26.10.2020
6287 Clouds -8 1017 59 10000 0.63 344 23:36 26.10.2020
6288 Clouds -8 1017 58 10000 0.65 359 23:36 26.10.2020
6289 Clouds -8 1034 62 10000 0.89 203 22:55 26.10.2020
6290 Clouds -8 1017 60 10000 0.83 7 22:29 26.10.2020
6291 Clouds -8 1021 61 10000 1.5 50 21:53 26.10.2020
6292 Clouds -9 1021 61 10000 1.5 50 21:21 26.10.2020
6293 Clouds -8 1022 72 10000 1.11 25 20:59 26.10.2020
6294 Clouds -8 1022 72 10000 1.11 25 20:41 26.10.2020
6295 Clouds -9 1022 72 10000 1.68 28 20:22 26.10.2020
6296 Clouds -9 1023 72 10000 1.5 350 19:48 26.10.2020
6297 Clouds -10 1023 72 10000 1.61 65 19:28 26.10.2020
6298 Clouds -10 1020 67 10000 1.61 65 18:55 26.10.2020
6299 Clouds -11 1023 72 10000 1.5 90 18:36 26.10.2020
6300 Clouds -11 1037 75 10000 1.53 5 18:18 26.10.2020
6301 Clouds -11 1037 74 10000 0.45 247 17:40 26.10.2020
6302 Clouds -11 1020 70 10000 1.53 5 17:40 26.10.2020
6303 Clouds -11 1037 74 3157 1.75 348 17:22 26.10.2020
6304 Clouds -12 1020 72 3157 1.75 348 16:43 26.10.2020
6305 Snow -12 1020 73 683 2.97 354 16:22 26.10.2020
6306 Mist -13 1023 84 3219 2.1 100 15:43 26.10.2020
6307 Mist -13 1023 84 3219 2.1 100 15:25 26.10.2020
6308 Mist -13 1023 84 3219 3.6 100 14:54 26.10.2020
6309 Mist -13 1023 84 3219 3.6 100 14:35 26.10.2020
6310 Mist -13 1023 84 3219 2.6 120 13:46 26.10.2020
6311 Mist -13 1023 84 3219 2.6 120 13:28 26.10.2020
6312 Mist -13 1023 84 3219 3.1 90 12:58 26.10.2020
6313 Mist -13 1023 84 3219 3.1 90 12:36 26.10.2020
6314 Mist -13 1023 84 2213 3.1 110 12:18 26.10.2020
6315 Mist -13 1023 84 4023 2.1 100 11:45 26.10.2020
6316 Mist -13 1024 84 4828 1.5 70 11:23 26.10.2020
6317 Mist -13 1024 84 4828 1.5 70 10:57 26.10.2020
6318 Mist -13 1024 84 4828 1.5 70 10:38 26.10.2020
6319 Mist -13 1023 92 6437 2.6 70 10:18 26.10.2020
6320 Mist -13 1023 92 6437 2.6 70 09:31 26.10.2020
6321 Mist -13 1024 92 4426 3.1 70 08:55 26.10.2020
6322 Snow -13 1020 77 166 2.42 48 08:25 26.10.2020
6323 Mist -13 1024 84 2615 3.6 70 07:48 26.10.2020
6324 Mist -13 1024 84 2615 3.6 70 07:28 26.10.2020
6325 Mist -12 1024 84 2816 3.6 30 05:46 26.10.2020
6326 Snow -12 1024 85 2414 3.6 20 04:19 26.10.2020
6327 Snow -12 1024 85 2414 3.6 20 03:21 26.10.2020
6328 Snow -12 1024 85 2414 3.6 20 03:21 26.10.2020
6329 Snow -12 1024 85 2414 3.6 20 03:21 26.10.2020
6330 Snow -12 1024 85 2414 3.6 20 03:21 26.10.2020
6331 Snow -12 1023 85 3219 4.6 360 01:34 26.10.2020
6332 Mist -11 1022 85 1207 4.6 360 00:36 26.10.2020
6333 Mist -11 1022 85 4023 5.7 360 23:51 25.10.2020
6334 Mist -10 1022 85 1609 5.1 10 23:30 25.10.2020
6335 Clouds -10 1021 78 3219 5.7 360 22:48 25.10.2020
6336 Clouds -10 1021 78 3219 5.7 360 22:30 25.10.2020
6337 Mist -10 1021 78 2414 5.1 360 21:55 25.10.2020
6338 Mist -10 1021 85 1609 5.1 10 21:36 25.10.2020
6339 Mist -9 1022 85 4426 5.1 10 21:18 25.10.2020
6340 Snow -9 1022 85 1609 5.7 350 20:43 25.10.2020
6341 Mist -9 1022 85 1609 5.7 350 20:23 25.10.2020
6342 Rain -9 1018 76 384 4.77 6 19:55 25.10.2020
6343 Clouds -9 1027 77 384 0.89 35 19:37 25.10.2020
6344 Snow -9 1018 73 257 4.34 19 19:19 25.10.2020
6345 Clouds -9 1027 77 257 0.45 38 18:41 25.10.2020
6346 Snow -9 1018 74 257 4.34 19 18:41 25.10.2020
6347 Snow -10 1018 76 407 4.81 18 18:22 25.10.2020
6348 Snow -10 1018 76 407 4.81 18 18:22 25.10.2020
6349 Clouds -10 1018 75 407 4.81 18 17:56 25.10.2020
6350 Clouds -10 1018 75 407 0.45 30 17:38 25.10.2020
6351 Clouds -10 1018 76 1327 5.34 16 17:19 25.10.2020
6352 Mist -10 1022 92 3219 5.7 350 16:43 25.10.2020
6353 Mist -10 1022 92 3219 5.7 350 16:23 25.10.2020
6354 Mist -10 1021 85 2012 4.1 330 15:47 25.10.2020
6355 Mist -10 1021 85 2012 4.1 330 15:27 25.10.2020
6356 Mist -10 1020 92 4023 5.1 10 14:53 25.10.2020
6357 Mist -9 1020 92 4023 5.1 10 14:29 25.10.2020
6358 Mist -9 1020 92 4426 5.1 10 13:45 25.10.2020
6359 Snow -9 1020 92 4426 5.1 10 13:45 25.10.2020
6360 Snow -9 1020 92 4426 5.1 10 13:24 25.10.2020
6361 Rain -8 1016 83 1424 5.12 15 12:56 25.10.2020
6362 Snow -8 1019 92 8047 3.6 30 12:38 25.10.2020
6363 Mist -8 1019 92 8047 3.6 30 12:18 25.10.2020
6364 Mist -8 1019 92 6437 5.1 10 11:42 25.10.2020
6365 Snow -7 1022 84 1008 0.45 48 11:19 25.10.2020
6366 Clouds -7 1018 92 10000 6.7 10 10:46 25.10.2020
6367 Clouds -6 1018 92 10000 6.7 10 10:26 25.10.2020
6368 Clouds -6 1018 79 10000 6.2 10 09:52 25.10.2020
6369 Clouds -5 1018 79 10000 6.2 10 09:22 25.10.2020
6370 Clouds -4 1017 79 10000 5.7 30 08:59 25.10.2020
6371 Clouds -4 1017 79 10000 5.7 30 08:40 25.10.2020
6372 Clouds -3 1017 79 10000 6.7 30 08:22 25.10.2020
6373 Clouds -2 1017 79 10000 6.7 30 07:43 25.10.2020
6374 Clouds 0 1017 68 10000 6.7 30 06:53 25.10.2020
6375 Clouds 0 1013 64 10000 7.98 5 06:27 25.10.2020
6376 Clouds 2 1013 55 10000 5.1 350 05:19 25.10.2020
6377 Clouds 3 1013 55 10000 5.1 350 04:48 25.10.2020
6378 Clouds 8 1010 46 10000 4.2 57 02:24 25.10.2020
6379 Clouds 12 1009 28 10000 4.1 70 00:53 25.10.2020
6380 Clouds 12 1009 28 10000 4.1 70 00:28 25.10.2020
6381 Clouds 13 1008 28 10000 5.1 40 23:54 24.10.2020
6382 Clouds 13 1008 28 10000 5.1 40 23:31 24.10.2020
6383 Clouds 13 1008 28 10000 4.6 30 22:58 24.10.2020
6384 Clouds 14 1008 28 10000 4.6 30 22:40 24.10.2020
6385 Clouds 12 1008 28 10000 4.6 30 22:21 24.10.2020
6386 Clouds 13 1008 32 10000 4.6 40 21:44 24.10.2020
6387 Clouds 13 1008 32 10000 4.6 40 21:44 24.10.2020
6388 Clouds 13 1008 32 10000 4.6 40 21:44 24.10.2020
6389 Clouds 15 1008 32 10000 4.6 40 21:22 24.10.2020
6390 Clouds 14 1009 37 10000 3.6 30 20:58 24.10.2020
6391 Clouds 14 1009 37 10000 3.6 30 20:39 24.10.2020
6392 Clouds 12 1010 43 10000 2.6 20 20:20 24.10.2020
6393 Clouds 11 1010 43 10000 2.6 20 19:40 24.10.2020
6394 Clouds 11 1010 43 10000 2.6 20 19:22 24.10.2020
6395 Clouds 4 1010 65 10000 3.1 250 18:47 24.10.2020
6396 Clouds 4 1010 65 10000 3.1 250 18:27 24.10.2020
6397 Clouds -1 1010 86 10000 3.1 160 17:42 24.10.2020
6398 Clouds -3 1010 92 10000 2.6 80 17:22 24.10.2020
6399 Clouds -3 1010 92 10000 2.6 80 16:47 24.10.2020
6400 Clouds -4 1010 92 10000 2.6 80 16:28 24.10.2020
6401 Clouds -5 1009 92 10000 1.5 30 15:41 24.10.2020
6402 Clouds -5 1009 92 10000 1.5 30 15:20 24.10.2020
6403 Clouds -4 1010 85 10000 1.5 40 14:56 24.10.2020
6404 Clouds -4 1010 85 10000 1.5 40 14:29 24.10.2020
6405 Clouds -4 1011 85 10000 3.6 10 13:50 24.10.2020
6406 Clouds -4 1011 57 10000 0.89 292 13:31 24.10.2020
6407 Clouds -4 1009 80 10000 0.89 42 12:59 24.10.2020
6408 Clouds -4 1011 92 10000 4.1 180 12:37 24.10.2020
6409 Clouds -4 1009 80 10000 0.45 142 12:19 24.10.2020
6410 Clouds -4 1013 92 10000 0.83 79 11:43 24.10.2020
6411 Clouds -4 1016 86 10000 0.45 195 11:18 24.10.2020
6412 Clouds -4 1020 85 10000 0.45 161 10:39 24.10.2020
6413 Clouds -4 1012 82 10000 1.56 19 10:18 24.10.2020
6414 Clouds -4 1013 81 10000 1.56 19 09:42 24.10.2020
6415 Clouds -3 1016 79 10000 2.1 210 09:21 24.10.2020
6416 Clouds -3 1016 79 10000 2.1 210 08:51 24.10.2020
6417 Clouds -3 1016 79 10000 2.1 210 08:18 24.10.2020
6418 Clouds -3 1015 78 10000 2.46 4 07:48 24.10.2020
6419 Clouds -3 1017 74 10000 4.1 240 07:19 24.10.2020
6420 Clouds -2 1017 74 10000 4.1 240 06:36 24.10.2020
6421 Clouds -1 1021 74 10000 5.1 170 03:51 24.10.2020
6422 Clouds 0 1021 54 10000 3.1 170 02:20 24.10.2020
6423 Clouds 0 1022 69 10000 3.1 180 00:44 24.10.2020
6424 Clouds 0 1022 69 10000 3.1 180 00:22 24.10.2020
6425 Clouds 0 1023 50 10000 1.5 140 23:56 23.10.2020
6426 Clouds 0 1023 50 10000 1.5 140 23:36 23.10.2020
6427 Clouds 0 1023 52 10000 1.5 140 23:18 23.10.2020
6428 Clouds -2 1025 92 10000 2.6 130 22:42 23.10.2020
6429 Clouds -1 1025 92 10000 2.6 130 22:20 23.10.2020
6430 Clouds -2 1026 86 10000 1.07 76 21:51 23.10.2020
6431 Clouds 0 1026 79 10000 1.7 107 21:28 23.10.2020
6432 Clouds -3 1027 86 10000 1.7 107 20:43 23.10.2020
6433 Clouds -2 1027 86 10000 2.01 110 20:25 23.10.2020
6434 Clouds -2 1034 71 10000 1.97 99 19:59 23.10.2020
6435 Clouds -3 1028 92 10000 1.97 99 19:34 23.10.2020
6436 Clouds -4 1034 79 10000 2.09 80 18:58 23.10.2020
6437 Clouds -4 1035 79 10000 2.09 80 18:39 23.10.2020
6438 Clouds -4 1035 79 10000 0.45 152 18:19 23.10.2020
6439 Clouds -5 1028 85 10000 2.18 68 17:43 23.10.2020
6440 Clouds -5 1028 85 10000 2.18 65 17:21 23.10.2020
6441 Clouds -6 1034 82 10000 2.18 65 16:46 23.10.2020
6442 Clouds -6 1028 92 10000 2.46 57 16:26 23.10.2020
6443 Clouds -6 1028 85 10000 1.5 40 15:47 23.10.2020
6444 Clouds -6 1033 83 10000 2.79 49 15:25 23.10.2020
6445 Clouds -6 1024 76 10000 2.79 49 14:57 23.10.2020
6446 Clouds -6 1033 82 10000 2.79 49 14:39 23.10.2020
6447 Clouds -6 1033 82 10000 2.63 43 14:20 23.10.2020
6448 Clouds -6 1023 79 10000 2.63 43 13:38 23.10.2020
6449 Clouds -6 1023 80 10000 2.94 25 13:19 23.10.2020
6450 Clouds -5 1023 80 10000 2.94 25 12:47 23.10.2020
6451 Clouds -5 1023 81 10000 3.59 15 12:24 23.10.2020
6452 Clouds -5 1027 92 8047 1.5 20 11:47 23.10.2020
6453 Clouds -5 1027 92 8047 1.5 20 11:22 23.10.2020
6454 Mist -5 1027 100 6437 1.5 10 10:45 23.10.2020
6455 Mist -5 1027 100 6437 1.5 10 10:25 23.10.2020
6456 Clouds -5 1023 86 3064 4.79 21 09:46 23.10.2020
6457 Clouds -5 1023 86 6636 4.64 23 09:27 23.10.2020
6458 Mist -4 1026 100 6437 2.6 10 08:53 23.10.2020
6459 Mist -4 1026 100 6437 2.6 10 08:32 23.10.2020
6460 Mist -4 1025 100 8047 2.1 20 07:38 23.10.2020
6461 Clouds -4 1022 86 10000 4.22 23 07:19 23.10.2020
6462 Clouds -3 1021 86 10000 0.45 37 06:20 23.10.2020
6463 Mist -3 1025 100 8047 3.1 10 05:35 23.10.2020
6464 Rain 2 1021 60 4828 6.2 30 02:32 23.10.2020
6465 Clouds 3 1019 69 10000 6.7 20 01:30 23.10.2020
6466 Clouds 4 1018 69 10000 6.2 30 00:47 23.10.2020
6467 Clouds 4 1016 48 10000 4.6 30 23:48 22.10.2020
6468 Clouds 3 1016 41 10000 4.6 30 23:26 22.10.2020
6469 Clouds 3 1016 93 10000 5.1 10 22:49 22.10.2020
6470 Clouds 3 1016 93 10000 5.1 10 22:27 22.10.2020
6471 Mist 2 1016 100 6437 4.1 20 21:59 22.10.2020
6472 Mist 2 1016 100 6437 4.1 20 21:41 22.10.2020
6473 Mist 2 1016 100 6437 4.1 20 21:21 22.10.2020
6474 Mist 2 1016 100 4828 3.6 10 20:45 22.10.2020
6475 Mist 2 1016 100 4828 3.6 10 20:26 22.10.2020
6476 Mist 1 1015 100 2414 4.6 350 19:58 22.10.2020
6477 Drizzle 1 1015 100 2414 4.6 350 19:39 22.10.2020
6478 Drizzle 2 1015 100 2012 5.1 10 19:18 22.10.2020
6479 Drizzle 2 1015 100 2012 5.1 10 18:42 22.10.2020
6480 Mist 2 1014 100 1207 4.1 360 18:19 22.10.2020
6481 Fog 2 1014 100 805 4.6 360 17:45 22.10.2020
6482 Clouds 2 1013 92 10000 4.36 4 17:22 22.10.2020
6483 Clouds 2 1012 92 10000 4.36 4 16:46 22.10.2020
6484 Fog 2 1013 93 805 2.6 350 16:25 22.10.2020
6485 Mist 2 1012 93 1609 4.1 360 15:56 22.10.2020
6486 Fog 2 1011 100 805 3.1 10 15:38 22.10.2020
6487 Mist 2 1011 100 2414 3.6 360 15:19 22.10.2020
6488 Mist 3 1010 100 6437 3.6 30 14:42 22.10.2020
6489 Mist 7 1010 100 6437 3.6 30 14:23 22.10.2020
6490 Clouds 10 1009 32 10000 5.7 60 13:45 22.10.2020
6491 Clouds 10 1009 32 10000 5.7 60 13:23 22.10.2020
6492 Clouds 10 1008 25 10000 4.6 30 12:44 22.10.2020
6493 Clouds 11 1008 25 10000 4.6 30 12:22 22.10.2020
6494 Clouds 11 1008 21 10000 5.1 190 11:47 22.10.2020
6495 Clouds 12 1008 23 10000 5.7 180 11:19 22.10.2020
6496 Clouds 11 1072 29 10000 0.45 165 10:49 22.10.2020
6497 Clouds 11 1008 25 10000 4.6 190 10:26 22.10.2020
6498 Clouds 11 1008 25 10000 4.6 190 09:46 22.10.2020
6499 Clouds 12 1008 25 10000 4.6 190 09:25 22.10.2020
6500 Clouds 12 1008 32 10000 3.6 200 08:47 22.10.2020
6501 Clouds 11 1008 32 10000 3.6 200 08:27 22.10.2020
6502 Clouds 12 1009 46 10000 2.73 201 07:48 22.10.2020
6503 Clouds 12 1009 46 10000 2.2 205 07:29 22.10.2020
6504 Clouds 13 1009 35 10000 5.1 180 06:46 22.10.2020
6505 Clouds 13 1009 35 10000 5.1 180 06:24 22.10.2020
6506 Clouds 12 1009 29 10000 3.6 190 05:39 22.10.2020
6507 Clouds 14 1009 46 10000 4.6 320 03:26 22.10.2020
6508 Clouds 22 1004 16 10000 1.16 164 01:34 22.10.2020
6509 Clouds 22 1004 16 10000 1.16 164 01:34 22.10.2020
6510 Clouds 22 1004 16 10000 1.16 164 01:34 22.10.2020
6511 Clouds 23 1004 26 10000 0.45 106 00:24 22.10.2020
6512 Clouds 22 1004 22 10000 1.55 36 23:44 21.10.2020
6513 Clouds 22 1005 28 10000 0.89 66 23:19 21.10.2020
6514 Clouds 22 1006 31 10000 0.45 343 22:39 21.10.2020
6515 Clouds 21 1011 12 10000 4.6 140 22:19 21.10.2020
6516 Clouds 21 1011 12 10000 4.6 140 21:46 21.10.2020
6517 Clouds 19 1013 26 10000 2.1 40 21:20 21.10.2020
6518 Clouds 19 1013 26 10000 2.1 40 20:59 21.10.2020
6519 Clouds 19 1013 26 10000 2.1 40 20:40 21.10.2020
6520 Clouds 17 1014 29 10000 1.08 40 20:18 21.10.2020
6521 Clouds 14 1014 31 10000 1.35 44 19:41 21.10.2020
6522 Clouds 14 1014 37 10000 1.25 140 19:22 21.10.2020
6523 Clouds 12 1012 58 10000 1.25 140 18:52 21.10.2020
6524 Clouds 11 1014 44 10000 1.43 14 18:30 21.10.2020
6525 Clouds 10 1014 44 10000 2.6 340 17:50 21.10.2020
6526 Clouds 9 1014 47 10000 2.6 340 17:22 21.10.2020
6527 Clouds 7 1014 47 10000 2.1 130 16:58 21.10.2020
6528 Clouds 6 1014 47 10000 2.1 130 16:38 21.10.2020
6529 Clouds 6 1014 69 10000 2.6 10 16:19 21.10.2020
6530 Clouds 6 1014 69 10000 2.6 10 15:45 21.10.2020
6531 Clouds 6 1014 56 10000 3.6 240 15:21 21.10.2020
6532 Clouds 6 1014 56 10000 3.6 240 14:49 21.10.2020
6533 Clouds 7 1015 49 10000 5.1 230 14:28 21.10.2020
6534 Clouds 7 1015 49 10000 5.1 230 13:56 21.10.2020
6535 Clouds 7 1015 49 10000 5.1 230 13:38 21.10.2020
6536 Clouds 7 1015 49 10000 5.1 230 13:19 21.10.2020
6537 Clouds 7 1015 52 10000 6.7 190 12:38 21.10.2020
6538 Clouds 8 1015 52 10000 6.7 190 12:19 21.10.2020
6539 Clear 8 1016 49 10000 6.7 200 11:41 21.10.2020
6540 Clouds 8 1015 62 10000 1.45 215 11:20 21.10.2020
6541 Clouds 8 1015 62 10000 1.45 215 11:20 21.10.2020
6542 Clouds 8 1015 62 10000 1.45 215 10:47 21.10.2020
6543 Clouds 7 1018 56 10000 8.2 150 10:26 21.10.2020
6544 Clouds 7 1018 56 10000 8.2 150 09:57 21.10.2020
6545 Clouds 7 1018 56 10000 8.2 150 09:34 21.10.2020
6546 Clouds 7 1019 60 10000 3.6 160 08:56 21.10.2020
6547 Clouds 7 1019 60 10000 3.6 160 08:38 21.10.2020
6548 Clouds 7 1020 60 10000 5.1 130 08:19 21.10.2020
6549 Clouds 8 1017 58 10000 3.43 155 07:37 21.10.2020
6550 Clouds 8 1018 57 10000 3.2 129 06:55 21.10.2020
6551 Clouds 8 1029 56 10000 0.45 129 06:30 21.10.2020
6552 Clouds 9 1020 49 10000 2.1 100 04:47 21.10.2020
6553 Clouds 14 1016 33 10000 6.2 70 02:26 21.10.2020
6554 Clouds 19 1015 27 10000 8.2 90 23:51 20.10.2020
6555 Clouds 20 1010 24 10000 0.45 104 23:20 20.10.2020
6556 Clouds 20 1015 18 10000 4.1 30 22:30 20.10.2020
6557 Clouds 20 1015 18 10000 4.1 30 21:51 20.10.2020
6558 Clouds 20 1015 18 10000 4.1 20 21:21 20.10.2020
6559 Clouds 20 1015 18 10000 4.1 20 20:59 20.10.2020
6560 Clouds 20 1015 18 10000 4.1 20 20:41 20.10.2020
6561 Clouds 19 1015 18 10000 2.1 60 20:22 20.10.2020
6562 Clouds 19 1015 18 10000 2.1 60 19:44 20.10.2020
6563 Clouds 17 1015 17 10000 2.1 170 19:22 20.10.2020
6564 Clouds 16 1015 17 10000 2.1 170 18:55 20.10.2020
6565 Clouds 15 1014 18 10000 2.6 220 18:36 20.10.2020
6566 Clouds 15 1014 18 10000 2.6 220 17:50 20.10.2020
6567 Clouds 13 1014 41 10000 0.89 271 17:31 20.10.2020
6568 Clouds 12 1014 19 10000 5.1 180 16:49 20.10.2020
6569 Clouds 10 1013 23 10000 4.6 230 16:28 20.10.2020
6570 Clouds 10 1013 23 10000 4.6 230 15:57 20.10.2020
6571 Clouds 10 1013 23 10000 4.6 230 15:39 20.10.2020
6572 Clouds 9 1013 24 10000 2.1 280 15:20 20.10.2020
6573 Clouds 9 1013 24 10000 2.1 280 14:42 20.10.2020
6574 Clouds 10 1013 23 10000 5.1 170 14:24 20.10.2020
6575 Clouds 9 1013 23 10000 5.1 170 13:44 20.10.2020
6576 Clouds 9 1013 23 10000 5.1 170 13:25 20.10.2020
6577 Clouds 10 1013 24 10000 2.6 200 12:59 20.10.2020
6578 Clouds 10 1013 24 10000 2.6 200 12:40 20.10.2020
6579 Clouds 7 1014 45 10000 4.6 160 12:22 20.10.2020
6580 Clouds 8 1014 45 10000 4.6 160 11:45 20.10.2020
6581 Clear 6 1013 32 10000 1.7 220 11:27 20.10.2020
6582 Clouds 7 1014 64 10000 3.6 120 10:39 20.10.2020
6583 Clouds 7 1014 65 10000 2.6 50 10:19 20.10.2020
6584 Clouds 7 1014 65 10000 2.6 50 10:19 20.10.2020
6585 Clouds 7 1014 65 10000 2.6 50 09:42 20.10.2020
6586 Clouds 7 1014 30 10000 1.5 30 09:18 20.10.2020
6587 Clouds 7 1014 30 10000 1.5 30 08:39 20.10.2020
6588 Clouds 8 1015 29 10000 5.1 180 07:53 20.10.2020
6589 Clouds 8 1015 28 10000 5.1 180 07:26 20.10.2020
6590 Clouds 9 1015 61 10000 1.77 208 06:32 20.10.2020
6591 Clouds 9 1015 57 10000 1.5 220 05:51 20.10.2020
6592 Clouds 10 1015 26 10000 0.85 9 03:58 20.10.2020
6593 Clouds 13 1024 46 10000 1.09 148 02:25 20.10.2020
6594 Clouds 15 1015 36 10000 2.6 10 00:59 20.10.2020
6595 Clouds 15 1014 36 10000 3.6 300 00:41 20.10.2020
6596 Clouds 16 1015 36 10000 4.1 350 00:21 20.10.2020
6597 Clouds 16 1014 28 10000 6.2 330 23:47 19.10.2020
6598 Clouds 16 1014 28 10000 6.2 330 23:23 19.10.2020
6599 Clouds 21 1015 21 10000 3.1 50 22:44 19.10.2020
6600 Clouds 21 1015 24 10000 2.17 353 22:22 19.10.2020
6601 Clouds 21 1013 32 10000 2.17 353 21:45 19.10.2020
6602 Clouds 21 1015 24 10000 1.24 3 21:22 19.10.2020
6603 Clouds 21 1016 25 10000 3.1 350 20:48 19.10.2020
6604 Clouds 19 1016 25 10000 3.1 350 20:29 19.10.2020
6605 Clouds 19 1016 27 10000 2.1 220 19:51 19.10.2020
6606 Clouds 18 1016 27 10000 2.1 220 19:24 19.10.2020
6607 Clouds 18 1016 27 10000 2.1 220 19:24 19.10.2020
6608 Clouds 16 1016 26 10000 4.1 150 18:55 19.10.2020
6609 Clouds 15 1016 26 10000 4.1 150 18:37 19.10.2020
6610 Clouds 15 1016 26 10000 4.1 150 18:18 19.10.2020
6611 Clouds 13 1016 33 10000 3.1 180 17:44 19.10.2020
6612 Clouds 12 1016 33 10000 3.1 180 17:23 19.10.2020
6613 Clouds 8 1015 49 10000 4.6 130 16:43 19.10.2020
6614 Clouds 7 1014 74 10000 6.2 170 16:25 19.10.2020
6615 Clouds 8 1018 55 10000 2.22 192 15:43 19.10.2020
6616 Clouds 7 1018 58 10000 2.66 192 15:24 19.10.2020
6617 Clouds 6 1019 55 10000 0.89 145 14:51 19.10.2020
6618 Clear 6 1010 52 10000 0.45 124 14:26 19.10.2020
6619 Clear 6 1016 48 10000 3.22 192 13:52 19.10.2020
6620 Clear 7 1038 39 10000 2.03 191 13:33 19.10.2020
6621 Clear 7 1038 39 10000 2.03 191 13:33 19.10.2020
6622 Clear 6 1022 39 10000 0.89 197 12:52 19.10.2020
6623 Clear 6 1016 44 10000 2.41 205 12:34 19.10.2020
6624 Clear 2 1015 49 10000 0.28 157 11:51 19.10.2020
6625 Clear 0 1015 49 10000 0.38 336 11:26 19.10.2020
6626 Clouds 0 1015 86 10000 2.1 120 10:59 19.10.2020
6627 Clouds 0 1015 86 10000 2.1 120 10:39 19.10.2020
6628 Clear 0 1015 49 10000 0.47 197 10:20 19.10.2020
6629 Clouds 1 1016 92 10000 0.47 197 09:43 19.10.2020
6630 Clear 1 1016 50 10000 0.59 115 09:19 19.10.2020
6631 Clear 1 1016 50 10000 2.1 10 08:48 19.10.2020
6632 Clouds 1 1015 92 10000 3.1 110 08:23 19.10.2020
6633 Clouds 1 1016 47 10000 2.1 140 07:43 19.10.2020
6634 Clear 1 1016 46 10000 2.6 50 07:19 19.10.2020
6635 Clouds 2 1017 86 10000 3.6 210 06:19 19.10.2020
6636 Clouds 5 1017 44 10000 3.6 320 03:49 19.10.2020
6637 Clouds 8 1016 40 10000 2.21 37 02:28 19.10.2020
6638 Clouds 10 1016 33 10000 4.6 30 00:50 19.10.2020
6639 Clouds 10 1016 34 10000 4.6 30 00:24 19.10.2020
6640 Clouds 9 1017 53 10000 2.1 80 23:47 18.10.2020
6641 Clouds 9 1017 53 10000 2.1 80 23:24 18.10.2020
6642 Clouds 7 1017 57 10000 1.8 65 22:51 18.10.2020
6643 Clouds 7 1017 57 10000 1.19 1 22:22 18.10.2020
6644 Clouds 6 1018 61 10000 2.6 0 21:54 18.10.2020
6645 Clouds 5 1019 43 10000 2.1 160 21:32 18.10.2020
6646 Clouds 4 1020 80 10000 2.6 130 20:59 18.10.2020
6647 Clouds 4 1020 80 10000 2.6 130 20:39 18.10.2020
6648 Clouds 3 1021 50 10000 3.6 140 20:19 18.10.2020
6649 Clouds 3 1021 50 10000 3.6 140 20:19 18.10.2020
6650 Clouds 2 1021 49 10000 5.1 120 19:43 18.10.2020
6651 Clouds 2 1021 56 10000 5.1 120 19:22 18.10.2020
6652 Clouds 1 1021 56 10000 4.1 130 18:48 18.10.2020
6653 Mist 3 1021 65 8047 4.6 110 18:26 18.10.2020
6654 Clouds 2 1022 65 10000 5.1 110 17:43 18.10.2020
6655 Clouds 2 1018 80 10000 1.73 79 17:25 18.10.2020
6656 Clouds 3 1021 74 10000 5.1 100 16:45 18.10.2020
6657 Clouds 3 1021 80 10000 5.1 100 16:26 18.10.2020
6658 Clouds 3 1020 80 10000 4.6 90 15:57 18.10.2020
6659 Clouds 3 1020 80 10000 4.6 90 15:39 18.10.2020
6660 Clouds 4 1014 76 10000 2.44 52 15:19 18.10.2020
6661 Clouds 4 1019 86 10000 4.6 110 14:52 18.10.2020
6662 Clouds 4 1019 86 10000 4.6 110 14:28 18.10.2020
6663 Clouds 4 1019 86 10000 5.1 110 13:56 18.10.2020